Cedar Creek (Missouri), Pleasant View (06919500)

StateMissouriLatestPoor (77 cfs)
RiverCedar CreekRatingObservedEstimated
Updated2026-05-10 17:30 (1 hour ago)Flood - The river is flooding. Obstacles can be treacherous or deadly. The river should be avoided at this stage for casual trips and definitely for the inexperienced. Trips should be attempted only with protective gear and equipment.Flood(none)1844
Discharge77 cfs (median: 185 cfs)High - The river is high and potentially dangerous, especially for the young and / or inexperienced. Normal stream obstacles are sometimes difficult to navigate. Extended distances can be attempted, but canoe travel may not be advisable.High(none)478
Height3.69 feetGood - Conditions are ideal for a canoe or kayak. Boats typically will drag on fewer than one-quarter of riffles, if at all, and portages are unnecessary or rare. Normal float lengths can be attempted without a problem.Good(none)165
TrendSteady (falling over 24 hours)Low - River is low but can still be floated. Some riffles are okay but most come with significant dragging and might need a portage. Float lengths should be reduced to accommodate low flow, dragging, and portages.Low(none)88
USGSExternal icon USGS Site (External icon Duck Duck Go Maps)Poor - River is too low to float comfortably. Most or all riffles will drag or must be portaged and some obstacles (such as slick shelf rock) cause undue problems. Avoid the river at this stage for casual paddling trips.Poor(none)6

Trending Data

Plot Image

Trips for Cedar Creek (Missouri), Pleasant View (06919500)

DateStartEndDistanceConditionDischargeHeightFishingDetails

A total of 0 rows are displayed.

Condition Descriptions

Fishing Conditions

Fish Species

Notes

Classic Trip List

The classic River Trips application is still available for use. It is updated with the new system using a data retrofit. It is no longer maintained. The original River Trips application is no longer updated (as of 1 Dec 2016) but can be checked for errors or for the condition of the data before it was converted to the new system.

Gauge Data Table

ObservationHeightDischargeMaximum
Discharge
Minimum
Discharge
Mean
Discharge
P05P10P20P25P50
(Median)
P75P80P90P95
2026-05-10 17:30 3.69 77 8400 (2002) 9 (1981) 678 25 40 53 58 185 461 675 1760 4640
2026-05-10 16:30 3.69 77 8400 (2002) 9 (1981) 678 25 40 53 58 185 461 675 1760 4640
2026-05-10 15:30 3.70 78 8400 (2002) 9 (1981) 678 25 40 53 58 185 461 675 1760 4640
2026-05-10 14:30 3.70 78 8400 (2002) 9 (1981) 678 25 40 53 58 185 461 675 1760 4640
2026-05-10 13:30 3.71 79 8400 (2002) 9 (1981) 678 25 40 53 58 185 461 675 1760 4640
2026-05-10 12:30 3.71 79 8400 (2002) 9 (1981) 678 25 40 53 58 185 461 675 1760 4640
2026-05-10 11:30 3.72 80 8400 (2002) 9 (1981) 678 25 40 53 58 185 461 675 1760 4640
2026-05-10 10:30 3.72 80 8400 (2002) 9 (1981) 678 25 40 53 58 185 461 675 1760 4640
2026-05-10 09:30 3.73 81 8400 (2002) 9 (1981) 678 25 40 53 58 185 461 675 1760 4640
2026-05-10 08:30 3.74 83 8400 (2002) 9 (1981) 678 25 40 53 58 185 461 675 1760 4640
2026-05-10 07:30 3.74 83 8400 (2002) 9 (1981) 678 25 40 53 58 185 461 675 1760 4640
2026-05-10 06:30 3.75 84 8400 (2002) 9 (1981) 678 25 40 53 58 185 461 675 1760 4640
2026-05-10 05:30 3.75 84 8400 (2002) 9 (1981) 678 25 40 53 58 185 461 675 1760 4640
2026-05-10 04:30 3.76 85 8400 (2002) 9 (1981) 678 25 40 53 58 185 461 675 1760 4640
2026-05-10 03:30 3.77 87 8400 (2002) 9 (1981) 678 25 40 53 58 185 461 675 1760 4640
2026-05-10 02:30 3.77 87 8400 (2002) 9 (1981) 678 25 40 53 58 185 461 675 1760 4640
2026-05-10 01:30 3.78 88 8400 (2002) 9 (1981) 678 25 40 53 58 185 461 675 1760 4640
2026-05-10 00:30 3.79 89 8400 (2002) 9 (1981) 678 25 40 53 58 185 461 675 1760 4640
2026-05-09 23:30 3.80 90 8400 (2002) 9 (1981) 678 25 40 53 58 185 461 675 1760 4640
2026-05-09 22:30 3.80 90 12800 (2009) 7 (1981) 988 26 40 54 58 183 529 798 2700 8740
2026-05-09 21:30 3.81 92 12800 (2009) 7 (1981) 988 26 40 54 58 183 529 798 2700 8740
2026-05-09 20:30 3.82 93 12800 (2009) 7 (1981) 988 26 40 54 58 183 529 798 2700 8740
2026-05-09 19:30 3.83 95 12800 (2009) 7 (1981) 988 26 40 54 58 183 529 798 2700 8740
2026-05-09 18:30 3.84 96 12800 (2009) 7 (1981) 988 26 40 54 58 183 529 798 2700 8740
2026-05-09 17:30 3.86 99 12800 (2009) 7 (1981) 988 26 40 54 58 183 529 798 2700 8740
2026-05-09 16:30 3.87 100 12800 (2009) 7 (1981) 988 26 40 54 58 183 529 798 2700 8740
2026-05-09 15:30 3.88 102 12800 (2009) 7 (1981) 988 26 40 54 58 183 529 798 2700 8740
2026-05-09 14:30 3.90 104 12800 (2009) 7 (1981) 988 26 40 54 58 183 529 798 2700 8740
2026-05-09 13:30 3.91 106 12800 (2009) 7 (1981) 988 26 40 54 58 183 529 798 2700 8740
2026-05-09 12:30 3.93 109 12800 (2009) 7 (1981) 988 26 40 54 58 183 529 798 2700 8740
2026-05-09 11:30 3.95 112 12800 (2009) 7 (1981) 988 26 40 54 58 183 529 798 2700 8740
2026-05-09 10:30 3.97 115 12800 (2009) 7 (1981) 988 26 40 54 58 183 529 798 2700 8740
2026-05-09 09:30 3.98 117 12800 (2009) 7 (1981) 988 26 40 54 58 183 529 798 2700 8740
2026-05-09 08:30 3.99 118 12800 (2009) 7 (1981) 988 26 40 54 58 183 529 798 2700 8740
2026-05-09 07:30 4.00 120 12800 (2009) 7 (1981) 988 26 40 54 58 183 529 798 2700 8740
2026-05-09 06:30 3.99 118 12800 (2009) 7 (1981) 988 26 40 54 58 183 529 798 2700 8740
2026-05-09 05:30 3.97 115 12800 (2009) 7 (1981) 988 26 40 54 58 183 529 798 2700 8740
2026-05-09 04:30 3.94 110 12800 (2009) 7 (1981) 988 26 40 54 58 183 529 798 2700 8740
2026-05-09 03:30 3.91 106 12800 (2009) 7 (1981) 988 26 40 54 58 183 529 798 2700 8740
2026-05-09 02:30 3.90 104 12800 (2009) 7 (1981) 988 26 40 54 58 183 529 798 2700 8740
2026-05-09 01:30 3.89 103 12800 (2009) 7 (1981) 988 26 40 54 58 183 529 798 2700 8740
2026-05-09 00:30 3.87 100 12800 (2009) 7 (1981) 988 26 40 54 58 183 529 798 2700 8740
2026-05-08 23:30 3.84 96 12800 (2009) 7 (1981) 988 26 40 54 58 183 529 798 2700 8740
2026-05-08 22:30 3.83 95 9290 (1961) 3 (1956) 1050 17 31 51 59 164 601 825 5070 7020
2026-05-08 21:30 3.82 93 9290 (1961) 3 (1956) 1050 17 31 51 59 164 601 825 5070 7020
2026-05-08 20:30 3.81 92 9290 (1961) 3 (1956) 1050 17 31 51 59 164 601 825 5070 7020
2026-05-08 19:30 3.77 87 9290 (1961) 3 (1956) 1050 17 31 51 59 164 601 825 5070 7020
2026-05-08 18:30 3.77 87 9290 (1961) 3 (1956) 1050 17 31 51 59 164 601 825 5070 7020
2026-05-08 17:30 3.77 87 9290 (1961) 3 (1956) 1050 17 31 51 59 164 601 825 5070 7020
2026-05-08 16:30 3.77 87 9290 (1961) 3 (1956) 1050 17 31 51 59 164 601 825 5070 7020
2026-05-08 15:30 3.77 87 9290 (1961) 3 (1956) 1050 17 31 51 59 164 601 825 5070 7020
2026-05-08 14:30 3.78 88 9290 (1961) 3 (1956) 1050 17 31 51 59 164 601 825 5070 7020
2026-05-08 13:30 3.78 88 9290 (1961) 3 (1956) 1050 17 31 51 59 164 601 825 5070 7020
2026-05-08 12:30 3.78 88 9290 (1961) 3 (1956) 1050 17 31 51 59 164 601 825 5070 7020
2026-05-08 11:30 3.78 88 9290 (1961) 3 (1956) 1050 17 31 51 59 164 601 825 5070 7020
2026-05-08 10:30 3.79 89 9290 (1961) 3 (1956) 1050 17 31 51 59 164 601 825 5070 7020
2026-05-08 09:30 3.79 89 9290 (1961) 3 (1956) 1050 17 31 51 59 164 601 825 5070 7020
2026-05-08 08:30 3.79 89 9290 (1961) 3 (1956) 1050 17 31 51 59 164 601 825 5070 7020
2026-05-08 07:30 3.79 89 9290 (1961) 3 (1956) 1050 17 31 51 59 164 601 825 5070 7020
2026-05-08 06:30 3.80 90 9290 (1961) 3 (1956) 1050 17 31 51 59 164 601 825 5070 7020
2026-05-08 05:30 3.80 90 9290 (1961) 3 (1956) 1050 17 31 51 59 164 601 825 5070 7020
2026-05-08 04:30 3.80 90 9290 (1961) 3 (1956) 1050 17 31 51 59 164 601 825 5070 7020
2026-05-08 03:30 3.80 90 9290 (1961) 3 (1956) 1050 17 31 51 59 164 601 825 5070 7020
2026-05-08 02:30 3.81 92 9290 (1961) 3 (1956) 1050 17 31 51 59 164 601 825 5070 7020
2026-05-08 01:30 3.81 92 9290 (1961) 3 (1956) 1050 17 31 51 59 164 601 825 5070 7020
2026-05-08 00:30 3.81 92 9290 (1961) 3 (1956) 1050 17 31 51 59 164 601 825 5070 7020
2026-05-07 23:30 3.82 93 9290 (1961) 3 (1956) 1050 17 31 51 59 164 601 825 5070 7020
2026-05-07 22:30 3.82 93 11600 (1961) 3 (1956) 933 19 34 56 61 174 549 803 2580 6640
2026-05-07 21:30 3.82 93 11600 (1961) 3 (1956) 933 19 34 56 61 174 549 803 2580 6640
2026-05-07 20:30 3.82 93 11600 (1961) 3 (1956) 933 19 34 56 61 174 549 803 2580 6640
2026-05-07 19:30 3.83 95 11600 (1961) 3 (1956) 933 19 34 56 61 174 549 803 2580 6640
2026-05-07 18:30 3.84 96 11600 (1961) 3 (1956) 933 19 34 56 61 174 549 803 2580 6640
2026-05-07 17:30 3.84 96 11600 (1961) 3 (1956) 933 19 34 56 61 174 549 803 2580 6640
2026-05-07 16:30 3.84 96 11600 (1961) 3 (1956) 933 19 34 56 61 174 549 803 2580 6640
2026-05-07 15:30 3.84 96 11600 (1961) 3 (1956) 933 19 34 56 61 174 549 803 2580 6640
2026-05-07 14:30 3.85 97 11600 (1961) 3 (1956) 933 19 34 56 61 174 549 803 2580 6640
2026-05-07 13:30 3.85 97 11600 (1961) 3 (1956) 933 19 34 56 61 174 549 803 2580 6640
2026-05-07 12:30 3.86 99 11600 (1961) 3 (1956) 933 19 34 56 61 174 549 803 2580 6640
2026-05-07 11:30 3.86 99 11600 (1961) 3 (1956) 933 19 34 56 61 174 549 803 2580 6640
2026-05-07 10:30 3.86 99 11600 (1961) 3 (1956) 933 19 34 56 61 174 549 803 2580 6640
2026-05-07 09:30 3.87 100 11600 (1961) 3 (1956) 933 19 34 56 61 174 549 803 2580 6640
2026-05-07 08:30 3.88 102 11600 (1961) 3 (1956) 933 19 34 56 61 174 549 803 2580 6640
2026-05-07 07:30 3.88 102 11600 (1961) 3 (1956) 933 19 34 56 61 174 549 803 2580 6640
2026-05-07 06:30 3.88 102 11600 (1961) 3 (1956) 933 19 34 56 61 174 549 803 2580 6640
2026-05-07 05:30 3.88 102 11600 (1961) 3 (1956) 933 19 34 56 61 174 549 803 2580 6640
2026-05-07 04:30 3.88 102 11600 (1961) 3 (1956) 933 19 34 56 61 174 549 803 2580 6640
2026-05-07 03:30 3.89 103 11600 (1961) 3 (1956) 933 19 34 56 61 174 549 803 2580 6640
2026-05-07 02:30 3.89 103 11600 (1961) 3 (1956) 933 19 34 56 61 174 549 803 2580 6640
2026-05-07 01:30 3.90 104 11600 (1961) 3 (1956) 933 19 34 56 61 174 549 803 2580 6640
2026-05-07 00:30 3.90 104 11600 (1961) 3 (1956) 933 19 34 56 61 174 549 803 2580 6640
2026-05-06 23:30 3.90 104 11600 (1961) 3 (1956) 933 19 34 56 61 174 549 803 2580 6640
2026-05-06 22:30 3.91 106 21200 (1961) 4 (1956) 863 20 39 62 69 155 560 722 1290 5010
2026-05-06 21:30 3.91 106 21200 (1961) 4 (1956) 863 20 39 62 69 155 560 722 1290 5010
2026-05-06 20:30 3.91 106 21200 (1961) 4 (1956) 863 20 39 62 69 155 560 722 1290 5010
2026-05-06 19:30 3.91 106 21200 (1961) 4 (1956) 863 20 39 62 69 155 560 722 1290 5010
2026-05-06 18:30 3.92 107 21200 (1961) 4 (1956) 863 20 39 62 69 155 560 722 1290 5010
2026-05-06 17:30 3.93 109 21200 (1961) 4 (1956) 863 20 39 62 69 155 560 722 1290 5010
2026-05-06 16:30 3.93 109 21200 (1961) 4 (1956) 863 20 39 62 69 155 560 722 1290 5010
2026-05-06 15:30 3.93 109 21200 (1961) 4 (1956) 863 20 39 62 69 155 560 722 1290 5010
2026-05-06 14:30 3.93 109 21200 (1961) 4 (1956) 863 20 39 62 69 155 560 722 1290 5010
2026-05-06 13:30 3.93 109 21200 (1961) 4 (1956) 863 20 39 62 69 155 560 722 1290 5010
2026-05-06 12:30 3.94 110 21200 (1961) 4 (1956) 863 20 39 62 69 155 560 722 1290 5010
2026-05-06 11:30 3.95 112 21200 (1961) 4 (1956) 863 20 39 62 69 155 560 722 1290 5010
2026-05-06 10:30 3.95 112 21200 (1961) 4 (1956) 863 20 39 62 69 155 560 722 1290 5010
2026-05-06 09:30 3.95 112 21200 (1961) 4 (1956) 863 20 39 62 69 155 560 722 1290 5010
2026-05-06 08:30 3.95 112 21200 (1961) 4 (1956) 863 20 39 62 69 155 560 722 1290 5010
2026-05-06 07:30 3.95 112 21200 (1961) 4 (1956) 863 20 39 62 69 155 560 722 1290 5010
2026-05-06 06:30 3.96 113 21200 (1961) 4 (1956) 863 20 39 62 69 155 560 722 1290 5010
2026-05-06 05:30 3.96 113 21200 (1961) 4 (1956) 863 20 39 62 69 155 560 722 1290 5010
2026-05-06 04:30 3.96 113 21200 (1961) 4 (1956) 863 20 39 62 69 155 560 722 1290 5010
2026-05-06 03:30 3.97 115 21200 (1961) 4 (1956) 863 20 39 62 69 155 560 722 1290 5010
2026-05-06 02:30 3.97 115 21200 (1961) 4 (1956) 863 20 39 62 69 155 560 722 1290 5010
2026-05-06 01:30 3.97 115 21200 (1961) 4 (1956) 863 20 39 62 69 155 560 722 1290 5010
2026-05-06 00:30 3.97 115 21200 (1961) 4 (1956) 863 20 39 62 69 155 560 722 1290 5010
2026-05-05 23:30 3.97 115 21200 (1961) 4 (1956) 863 20 39 62 69 155 560 722 1290 5010
2026-05-05 22:30 3.98 117 9090 (1999) 3 (1956) 680 22 40 68 72 160 461 640 1670 4340
2026-05-05 21:30 3.97 115 9090 (1999) 3 (1956) 680 22 40 68 72 160 461 640 1670 4340
2026-05-05 20:30 3.96 113 9090 (1999) 3 (1956) 680 22 40 68 72 160 461 640 1670 4340
2026-05-05 19:30 3.97 115 9090 (1999) 3 (1956) 680 22 40 68 72 160 461 640 1670 4340
2026-05-05 18:30 3.97 115 9090 (1999) 3 (1956) 680 22 40 68 72 160 461 640 1670 4340
2026-05-05 17:30 3.97 115 9090 (1999) 3 (1956) 680 22 40 68 72 160 461 640 1670 4340
2026-05-05 16:30 3.98 117 9090 (1999) 3 (1956) 680 22 40 68 72 160 461 640 1670 4340
2026-05-05 15:30 3.98 117 9090 (1999) 3 (1956) 680 22 40 68 72 160 461 640 1670 4340
2026-05-05 14:30 3.99 118 9090 (1999) 3 (1956) 680 22 40 68 72 160 461 640 1670 4340
2026-05-05 13:30 3.99 118 9090 (1999) 3 (1956) 680 22 40 68 72 160 461 640 1670 4340
2026-05-05 12:30 4.00 120 9090 (1999) 3 (1956) 680 22 40 68 72 160 461 640 1670 4340
2026-05-05 11:30 4.00 120 9090 (1999) 3 (1956) 680 22 40 68 72 160 461 640 1670 4340
2026-05-05 10:30 4.01 121 9090 (1999) 3 (1956) 680 22 40 68 72 160 461 640 1670 4340
2026-05-05 09:30 4.01 121 9090 (1999) 3 (1956) 680 22 40 68 72 160 461 640 1670 4340
2026-05-05 08:30 4.02 123 9090 (1999) 3 (1956) 680 22 40 68 72 160 461 640 1670 4340
2026-05-05 07:30 4.02 123 9090 (1999) 3 (1956) 680 22 40 68 72 160 461 640 1670 4340
2026-05-05 06:30 4.03 125 9090 (1999) 3 (1956) 680 22 40 68 72 160 461 640 1670 4340
2026-05-05 05:30 4.03 125 9090 (1999) 3 (1956) 680 22 40 68 72 160 461 640 1670 4340
2026-05-05 04:30 4.04 126 9090 (1999) 3 (1956) 680 22 40 68 72 160 461 640 1670 4340
2026-05-05 03:30 4.05 128 9090 (1999) 3 (1956) 680 22 40 68 72 160 461 640 1670 4340
2026-05-05 02:30 4.04 126 9090 (1999) 3 (1956) 680 22 40 68 72 160 461 640 1670 4340
2026-05-05 01:30 4.05 128 9090 (1999) 3 (1956) 680 22 40 68 72 160 461 640 1670 4340
2026-05-05 00:30 4.05 128 9090 (1999) 3 (1956) 680 22 40 68 72 160 461 640 1670 4340
2026-05-04 23:30 4.06 129 9090 (1999) 3 (1956) 680 22 40 68 72 160 461 640 1670 4340
2026-05-04 22:30 4.07 130 9240 (2017) 3 (1956) 572 19 32 72 76 170 492 622 1350 3110
2026-05-04 21:30 4.07 130 9240 (2017) 3 (1956) 572 19 32 72 76 170 492 622 1350 3110
2026-05-04 20:30 4.08 132 9240 (2017) 3 (1956) 572 19 32 72 76 170 492 622 1350 3110
2026-05-04 19:30 4.08 132 9240 (2017) 3 (1956) 572 19 32 72 76 170 492 622 1350 3110
2026-05-04 18:30 4.09 133 9240 (2017) 3 (1956) 572 19 32 72 76 170 492 622 1350 3110
2026-05-04 17:30 4.09 133 9240 (2017) 3 (1956) 572 19 32 72 76 170 492 622 1350 3110
2026-05-04 16:30 4.10 134 9240 (2017) 3 (1956) 572 19 32 72 76 170 492 622 1350 3110
2026-05-04 15:30 4.11 136 9240 (2017) 3 (1956) 572 19 32 72 76 170 492 622 1350 3110
2026-05-04 14:30 4.11 136 9240 (2017) 3 (1956) 572 19 32 72 76 170 492 622 1350 3110
2026-05-04 13:30 4.11 136 9240 (2017) 3 (1956) 572 19 32 72 76 170 492 622 1350 3110
2026-05-04 12:30 4.12 137 9240 (2017) 3 (1956) 572 19 32 72 76 170 492 622 1350 3110
2026-05-04 11:30 4.12 137 9240 (2017) 3 (1956) 572 19 32 72 76 170 492 622 1350 3110
2026-05-04 10:30 4.13 139 9240 (2017) 3 (1956) 572 19 32 72 76 170 492 622 1350 3110
2026-05-04 09:30 4.13 139 9240 (2017) 3 (1956) 572 19 32 72 76 170 492 622 1350 3110
2026-05-04 08:30 4.13 139 9240 (2017) 3 (1956) 572 19 32 72 76 170 492 622 1350 3110
2026-05-04 07:30 4.14 140 9240 (2017) 3 (1956) 572 19 32 72 76 170 492 622 1350 3110
2026-05-04 06:30 4.14 140 9240 (2017) 3 (1956) 572 19 32 72 76 170 492 622 1350 3110
2026-05-04 05:30 4.14 140 9240 (2017) 3 (1956) 572 19 32 72 76 170 492 622 1350 3110
2026-05-04 04:30 4.14 140 9240 (2017) 3 (1956) 572 19 32 72 76 170 492 622 1350 3110
2026-05-04 03:30 4.15 141 9240 (2017) 3 (1956) 572 19 32 72 76 170 492 622 1350 3110
2026-05-04 02:30 4.16 143 9240 (2017) 3 (1956) 572 19 32 72 76 170 492 622 1350 3110
2026-05-04 01:30 4.16 143 9240 (2017) 3 (1956) 572 19 32 72 76 170 492 622 1350 3110
2026-05-04 00:30 4.16 143 9240 (2017) 3 (1956) 572 19 32 72 76 170 492 622 1350 3110
2026-05-03 23:30 4.17 144 9240 (2017) 3 (1956) 572 19 32 72 76 170 492 622 1350 3110
2026-05-03 22:30 4.17 144 5510 (2019) 4 (1956) 618 19 33 68 79 200 557 778 2050 3670
2026-05-03 21:30 4.18 146 5510 (2019) 4 (1956) 618 19 33 68 79 200 557 778 2050 3670
2026-05-03 20:30 4.18 146 5510 (2019) 4 (1956) 618 19 33 68 79 200 557 778 2050 3670
2026-05-03 19:30 4.19 147 5510 (2019) 4 (1956) 618 19 33 68 79 200 557 778 2050 3670
2026-05-03 18:30 4.19 147 5510 (2019) 4 (1956) 618 19 33 68 79 200 557 778 2050 3670
2026-05-03 17:30 4.20 149 5510 (2019) 4 (1956) 618 19 33 68 79 200 557 778 2050 3670
2026-05-03 16:30 4.20 149 5510 (2019) 4 (1956) 618 19 33 68 79 200 557 778 2050 3670
2026-05-03 15:30 4.21 150 5510 (2019) 4 (1956) 618 19 33 68 79 200 557 778 2050 3670
2026-05-03 14:30 4.22 152 5510 (2019) 4 (1956) 618 19 33 68 79 200 557 778 2050 3670
2026-05-03 13:30 4.22 152 5510 (2019) 4 (1956) 618 19 33 68 79 200 557 778 2050 3670
2026-05-03 12:30 4.23 153 5510 (2019) 4 (1956) 618 19 33 68 79 200 557 778 2050 3670
2026-05-03 11:30 4.23 153 5510 (2019) 4 (1956) 618 19 33 68 79 200 557 778 2050 3670
2026-05-03 10:30 4.24 154 5510 (2019) 4 (1956) 618 19 33 68 79 200 557 778 2050 3670
2026-05-03 09:30 4.24 154 5510 (2019) 4 (1956) 618 19 33 68 79 200 557 778 2050 3670
2026-05-03 08:30 4.25 156 5510 (2019) 4 (1956) 618 19 33 68 79 200 557 778 2050 3670
2026-05-03 07:30 4.26 158 5510 (2019) 4 (1956) 618 19 33 68 79 200 557 778 2050 3670
2026-05-03 06:30 4.26 158 5510 (2019) 4 (1956) 618 19 33 68 79 200 557 778 2050 3670
2026-05-03 05:30 4.27 159 5510 (2019) 4 (1956) 618 19 33 68 79 200 557 778 2050 3670
2026-05-03 04:30 4.28 161 5510 (2019) 4 (1956) 618 19 33 68 79 200 557 778 2050 3670
2026-05-03 03:30 4.28 161 5510 (2019) 4 (1956) 618 19 33 68 79 200 557 778 2050 3670
2026-05-03 02:30 4.29 162 5510 (2019) 4 (1956) 618 19 33 68 79 200 557 778 2050 3670
2026-05-03 01:30 4.30 164 5510 (2019) 4 (1956) 618 19 33 68 79 200 557 778 2050 3670
2026-05-03 00:30 4.31 165 5510 (2019) 4 (1956) 618 19 33 68 79 200 557 778 2050 3670
2026-05-02 23:30 4.31 165 5510 (2019) 4 (1956) 618 19 33 68 79 200 557 778 2050 3670
2026-05-02 22:30 4.32 167 9800 (2019) 4 (1956) 981 20 38 72 88 203 625 1060 1900 6970
2026-05-02 21:30 4.33 168 9800 (2019) 4 (1956) 981 20 38 72 88 203 625 1060 1900 6970
2026-05-02 20:30 4.34 170 9800 (2019) 4 (1956) 981 20 38 72 88 203 625 1060 1900 6970
2026-05-02 19:30 4.34 170 9800 (2019) 4 (1956) 981 20 38 72 88 203 625 1060 1900 6970
2026-05-02 18:30 4.35 171 9800 (2019) 4 (1956) 981 20 38 72 88 203 625 1060 1900 6970
2026-05-02 17:30 4.36 173 9800 (2019) 4 (1956) 981 20 38 72 88 203 625 1060 1900 6970
2026-05-02 16:30 4.37 175 9800 (2019) 4 (1956) 981 20 38 72 88 203 625 1060 1900 6970
2026-05-02 15:30 4.38 176 9800 (2019) 4 (1956) 981 20 38 72 88 203 625 1060 1900 6970
2026-05-02 14:30 4.38 176 9800 (2019) 4 (1956) 981 20 38 72 88 203 625 1060 1900 6970
2026-05-02 13:30 4.39 178 9800 (2019) 4 (1956) 981 20 38 72 88 203 625 1060 1900 6970
2026-05-02 12:30 4.41 181 9800 (2019) 4 (1956) 981 20 38 72 88 203 625 1060 1900 6970
2026-05-02 11:30 4.41 181 9800 (2019) 4 (1956) 981 20 38 72 88 203 625 1060 1900 6970
2026-05-02 10:30 4.43 184 9800 (2019) 4 (1956) 981 20 38 72 88 203 625 1060 1900 6970
2026-05-02 09:30 4.44 186 9800 (2019) 4 (1956) 981 20 38 72 88 203 625 1060 1900 6970
2026-05-02 08:30 4.45 188 9800 (2019) 4 (1956) 981 20 38 72 88 203 625 1060 1900 6970
2026-05-02 07:30 4.46 189 9800 (2019) 4 (1956) 981 20 38 72 88 203 625 1060 1900 6970
2026-05-02 06:30 4.47 191 9800 (2019) 4 (1956) 981 20 38 72 88 203 625 1060 1900 6970
2026-05-02 05:30 4.48 193 9800 (2019) 4 (1956) 981 20 38 72 88 203 625 1060 1900 6970
2026-05-02 04:30 4.49 194 9800 (2019) 4 (1956) 981 20 38 72 88 203 625 1060 1900 6970
2026-05-02 03:30 4.50 196 9800 (2019) 4 (1956) 981 20 38 72 88 203 625 1060 1900 6970
2026-05-02 02:30 4.51 198 9800 (2019) 4 (1956) 981 20 38 72 88 203 625 1060 1900 6970
2026-05-02 01:30 4.52 200 9800 (2019) 4 (1956) 981 20 38 72 88 203 625 1060 1900 6970
2026-05-02 00:30 4.53 201 9800 (2019) 4 (1956) 981 20 38 72 88 203 625 1060 1900 6970
2026-05-01 23:30 4.55 205 9800 (2019) 4 (1956) 981 20 38 72 88 203 625 1060 1900 6970
2026-05-01 22:30 4.56 206 14200 (1970) 4 (1956) 1260 20 35 83 95 231 613 700 4330 9280
2026-05-01 21:30 4.57 208 14200 (1970) 4 (1956) 1260 20 35 83 95 231 613 700 4330 9280
2026-05-01 20:30 4.58 210 14200 (1970) 4 (1956) 1260 20 35 83 95 231 613 700 4330 9280
2026-05-01 19:30 4.59 212 14200 (1970) 4 (1956) 1260 20 35 83 95 231 613 700 4330 9280
2026-05-01 18:30 4.61 215 14200 (1970) 4 (1956) 1260 20 35 83 95 231 613 700 4330 9280
2026-05-01 17:30 4.61 215 14200 (1970) 4 (1956) 1260 20 35 83 95 231 613 700 4330 9280
2026-05-01 16:30 4.62 217 14200 (1970) 4 (1956) 1260 20 35 83 95 231 613 700 4330 9280
2026-05-01 15:30 4.62 217 14200 (1970) 4 (1956) 1260 20 35 83 95 231 613 700 4330 9280
2026-05-01 14:30 4.63 219 14200 (1970) 4 (1956) 1260 20 35 83 95 231 613 700 4330 9280
2026-05-01 13:30 4.63 219 14200 (1970) 4 (1956) 1260 20 35 83 95 231 613 700 4330 9280
2026-05-01 12:30 4.62 217 14200 (1970) 4 (1956) 1260 20 35 83 95 231 613 700 4330 9280
2026-05-01 11:30 4.62 217 14200 (1970) 4 (1956) 1260 20 35 83 95 231 613 700 4330 9280
2026-05-01 10:30 4.62 217 14200 (1970) 4 (1956) 1260 20 35 83 95 231 613 700 4330 9280
2026-05-01 09:30 4.61 215 14200 (1970) 4 (1956) 1260 20 35 83 95 231 613 700 4330 9280
2026-05-01 08:30 4.61 215 14200 (1970) 4 (1956) 1260 20 35 83 95 231 613 700 4330 9280
2026-05-01 07:30 4.60 214 14200 (1970) 4 (1956) 1260 20 35 83 95 231 613 700 4330 9280
2026-05-01 06:30 4.60 214 14200 (1970) 4 (1956) 1260 20 35 83 95 231 613 700 4330 9280
2026-05-01 05:30 4.61 215 14200 (1970) 4 (1956) 1260 20 35 83 95 231 613 700 4330 9280
2026-05-01 04:30 4.61 215 14200 (1970) 4 (1956) 1260 20 35 83 95 231 613 700 4330 9280
2026-05-01 03:30 4.63 219 14200 (1970) 4 (1956) 1260 20 35 83 95 231 613 700 4330 9280
2026-05-01 02:30 4.64 221 14200 (1970) 4 (1956) 1260 20 35 83 95 231 613 700 4330 9280
2026-05-01 01:30 4.65 223 14200 (1970) 4 (1956) 1260 20 35 83 95 231 613 700 4330 9280
2026-05-01 00:30 4.66 224 14200 (1970) 4 (1956) 1260 20 35 83 95 231 613 700 4330 9280
2026-04-30 23:30 4.67 226 14200 (1970) 4 (1956) 1260 20 35 83 95 231 613 700 4330 9280
2026-04-30 22:30 4.69 230 16400 (2017) 1 (2006) 993 16 35 90 106 220 717 1120 2790 5310
2026-04-30 21:30 4.70 232 16400 (2017) 1 (2006) 993 16 35 90 106 220 717 1120 2790 5310
2026-04-30 20:30 4.71 234 16400 (2017) 1 (2006) 993 16 35 90 106 220 717 1120 2790 5310
2026-04-30 19:30 4.72 236 16400 (2017) 1 (2006) 993 16 35 90 106 220 717 1120 2790 5310
2026-04-30 18:30 4.73 237 16400 (2017) 1 (2006) 993 16 35 90 106 220 717 1120 2790 5310
2026-04-30 17:30 4.74 239 16400 (2017) 1 (2006) 993 16 35 90 106 220 717 1120 2790 5310
2026-04-30 16:30 4.75 241 16400 (2017) 1 (2006) 993 16 35 90 106 220 717 1120 2790 5310
2026-04-30 15:30 4.76 243 16400 (2017) 1 (2006) 993 16 35 90 106 220 717 1120 2790 5310
2026-04-30 14:30 4.77 245 16400 (2017) 1 (2006) 993 16 35 90 106 220 717 1120 2790 5310
2026-04-30 13:30 4.78 247 16400 (2017) 1 (2006) 993 16 35 90 106 220 717 1120 2790 5310
2026-04-30 12:30 4.79 249 16400 (2017) 1 (2006) 993 16 35 90 106 220 717 1120 2790 5310
2026-04-30 11:30 4.81 253 16400 (2017) 1 (2006) 993 16 35 90 106 220 717 1120 2790 5310
2026-04-30 10:30 4.83 257 16400 (2017) 1 (2006) 993 16 35 90 106 220 717 1120 2790 5310
2026-04-30 09:30 4.85 261 16400 (2017) 1 (2006) 993 16 35 90 106 220 717 1120 2790 5310
2026-04-30 08:30 4.87 265 16400 (2017) 1 (2006) 993 16 35 90 106 220 717 1120 2790 5310
2026-04-30 07:30 4.89 269 16400 (2017) 1 (2006) 993 16 35 90 106 220 717 1120 2790 5310
2026-04-30 06:30 4.91 273 16400 (2017) 1 (2006) 993 16 35 90 106 220 717 1120 2790 5310
2026-04-30 05:30 4.93 277 16400 (2017) 1 (2006) 993 16 35 90 106 220 717 1120 2790 5310
2026-04-30 04:30 4.95 281 16400 (2017) 1 (2006) 993 16 35 90 106 220 717 1120 2790 5310
2026-04-30 03:30 4.98 287 16400 (2017) 1 (2006) 993 16 35 90 106 220 717 1120 2790 5310
2026-04-30 02:30 5.01 294 16400 (2017) 1 (2006) 993 16 35 90 106 220 717 1120 2790 5310
2026-04-30 01:30 5.04 300 16400 (2017) 1 (2006) 993 16 35 90 106 220 717 1120 2790 5310
2026-04-30 00:30 5.07 307 16400 (2017) 1 (2006) 993 16 35 90 106 220 717 1120 2790 5310
2026-04-29 23:30 5.11 315 16400 (2017) 1 (2006) 993 16 35 90 106 220 717 1120 2790 5310
2026-04-29 22:30 5.14 322 5260 (2017) 1 (1954) 581 14 38 81 99 186 572 724 1860 2970
2026-04-29 21:30 5.18 331 5260 (2017) 1 (1954) 581 14 38 81 99 186 572 724 1860 2970
2026-04-29 20:30 5.22 340 5260 (2017) 1 (1954) 581 14 38 81 99 186 572 724 1860 2970
2026-04-29 19:30 5.26 350 5260 (2017) 1 (1954) 581 14 38 81 99 186 572 724 1860 2970
2026-04-29 18:30 5.30 359 5260 (2017) 1 (1954) 581 14 38 81 99 186 572 724 1860 2970
2026-04-29 17:30 5.34 369 5260 (2017) 1 (1954) 581 14 38 81 99 186 572 724 1860 2970
2026-04-29 16:30 5.37 376 5260 (2017) 1 (1954) 581 14 38 81 99 186 572 724 1860 2970
2026-04-29 15:30 5.40 383 5260 (2017) 1 (1954) 581 14 38 81 99 186 572 724 1860 2970
2026-04-29 14:30 5.42 388 5260 (2017) 1 (1954) 581 14 38 81 99 186 572 724 1860 2970
2026-04-29 13:30 5.43 391 5260 (2017) 1 (1954) 581 14 38 81 99 186 572 724 1860 2970
2026-04-29 12:30 5.43 391 5260 (2017) 1 (1954) 581 14 38 81 99 186 572 724 1860 2970
2026-04-29 11:30 5.42 388 5260 (2017) 1 (1954) 581 14 38 81 99 186 572 724 1860 2970
2026-04-29 10:30 5.40 383 5260 (2017) 1 (1954) 581 14 38 81 99 186 572 724 1860 2970
2026-04-29 09:30 5.38 378 5260 (2017) 1 (1954) 581 14 38 81 99 186 572 724 1860 2970
2026-04-29 08:30 5.33 366 5260 (2017) 1 (1954) 581 14 38 81 99 186 572 724 1860 2970
2026-04-29 07:30 5.28 354 5260 (2017) 1 (1954) 581 14 38 81 99 186 572 724 1860 2970
2026-04-29 06:30 5.23 343 5260 (2017) 1 (1954) 581 14 38 81 99 186 572 724 1860 2970
2026-04-29 05:30 5.19 333 5260 (2017) 1 (1954) 581 14 38 81 99 186 572 724 1860 2970
2026-04-29 04:30 5.17 329 5260 (2017) 1 (1954) 581 14 38 81 99 186 572 724 1860 2970
2026-04-29 03:30 5.15 324 5260 (2017) 1 (1954) 581 14 38 81 99 186 572 724 1860 2970
2026-04-29 02:30 5.13 320 5260 (2017) 1 (1954) 581 14 38 81 99 186 572 724 1860 2970
2026-04-29 01:30 5.10 313 5260 (2017) 1 (1954) 581 14 38 81 99 186 572 724 1860 2970
2026-04-29 00:30 5.07 307 5260 (2017) 1 (1954) 581 14 38 81 99 186 572 724 1860 2970
2026-04-28 23:30 5.02 296 5260 (2017) 1 (1954) 581 14 38 81 99 186 572 724 1860 2970
2026-04-28 22:30 4.97 285 6050 (1999) 0 (2006) 556 15 42 80 98 191 487 759 1320 2430
2026-04-28 21:30 4.95 281 6050 (1999) 0 (2006) 556 15 42 80 98 191 487 759 1320 2430
2026-04-28 20:30 4.93 277 6050 (1999) 0 (2006) 556 15 42 80 98 191 487 759 1320 2430
2026-04-28 19:30 4.91 273 6050 (1999) 0 (2006) 556 15 42 80 98 191 487 759 1320 2430
2026-04-28 18:30 4.88 267 6050 (1999) 0 (2006) 556 15 42 80 98 191 487 759 1320 2430
2026-04-28 17:30 4.86 263 6050 (1999) 0 (2006) 556 15 42 80 98 191 487 759 1320 2430
2026-04-28 16:30 4.83 257 6050 (1999) 0 (2006) 556 15 42 80 98 191 487 759 1320 2430
2026-04-28 15:30 4.82 255 6050 (1999) 0 (2006) 556 15 42 80 98 191 487 759 1320 2430
2026-04-28 14:30 4.81 253 6050 (1999) 0 (2006) 556 15 42 80 98 191 487 759 1320 2430
2026-04-28 13:30 4.80 251 6050 (1999) 0 (2006) 556 15 42 80 98 191 487 759 1320 2430
2026-04-28 12:30 4.79 249 6050 (1999) 0 (2006) 556 15 42 80 98 191 487 759 1320 2430
2026-04-28 11:30 4.80 251 6050 (1999) 0 (2006) 556 15 42 80 98 191 487 759 1320 2430
2026-04-28 10:30 4.82 255 6050 (1999) 0 (2006) 556 15 42 80 98 191 487 759 1320 2430
2026-04-28 09:30 4.84 259 6050 (1999) 0 (2006) 556 15 42 80 98 191 487 759 1320 2430
2026-04-28 08:30 4.86 263 6050 (1999) 0 (2006) 556 15 42 80 98 191 487 759 1320 2430
2026-04-28 07:30 4.88 267 6050 (1999) 0 (2006) 556 15 42 80 98 191 487 759 1320 2430
2026-04-28 06:30 4.90 271 6050 (1999) 0 (2006) 556 15 42 80 98 191 487 759 1320 2430
2026-04-28 05:30 4.91 273 6050 (1999) 0 (2006) 556 15 42 80 98 191 487 759 1320 2430
2026-04-28 04:30 4.91 273 6050 (1999) 0 (2006) 556 15 42 80 98 191 487 759 1320 2430
2026-04-28 03:30 4.91 273 6050 (1999) 0 (2006) 556 15 42 80 98 191 487 759 1320 2430
2026-04-28 02:30 4.90 271 6050 (1999) 0 (2006) 556 15 42 80 98 191 487 759 1320 2430
2026-04-28 01:30 4.89 269 6050 (1999) 0 (2006) 556 15 42 80 98 191 487 759 1320 2430
2026-04-28 00:30 4.87 265 6050 (1999) 0 (2006) 556 15 42 80 98 191 487 759 1320 2430
2026-04-27 23:30 4.86 263 6050 (1999) 0 (2006) 556 15 42 80 98 191 487 759 1320 2430
2026-04-27 22:30 4.87 265 5610 (1999) 0 (2006) 555 18 47 85 94 193 494 601 1010 3780
2026-04-27 21:30 4.88 267 5610 (1999) 0 (2006) 555 18 47 85 94 193 494 601 1010 3780
2026-04-27 20:30 4.89 269 5610 (1999) 0 (2006) 555 18 47 85 94 193 494 601 1010 3780
2026-04-27 19:30 4.91 273 5610 (1999) 0 (2006) 555 18 47 85 94 193 494 601 1010 3780
2026-04-27 18:30 4.93 277 5610 (1999) 0 (2006) 555 18 47 85 94 193 494 601 1010 3780
2026-04-27 17:30 4.95 281 5610 (1999) 0 (2006) 555 18 47 85 94 193 494 601 1010 3780
2026-04-27 16:30 4.96 283 5610 (1999) 0 (2006) 555 18 47 85 94 193 494 601 1010 3780
2026-04-27 15:30 4.98 287 5610 (1999) 0 (2006) 555 18 47 85 94 193 494 601 1010 3780
2026-04-27 14:30 4.99 290 5610 (1999) 0 (2006) 555 18 47 85 94 193 494 601 1010 3780
2026-04-27 13:30 5.01 294 5610 (1999) 0 (2006) 555 18 47 85 94 193 494 601 1010 3780
2026-04-27 12:30 5.03 298 5610 (1999) 0 (2006) 555 18 47 85 94 193 494 601 1010 3780
2026-04-27 11:30 5.03 298 5610 (1999) 0 (2006) 555 18 47 85 94 193 494 601 1010 3780
2026-04-27 10:30 5.05 302 5610 (1999) 0 (2006) 555 18 47 85 94 193 494 601 1010 3780
2026-04-27 09:30 5.05 302 5610 (1999) 0 (2006) 555 18 47 85 94 193 494 601 1010 3780
2026-04-27 08:30 5.07 307 5610 (1999) 0 (2006) 555 18 47 85 94 193 494 601 1010 3780
2026-04-27 07:30 5.07 307 5610 (1999) 0 (2006) 555 18 47 85 94 193 494 601 1010 3780
2026-04-27 06:30 5.07 307 5610 (1999) 0 (2006) 555 18 47 85 94 193 494 601 1010 3780
2026-04-27 05:30 5.07 307 5610 (1999) 0 (2006) 555 18 47 85 94 193 494 601 1010 3780
2026-04-27 04:30 5.09 311 5610 (1999) 0 (2006) 555 18 47 85 94 193 494 601 1010 3780
2026-04-27 03:30 5.11 315 5610 (1999) 0 (2006) 555 18 47 85 94 193 494 601 1010 3780
2026-04-27 02:30 5.14 322 5610 (1999) 0 (2006) 555 18 47 85 94 193 494 601 1010 3780
2026-04-27 01:30 5.15 324 5610 (1999) 0 (2006) 555 18 47 85 94 193 494 601 1010 3780
2026-04-27 00:30 5.14 322 5610 (1999) 0 (2006) 555 18 47 85 94 193 494 601 1010 3780
2026-04-26 23:30 5.13 320 5610 (1999) 0 (2006) 555 18 47 85 94 193 494 601 1010 3780
2026-04-26 22:30 5.13 320 5890 (1973) 0 (2006) 676 20 52 79 95 194 594 671 2120 3960
2026-04-26 21:30 5.14 322 5890 (1973) 0 (2006) 676 20 52 79 95 194 594 671 2120 3960
2026-04-26 20:30 5.14 322 5890 (1973) 0 (2006) 676 20 52 79 95 194 594 671 2120 3960
2026-04-26 19:30 5.12 318 5890 (1973) 0 (2006) 676 20 52 79 95 194 594 671 2120 3960
2026-04-26 18:30 5.14 322 5890 (1973) 0 (2006) 676 20 52 79 95 194 594 671 2120 3960
2026-04-26 17:30 5.14 322 5890 (1973) 0 (2006) 676 20 52 79 95 194 594 671 2120 3960
2026-04-26 16:30 5.16 327 5890 (1973) 0 (2006) 676 20 52 79 95 194 594 671 2120 3960
2026-04-26 15:30 5.18 331 5890 (1973) 0 (2006) 676 20 52 79 95 194 594 671 2120 3960
2026-04-26 14:30 5.17 329 5890 (1973) 0 (2006) 676 20 52 79 95 194 594 671 2120 3960
2026-04-26 13:30 5.19 333 5890 (1973) 0 (2006) 676 20 52 79 95 194 594 671 2120 3960
2026-04-26 12:30 5.20 336 5890 (1973) 0 (2006) 676 20 52 79 95 194 594 671 2120 3960
2026-04-26 11:30 5.21 338 5890 (1973) 0 (2006) 676 20 52 79 95 194 594 671 2120 3960
2026-04-26 10:30 5.23 343 5890 (1973) 0 (2006) 676 20 52 79 95 194 594 671 2120 3960
2026-04-26 09:30 5.24 345 5890 (1973) 0 (2006) 676 20 52 79 95 194 594 671 2120 3960
2026-04-26 08:30 5.25 347 5890 (1973) 0 (2006) 676 20 52 79 95 194 594 671 2120 3960
2026-04-26 07:30 5.27 352 5890 (1973) 0 (2006) 676 20 52 79 95 194 594 671 2120 3960
2026-04-26 06:30 5.28 354 5890 (1973) 0 (2006) 676 20 52 79 95 194 594 671 2120 3960
2026-04-26 05:30 5.29 357 5890 (1973) 0 (2006) 676 20 52 79 95 194 594 671 2120 3960
2026-04-26 04:30 5.31 362 5890 (1973) 0 (2006) 676 20 52 79 95 194 594 671 2120 3960
2026-04-26 03:30 5.33 366 5890 (1973) 0 (2006) 676 20 52 79 95 194 594 671 2120 3960
2026-04-26 02:30 5.35 371 5890 (1973) 0 (2006) 676 20 52 79 95 194 594 671 2120 3960
2026-04-26 01:30 5.37 376 5890 (1973) 0 (2006) 676 20 52 79 95 194 594 671 2120 3960
2026-04-26 00:30 5.39 381 5890 (1973) 0 (2006) 676 20 52 79 95 194 594 671 2120 3960
2026-04-25 23:30 5.41 386 5890 (1973) 0 (2006) 676 20 52 79 95 194 594 671 2120 3960
2026-04-25 22:30 5.42 388 8260 (2004) 0 (2006) 749 21 58 83 99 195 594 899 1340 5640
2026-04-25 21:30 5.44 393 8260 (2004) 0 (2006) 749 21 58 83 99 195 594 899 1340 5640
2026-04-25 20:30 5.46 398 8260 (2004) 0 (2006) 749 21 58 83 99 195 594 899 1340 5640
2026-04-25 19:30 5.49 406 8260 (2004) 0 (2006) 749 21 58 83 99 195 594 899 1340 5640
2026-04-25 18:30 5.51 411 8260 (2004) 0 (2006) 749 21 58 83 99 195 594 899 1340 5640
2026-04-25 17:30 5.54 419 8260 (2004) 0 (2006) 749 21 58 83 99 195 594 899 1340 5640
2026-04-25 16:30 5.56 424 8260 (2004) 0 (2006) 749 21 58 83 99 195 594 899 1340 5640
2026-04-25 15:30 5.59 432 8260 (2004) 0 (2006) 749 21 58 83 99 195 594 899 1340 5640
2026-04-25 14:30 5.61 437 8260 (2004) 0 (2006) 749 21 58 83 99 195 594 899 1340 5640
2026-04-25 13:30 5.64 445 8260 (2004) 0 (2006) 749 21 58 83 99 195 594 899 1340 5640
2026-04-25 12:30 5.68 456 8260 (2004) 0 (2006) 749 21 58 83 99 195 594 899 1340 5640
2026-04-25 11:30 5.71 464 8260 (2004) 0 (2006) 749 21 58 83 99 195 594 899 1340 5640
2026-04-25 10:30 5.75 475 8260 (2004) 0 (2006) 749 21 58 83 99 195 594 899 1340 5640
2026-04-25 09:30 5.78 483 8260 (2004) 0 (2006) 749 21 58 83 99 195 594 899 1340 5640
2026-04-25 08:30 5.81 492 8260 (2004) 0 (2006) 749 21 58 83 99 195 594 899 1340 5640
2026-04-25 07:30 5.83 497 8260 (2004) 0 (2006) 749 21 58 83 99 195 594 899 1340 5640
2026-04-25 06:30 5.86 506 8260 (2004) 0 (2006) 749 21 58 83 99 195 594 899 1340 5640
2026-04-25 05:30 5.88 512 8260 (2004) 0 (2006) 749 21 58 83 99 195 594 899 1340 5640
2026-04-25 04:30 5.90 518 8260 (2004) 0 (2006) 749 21 58 83 99 195 594 899 1340 5640
2026-04-25 03:30 5.91 521 8260 (2004) 0 (2006) 749 21 58 83 99 195 594 899 1340 5640
2026-04-25 02:30 5.91 521 8260 (2004) 0 (2006) 749 21 58 83 99 195 594 899 1340 5640
2026-04-25 01:30 5.88 512 8260 (2004) 0 (2006) 749 21 58 83 99 195 594 899 1340 5640
2026-04-25 00:30 5.85 503 8260 (2004) 0 (2006) 749 21 58 83 99 195 594 899 1340 5640
2026-04-24 23:30 5.80 489 8260 (2004) 0 (2006) 749 21 58 83 99 195 594 899 1340 5640
2026-04-24 22:30 5.74 472 8390 (1970) 0 (2006) 682 24 52 86 92 200 597 824 1610 2910
2026-04-24 21:30 5.68 456 8390 (1970) 0 (2006) 682 24 52 86 92 200 597 824 1610 2910
2026-04-24 20:30 5.64 445 8390 (1970) 0 (2006) 682 24 52 86 92 200 597 824 1610 2910
2026-04-24 19:30 5.61 437 8390 (1970) 0 (2006) 682 24 52 86 92 200 597 824 1610 2910
2026-04-24 18:30 5.59 432 8390 (1970) 0 (2006) 682 24 52 86 92 200 597 824 1610 2910
2026-04-24 17:30 5.57 427 8390 (1970) 0 (2006) 682 24 52 86 92 200 597 824 1610 2910
2026-04-24 16:30 5.55 421 8390 (1970) 0 (2006) 682 24 52 86 92 200 597 824 1610 2910
2026-04-24 15:30 5.54 419 8390 (1970) 0 (2006) 682 24 52 86 92 200 597 824 1610 2910
2026-04-24 14:30 5.53 416 8390 (1970) 0 (2006) 682 24 52 86 92 200 597 824 1610 2910
2026-04-24 13:30 5.52 414 8390 (1970) 0 (2006) 682 24 52 86 92 200 597 824 1610 2910
2026-04-24 12:30 5.51 411 8390 (1970) 0 (2006) 682 24 52 86 92 200 597 824 1610 2910
2026-04-24 11:30 5.49 406 8390 (1970) 0 (2006) 682 24 52 86 92 200 597 824 1610 2910
2026-04-24 10:30 5.47 401 8390 (1970) 0 (2006) 682 24 52 86 92 200 597 824 1610 2910
2026-04-24 09:30 5.46 398 8390 (1970) 0 (2006) 682 24 52 86 92 200 597 824 1610 2910
2026-04-24 08:30 5.43 391 8390 (1970) 0 (2006) 682 24 52 86 92 200 597 824 1610 2910
2026-04-24 07:30 5.40 383 8390 (1970) 0 (2006) 682 24 52 86 92 200 597 824 1610 2910
2026-04-24 06:30 5.39 381 8390 (1970) 0 (2006) 682 24 52 86 92 200 597 824 1610 2910
2026-04-24 05:30 5.35 371 8390 (1970) 0 (2006) 682 24 52 86 92 200 597 824 1610 2910
2026-04-24 04:30 5.29 357 8390 (1970) 0 (2006) 682 24 52 86 92 200 597 824 1610 2910
2026-04-24 03:30 5.26 350 8390 (1970) 0 (2006) 682 24 52 86 92 200 597 824 1610 2910
2026-04-24 02:30 5.26 350 8390 (1970) 0 (2006) 682 24 52 86 92 200 597 824 1610 2910
2026-04-24 01:30 5.25 347 8390 (1970) 0 (2006) 682 24 52 86 92 200 597 824 1610 2910
2026-04-24 00:30 5.23 343 8390 (1970) 0 (2006) 682 24 52 86 92 200 597 824 1610 2910
2026-04-23 23:30 5.24 345 8390 (1970) 0 (2006) 682 24 52 86 92 200 597 824 1610 2910
2026-04-23 22:30 5.26 350 6560 (1983) 0 (2006) 546 26 51 74 90 185 523 709 1330 2800
2026-04-23 21:30 5.27 352 6560 (1983) 0 (2006) 546 26 51 74 90 185 523 709 1330 2800
2026-04-23 20:30 5.28 354 6560 (1983) 0 (2006) 546 26 51 74 90 185 523 709 1330 2800
2026-04-23 19:30 5.29 357 6560 (1983) 0 (2006) 546 26 51 74 90 185 523 709 1330 2800
2026-04-23 18:30 5.30 359 6560 (1983) 0 (2006) 546 26 51 74 90 185 523 709 1330 2800
2026-04-23 17:30 5.31 362 6560 (1983) 0 (2006) 546 26 51 74 90 185 523 709 1330 2800
2026-04-23 16:30 5.31 362 6560 (1983) 0 (2006) 546 26 51 74 90 185 523 709 1330 2800
2026-04-23 15:30 5.33 366 6560 (1983) 0 (2006) 546 26 51 74 90 185 523 709 1330 2800
2026-04-23 14:30 5.34 369 6560 (1983) 0 (2006) 546 26 51 74 90 185 523 709 1330 2800
2026-04-23 13:30 5.35 371 6560 (1983) 0 (2006) 546 26 51 74 90 185 523 709 1330 2800
2026-04-23 12:30 5.36 374 6560 (1983) 0 (2006) 546 26 51 74 90 185 523 709 1330 2800
2026-04-23 11:30 5.36 374 6560 (1983) 0 (2006) 546 26 51 74 90 185 523 709 1330 2800
2026-04-23 10:30 5.38 378 6560 (1983) 0 (2006) 546 26 51 74 90 185 523 709 1330 2800
2026-04-23 09:30 5.39 381 6560 (1983) 0 (2006) 546 26 51 74 90 185 523 709 1330 2800
2026-04-23 08:30 5.41 386 6560 (1983) 0 (2006) 546 26 51 74 90 185 523 709 1330 2800
2026-04-23 07:30 5.41 386 6560 (1983) 0 (2006) 546 26 51 74 90 185 523 709 1330 2800
2026-04-23 06:30 5.43 391 6560 (1983) 0 (2006) 546 26 51 74 90 185 523 709 1330 2800
2026-04-23 05:30 5.44 393 6560 (1983) 0 (2006) 546 26 51 74 90 185 523 709 1330 2800
2026-04-23 04:30 5.46 398 6560 (1983) 0 (2006) 546 26 51 74 90 185 523 709 1330 2800
2026-04-23 03:30 5.46 398 6560 (1983) 0 (2006) 546 26 51 74 90 185 523 709 1330 2800
2026-04-23 02:30 5.48 403 6560 (1983) 0 (2006) 546 26 51 74 90 185 523 709 1330 2800
2026-04-23 01:30 5.49 406 6560 (1983) 0 (2006) 546 26 51 74 90 185 523 709 1330 2800
2026-04-23 00:30 5.51 411 6560 (1983) 0 (2006) 546 26 51 74 90 185 523 709 1330 2800
2026-04-22 23:30 5.52 414 6560 (1983) 0 (2006) 546 26 51 74 90 185 523 709 1330 2800
2026-04-22 22:30 5.53 416 8280 (1973) 0 (2006) 764 21 40 76 92 185 505 674 2890 5540
2026-04-22 21:30 5.55 421 8280 (1973) 0 (2006) 764 21 40 76 92 185 505 674 2890 5540
2026-04-22 20:30 5.57 427 8280 (1973) 0 (2006) 764 21 40 76 92 185 505 674 2890 5540
2026-04-22 19:30 5.59 432 8280 (1973) 0 (2006) 764 21 40 76 92 185 505 674 2890 5540
2026-04-22 18:30 5.60 434 8280 (1973) 0 (2006) 764 21 40 76 92 185 505 674 2890 5540
2026-04-22 17:30 5.61 437 8280 (1973) 0 (2006) 764 21 40 76 92 185 505 674 2890 5540
2026-04-22 16:30 5.63 442 8280 (1973) 0 (2006) 764 21 40 76 92 185 505 674 2890 5540
2026-04-22 15:30 5.64 445 8280 (1973) 0 (2006) 764 21 40 76 92 185 505 674 2890 5540
2026-04-22 14:30 5.66 450 8280 (1973) 0 (2006) 764 21 40 76 92 185 505 674 2890 5540
2026-04-22 13:30 5.67 453 8280 (1973) 0 (2006) 764 21 40 76 92 185 505 674 2890 5540
2026-04-22 12:30 5.69 459 8280 (1973) 0 (2006) 764 21 40 76 92 185 505 674 2890 5540
2026-04-22 11:30 5.71 464 8280 (1973) 0 (2006) 764 21 40 76 92 185 505 674 2890 5540
2026-04-22 10:30 5.72 467 8280 (1973) 0 (2006) 764 21 40 76 92 185 505 674 2890 5540
2026-04-22 09:30 5.74 472 8280 (1973) 0 (2006) 764 21 40 76 92 185 505 674 2890 5540
2026-04-22 08:30 5.76 478 8280 (1973) 0 (2006) 764 21 40 76 92 185 505 674 2890 5540
2026-04-22 07:30 5.78 483 8280 (1973) 0 (2006) 764 21 40 76 92 185 505 674 2890 5540
2026-04-22 06:30 5.81 492 8280 (1973) 0 (2006) 764 21 40 76 92 185 505 674 2890 5540
2026-04-22 05:30 5.82 495 8280 (1973) 0 (2006) 764 21 40 76 92 185 505 674 2890 5540
2026-04-22 04:30 5.85 503 8280 (1973) 0 (2006) 764 21 40 76 92 185 505 674 2890 5540
2026-04-22 03:30 5.87 509 8280 (1973) 0 (2006) 764 21 40 76 92 185 505 674 2890 5540
2026-04-22 02:30 5.89 515 8280 (1973) 0 (2006) 764 21 40 76 92 185 505 674 2890 5540
2026-04-22 01:30 5.92 523 8280 (1973) 0 (2006) 764 21 40 76 92 185 505 674 2890 5540
2026-04-22 00:30 5.94 529 8280 (1973) 0 (2006) 764 21 40 76 92 185 505 674 2890 5540
2026-04-21 23:30 5.96 535 8280 (1973) 0 (2006) 764 21 40 76 92 185 505 674 2890 5540
2026-04-21 22:30 5.99 544 10200 (1973) 0 (1954) 761 5 35 77 101 216 397 647 2440 3780
2026-04-21 21:30 6.02 553 10200 (1973) 0 (1954) 761 5 35 77 101 216 397 647 2440 3780
2026-04-21 20:30 6.04 559 10200 (1973) 0 (1954) 761 5 35 77 101 216 397 647 2440 3780
2026-04-21 19:30 6.07 568 10200 (1973) 0 (1954) 761 5 35 77 101 216 397 647 2440 3780
2026-04-21 18:30 6.10 578 10200 (1973) 0 (1954) 761 5 35 77 101 216 397 647 2440 3780
2026-04-21 17:30 6.12 584 10200 (1973) 0 (1954) 761 5 35 77 101 216 397 647 2440 3780
2026-04-21 16:30 6.16 596 10200 (1973) 0 (1954) 761 5 35 77 101 216 397 647 2440 3780
2026-04-21 15:30 6.19 606 10200 (1973) 0 (1954) 761 5 35 77 101 216 397 647 2440 3780
2026-04-21 14:30 6.22 615 10200 (1973) 0 (1954) 761 5 35 77 101 216 397 647 2440 3780
2026-04-21 13:30 6.24 622 10200 (1973) 0 (1954) 761 5 35 77 101 216 397 647 2440 3780
2026-04-21 12:30 6.28 635 10200 (1973) 0 (1954) 761 5 35 77 101 216 397 647 2440 3780
2026-04-21 11:30 6.30 641 10200 (1973) 0 (1954) 761 5 35 77 101 216 397 647 2440 3780
2026-04-21 10:30 6.33 651 10200 (1973) 0 (1954) 761 5 35 77 101 216 397 647 2440 3780
2026-04-21 09:30 6.35 658 10200 (1973) 0 (1954) 761 5 35 77 101 216 397 647 2440 3780
2026-04-21 08:30 6.37 664 10200 (1973) 0 (1954) 761 5 35 77 101 216 397 647 2440 3780
2026-04-21 07:30 6.39 671 10200 (1973) 0 (1954) 761 5 35 77 101 216 397 647 2440 3780
2026-04-21 06:30 6.42 681 10200 (1973) 0 (1954) 761 5 35 77 101 216 397 647 2440 3780
2026-04-21 05:30 6.44 688 10200 (1973) 0 (1954) 761 5 35 77 101 216 397 647 2440 3780
2026-04-21 04:30 6.48 702 10200 (1973) 0 (1954) 761 5 35 77 101 216 397 647 2440 3780
2026-04-21 03:30 6.51 712 10200 (1973) 0 (1954) 761 5 35 77 101 216 397 647 2440 3780
2026-04-21 02:30 6.55 726 10200 (1973) 0 (1954) 761 5 35 77 101 216 397 647 2440 3780
2026-04-21 01:30 6.59 740 10200 (1973) 0 (1954) 761 5 35 77 101 216 397 647 2440 3780
2026-04-21 00:30 6.63 754 10200 (1973) 0 (1954) 761 5 35 77 101 216 397 647 2440 3780
2026-04-20 23:30 6.67 769 10200 (1973) 0 (1954) 761 5 35 77 101 216 397 647 2440 3780
2026-04-20 22:30 6.72 787 6260 (2025) 0 (1954) 486 5 37 78 90 195 427 477 1340 2480
2026-04-20 21:30 6.76 802 6260 (2025) 0 (1954) 486 5 37 78 90 195 427 477 1340 2480
2026-04-20 20:30 6.80 816 6260 (2025) 0 (1954) 486 5 37 78 90 195 427 477 1340 2480
2026-04-20 19:30 6.85 835 6260 (2025) 0 (1954) 486 5 37 78 90 195 427 477 1340 2480
2026-04-20 18:30 6.89 850 6260 (2025) 0 (1954) 486 5 37 78 90 195 427 477 1340 2480
2026-04-20 17:30 6.95 874 6260 (2025) 0 (1954) 486 5 37 78 90 195 427 477 1340 2480
2026-04-20 16:30 6.98 885 6260 (2025) 0 (1954) 486 5 37 78 90 195 427 477 1340 2480
2026-04-20 15:30 7.03 905 6260 (2025) 0 (1954) 486 5 37 78 90 195 427 477 1340 2480
2026-04-20 14:30 7.09 929 6260 (2025) 0 (1954) 486 5 37 78 90 195 427 477 1340 2480
2026-04-20 13:30 7.14 949 6260 (2025) 0 (1954) 486 5 37 78 90 195 427 477 1340 2480
2026-04-20 12:30 7.20 974 6260 (2025) 0 (1954) 486 5 37 78 90 195 427 477 1340 2480
2026-04-20 11:30 7.28 1010 6260 (2025) 0 (1954) 486 5 37 78 90 195 427 477 1340 2480
2026-04-20 10:30 7.34 1030 6260 (2025) 0 (1954) 486 5 37 78 90 195 427 477 1340 2480
2026-04-20 09:30 7.40 1060 6260 (2025) 0 (1954) 486 5 37 78 90 195 427 477 1340 2480
2026-04-20 08:30 7.49 1100 6260 (2025) 0 (1954) 486 5 37 78 90 195 427 477 1340 2480
2026-04-20 07:30 7.56 1130 6260 (2025) 0 (1954) 486 5 37 78 90 195 427 477 1340 2480
2026-04-20 06:30 7.66 1180 6260 (2025) 0 (1954) 486 5 37 78 90 195 427 477 1340 2480
2026-04-20 05:30 7.75 1220 6260 (2025) 0 (1954) 486 5 37 78 90 195 427 477 1340 2480
2026-04-20 04:30 7.88 1280 6260 (2025) 0 (1954) 486 5 37 78 90 195 427 477 1340 2480
2026-04-20 03:30 8.00 1350 6260 (2025) 0 (1954) 486 5 37 78 90 195 427 477 1340 2480
2026-04-20 02:30 8.16 1430 6260 (2025) 0 (1954) 486 5 37 78 90 195 427 477 1340 2480
2026-04-20 01:30 8.38 1550 6260 (2025) 0 (1954) 486 5 37 78 90 195 427 477 1340 2480
2026-04-20 00:30 8.63 1670 6260 (2025) 0 (1954) 486 5 37 78 90 195 427 477 1340 2480
2026-04-19 23:30 8.93 1810 6260 (2025) 0 (1954) 486 5 37 78 90 195 427 477 1340 2480
2026-04-19 22:30 9.29 1990 6900 (2013) 0 (1954) 452 5 42 74 85 177 403 479 1050 2380
2026-04-19 21:30 9.64 2180 6900 (2013) 0 (1954) 452 5 42 74 85 177 403 479 1050 2380
2026-04-19 20:30 10.04 2400 6900 (2013) 0 (1954) 452 5 42 74 85 177 403 479 1050 2380
2026-04-19 19:30 10.43 2600 6900 (2013) 0 (1954) 452 5 42 74 85 177 403 479 1050 2380
2026-04-19 18:30 10.87 2830 6900 (2013) 0 (1954) 452 5 42 74 85 177 403 479 1050 2380
2026-04-19 17:30 11.34 3070 6900 (2013) 0 (1954) 452 5 42 74 85 177 403 479 1050 2380
2026-04-19 16:30 11.78 3310 6900 (2013) 0 (1954) 452 5 42 74 85 177 403 479 1050 2380
2026-04-19 15:30 12.22 3560 6900 (2013) 0 (1954) 452 5 42 74 85 177 403 479 1050 2380
2026-04-19 14:30 12.64 3800 6900 (2013) 0 (1954) 452 5 42 74 85 177 403 479 1050 2380
2026-04-19 13:30 13.07 4050 6900 (2013) 0 (1954) 452 5 42 74 85 177 403 479 1050 2380
2026-04-19 12:30 13.37 4230 6900 (2013) 0 (1954) 452 5 42 74 85 177 403 479 1050 2380
2026-04-19 11:30 13.81 4500 6900 (2013) 0 (1954) 452 5 42 74 85 177 403 479 1050 2380
2026-04-19 10:30 14.21 4750 6900 (2013) 0 (1954) 452 5 42 74 85 177 403 479 1050 2380
2026-04-19 09:30 14.66 5030 6900 (2013) 0 (1954) 452 5 42 74 85 177 403 479 1050 2380
2026-04-19 08:30 15.01 5260 6900 (2013) 0 (1954) 452 5 42 74 85 177 403 479 1050 2380
2026-04-19 07:30 15.45 5550 6900 (2013) 0 (1954) 452 5 42 74 85 177 403 479 1050 2380
2026-04-19 06:30 15.74 5750 6900 (2013) 0 (1954) 452 5 42 74 85 177 403 479 1050 2380
2026-04-19 05:30 16.19 6050 6900 (2013) 0 (1954) 452 5 42 74 85 177 403 479 1050 2380
2026-04-19 04:30 16.54 6300 6900 (2013) 0 (1954) 452 5 42 74 85 177 403 479 1050 2380
2026-04-19 03:30 16.83 6500 6900 (2013) 0 (1954) 452 5 42 74 85 177 403 479 1050 2380
2026-04-19 02:30 17.00 6620 6900 (2013) 0 (1954) 452 5 42 74 85 177 403 479 1050 2380
2026-04-19 01:30 17.16 6740 6900 (2013) 0 (1954) 452 5 42 74 85 177 403 479 1050 2380
2026-04-19 00:30 17.35 6870 6900 (2013) 0 (1954) 452 5 42 74 85 177 403 479 1050 2380
2026-04-18 23:30 17.34 6860 6900 (2013) 0 (1954) 452 5 42 74 85 177 403 479 1050 2380
2026-04-18 22:30 17.44 6930 4670 (2013) 0 (1954) 420 6 37 76 90 196 439 482 753 2110
2026-04-18 21:30 17.36 6880 4670 (2013) 0 (1954) 420 6 37 76 90 196 439 482 753 2110
2026-04-18 20:30 17.27 6820 4670 (2013) 0 (1954) 420 6 37 76 90 196 439 482 753 2110
2026-04-18 19:30 17.13 6720 4670 (2013) 0 (1954) 420 6 37 76 90 196 439 482 753 2110
2026-04-18 18:30 16.98 6610 4670 (2013) 0 (1954) 420 6 37 76 90 196 439 482 753 2110
2026-04-18 17:30 16.82 6490 4670 (2013) 0 (1954) 420 6 37 76 90 196 439 482 753 2110
2026-04-18 16:30 16.60 6340 4670 (2013) 0 (1954) 420 6 37 76 90 196 439 482 753 2110
2026-04-18 15:30 16.49 6260 4670 (2013) 0 (1954) 420 6 37 76 90 196 439 482 753 2110
2026-04-18 14:30 16.26 6100 4670 (2013) 0 (1954) 420 6 37 76 90 196 439 482 753 2110
2026-04-18 13:30 16.01 5930 4670 (2013) 0 (1954) 420 6 37 76 90 196 439 482 753 2110
2026-04-18 12:30 15.82 5800 4670 (2013) 0 (1954) 420 6 37 76 90 196 439 482 753 2110
2026-04-18 11:30 15.62 5660 4670 (2013) 0 (1954) 420 6 37 76 90 196 439 482 753 2110
2026-04-18 10:30 15.40 5520 4670 (2013) 0 (1954) 420 6 37 76 90 196 439 482 753 2110
2026-04-18 09:30 15.23 5410 4670 (2013) 0 (1954) 420 6 37 76 90 196 439 482 753 2110
2026-04-18 08:30 15.06 5290 4670 (2013) 0 (1954) 420 6 37 76 90 196 439 482 753 2110
2026-04-18 07:30 14.98 5240 4670 (2013) 0 (1954) 420 6 37 76 90 196 439 482 753 2110
2026-04-18 06:30 14.72 5070 4670 (2013) 0 (1954) 420 6 37 76 90 196 439 482 753 2110
2026-04-18 05:30 14.35 4830 4670 (2013) 0 (1954) 420 6 37 76 90 196 439 482 753 2110
2026-04-18 04:30 14.03 4640 4670 (2013) 0 (1954) 420 6 37 76 90 196 439 482 753 2110
2026-04-18 03:30 13.88 4540 4670 (2013) 0 (1954) 420 6 37 76 90 196 439 482 753 2110
2026-04-18 02:30 13.73 4450 4670 (2013) 0 (1954) 420 6 37 76 90 196 439 482 753 2110
2026-04-18 01:30 13.56 4340 4670 (2013) 0 (1954) 420 6 37 76 90 196 439 482 753 2110
2026-04-18 00:30 13.27 4170 4670 (2013) 0 (1954) 420 6 37 76 90 196 439 482 753 2110
2026-04-17 23:30 12.66 3810 4670 (2013) 0 (1954) 420 6 37 76 90 196 439 482 753 2110
2026-04-17 22:30 12.21 3550 8430 (1973) 0 (1954) 390 6 39 76 84 179 360 440 900 1070
2026-04-17 21:30 12.19 3540 8430 (1973) 0 (1954) 390 6 39 76 84 179 360 440 900 1070
2026-04-17 20:30 12.37 3650 8430 (1973) 0 (1954) 390 6 39 76 84 179 360 440 900 1070
2026-04-17 19:30 12.61 3780 8430 (1973) 0 (1954) 390 6 39 76 84 179 360 440 900 1070
2026-04-17 18:30 12.75 3860 8430 (1973) 0 (1954) 390 6 39 76 84 179 360 440 900 1070
2026-04-17 17:30 12.83 3910 8430 (1973) 0 (1954) 390 6 39 76 84 179 360 440 900 1070
2026-04-17 16:30 12.85 3920 8430 (1973) 0 (1954) 390 6 39 76 84 179 360 440 900 1070
2026-04-17 15:30 12.84 3910 8430 (1973) 0 (1954) 390 6 39 76 84 179 360 440 900 1070
2026-04-17 14:30 12.86 3930 8430 (1973) 0 (1954) 390 6 39 76 84 179 360 440 900 1070
2026-04-17 13:30 12.80 3900 8430 (1973) 0 (1954) 390 6 39 76 84 179 360 440 900 1070
2026-04-17 12:30 12.74 3860 8430 (1973) 0 (1954) 390 6 39 76 84 179 360 440 900 1070
2026-04-17 11:30 12.73 3850 8430 (1973) 0 (1954) 390 6 39 76 84 179 360 440 900 1070
2026-04-17 10:30 12.73 3850 8430 (1973) 0 (1954) 390 6 39 76 84 179 360 440 900 1070
2026-04-17 09:30 12.75 3860 8430 (1973) 0 (1954) 390 6 39 76 84 179 360 440 900 1070
2026-04-17 08:30 12.79 3890 8430 (1973) 0 (1954) 390 6 39 76 84 179 360 440 900 1070
2026-04-17 07:30 12.93 3970 8430 (1973) 0 (1954) 390 6 39 76 84 179 360 440 900 1070
2026-04-17 06:30 12.95 3980 8430 (1973) 0 (1954) 390 6 39 76 84 179 360 440 900 1070
2026-04-17 05:30 13.11 4070 8430 (1973) 0 (1954) 390 6 39 76 84 179 360 440 900 1070
2026-04-17 04:30 13.28 4170 8430 (1973) 0 (1954) 390 6 39 76 84 179 360 440 900 1070
2026-04-17 03:30 13.45 4280 8430 (1973) 0 (1954) 390 6 39 76 84 179 360 440 900 1070
2026-04-17 02:30 13.84 4520 8430 (1973) 0 (1954) 390 6 39 76 84 179 360 440 900 1070
2026-04-17 01:30 14.07 4660 8430 (1973) 0 (1954) 390 6 39 76 84 179 360 440 900 1070
2026-04-17 00:30 14.42 4880 8430 (1973) 0 (1954) 390 6 39 76 84 179 360 440 900 1070
2026-04-16 23:30 14.69 5050 8430 (1973) 0 (1954) 390 6 39 76 84 179 360 440 900 1070
2026-04-16 22:30 15.06 5290 6710 (1973) 0 (1954) 468 6 39 81 87 201 432 557 987 2410
2026-04-16 21:30 15.28 5440 6710 (1973) 0 (1954) 468 6 39 81 87 201 432 557 987 2410
2026-04-16 20:30 15.40 5520 6710 (1973) 0 (1954) 468 6 39 81 87 201 432 557 987 2410
2026-04-16 19:30 15.37 5500 6710 (1973) 0 (1954) 468 6 39 81 87 201 432 557 987 2410
2026-04-16 18:30 15.29 5450 6710 (1973) 0 (1954) 468 6 39 81 87 201 432 557 987 2410
2026-04-16 17:30 15.04 5280 6710 (1973) 0 (1954) 468 6 39 81 87 201 432 557 987 2410
2026-04-16 16:30 14.62 5010 6710 (1973) 0 (1954) 468 6 39 81 87 201 432 557 987 2410
2026-04-16 15:30 14.21 4750 6710 (1973) 0 (1954) 468 6 39 81 87 201 432 557 987 2410
2026-04-16 14:30 13.64 4400 6710 (1973) 0 (1954) 468 6 39 81 87 201 432 557 987 2410
2026-04-16 13:30 12.97 3990 6710 (1973) 0 (1954) 468 6 39 81 87 201 432 557 987 2410
2026-04-16 12:30 12.07 3480 6710 (1973) 0 (1954) 468 6 39 81 87 201 432 557 987 2410
2026-04-16 11:30 11.09 2940 6710 (1973) 0 (1954) 468 6 39 81 87 201 432 557 987 2410
2026-04-16 10:30 9.91 2320 6710 (1973) 0 (1954) 468 6 39 81 87 201 432 557 987 2410
2026-04-16 09:30 8.57 1640 6710 (1973) 0 (1954) 468 6 39 81 87 201 432 557 987 2410
2026-04-16 08:30 7.01 897 6710 (1973) 0 (1954) 468 6 39 81 87 201 432 557 987 2410
2026-04-16 07:30 5.57 427 6710 (1973) 0 (1954) 468 6 39 81 87 201 432 557 987 2410
2026-04-16 06:30 5.18 331 6710 (1973) 0 (1954) 468 6 39 81 87 201 432 557 987 2410
2026-04-16 05:30 5.11 315 6710 (1973) 0 (1954) 468 6 39 81 87 201 432 557 987 2410
2026-04-16 04:30 5.06 305 6710 (1973) 0 (1954) 468 6 39 81 87 201 432 557 987 2410
2026-04-16 03:30 5.03 298 6710 (1973) 0 (1954) 468 6 39 81 87 201 432 557 987 2410
2026-04-16 02:30 5.01 294 6710 (1973) 0 (1954) 468 6 39 81 87 201 432 557 987 2410
2026-04-16 01:30 5.00 292 6710 (1973) 0 (1954) 468 6 39 81 87 201 432 557 987 2410
2026-04-16 00:30 4.99 290 6710 (1973) 0 (1954) 468 6 39 81 87 201 432 557 987 2410
2026-04-15 23:30 4.99 290 6710 (1973) 0 (1954) 468 6 39 81 87 201 432 557 987 2410
2026-04-15 22:30 4.98 287 5760 (1999) 0 (1954) 479 7 38 87 99 210 484 580 1050 2360
2026-04-15 21:30 4.98 287 5760 (1999) 0 (1954) 479 7 38 87 99 210 484 580 1050 2360
2026-04-15 20:30 4.98 287 5760 (1999) 0 (1954) 479 7 38 87 99 210 484 580 1050 2360
2026-04-15 19:30 4.98 287 5760 (1999) 0 (1954) 479 7 38 87 99 210 484 580 1050 2360
2026-04-15 18:30 4.98 287 5760 (1999) 0 (1954) 479 7 38 87 99 210 484 580 1050 2360
2026-04-15 17:30 4.98 287 5760 (1999) 0 (1954) 479 7 38 87 99 210 484 580 1050 2360
2026-04-15 16:30 4.98 287 5760 (1999) 0 (1954) 479 7 38 87 99 210 484 580 1050 2360
2026-04-15 15:30 4.98 287 5760 (1999) 0 (1954) 479 7 38 87 99 210 484 580 1050 2360
2026-04-15 14:30 4.97 285 5760 (1999) 0 (1954) 479 7 38 87 99 210 484 580 1050 2360
2026-04-15 13:30 4.97 285 5760 (1999) 0 (1954) 479 7 38 87 99 210 484 580 1050 2360
2026-04-15 12:30 4.97 285 5760 (1999) 0 (1954) 479 7 38 87 99 210 484 580 1050 2360
2026-04-15 11:30 4.96 283 5760 (1999) 0 (1954) 479 7 38 87 99 210 484 580 1050 2360
2026-04-15 10:30 4.97 285 5760 (1999) 0 (1954) 479 7 38 87 99 210 484 580 1050 2360
2026-04-15 09:30 4.97 285 5760 (1999) 0 (1954) 479 7 38 87 99 210 484 580 1050 2360
2026-04-15 08:30 4.97 285 5760 (1999) 0 (1954) 479 7 38 87 99 210 484 580 1050 2360
2026-04-15 07:30 4.97 285 5760 (1999) 0 (1954) 479 7 38 87 99 210 484 580 1050 2360
2026-04-15 06:30 4.97 285 5760 (1999) 0 (1954) 479 7 38 87 99 210 484 580 1050 2360
2026-04-15 05:30 4.97 285 5760 (1999) 0 (1954) 479 7 38 87 99 210 484 580 1050 2360
2026-04-15 04:30 4.98 287 5760 (1999) 0 (1954) 479 7 38 87 99 210 484 580 1050 2360
2026-04-15 03:30 4.99 290 5760 (1999) 0 (1954) 479 7 38 87 99 210 484 580 1050 2360
2026-04-15 02:30 5.01 294 5760 (1999) 0 (1954) 479 7 38 87 99 210 484 580 1050 2360
2026-04-15 01:30 5.01 294 5760 (1999) 0 (1954) 479 7 38 87 99 210 484 580 1050 2360
2026-04-15 00:30 5.02 296 5760 (1999) 0 (1954) 479 7 38 87 99 210 484 580 1050 2360
2026-04-14 23:30 5.04 300 5760 (1999) 0 (1954) 479 7 38 87 99 210 484 580 1050 2360
2026-04-14 22:30 5.05 302 3580 (1994) 0 (1954) 451 7 41 73 100 207 516 633 1350 1780
2026-04-14 21:30 5.07 307 3580 (1994) 0 (1954) 451 7 41 73 100 207 516 633 1350 1780
2026-04-14 20:30 5.09 311 3580 (1994) 0 (1954) 451 7 41 73 100 207 516 633 1350 1780
2026-04-14 19:30 5.10 313 3580 (1994) 0 (1954) 451 7 41 73 100 207 516 633 1350 1780
2026-04-14 18:30 5.11 315 3580 (1994) 0 (1954) 451 7 41 73 100 207 516 633 1350 1780
2026-04-14 17:30 5.12 318 3580 (1994) 0 (1954) 451 7 41 73 100 207 516 633 1350 1780
2026-04-14 16:30 5.13 320 3580 (1994) 0 (1954) 451 7 41 73 100 207 516 633 1350 1780
2026-04-14 15:30 5.13 320 3580 (1994) 0 (1954) 451 7 41 73 100 207 516 633 1350 1780
2026-04-14 14:30 5.14 322 3580 (1994) 0 (1954) 451 7 41 73 100 207 516 633 1350 1780
2026-04-14 13:30 5.15 324 3580 (1994) 0 (1954) 451 7 41 73 100 207 516 633 1350 1780
2026-04-14 12:30 5.16 327 3580 (1994) 0 (1954) 451 7 41 73 100 207 516 633 1350 1780
2026-04-14 11:30 5.17 329 3580 (1994) 0 (1954) 451 7 41 73 100 207 516 633 1350 1780
2026-04-14 09:30 5.19 333 3580 (1994) 0 (1954) 451 7 41 73 100 207 516 633 1350 1780
2026-04-14 08:30 5.21 338 3580 (1994) 0 (1954) 451 7 41 73 100 207 516 633 1350 1780
2026-04-14 07:30 5.22 340 3580 (1994) 0 (1954) 451 7 41 73 100 207 516 633 1350 1780
2026-04-14 06:30 5.24 345 3580 (1994) 0 (1954) 451 7 41 73 100 207 516 633 1350 1780
2026-04-14 05:30 5.25 347 3580 (1994) 0 (1954) 451 7 41 73 100 207 516 633 1350 1780
2026-04-14 04:30 5.26 350 3580 (1994) 0 (1954) 451 7 41 73 100 207 516 633 1350 1780
2026-04-14 03:30 5.28 354 3580 (1994) 0 (1954) 451 7 41 73 100 207 516 633 1350 1780
2026-04-14 02:30 5.29 357 3580 (1994) 0 (1954) 451 7 41 73 100 207 516 633 1350 1780
2026-04-14 01:30 5.31 362 3580 (1994) 0 (1954) 451 7 41 73 100 207 516 633 1350 1780
2026-04-14 00:30 5.33 366 3580 (1994) 0 (1954) 451 7 41 73 100 207 516 633 1350 1780
2026-04-13 23:30 5.35 371 3580 (1994) 0 (1954) 451 7 41 73 100 207 516 633 1350 1780
2026-04-13 22:30 5.36 374 10000 (1994) 0 (1954) 480 4 43 70 97 190 420 510 1120 1380
2026-04-13 21:30 5.38 378 10000 (1994) 0 (1954) 480 4 43 70 97 190 420 510 1120 1380
2026-04-13 20:30 5.39 381 10000 (1994) 0 (1954) 480 4 43 70 97 190 420 510 1120 1380
2026-04-13 19:30 5.41 386 10000 (1994) 0 (1954) 480 4 43 70 97 190 420 510 1120 1380
2026-04-13 18:30 5.42 388 10000 (1994) 0 (1954) 480 4 43 70 97 190 420 510 1120 1380
2026-04-13 17:30 5.44 393 10000 (1994) 0 (1954) 480 4 43 70 97 190 420 510 1120 1380
2026-04-13 16:30 5.45 396 10000 (1994) 0 (1954) 480 4 43 70 97 190 420 510 1120 1380
2026-04-13 15:30 5.47 401 10000 (1994) 0 (1954) 480 4 43 70 97 190 420 510 1120 1380
2026-04-13 14:30 5.49 406 10000 (1994) 0 (1954) 480 4 43 70 97 190 420 510 1120 1380
2026-04-13 13:30 5.51 411 10000 (1994) 0 (1954) 480 4 43 70 97 190 420 510 1120 1380
2026-04-13 12:30 5.53 416 10000 (1994) 0 (1954) 480 4 43 70 97 190 420 510 1120 1380
2026-04-13 11:30 5.54 419 10000 (1994) 0 (1954) 480 4 43 70 97 190 420 510 1120 1380
2026-04-13 10:30 5.56 424 10000 (1994) 0 (1954) 480 4 43 70 97 190 420 510 1120 1380
2026-04-13 09:30 5.58 429 10000 (1994) 0 (1954) 480 4 43 70 97 190 420 510 1120 1380
2026-04-13 08:30 5.60 434 10000 (1994) 0 (1954) 480 4 43 70 97 190 420 510 1120 1380
2026-04-13 07:30 5.62 440 10000 (1994) 0 (1954) 480 4 43 70 97 190 420 510 1120 1380
2026-04-13 06:30 5.65 448 10000 (1994) 0 (1954) 480 4 43 70 97 190 420 510 1120 1380
2026-04-13 05:30 5.67 453 10000 (1994) 0 (1954) 480 4 43 70 97 190 420 510 1120 1380
2026-04-13 04:30 5.69 459 10000 (1994) 0 (1954) 480 4 43 70 97 190 420 510 1120 1380
2026-04-13 03:30 5.71 464 10000 (1994) 0 (1954) 480 4 43 70 97 190 420 510 1120 1380
2026-04-13 02:30 5.74 472 10000 (1994) 0 (1954) 480 4 43 70 97 190 420 510 1120 1380
2026-04-13 01:30 5.76 478 10000 (1994) 0 (1954) 480 4 43 70 97 190 420 510 1120 1380
2026-04-13 00:30 5.79 486 10000 (1994) 0 (1954) 480 4 43 70 97 190 420 510 1120 1380
2026-04-12 23:30 5.82 495 10000 (1994) 0 (1954) 480 4 43 70 97 190 420 510 1120 1380
2026-04-12 22:30 5.84 500 21900 (1994) 0 (1954) 772 5 46 67 88 193 449 530 1100 2620
2026-04-12 21:30 5.87 509 21900 (1994) 0 (1954) 772 5 46 67 88 193 449 530 1100 2620
2026-04-12 20:30 5.90 518 21900 (1994) 0 (1954) 772 5 46 67 88 193 449 530 1100 2620
2026-04-12 19:30 5.93 526 21900 (1994) 0 (1954) 772 5 46 67 88 193 449 530 1100 2620
2026-04-12 18:30 5.96 535 21900 (1994) 0 (1954) 772 5 46 67 88 193 449 530 1100 2620
2026-04-12 17:30 5.99 544 21900 (1994) 0 (1954) 772 5 46 67 88 193 449 530 1100 2620
2026-04-12 16:30 6.03 556 21900 (1994) 0 (1954) 772 5 46 67 88 193 449 530 1100 2620
2026-04-12 15:30 6.07 568 21900 (1994) 0 (1954) 772 5 46 67 88 193 449 530 1100 2620
2026-04-12 14:30 6.11 581 21900 (1994) 0 (1954) 772 5 46 67 88 193 449 530 1100 2620
2026-04-12 13:30 6.16 596 21900 (1994) 0 (1954) 772 5 46 67 88 193 449 530 1100 2620
2026-04-12 12:30 6.20 609 21900 (1994) 0 (1954) 772 5 46 67 88 193 449 530 1100 2620
2026-04-12 11:30 6.25 625 21900 (1994) 0 (1954) 772 5 46 67 88 193 449 530 1100 2620
2026-04-12 10:30 6.31 644 21900 (1994) 0 (1954) 772 5 46 67 88 193 449 530 1100 2620
2026-04-12 09:30 6.36 661 21900 (1994) 0 (1954) 772 5 46 67 88 193 449 530 1100 2620
2026-04-12 08:30 6.42 681 21900 (1994) 0 (1954) 772 5 46 67 88 193 449 530 1100 2620
2026-04-12 07:30 6.49 705 21900 (1994) 0 (1954) 772 5 46 67 88 193 449 530 1100 2620
2026-04-12 06:30 6.56 729 21900 (1994) 0 (1954) 772 5 46 67 88 193 449 530 1100 2620
2026-04-12 05:30 6.63 754 21900 (1994) 0 (1954) 772 5 46 67 88 193 449 530 1100 2620
2026-04-12 04:30 6.70 780 21900 (1994) 0 (1954) 772 5 46 67 88 193 449 530 1100 2620
2026-04-12 03:30 6.78 809 21900 (1994) 0 (1954) 772 5 46 67 88 193 449 530 1100 2620
2026-04-12 02:30 6.87 843 21900 (1994) 0 (1954) 772 5 46 67 88 193 449 530 1100 2620
2026-04-12 01:30 6.93 866 21900 (1994) 0 (1954) 772 5 46 67 88 193 449 530 1100 2620
2026-04-12 00:30 7.01 897 21900 (1994) 0 (1954) 772 5 46 67 88 193 449 530 1100 2620
2026-04-11 23:30 7.09 929 21900 (1994) 0 (1954) 772 5 46 67 88 193 449 530 1100 2620
2026-04-11 22:30 7.15 953 21200 (1994) 0 (1954) 813 4 44 73 101 194 428 592 1340 3230
2026-04-11 21:30 7.22 982 21200 (1994) 0 (1954) 813 4 44 73 101 194 428 592 1340 3230
2026-04-11 20:30 7.28 1010 21200 (1994) 0 (1954) 813 4 44 73 101 194 428 592 1340 3230
2026-04-11 19:30 7.35 1040 21200 (1994) 0 (1954) 813 4 44 73 101 194 428 592 1340 3230
2026-04-11 18:30 7.39 1050 21200 (1994) 0 (1954) 813 4 44 73 101 194 428 592 1340 3230
2026-04-11 17:30 7.46 1080 21200 (1994) 0 (1954) 813 4 44 73 101 194 428 592 1340 3230
2026-04-11 16:30 7.52 1110 21200 (1994) 0 (1954) 813 4 44 73 101 194 428 592 1340 3230
2026-04-11 15:30 7.59 1140 21200 (1994) 0 (1954) 813 4 44 73 101 194 428 592 1340 3230
2026-04-11 14:30 7.65 1170 21200 (1994) 0 (1954) 813 4 44 73 101 194 428 592 1340 3230
2026-04-11 13:30 7.72 1210 21200 (1994) 0 (1954) 813 4 44 73 101 194 428 592 1340 3230
2026-04-11 12:30 7.78 1240 21200 (1994) 0 (1954) 813 4 44 73 101 194 428 592 1340 3230
2026-04-11 11:30 7.84 1260 21200 (1994) 0 (1954) 813 4 44 73 101 194 428 592 1340 3230
2026-04-11 10:30 7.86 1270 21200 (1994) 0 (1954) 813 4 44 73 101 194 428 592 1340 3230
2026-04-11 09:30 7.86 1270 21200 (1994) 0 (1954) 813 4 44 73 101 194 428 592 1340 3230
2026-04-11 08:30 7.80 1240 21200 (1994) 0 (1954) 813 4 44 73 101 194 428 592 1340 3230
2026-04-11 07:30 7.69 1190 21200 (1994) 0 (1954) 813 4 44 73 101 194 428 592 1340 3230
2026-04-11 06:30 7.49 1100 21200 (1994) 0 (1954) 813 4 44 73 101 194 428 592 1340 3230
2026-04-11 05:30 7.18 965 21200 (1994) 0 (1954) 813 4 44 73 101 194 428 592 1340 3230
2026-04-11 04:30 6.81 820 21200 (1994) 0 (1954) 813 4 44 73 101 194 428 592 1340 3230
2026-04-11 03:30 6.49 705 21200 (1994) 0 (1954) 813 4 44 73 101 194 428 592 1340 3230
2026-04-11 02:30 6.29 638 21200 (1994) 0 (1954) 813 4 44 73 101 194 428 592 1340 3230
2026-04-11 01:30 6.15 593 21200 (1994) 0 (1954) 813 4 44 73 101 194 428 592 1340 3230
2026-04-11 00:30 6.03 556 21200 (1994) 0 (1954) 813 4 44 73 101 194 428 592 1340 3230
2026-04-10 23:30 5.94 529 21200 (1994) 0 (1954) 813 4 44 73 101 194 428 592 1340 3230
2026-04-10 22:30 5.89 515 8410 (2008) 0 (1954) 479 4 44 68 87 183 391 579 979 1630
2026-04-10 21:30 5.89 515 8410 (2008) 0 (1954) 479 4 44 68 87 183 391 579 979 1630
2026-04-10 20:30 5.91 521 8410 (2008) 0 (1954) 479 4 44 68 87 183 391 579 979 1630
2026-04-10 19:30 5.93 526 8410 (2008) 0 (1954) 479 4 44 68 87 183 391 579 979 1630
2026-04-10 18:30 5.90 518 8410 (2008) 0 (1954) 479 4 44 68 87 183 391 579 979 1630
2026-04-10 17:30 5.81 492 8410 (2008) 0 (1954) 479 4 44 68 87 183 391 579 979 1630
2026-04-10 16:30 5.67 453 8410 (2008) 0 (1954) 479 4 44 68 87 183 391 579 979 1630
2026-04-10 15:30 5.50 408 8410 (2008) 0 (1954) 479 4 44 68 87 183 391 579 979 1630
2026-04-10 14:30 5.30 359 8410 (2008) 0 (1954) 479 4 44 68 87 183 391 579 979 1630
2026-04-10 13:30 5.14 322 8410 (2008) 0 (1954) 479 4 44 68 87 183 391 579 979 1630
2026-04-10 12:30 4.96 283 8410 (2008) 0 (1954) 479 4 44 68 87 183 391 579 979 1630
2026-04-10 11:30 4.79 249 8410 (2008) 0 (1954) 479 4 44 68 87 183 391 579 979 1630
2026-04-10 10:30 4.74 239 8410 (2008) 0 (1954) 479 4 44 68 87 183 391 579 979 1630
2026-04-10 09:30 4.71 234 8410 (2008) 0 (1954) 479 4 44 68 87 183 391 579 979 1630
2026-04-10 08:30 4.68 228 8410 (2008) 0 (1954) 479 4 44 68 87 183 391 579 979 1630
2026-04-10 07:30 4.67 226 8410 (2008) 0 (1954) 479 4 44 68 87 183 391 579 979 1630
2026-04-10 06:30 4.66 224 8410 (2008) 0 (1954) 479 4 44 68 87 183 391 579 979 1630
2026-04-10 05:30 4.67 226 8410 (2008) 0 (1954) 479 4 44 68 87 183 391 579 979 1630
2026-04-10 04:30 4.68 228 8410 (2008) 0 (1954) 479 4 44 68 87 183 391 579 979 1630
2026-04-10 03:30 4.69 230 8410 (2008) 0 (1954) 479 4 44 68 87 183 391 579 979 1630
2026-04-10 02:30 4.70 232 8410 (2008) 0 (1954) 479 4 44 68 87 183 391 579 979 1630
2026-04-10 01:30 4.70 232 8410 (2008) 0 (1954) 479 4 44 68 87 183 391 579 979 1630
2026-04-10 00:30 4.71 234 8410 (2008) 0 (1954) 479 4 44 68 87 183 391 579 979 1630
2026-04-09 23:30 4.72 236 8410 (2008) 0 (1954) 479 4 44 68 87 183 391 579 979 1630
2026-04-09 22:30 4.73 237 4610 (1984) 0 (1954) 402 3 46 66 84 186 385 436 765 2420
2026-04-09 21:30 4.74 239 4610 (1984) 0 (1954) 402 3 46 66 84 186 385 436 765 2420
2026-04-09 20:30 4.75 241 4610 (1984) 0 (1954) 402 3 46 66 84 186 385 436 765 2420
2026-04-09 19:30 4.76 243 4610 (1984) 0 (1954) 402 3 46 66 84 186 385 436 765 2420
2026-04-09 18:30 4.77 245 4610 (1984) 0 (1954) 402 3 46 66 84 186 385 436 765 2420
2026-04-09 17:30 4.78 247 4610 (1984) 0 (1954) 402 3 46 66 84 186 385 436 765 2420
2026-04-09 16:30 4.79 249 4610 (1984) 0 (1954) 402 3 46 66 84 186 385 436 765 2420
2026-04-09 15:30 4.80 251 4610 (1984) 0 (1954) 402 3 46 66 84 186 385 436 765 2420
2026-04-09 14:30 4.81 253 4610 (1984) 0 (1954) 402 3 46 66 84 186 385 436 765 2420
2026-04-09 13:30 4.81 253 4610 (1984) 0 (1954) 402 3 46 66 84 186 385 436 765 2420
2026-04-09 12:30 4.82 255 4610 (1984) 0 (1954) 402 3 46 66 84 186 385 436 765 2420
2026-04-09 11:30 4.83 257 4610 (1984) 0 (1954) 402 3 46 66 84 186 385 436 765 2420
2026-04-09 10:30 4.84 259 4610 (1984) 0 (1954) 402 3 46 66 84 186 385 436 765 2420
2026-04-09 09:30 4.85 261 4610 (1984) 0 (1954) 402 3 46 66 84 186 385 436 765 2420
2026-04-09 08:30 4.87 265 4610 (1984) 0 (1954) 402 3 46 66 84 186 385 436 765 2420
2026-04-09 07:30 4.88 267 4610 (1984) 0 (1954) 402 3 46 66 84 186 385 436 765 2420
2026-04-09 06:30 4.89 269 4610 (1984) 0 (1954) 402 3 46 66 84 186 385 436 765 2420
2026-04-09 05:30 4.90 271 4610 (1984) 0 (1954) 402 3 46 66 84 186 385 436 765 2420
2026-04-09 04:30 4.91 273 4610 (1984) 0 (1954) 402 3 46 66 84 186 385 436 765 2420
2026-04-09 03:30 4.93 277 4610 (1984) 0 (1954) 402 3 46 66 84 186 385 436 765 2420
2026-04-09 02:30 4.94 279 4610 (1984) 0 (1954) 402 3 46 66 84 186 385 436 765 2420
2026-04-09 01:30 4.95 281 4610 (1984) 0 (1954) 402 3 46 66 84 186 385 436 765 2420
2026-04-09 00:30 4.97 285 4610 (1984) 0 (1954) 402 3 46 66 84 186 385 436 765 2420
2026-04-08 23:30 4.98 287 4610 (1984) 0 (1954) 402 3 46 66 84 186 385 436 765 2420
2026-04-08 22:30 4.99 290 4710 (1984) 0 (1954) 376 3 49 71 94 200 431 484 657 1820
2026-04-08 21:30 5.01 294 4710 (1984) 0 (1954) 376 3 49 71 94 200 431 484 657 1820
2026-04-08 20:30 5.02 296 4710 (1984) 0 (1954) 376 3 49 71 94 200 431 484 657 1820
2026-04-08 19:30 5.03 298 4710 (1984) 0 (1954) 376 3 49 71 94 200 431 484 657 1820
2026-04-08 18:30 5.04 300 4710 (1984) 0 (1954) 376 3 49 71 94 200 431 484 657 1820
2026-04-08 17:30 5.05 302 4710 (1984) 0 (1954) 376 3 49 71 94 200 431 484 657 1820
2026-04-08 16:30 5.06 305 4710 (1984) 0 (1954) 376 3 49 71 94 200 431 484 657 1820
2026-04-08 15:30 5.07 307 4710 (1984) 0 (1954) 376 3 49 71 94 200 431 484 657 1820
2026-04-08 14:30 5.08 309 4710 (1984) 0 (1954) 376 3 49 71 94 200 431 484 657 1820
2026-04-08 13:30 5.09 311 4710 (1984) 0 (1954) 376 3 49 71 94 200 431 484 657 1820
2026-04-08 12:30 5.10 313 4710 (1984) 0 (1954) 376 3 49 71 94 200 431 484 657 1820
2026-04-08 11:30 5.11 315 4710 (1984) 0 (1954) 376 3 49 71 94 200 431 484 657 1820
2026-04-08 10:30 5.13 320 4710 (1984) 0 (1954) 376 3 49 71 94 200 431 484 657 1820
2026-04-08 09:30 5.14 322 4710 (1984) 0 (1954) 376 3 49 71 94 200 431 484 657 1820
2026-04-08 08:30 5.15 324 4710 (1984) 0 (1954) 376 3 49 71 94 200 431 484 657 1820
2026-04-08 07:30 5.17 329 4710 (1984) 0 (1954) 376 3 49 71 94 200 431 484 657 1820
2026-04-08 06:30 5.18 331 4710 (1984) 0 (1954) 376 3 49 71 94 200 431 484 657 1820
2026-04-08 05:30 5.19 333 4710 (1984) 0 (1954) 376 3 49 71 94 200 431 484 657 1820
2026-04-08 04:30 5.20 336 4710 (1984) 0 (1954) 376 3 49 71 94 200 431 484 657 1820
2026-04-08 03:30 5.22 340 4710 (1984) 0 (1954) 376 3 49 71 94 200 431 484 657 1820
2026-04-08 02:30 5.23 343 4710 (1984) 0 (1954) 376 3 49 71 94 200 431 484 657 1820
2026-04-08 01:30 5.25 347 4710 (1984) 0 (1954) 376 3 49 71 94 200 431 484 657 1820
2026-04-08 00:30 5.27 352 4710 (1984) 0 (1954) 376 3 49 71 94 200 431 484 657 1820
2026-04-07 23:30 5.29 357 4710 (1984) 0 (1954) 376 3 49 71 94 200 431 484 657 1820
2026-04-07 22:30 5.31 362 4500 (1965) 0 (1954) 381 3 51 75 102 218 473 573 931 1270
2026-04-07 21:30 5.33 366 4500 (1965) 0 (1954) 381 3 51 75 102 218 473 573 931 1270
2026-04-07 20:30 5.35 371 4500 (1965) 0 (1954) 381 3 51 75 102 218 473 573 931 1270
2026-04-07 19:30 5.37 376 4500 (1965) 0 (1954) 381 3 51 75 102 218 473 573 931 1270
2026-04-07 18:30 5.39 319 4500 (1965) 0 (1954) 381 3 51 75 102 218 473 573 931 1270
2026-04-07 17:30 5.41 324 4500 (1965) 0 (1954) 381 3 51 75 102 218 473 573 931 1270
2026-04-07 16:30 5.43 329 4500 (1965) 0 (1954) 381 3 51 75 102 218 473 573 931 1270
2026-04-07 15:30 5.44 332 4500 (1965) 0 (1954) 381 3 51 75 102 218 473 573 931 1270
2026-04-07 14:30 5.46 337 4500 (1965) 0 (1954) 381 3 51 75 102 218 473 573 931 1270
2026-04-07 13:30 5.47 340 4500 (1965) 0 (1954) 381 3 51 75 102 218 473 573 931 1270
2026-04-07 12:30 5.48 342 4500 (1965) 0 (1954) 381 3 51 75 102 218 473 573 931 1270
2026-04-07 11:30 5.49 345 4500 (1965) 0 (1954) 381 3 51 75 102 218 473 573 931 1270
2026-04-07 10:30 5.50 347 4500 (1965) 0 (1954) 381 3 51 75 102 218 473 573 931 1270
2026-04-07 09:30 5.52 353 4500 (1965) 0 (1954) 381 3 51 75 102 218 473 573 931 1270
2026-04-07 08:30 5.53 355 4500 (1965) 0 (1954) 381 3 51 75 102 218 473 573 931 1270
2026-04-07 07:30 5.55 361 4500 (1965) 0 (1954) 381 3 51 75 102 218 473 573 931 1270
2026-04-07 06:30 5.57 366 4500 (1965) 0 (1954) 381 3 51 75 102 218 473 573 931 1270
2026-04-07 05:30 5.59 372 4500 (1965) 0 (1954) 381 3 51 75 102 218 473 573 931 1270
2026-04-07 04:30 5.62 380 4500 (1965) 0 (1954) 381 3 51 75 102 218 473 573 931 1270
2026-04-07 03:30 5.64 385 4500 (1965) 0 (1954) 381 3 51 75 102 218 473 573 931 1270
2026-04-07 02:30 5.66 391 4500 (1965) 0 (1954) 381 3 51 75 102 218 473 573 931 1270
2026-04-07 01:30 5.68 397 4500 (1965) 0 (1954) 381 3 51 75 102 218 473 573 931 1270
2026-04-07 00:30 5.71 405 4500 (1965) 0 (1954) 381 3 51 75 102 218 473 573 931 1270
2026-04-06 23:30 5.74 414 4500 (1965) 0 (1954) 381 3 51 75 102 218 473 573 931 1270
2026-04-06 22:30 5.76 419 7200 (1965) 0 (1954) 556 4 54 83 99 212 493 636 1010 3160
2026-04-06 21:30 5.78 425 7200 (1965) 0 (1954) 556 4 54 83 99 212 493 636 1010 3160
2026-04-06 20:30 5.81 434 7200 (1965) 0 (1954) 556 4 54 83 99 212 493 636 1010 3160
2026-04-06 19:30 5.84 443 7200 (1965) 0 (1954) 556 4 54 83 99 212 493 636 1010 3160
2026-04-06 18:30 5.87 452 7200 (1965) 0 (1954) 556 4 54 83 99 212 493 636 1010 3160
2026-04-06 17:30 5.90 461 7200 (1965) 0 (1954) 556 4 54 83 99 212 493 636 1010 3160
2026-04-06 16:30 5.93 471 7200 (1965) 0 (1954) 556 4 54 83 99 212 493 636 1010 3160
2026-04-06 15:30 5.97 483 7200 (1965) 0 (1954) 556 4 54 83 99 212 493 636 1010 3160
2026-04-06 14:30 6.01 496 7200 (1965) 0 (1954) 556 4 54 83 99 212 493 636 1010 3160
2026-04-06 13:30 6.03 502 7200 (1965) 0 (1954) 556 4 54 83 99 212 493 636 1010 3160
2026-04-06 12:30 6.08 518 7200 (1965) 0 (1954) 556 4 54 83 99 212 493 636 1010 3160
2026-04-06 11:30 6.12 532 7200 (1965) 0 (1954) 556 4 54 83 99 212 493 636 1010 3160
2026-04-06 10:30 6.16 545 7200 (1965) 0 (1954) 556 4 54 83 99 212 493 636 1010 3160
2026-04-06 09:30 6.21 562 7200 (1965) 0 (1954) 556 4 54 83 99 212 493 636 1010 3160
2026-04-06 08:30 6.26 579 7200 (1965) 0 (1954) 556 4 54 83 99 212 493 636 1010 3160
2026-04-06 07:30 6.31 597 7200 (1965) 0 (1954) 556 4 54 83 99 212 493 636 1010 3160
2026-04-06 06:30 6.37 618 7200 (1965) 0 (1954) 556 4 54 83 99 212 493 636 1010 3160
2026-04-06 05:30 6.43 640 7200 (1965) 0 (1954) 556 4 54 83 99 212 493 636 1010 3160
2026-04-06 04:30 6.49 662 7200 (1965) 0 (1954) 556 4 54 83 99 212 493 636 1010 3160
2026-04-06 03:30 6.55 685 7200 (1965) 0 (1954) 556 4 54 83 99 212 493 636 1010 3160
2026-04-06 02:30 6.63 716 7200 (1965) 0 (1954) 556 4 54 83 99 212 493 636 1010 3160
2026-04-06 01:30 6.70 744 7200 (1965) 0 (1954) 556 4 54 83 99 212 493 636 1010 3160
2026-04-06 00:30 6.79 780 7200 (1965) 0 (1954) 556 4 54 83 99 212 493 636 1010 3160
2026-04-05 23:30 6.86 809 7200 (1965) 0 (1954) 556 4 54 83 99 212 493 636 1010 3160
2026-04-05 22:30 6.94 843 7100 (1965) 0 (1954) 596 4 59 84 99 221 502 714 1700 2610
2026-04-05 21:30 7.02 877 7100 (1965) 0 (1954) 596 4 59 84 99 221 502 714 1700 2610
2026-04-05 20:30 7.09 908 7100 (1965) 0 (1954) 596 4 59 84 99 221 502 714 1700 2610
2026-04-05 19:30 7.15 935 7100 (1965) 0 (1954) 596 4 59 84 99 221 502 714 1700 2610
2026-04-05 18:30 7.22 967 7100 (1965) 0 (1954) 596 4 59 84 99 221 502 714 1700 2610
2026-04-05 17:30 7.24 977 7100 (1965) 0 (1954) 596 4 59 84 99 221 502 714 1700 2610
2026-04-05 16:30 7.28 995 7100 (1965) 0 (1954) 596 4 59 84 99 221 502 714 1700 2610
2026-04-05 15:30 7.29 1000 7100 (1965) 0 (1954) 596 4 59 84 99 221 502 714 1700 2610
2026-04-05 14:30 7.30 1000 7100 (1965) 0 (1954) 596 4 59 84 99 221 502 714 1700 2610
2026-04-05 13:30 7.31 1010 7100 (1965) 0 (1954) 596 4 59 84 99 221 502 714 1700 2610
2026-04-05 12:30 7.31 1010 7100 (1965) 0 (1954) 596 4 59 84 99 221 502 714 1700 2610
2026-04-05 11:30 7.33 1020 7100 (1965) 0 (1954) 596 4 59 84 99 221 502 714 1700 2610
2026-04-05 10:30 7.38 1040 7100 (1965) 0 (1954) 596 4 59 84 99 221 502 714 1700 2610
2026-04-05 09:30 7.42 1060 7100 (1965) 0 (1954) 596 4 59 84 99 221 502 714 1700 2610
2026-04-05 08:30 7.50 1100 7100 (1965) 0 (1954) 596 4 59 84 99 221 502 714 1700 2610
2026-04-05 07:30 7.58 1140 7100 (1965) 0 (1954) 596 4 59 84 99 221 502 714 1700 2610
2026-04-05 06:30 7.68 1190 7100 (1965) 0 (1954) 596 4 59 84 99 221 502 714 1700 2610
2026-04-05 05:30 7.79 1240 7100 (1965) 0 (1954) 596 4 59 84 99 221 502 714 1700 2610
2026-04-05 04:30 7.91 1300 7100 (1965) 0 (1954) 596 4 59 84 99 221 502 714 1700 2610
2026-04-05 03:30 8.03 1360 7100 (1965) 0 (1954) 596 4 59 84 99 221 502 714 1700 2610
2026-04-05 02:30 8.16 1430 7100 (1965) 0 (1954) 596 4 59 84 99 221 502 714 1700 2610
2026-04-05 01:30 8.29 1500 7100 (1965) 0 (1954) 596 4 59 84 99 221 502 714 1700 2610
2026-04-05 00:30 8.40 1560 7100 (1965) 0 (1954) 596 4 59 84 99 221 502 714 1700 2610
2026-04-04 23:30 8.49 1600 7100 (1965) 0 (1954) 596 4 59 84 99 221 502 714 1700 2610
2026-04-04 22:30 8.58 1650 8130 (1965) 0 (1954) 639 4 56 87 110 242 534 616 2200 3200
2026-04-04 21:30 8.68 1690 8130 (1965) 0 (1954) 639 4 56 87 110 242 534 616 2200 3200
2026-04-04 20:30 8.74 1720 8130 (1965) 0 (1954) 639 4 56 87 110 242 534 616 2200 3200
2026-04-04 19:30 8.80 1750 8130 (1965) 0 (1954) 639 4 56 87 110 242 534 616 2200 3200
2026-04-04 18:30 8.89 1790 8130 (1965) 0 (1954) 639 4 56 87 110 242 534 616 2200 3200
2026-04-04 17:30 8.95 1820 8130 (1965) 0 (1954) 639 4 56 87 110 242 534 616 2200 3200
2026-04-04 16:30 8.99 1840 8130 (1965) 0 (1954) 639 4 56 87 110 242 534 616 2200 3200
2026-04-04 15:30 9.03 1860 8130 (1965) 0 (1954) 639 4 56 87 110 242 534 616 2200 3200
2026-04-04 14:30 9.07 1880 8130 (1965) 0 (1954) 639 4 56 87 110 242 534 616 2200 3200
2026-04-04 13:30 9.10 1890 8130 (1965) 0 (1954) 639 4 56 87 110 242 534 616 2200 3200
2026-04-04 12:30 9.20 1950 8130 (1965) 0 (1954) 639 4 56 87 110 242 534 616 2200 3200
2026-04-04 11:30 9.36 2030 8130 (1965) 0 (1954) 639 4 56 87 110 242 534 616 2200 3200
2026-04-04 10:30 9.60 2150 8130 (1965) 0 (1954) 639 4 56 87 110 242 534 616 2200 3200
2026-04-04 09:30 9.89 2310 8130 (1965) 0 (1954) 639 4 56 87 110 242 534 616 2200 3200
2026-04-04 08:30 10.17 2470 8130 (1965) 0 (1954) 639 4 56 87 110 242 534 616 2200 3200
2026-04-04 07:30 10.32 2550 8130 (1965) 0 (1954) 639 4 56 87 110 242 534 616 2200 3200
2026-04-04 06:30 10.37 2570 8130 (1965) 0 (1954) 639 4 56 87 110 242 534 616 2200 3200
2026-04-04 05:30 10.14 2450 8130 (1965) 0 (1954) 639 4 56 87 110 242 534 616 2200 3200
2026-04-04 04:30 9.62 2170 8130 (1965) 0 (1954) 639 4 56 87 110 242 534 616 2200 3200
2026-04-04 03:30 8.86 1780 8130 (1965) 0 (1954) 639 4 56 87 110 242 534 616 2200 3200
2026-04-04 02:30 8.26 1480 8130 (1965) 0 (1954) 639 4 56 87 110 242 534 616 2200 3200
2026-04-04 01:30 7.84 1260 8130 (1965) 0 (1954) 639 4 56 87 110 242 534 616 2200 3200
2026-04-04 00:30 7.31 1010 8130 (1965) 0 (1954) 639 4 56 87 110 242 534 616 2200 3200
2026-04-03 23:30 7.22 967 8130 (1965) 0 (1954) 639 4 56 87 110 242 534 616 2200 3200
2026-04-03 22:30 7.23 972 6950 (1988) 0 (1954) 619 3 60 96 113 250 494 622 1740 3170
2026-04-03 21:30 7.32 1010 6950 (1988) 0 (1954) 619 3 60 96 113 250 494 622 1740 3170
2026-04-03 20:30 7.41 1060 6950 (1988) 0 (1954) 619 3 60 96 113 250 494 622 1740 3170
2026-04-03 19:30 7.50 1100 6950 (1988) 0 (1954) 619 3 60 96 113 250 494 622 1740 3170
2026-04-03 18:30 7.60 1150 6950 (1988) 0 (1954) 619 3 60 96 113 250 494 622 1740 3170
2026-04-03 17:30 7.68 1190 6950 (1988) 0 (1954) 619 3 60 96 113 250 494 622 1740 3170
2026-04-03 16:30 7.77 1230 6950 (1988) 0 (1954) 619 3 60 96 113 250 494 622 1740 3170
2026-04-03 15:30 7.86 1270 6950 (1988) 0 (1954) 619 3 60 96 113 250 494 622 1740 3170
2026-04-03 14:30 7.95 1320 6950 (1988) 0 (1954) 619 3 60 96 113 250 494 622 1740 3170
2026-04-03 13:30 8.04 1370 6950 (1988) 0 (1954) 619 3 60 96 113 250 494 622 1740 3170
2026-04-03 12:30 8.14 1420 6950 (1988) 0 (1954) 619 3 60 96 113 250 494 622 1740 3170
2026-04-03 11:30 8.26 1480 6950 (1988) 0 (1954) 619 3 60 96 113 250 494 622 1740 3170
2026-04-03 10:30 8.41 1570 6950 (1988) 0 (1954) 619 3 60 96 113 250 494 622 1740 3170
2026-04-03 09:30 8.57 1640 6950 (1988) 0 (1954) 619 3 60 96 113 250 494 622 1740 3170
2026-04-03 08:30 8.78 1740 6950 (1988) 0 (1954) 619 3 60 96 113 250 494 622 1740 3170
2026-04-03 07:30 9.01 1850 6950 (1988) 0 (1954) 619 3 60 96 113 250 494 622 1740 3170
2026-04-03 06:30 9.26 1980 6950 (1988) 0 (1954) 619 3 60 96 113 250 494 622 1740 3170
2026-04-03 05:30 9.51 2100 6950 (1988) 0 (1954) 619 3 60 96 113 250 494 622 1740 3170
2026-04-03 04:30 9.78 2250 6950 (1988) 0 (1954) 619 3 60 96 113 250 494 622 1740 3170
2026-04-03 03:30 10.09 2420 6950 (1988) 0 (1954) 619 3 60 96 113 250 494 622 1740 3170
2026-04-03 02:30 10.31 2540 6950 (1988) 0 (1954) 619 3 60 96 113 250 494 622 1740 3170
2026-04-03 01:30 10.52 2650 6950 (1988) 0 (1954) 619 3 60 96 113 250 494 622 1740 3170
2026-04-03 00:30 10.66 2720 6950 (1988) 0 (1954) 619 3 60 96 113 250 494 622 1740 3170
2026-04-02 23:30 10.75 2770 6950 (1988) 0 (1954) 619 3 60 96 113 250 494 622 1740 3170
2026-04-02 22:30 10.73 2760 7190 (1988) 0 (1954) 519 3 62 96 109 234 456 597 944 1760
2026-04-02 21:30 10.63 2700 7190 (1988) 0 (1954) 519 3 62 96 109 234 456 597 944 1760
2026-04-02 20:30 10.47 2620 7190 (1988) 0 (1954) 519 3 62 96 109 234 456 597 944 1760
2026-04-02 19:30 10.24 2510 7190 (1988) 0 (1954) 519 3 62 96 109 234 456 597 944 1760
2026-04-02 18:30 9.99 2370 7190 (1988) 0 (1954) 519 3 62 96 109 234 456 597 944 1760
2026-04-02 17:30 9.73 2220 7190 (1988) 0 (1954) 519 3 62 96 109 234 456 597 944 1760
2026-04-02 16:30 9.49 2100 7190 (1988) 0 (1954) 519 3 62 96 109 234 456 597 944 1760
2026-04-02 15:30 9.27 1980 7190 (1988) 0 (1954) 519 3 62 96 109 234 456 597 944 1760
2026-04-02 14:30 9.03 1860 7190 (1988) 0 (1954) 519 3 62 96 109 234 456 597 944 1760
2026-04-02 13:30 8.75 1730 7190 (1988) 0 (1954) 519 3 62 96 109 234 456 597 944 1760
2026-04-02 12:30 8.51 1610 7190 (1988) 0 (1954) 519 3 62 96 109 234 456 597 944 1760
2026-04-02 11:30 8.29 1500 7190 (1988) 0 (1954) 519 3 62 96 109 234 456 597 944 1760
2026-04-02 09:30 7.82 1250 7190 (1988) 0 (1954) 519 3 62 96 109 234 456 597 944 1760
2026-04-02 08:30 7.41 1060 7190 (1988) 0 (1954) 519 3 62 96 109 234 456 597 944 1760
2026-04-02 07:30 6.71 748 7190 (1988) 0 (1954) 519 3 62 96 109 234 456 597 944 1760
2026-04-02 06:30 5.99 489 7190 (1988) 0 (1954) 519 3 62 96 109 234 456 597 944 1760
2026-04-02 05:30 5.38 317 7190 (1988) 0 (1954) 519 3 62 96 109 234 456 597 944 1760
2026-04-02 04:30 4.77 184 7190 (1988) 0 (1954) 519 3 62 96 109 234 456 597 944 1760
2026-04-02 03:30 4.29 103 7190 (1988) 0 (1954) 519 3 62 96 109 234 456 597 944 1760
2026-04-02 02:30 4.07 71 7190 (1988) 0 (1954) 519 3 62 96 109 234 456 597 944 1760
2026-04-02 01:30 3.99 61 7190 (1988) 0 (1954) 519 3 62 96 109 234 456 597 944 1760
2026-04-02 00:30 3.91 52 7190 (1988) 0 (1954) 519 3 62 96 109 234 456 597 944 1760
2026-04-01 23:30 3.84 45 7190 (1988) 0 (1954) 519 3 62 96 109 234 456 597 944 1760
2026-04-01 22:30 3.76 38 4480 (2008) 0 (1954) 460 3 64 101 117 255 492 584 1310 1810
2026-04-01 21:30 3.71 34 4480 (2008) 0 (1954) 460 3 64 101 117 255 492 584 1310 1810
2026-04-01 20:30 3.69 32 4480 (2008) 0 (1954) 460 3 64 101 117 255 492 584 1310 1810
2026-04-01 19:30 3.68 31 4480 (2008) 0 (1954) 460 3 64 101 117 255 492 584 1310 1810
2026-04-01 18:30 3.65 29 4480 (2008) 0 (1954) 460 3 64 101 117 255 492 584 1310 1810
2026-04-01 17:30 3.64 28 4480 (2008) 0 (1954) 460 3 64 101 117 255 492 584 1310 1810
2026-04-01 16:30 3.63 27 4480 (2008) 0 (1954) 460 3 64 101 117 255 492 584 1310 1810
2026-04-01 15:30 3.62 27 4480 (2008) 0 (1954) 460 3 64 101 117 255 492 584 1310 1810
2026-04-01 14:30 3.60 25 4480 (2008) 0 (1954) 460 3 64 101 117 255 492 584 1310 1810
2026-04-01 13:30 3.59 25 4480 (2008) 0 (1954) 460 3 64 101 117 255 492 584 1310 1810
2026-04-01 12:30 3.56 22 4480 (2008) 0 (1954) 460 3 64 101 117 255 492 584 1310 1810
2026-04-01 11:30 3.56 22 4480 (2008) 0 (1954) 460 3 64 101 117 255 492 584 1310 1810
2026-04-01 10:30 3.56 22 4480 (2008) 0 (1954) 460 3 64 101 117 255 492 584 1310 1810
2026-04-01 09:30 3.56 22 4480 (2008) 0 (1954) 460 3 64 101 117 255 492 584 1310 1810
2026-04-01 08:30 3.56 22 4480 (2008) 0 (1954) 460 3 64 101 117 255 492 584 1310 1810
2026-04-01 07:30 3.56 22 4480 (2008) 0 (1954) 460 3 64 101 117 255 492 584 1310 1810
2026-04-01 06:30 3.56 22 4480 (2008) 0 (1954) 460 3 64 101 117 255 492 584 1310 1810
2026-04-01 05:30 3.55 21 4480 (2008) 0 (1954) 460 3 64 101 117 255 492 584 1310 1810
2026-04-01 04:30 3.55 21 4480 (2008) 0 (1954) 460 3 64 101 117 255 492 584 1310 1810
2026-04-01 03:30 3.55 21 4480 (2008) 0 (1954) 460 3 64 101 117 255 492 584 1310 1810
2026-04-01 02:30 3.55 21 4480 (2008) 0 (1954) 460 3 64 101 117 255 492 584 1310 1810
2026-04-01 01:30 3.53 20 4480 (2008) 0 (1954) 460 3 64 101 117 255 492 584 1310 1810
2026-04-01 00:30 3.52 19 4480 (2008) 0 (1954) 460 3 64 101 117 255 492 584 1310 1810
2026-03-31 23:30 3.52 19 4480 (2008) 0 (1954) 460 3 64 101 117 255 492 584 1310 1810
2026-03-31 22:30 3.52 19 4420 (1985) 0 (1954) 518 3 57 110 122 241 450 636 1330 2570
2026-03-31 21:30 3.52 19 4420 (1985) 0 (1954) 518 3 57 110 122 241 450 636 1330 2570
2026-03-31 20:30 3.52 19 4420 (1985) 0 (1954) 518 3 57 110 122 241 450 636 1330 2570
2026-03-31 19:30 3.52 19 4420 (1985) 0 (1954) 518 3 57 110 122 241 450 636 1330 2570
2026-03-31 18:30 3.52 19 4420 (1985) 0 (1954) 518 3 57 110 122 241 450 636 1330 2570
2026-03-31 17:30 3.52 19 4420 (1985) 0 (1954) 518 3 57 110 122 241 450 636 1330 2570
2026-03-31 16:30 3.52 19 4420 (1985) 0 (1954) 518 3 57 110 122 241 450 636 1330 2570
2026-03-31 15:30 3.52 19 4420 (1985) 0 (1954) 518 3 57 110 122 241 450 636 1330 2570
2026-03-31 14:30 3.53 20 4420 (1985) 0 (1954) 518 3 57 110 122 241 450 636 1330 2570
2026-03-31 13:30 3.52 19 4420 (1985) 0 (1954) 518 3 57 110 122 241 450 636 1330 2570
2026-03-31 12:30 3.53 20 4420 (1985) 0 (1954) 518 3 57 110 122 241 450 636 1330 2570
2026-03-31 11:30 3.53 20 4420 (1985) 0 (1954) 518 3 57 110 122 241 450 636 1330 2570
2026-03-31 10:30 3.53 20 4420 (1985) 0 (1954) 518 3 57 110 122 241 450 636 1330 2570
2026-03-31 09:30 3.53 20 4420 (1985) 0 (1954) 518 3 57 110 122 241 450 636 1330 2570
2026-03-31 08:30 3.54 21 4420 (1985) 0 (1954) 518 3 57 110 122 241 450 636 1330 2570
2026-03-31 07:30 3.54 21 4420 (1985) 0 (1954) 518 3 57 110 122 241 450 636 1330 2570
2026-03-31 06:30 3.54 21 4420 (1985) 0 (1954) 518 3 57 110 122 241 450 636 1330 2570
2026-03-31 05:30 3.54 21 4420 (1985) 0 (1954) 518 3 57 110 122 241 450 636 1330 2570
2026-03-31 04:30 3.54 21 4420 (1985) 0 (1954) 518 3 57 110 122 241 450 636 1330 2570
2026-03-31 03:30 3.55 21 4420 (1985) 0 (1954) 518 3 57 110 122 241 450 636 1330 2570
2026-03-31 02:30 3.55 21 4420 (1985) 0 (1954) 518 3 57 110 122 241 450 636 1330 2570
2026-03-31 01:30 3.55 21 4420 (1985) 0 (1954) 518 3 57 110 122 241 450 636 1330 2570
2026-03-31 00:30 3.55 21 4420 (1985) 0 (1954) 518 3 57 110 122 241 450 636 1330 2570
2026-03-30 23:30 3.55 21 4420 (1985) 0 (1954) 518 3 57 110 122 241 450 636 1330 2570
2026-03-30 22:30 3.56 22 4600 (1980) 0 (2006) 543 4 36 103 120 210 463 742 1230 3330
2026-03-30 21:30 3.55 21 4600 (1980) 0 (2006) 543 4 36 103 120 210 463 742 1230 3330
2026-03-30 20:30 3.56 22 4600 (1980) 0 (2006) 543 4 36 103 120 210 463 742 1230 3330
2026-03-30 19:30 3.56 22 4600 (1980) 0 (2006) 543 4 36 103 120 210 463 742 1230 3330
2026-03-30 18:30 3.56 22 4600 (1980) 0 (2006) 543 4 36 103 120 210 463 742 1230 3330
2026-03-30 17:30 3.56 22 4600 (1980) 0 (2006) 543 4 36 103 120 210 463 742 1230 3330
2026-03-30 16:30 3.56 22 4600 (1980) 0 (2006) 543 4 36 103 120 210 463 742 1230 3330
2026-03-30 15:30 3.56 22 4600 (1980) 0 (2006) 543 4 36 103 120 210 463 742 1230 3330
2026-03-30 14:30 3.56 22 4600 (1980) 0 (2006) 543 4 36 103 120 210 463 742 1230 3330
2026-03-30 13:30 3.56 22 4600 (1980) 0 (2006) 543 4 36 103 120 210 463 742 1230 3330
2026-03-30 12:30 3.56 22 4600 (1980) 0 (2006) 543 4 36 103 120 210 463 742 1230 3330
2026-03-30 11:30 3.57 23 4600 (1980) 0 (2006) 543 4 36 103 120 210 463 742 1230 3330
2026-03-30 10:30 3.57 23 4600 (1980) 0 (2006) 543 4 36 103 120 210 463 742 1230 3330
2026-03-30 09:30 3.57 23 4600 (1980) 0 (2006) 543 4 36 103 120 210 463 742 1230 3330
2026-03-30 08:30 3.57 23 4600 (1980) 0 (2006) 543 4 36 103 120 210 463 742 1230 3330
2026-03-30 07:30 3.57 23 4600 (1980) 0 (2006) 543 4 36 103 120 210 463 742 1230 3330
2026-03-30 06:30 3.56 22 4600 (1980) 0 (2006) 543 4 36 103 120 210 463 742 1230 3330
2026-03-30 05:30 3.57 23 4600 (1980) 0 (2006) 543 4 36 103 120 210 463 742 1230 3330
2026-03-30 04:30 3.57 23 4600 (1980) 0 (2006) 543 4 36 103 120 210 463 742 1230 3330
2026-03-30 03:30 3.57 23 4600 (1980) 0 (2006) 543 4 36 103 120 210 463 742 1230 3330
2026-03-30 02:30 3.57 23 4600 (1980) 0 (2006) 543 4 36 103 120 210 463 742 1230 3330
2026-03-30 01:30 3.57 23 4600 (1980) 0 (2006) 543 4 36 103 120 210 463 742 1230 3330
2026-03-30 00:30 3.57 23 4600 (1980) 0 (2006) 543 4 36 103 120 210 463 742 1230 3330
2026-03-29 23:30 3.57 23 4600 (1980) 0 (2006) 543 4 36 103 120 210 463 742 1230 3330
2026-03-29 22:30 3.57 23 3690 (1975) 0 (2006) 517 4 35 88 111 234 521 688 1210 2850
2026-03-29 21:30 3.56 22 3690 (1975) 0 (2006) 517 4 35 88 111 234 521 688 1210 2850
2026-03-29 20:30 3.57 23 3690 (1975) 0 (2006) 517 4 35 88 111 234 521 688 1210 2850
2026-03-29 19:30 3.57 23 3690 (1975) 0 (2006) 517 4 35 88 111 234 521 688 1210 2850
2026-03-29 18:30 3.57 23 3690 (1975) 0 (2006) 517 4 35 88 111 234 521 688 1210 2850
2026-03-29 17:30 3.57 23 3690 (1975) 0 (2006) 517 4 35 88 111 234 521 688 1210 2850
2026-03-29 16:30 3.57 23 3690 (1975) 0 (2006) 517 4 35 88 111 234 521 688 1210 2850
2026-03-29 15:30 3.57 23 3690 (1975) 0 (2006) 517 4 35 88 111 234 521 688 1210 2850
2026-03-29 14:30 3.58 24 3690 (1975) 0 (2006) 517 4 35 88 111 234 521 688 1210 2850
2026-03-29 13:30 3.58 24 3690 (1975) 0 (2006) 517 4 35 88 111 234 521 688 1210 2850
2026-03-29 12:30 3.58 24 3690 (1975) 0 (2006) 517 4 35 88 111 234 521 688 1210 2850
2026-03-29 11:30 3.59 25 3690 (1975) 0 (2006) 517 4 35 88 111 234 521 688 1210 2850
2026-03-29 10:30 3.58 24 3690 (1975) 0 (2006) 517 4 35 88 111 234 521 688 1210 2850
2026-03-29 09:30 3.59 25 3690 (1975) 0 (2006) 517 4 35 88 111 234 521 688 1210 2850
2026-03-29 08:30 3.59 25 3690 (1975) 0 (2006) 517 4 35 88 111 234 521 688 1210 2850
2026-03-29 07:30 3.59 25 3690 (1975) 0 (2006) 517 4 35 88 111 234 521 688 1210 2850
2026-03-29 06:30 3.59 25 3690 (1975) 0 (2006) 517 4 35 88 111 234 521 688 1210 2850
2026-03-29 05:30 3.59 25 3690 (1975) 0 (2006) 517 4 35 88 111 234 521 688 1210 2850
2026-03-29 04:30 3.60 25 3690 (1975) 0 (2006) 517 4 35 88 111 234 521 688 1210 2850
2026-03-29 03:30 3.60 25 3690 (1975) 0 (2006) 517 4 35 88 111 234 521 688 1210 2850
2026-03-29 02:30 3.60 25 3690 (1975) 0 (2006) 517 4 35 88 111 234 521 688 1210 2850
2026-03-29 01:30 3.60 25 3690 (1975) 0 (2006) 517 4 35 88 111 234 521 688 1210 2850
2026-03-29 00:30 3.60 25 3690 (1975) 0 (2006) 517 4 35 88 111 234 521 688 1210 2850
2026-03-28 23:30 3.60 25 3690 (1975) 0 (2006) 517 4 35 88 111 234 521 688 1210 2850
2026-03-28 22:30 3.60 25 4710 (1975) 0 (2006) 409 4 35 88 112 211 562 661 935 1190
2026-03-28 21:30 3.60 25 4710 (1975) 0 (2006) 409 4 35 88 112 211 562 661 935 1190
2026-03-28 20:30 3.60 25 4710 (1975) 0 (2006) 409 4 35 88 112 211 562 661 935 1190
2026-03-28 19:30 3.60 25 4710 (1975) 0 (2006) 409 4 35 88 112 211 562 661 935 1190
2026-03-28 18:30 3.60 25 4710 (1975) 0 (2006) 409 4 35 88 112 211 562 661 935 1190
2026-03-28 17:30 3.61 26 4710 (1975) 0 (2006) 409 4 35 88 112 211 562 661 935 1190
2026-03-28 16:30 3.61 26 4710 (1975) 0 (2006) 409 4 35 88 112 211 562 661 935 1190
2026-03-28 15:30 3.61 26 4710 (1975) 0 (2006) 409 4 35 88 112 211 562 661 935 1190
2026-03-28 14:30 3.60 25 4710 (1975) 0 (2006) 409 4 35 88 112 211 562 661 935 1190
2026-03-28 13:30 3.61 26 4710 (1975) 0 (2006) 409 4 35 88 112 211 562 661 935 1190
2026-03-28 12:30 3.61 26 4710 (1975) 0 (2006) 409 4 35 88 112 211 562 661 935 1190
2026-03-28 11:30 3.61 26 4710 (1975) 0 (2006) 409 4 35 88 112 211 562 661 935 1190
2026-03-28 10:30 3.62 27 4710 (1975) 0 (2006) 409 4 35 88 112 211 562 661 935 1190
2026-03-28 09:30 3.62 27 4710 (1975) 0 (2006) 409 4 35 88 112 211 562 661 935 1190
2026-03-28 08:30 3.62 27 4710 (1975) 0 (2006) 409 4 35 88 112 211 562 661 935 1190
2026-03-28 07:30 3.62 27 4710 (1975) 0 (2006) 409 4 35 88 112 211 562 661 935 1190
2026-03-28 06:30 3.62 27 4710 (1975) 0 (2006) 409 4 35 88 112 211 562 661 935 1190
2026-03-28 05:30 3.63 27 4710 (1975) 0 (2006) 409 4 35 88 112 211 562 661 935 1190
2026-03-28 04:30 3.62 27 4710 (1975) 0 (2006) 409 4 35 88 112 211 562 661 935 1190
2026-03-28 03:30 3.63 27 4710 (1975) 0 (2006) 409 4 35 88 112 211 562 661 935 1190
2026-03-28 02:30 3.63 27 4710 (1975) 0 (2006) 409 4 35 88 112 211 562 661 935 1190
2026-03-28 01:30 3.63 27 4710 (1975) 0 (2006) 409 4 35 88 112 211 562 661 935 1190
2026-03-28 00:30 3.63 27 4710 (1975) 0 (2006) 409 4 35 88 112 211 562 661 935 1190
2026-03-27 23:30 3.63 27 4710 (1975) 0 (2006) 409 4 35 88 112 211 562 661 935 1190
2026-03-27 22:30 3.63 27 3180 (1973) 0 (2006) 415 5 36 94 115 219 505 700 912 1380
2026-03-27 21:30 3.62 27 3180 (1973) 0 (2006) 415 5 36 94 115 219 505 700 912 1380
2026-03-27 20:30 3.62 27 3180 (1973) 0 (2006) 415 5 36 94 115 219 505 700 912 1380
2026-03-27 19:30 3.62 27 3180 (1973) 0 (2006) 415 5 36 94 115 219 505 700 912 1380
2026-03-27 18:30 3.63 27 3180 (1973) 0 (2006) 415 5 36 94 115 219 505 700 912 1380
2026-03-27 17:30 3.62 27 3180 (1973) 0 (2006) 415 5 36 94 115 219 505 700 912 1380
2026-03-27 16:30 3.62 27 3180 (1973) 0 (2006) 415 5 36 94 115 219 505 700 912 1380
2026-03-27 15:30 3.62 27 3180 (1973) 0 (2006) 415 5 36 94 115 219 505 700 912 1380
2026-03-27 14:30 3.63 27 3180 (1973) 0 (2006) 415 5 36 94 115 219 505 700 912 1380
2026-03-27 13:30 3.63 27 3180 (1973) 0 (2006) 415 5 36 94 115 219 505 700 912 1380
2026-03-27 12:30 3.63 27 3180 (1973) 0 (2006) 415 5 36 94 115 219 505 700 912 1380
2026-03-27 11:30 3.64 28 3180 (1973) 0 (2006) 415 5 36 94 115 219 505 700 912 1380
2026-03-27 10:30 3.63 27 3180 (1973) 0 (2006) 415 5 36 94 115 219 505 700 912 1380
2026-03-27 09:30 3.64 28 3180 (1973) 0 (2006) 415 5 36 94 115 219 505 700 912 1380
2026-03-27 08:30 3.64 28 3180 (1973) 0 (2006) 415 5 36 94 115 219 505 700 912 1380
2026-03-27 07:30 3.64 28 3180 (1973) 0 (2006) 415 5 36 94 115 219 505 700 912 1380
2026-03-27 06:30 3.64 28 3180 (1973) 0 (2006) 415 5 36 94 115 219 505 700 912 1380
2026-03-27 05:30 3.64 28 3180 (1973) 0 (2006) 415 5 36 94 115 219 505 700 912 1380
2026-03-27 04:30 3.63 27 3180 (1973) 0 (2006) 415 5 36 94 115 219 505 700 912 1380
2026-03-27 03:30 3.64 28 3180 (1973) 0 (2006) 415 5 36 94 115 219 505 700 912 1380
2026-03-27 02:30 3.64 28 3180 (1973) 0 (2006) 415 5 36 94 115 219 505 700 912 1380
2026-03-27 01:30 3.63 27 3180 (1973) 0 (2006) 415 5 36 94 115 219 505 700 912 1380
2026-03-27 00:30 3.64 28 3180 (1973) 0 (2006) 415 5 36 94 115 219 505 700 912 1380
2026-03-26 23:30 3.64 28 3180 (1973) 0 (2006) 415 5 36 94 115 219 505 700 912 1380
2026-03-26 22:30 3.64 28 7750 (1973) 0 (2006) 587 5 33 92 121 206 582 654 1290 2320
2026-03-26 21:30 3.64 28 7750 (1973) 0 (2006) 587 5 33 92 121 206 582 654 1290 2320
2026-03-26 20:30 3.65 29 7750 (1973) 0 (2006) 587 5 33 92 121 206 582 654 1290 2320
2026-03-26 19:30 3.64 28 7750 (1973) 0 (2006) 587 5 33 92 121 206 582 654 1290 2320
2026-03-26 18:30 3.65 29 7750 (1973) 0 (2006) 587 5 33 92 121 206 582 654 1290 2320
2026-03-26 17:30 3.65 29 7750 (1973) 0 (2006) 587 5 33 92 121 206 582 654 1290 2320
2026-03-26 16:30 3.65 29 7750 (1973) 0 (2006) 587 5 33 92 121 206 582 654 1290 2320
2026-03-26 15:30 3.66 30 7750 (1973) 0 (2006) 587 5 33 92 121 206 582 654 1290 2320
2026-03-26 14:30 3.66 30 7750 (1973) 0 (2006) 587 5 33 92 121 206 582 654 1290 2320
2026-03-26 13:30 3.66 30 7750 (1973) 0 (2006) 587 5 33 92 121 206 582 654 1290 2320
2026-03-26 12:30 3.66 30 7750 (1973) 0 (2006) 587 5 33 92 121 206 582 654 1290 2320
2026-03-26 11:30 3.66 30 7750 (1973) 0 (2006) 587 5 33 92 121 206 582 654 1290 2320
2026-03-26 10:30 3.66 30 7750 (1973) 0 (2006) 587 5 33 92 121 206 582 654 1290 2320
2026-03-26 09:30 3.66 30 7750 (1973) 0 (2006) 587 5 33 92 121 206 582 654 1290 2320
2026-03-26 08:30 3.66 30 7750 (1973) 0 (2006) 587 5 33 92 121 206 582 654 1290 2320
2026-03-26 07:30 3.66 30 7750 (1973) 0 (2006) 587 5 33 92 121 206 582 654 1290 2320
2026-03-26 06:30 3.66 30 7750 (1973) 0 (2006) 587 5 33 92 121 206 582 654 1290 2320
2026-03-26 05:30 3.66 30 7750 (1973) 0 (2006) 587 5 33 92 121 206 582 654 1290 2320
2026-03-26 04:30 3.66 30 7750 (1973) 0 (2006) 587 5 33 92 121 206 582 654 1290 2320
2026-03-26 03:30 3.67 31 7750 (1973) 0 (2006) 587 5 33 92 121 206 582 654 1290 2320
2026-03-26 02:30 3.67 31 7750 (1973) 0 (2006) 587 5 33 92 121 206 582 654 1290 2320
2026-03-26 01:30 3.67 31 7750 (1973) 0 (2006) 587 5 33 92 121 206 582 654 1290 2320
2026-03-26 00:30 3.67 31 7750 (1973) 0 (2006) 587 5 33 92 121 206 582 654 1290 2320
2026-03-25 23:30 3.67 31 7750 (1973) 0 (2006) 587 5 33 92 121 206 582 654 1290 2320
2026-03-25 22:30 3.67 31 8780 (1973) 0 (2006) 775 4 25 86 101 218 718 976 2680 4140
2026-03-25 21:30 3.68 31 8780 (1973) 0 (2006) 775 4 25 86 101 218 718 976 2680 4140
2026-03-25 20:30 3.68 31 8780 (1973) 0 (2006) 775 4 25 86 101 218 718 976 2680 4140
2026-03-25 19:30 3.68 31 8780 (1973) 0 (2006) 775 4 25 86 101 218 718 976 2680 4140
2026-03-25 18:30 3.68 31 8780 (1973) 0 (2006) 775 4 25 86 101 218 718 976 2680 4140
2026-03-25 17:30 3.68 31 8780 (1973) 0 (2006) 775 4 25 86 101 218 718 976 2680 4140
2026-03-25 16:30 3.69 32 8780 (1973) 0 (2006) 775 4 25 86 101 218 718 976 2680 4140
2026-03-25 15:30 3.69 32 8780 (1973) 0 (2006) 775 4 25 86 101 218 718 976 2680 4140
2026-03-25 14:30 3.69 32 8780 (1973) 0 (2006) 775 4 25 86 101 218 718 976 2680 4140
2026-03-25 13:30 3.69 32 8780 (1973) 0 (2006) 775 4 25 86 101 218 718 976 2680 4140
2026-03-25 12:30 3.69 32 8780 (1973) 0 (2006) 775 4 25 86 101 218 718 976 2680 4140
2026-03-25 11:30 3.69 32 8780 (1973) 0 (2006) 775 4 25 86 101 218 718 976 2680 4140
2026-03-25 10:30 3.70 33 8780 (1973) 0 (2006) 775 4 25 86 101 218 718 976 2680 4140
2026-03-25 09:30 3.70 33 8780 (1973) 0 (2006) 775 4 25 86 101 218 718 976 2680 4140
2026-03-25 08:30 3.70 33 8780 (1973) 0 (2006) 775 4 25 86 101 218 718 976 2680 4140
2026-03-25 07:30 3.70 33 8780 (1973) 0 (2006) 775 4 25 86 101 218 718 976 2680 4140
2026-03-25 06:30 3.70 33 8780 (1973) 0 (2006) 775 4 25 86 101 218 718 976 2680 4140
2026-03-25 05:30 3.71 34 8780 (1973) 0 (2006) 775 4 25 86 101 218 718 976 2680 4140
2026-03-25 04:30 3.71 34 8780 (1973) 0 (2006) 775 4 25 86 101 218 718 976 2680 4140
2026-03-25 03:30 3.71 34 8780 (1973) 0 (2006) 775 4 25 86 101 218 718 976 2680 4140
2026-03-25 02:30 3.71 34 8780 (1973) 0 (2006) 775 4 25 86 101 218 718 976 2680 4140
2026-03-25 01:30 3.71 34 8780 (1973) 0 (2006) 775 4 25 86 101 218 718 976 2680 4140
2026-03-25 00:30 3.72 34 8780 (1973) 0 (2006) 775 4 25 86 101 218 718 976 2680 4140
2026-03-24 23:30 3.72 34 8780 (1973) 0 (2006) 775 4 25 86 101 218 718 976 2680 4140
2026-03-24 22:30 3.72 34 6360 (1958) 0 (1954) 674 4 23 92 108 227 645 792 1870 3500
2026-03-24 21:30 3.72 34 6360 (1958) 0 (1954) 674 4 23 92 108 227 645 792 1870 3500
2026-03-24 20:30 3.72 34 6360 (1958) 0 (1954) 674 4 23 92 108 227 645 792 1870 3500
2026-03-24 19:30 3.73 35 6360 (1958) 0 (1954) 674 4 23 92 108 227 645 792 1870 3500
2026-03-24 18:30 3.73 35 6360 (1958) 0 (1954) 674 4 23 92 108 227 645 792 1870 3500
2026-03-24 17:30 3.73 35 6360 (1958) 0 (1954) 674 4 23 92 108 227 645 792 1870 3500
2026-03-24 16:30 3.73 35 6360 (1958) 0 (1954) 674 4 23 92 108 227 645 792 1870 3500
2026-03-24 15:30 3.74 36 6360 (1958) 0 (1954) 674 4 23 92 108 227 645 792 1870 3500
2026-03-24 14:30 3.74 36 6360 (1958) 0 (1954) 674 4 23 92 108 227 645 792 1870 3500
2026-03-24 13:30 3.74 36 6360 (1958) 0 (1954) 674 4 23 92 108 227 645 792 1870 3500
2026-03-24 12:30 3.75 37 6360 (1958) 0 (1954) 674 4 23 92 108 227 645 792 1870 3500
2026-03-24 11:30 3.75 37 6360 (1958) 0 (1954) 674 4 23 92 108 227 645 792 1870 3500
2026-03-24 10:30 3.76 38 6360 (1958) 0 (1954) 674 4 23 92 108 227 645 792 1870 3500
2026-03-24 09:30 3.76 38 6360 (1958) 0 (1954) 674 4 23 92 108 227 645 792 1870 3500
2026-03-24 08:30 3.76 38 6360 (1958) 0 (1954) 674 4 23 92 108 227 645 792 1870 3500
2026-03-24 07:30 3.76 38 6360 (1958) 0 (1954) 674 4 23 92 108 227 645 792 1870 3500
2026-03-24 06:30 3.77 39 6360 (1958) 0 (1954) 674 4 23 92 108 227 645 792 1870 3500
2026-03-24 05:30 3.77 39 6360 (1958) 0 (1954) 674 4 23 92 108 227 645 792 1870 3500
2026-03-24 04:30 3.77 39 6360 (1958) 0 (1954) 674 4 23 92 108 227 645 792 1870 3500
2026-03-24 03:30 3.78 40 6360 (1958) 0 (1954) 674 4 23 92 108 227 645 792 1870 3500
2026-03-24 02:30 3.78 40 6360 (1958) 0 (1954) 674 4 23 92 108 227 645 792 1870 3500
2026-03-24 01:30 3.79 40 6360 (1958) 0 (1954) 674 4 23 92 108 227 645 792 1870 3500
2026-03-24 00:30 3.79 40 6360 (1958) 0 (1954) 674 4 23 92 108 227 645 792 1870 3500
2026-03-23 23:30 3.79 40 6360 (1958) 0 (1954) 674 4 23 92 108 227 645 792 1870 3500
2026-03-23 22:30 3.80 41 5380 (1958) 0 (1954) 554 4 23 84 100 225 591 745 1420 2830
2026-03-23 21:30 3.80 41 5380 (1958) 0 (1954) 554 4 23 84 100 225 591 745 1420 2830
2026-03-23 20:30 3.80 41 5380 (1958) 0 (1954) 554 4 23 84 100 225 591 745 1420 2830
2026-03-23 19:30 3.81 42 5380 (1958) 0 (1954) 554 4 23 84 100 225 591 745 1420 2830
2026-03-23 18:30 3.81 42 5380 (1958) 0 (1954) 554 4 23 84 100 225 591 745 1420 2830
2026-03-23 17:30 3.81 42 5380 (1958) 0 (1954) 554 4 23 84 100 225 591 745 1420 2830
2026-03-23 16:30 3.82 43 5380 (1958) 0 (1954) 554 4 23 84 100 225 591 745 1420 2830
2026-03-23 15:30 3.82 43 5380 (1958) 0 (1954) 554 4 23 84 100 225 591 745 1420 2830
2026-03-23 14:30 3.83 44 5380 (1958) 0 (1954) 554 4 23 84 100 225 591 745 1420 2830
2026-03-23 13:30 3.83 44 5380 (1958) 0 (1954) 554 4 23 84 100 225 591 745 1420 2830
2026-03-23 12:30 3.84 45 5380 (1958) 0 (1954) 554 4 23 84 100 225 591 745 1420 2830
2026-03-23 11:30 3.84 45 5380 (1958) 0 (1954) 554 4 23 84 100 225 591 745 1420 2830
2026-03-23 10:30 3.84 45 5380 (1958) 0 (1954) 554 4 23 84 100 225 591 745 1420 2830
2026-03-23 09:30 3.85 46 5380 (1958) 0 (1954) 554 4 23 84 100 225 591 745 1420 2830
2026-03-23 08:30 3.85 46 5380 (1958) 0 (1954) 554 4 23 84 100 225 591 745 1420 2830
2026-03-23 07:30 3.85 46 5380 (1958) 0 (1954) 554 4 23 84 100 225 591 745 1420 2830
2026-03-23 06:30 3.86 47 5380 (1958) 0 (1954) 554 4 23 84 100 225 591 745 1420 2830
2026-03-23 05:30 3.86 47 5380 (1958) 0 (1954) 554 4 23 84 100 225 591 745 1420 2830
2026-03-23 04:30 3.86 47 5380 (1958) 0 (1954) 554 4 23 84 100 225 591 745 1420 2830
2026-03-23 03:30 3.86 47 5380 (1958) 0 (1954) 554 4 23 84 100 225 591 745 1420 2830
2026-03-23 02:30 3.86 47 5380 (1958) 0 (1954) 554 4 23 84 100 225 591 745 1420 2830
2026-03-23 01:30 3.87 48 5380 (1958) 0 (1954) 554 4 23 84 100 225 591 745 1420 2830
2026-03-23 00:30 3.87 48 5380 (1958) 0 (1954) 554 4 23 84 100 225 591 745 1420 2830
2026-03-22 23:30 3.87 48 5380 (1958) 0 (1954) 554 4 23 84 100 225 591 745 1420 2830
2026-03-22 22:30 3.87 48 6680 (2012) 0 (1954) 576 4 24 83 108 211 604 856 1520 1820
2026-03-22 21:30 3.88 49 6680 (2012) 0 (1954) 576 4 24 83 108 211 604 856 1520 1820
2026-03-22 20:30 3.88 49 6680 (2012) 0 (1954) 576 4 24 83 108 211 604 856 1520 1820
2026-03-22 19:30 3.88 49 6680 (2012) 0 (1954) 576 4 24 83 108 211 604 856 1520 1820
2026-03-22 18:30 3.88 49 6680 (2012) 0 (1954) 576 4 24 83 108 211 604 856 1520 1820
2026-03-22 17:30 3.89 50 6680 (2012) 0 (1954) 576 4 24 83 108 211 604 856 1520 1820
2026-03-22 16:30 3.89 50 6680 (2012) 0 (1954) 576 4 24 83 108 211 604 856 1520 1820
2026-03-22 15:30 3.90 51 6680 (2012) 0 (1954) 576 4 24 83 108 211 604 856 1520 1820
2026-03-22 14:30 3.90 51 6680 (2012) 0 (1954) 576 4 24 83 108 211 604 856 1520 1820
2026-03-22 13:30 3.90 51 6680 (2012) 0 (1954) 576 4 24 83 108 211 604 856 1520 1820
2026-03-22 12:30 3.90 51 6680 (2012) 0 (1954) 576 4 24 83 108 211 604 856 1520 1820
2026-03-22 11:30 3.90 51 6680 (2012) 0 (1954) 576 4 24 83 108 211 604 856 1520 1820
2026-03-22 10:30 3.91 52 6680 (2012) 0 (1954) 576 4 24 83 108 211 604 856 1520 1820
2026-03-22 09:30 3.91 52 6680 (2012) 0 (1954) 576 4 24 83 108 211 604 856 1520 1820
2026-03-22 08:30 3.91 52 6680 (2012) 0 (1954) 576 4 24 83 108 211 604 856 1520 1820
2026-03-22 07:30 3.91 52 6680 (2012) 0 (1954) 576 4 24 83 108 211 604 856 1520 1820
2026-03-22 06:30 3.91 52 6680 (2012) 0 (1954) 576 4 24 83 108 211 604 856 1520 1820
2026-03-22 05:30 3.92 53 6680 (2012) 0 (1954) 576 4 24 83 108 211 604 856 1520 1820
2026-03-22 04:30 3.92 53 6680 (2012) 0 (1954) 576 4 24 83 108 211 604 856 1520 1820
2026-03-22 03:30 3.92 53 6680 (2012) 0 (1954) 576 4 24 83 108 211 604 856 1520 1820
2026-03-22 02:30 3.92 53 6680 (2012) 0 (1954) 576 4 24 83 108 211 604 856 1520 1820
2026-03-22 01:30 3.92 53 6680 (2012) 0 (1954) 576 4 24 83 108 211 604 856 1520 1820
2026-03-22 00:30 3.93 54 6680 (2012) 0 (1954) 576 4 24 83 108 211 604 856 1520 1820
2026-03-21 23:30 3.93 54 6680 (2012) 0 (1954) 576 4 24 83 108 211 604 856 1520 1820
2026-03-21 22:30 3.93 54 9790 (1962) 0 (1954) 803 4 24 82 118 230 655 818 2640 4140
2026-03-21 21:30 3.94 55 9790 (1962) 0 (1954) 803 4 24 82 118 230 655 818 2640 4140
2026-03-21 20:30 3.94 55 9790 (1962) 0 (1954) 803 4 24 82 118 230 655 818 2640 4140
2026-03-21 19:30 3.94 55 9790 (1962) 0 (1954) 803 4 24 82 118 230 655 818 2640 4140
2026-03-21 18:30 3.94 55 9790 (1962) 0 (1954) 803 4 24 82 118 230 655 818 2640 4140
2026-03-21 17:30 3.95 57 9790 (1962) 0 (1954) 803 4 24 82 118 230 655 818 2640 4140
2026-03-21 16:30 3.95 57 9790 (1962) 0 (1954) 803 4 24 82 118 230 655 818 2640 4140
2026-03-21 15:30 3.95 57 9790 (1962) 0 (1954) 803 4 24 82 118 230 655 818 2640 4140
2026-03-21 14:30 3.96 58 9790 (1962) 0 (1954) 803 4 24 82 118 230 655 818 2640 4140
2026-03-21 13:30 3.96 58 9790 (1962) 0 (1954) 803 4 24 82 118 230 655 818 2640 4140
2026-03-21 12:30 3.96 58 9790 (1962) 0 (1954) 803 4 24 82 118 230 655 818 2640 4140
2026-03-21 11:30 3.96 58 9790 (1962) 0 (1954) 803 4 24 82 118 230 655 818 2640 4140
2026-03-21 10:30 3.97 59 9790 (1962) 0 (1954) 803 4 24 82 118 230 655 818 2640 4140
2026-03-21 09:30 3.97 59 9790 (1962) 0 (1954) 803 4 24 82 118 230 655 818 2640 4140
2026-03-21 08:30 3.97 59 9790 (1962) 0 (1954) 803 4 24 82 118 230 655 818 2640 4140
2026-03-21 07:30 3.98 60 9790 (1962) 0 (1954) 803 4 24 82 118 230 655 818 2640 4140
2026-03-21 06:30 3.98 60 9790 (1962) 0 (1954) 803 4 24 82 118 230 655 818 2640 4140
2026-03-21 05:30 3.98 60 9790 (1962) 0 (1954) 803 4 24 82 118 230 655 818 2640 4140
2026-03-21 04:30 3.98 60 9790 (1962) 0 (1954) 803 4 24 82 118 230 655 818 2640 4140
2026-03-21 03:30 3.99 61 9790 (1962) 0 (1954) 803 4 24 82 118 230 655 818 2640 4140
2026-03-21 02:30 3.99 61 9790 (1962) 0 (1954) 803 4 24 82 118 230 655 818 2640 4140
2026-03-21 01:30 4.00 62 9790 (1962) 0 (1954) 803 4 24 82 118 230 655 818 2640 4140
2026-03-21 00:30 4.00 62 9790 (1962) 0 (1954) 803 4 24 82 118 230 655 818 2640 4140
2026-03-20 23:30 4.00 62 9790 (1962) 0 (1954) 803 4 24 82 118 230 655 818 2640 4140
2026-03-20 22:30 4.01 64 8320 (1984) 0 (1954) 914 4 24 82 112 242 731 1060 2820 5490
2026-03-20 21:30 4.01 64 8320 (1984) 0 (1954) 914 4 24 82 112 242 731 1060 2820 5490
2026-03-20 20:30 4.01 64 8320 (1984) 0 (1954) 914 4 24 82 112 242 731 1060 2820 5490
2026-03-20 19:30 4.02 65 8320 (1984) 0 (1954) 914 4 24 82 112 242 731 1060 2820 5490
2026-03-20 18:30 4.02 65 8320 (1984) 0 (1954) 914 4 24 82 112 242 731 1060 2820 5490
2026-03-20 17:30 4.03 66 8320 (1984) 0 (1954) 914 4 24 82 112 242 731 1060 2820 5490
2026-03-20 16:30 4.03 66 8320 (1984) 0 (1954) 914 4 24 82 112 242 731 1060 2820 5490
2026-03-20 15:30 4.03 66 8320 (1984) 0 (1954) 914 4 24 82 112 242 731 1060 2820 5490
2026-03-20 14:30 4.03 66 8320 (1984) 0 (1954) 914 4 24 82 112 242 731 1060 2820 5490
2026-03-20 13:30 4.03 66 8320 (1984) 0 (1954) 914 4 24 82 112 242 731 1060 2820 5490
2026-03-20 12:30 4.04 67 8320 (1984) 0 (1954) 914 4 24 82 112 242 731 1060 2820 5490
2026-03-20 11:30 4.04 67 8320 (1984) 0 (1954) 914 4 24 82 112 242 731 1060 2820 5490
2026-03-20 10:30 4.04 67 8320 (1984) 0 (1954) 914 4 24 82 112 242 731 1060 2820 5490
2026-03-20 09:30 4.05 68 8320 (1984) 0 (1954) 914 4 24 82 112 242 731 1060 2820 5490
2026-03-20 08:30 4.05 68 8320 (1984) 0 (1954) 914 4 24 82 112 242 731 1060 2820 5490
2026-03-20 07:30 4.05 68 8320 (1984) 0 (1954) 914 4 24 82 112 242 731 1060 2820 5490
2026-03-20 06:30 4.05 68 8320 (1984) 0 (1954) 914 4 24 82 112 242 731 1060 2820 5490
2026-03-20 05:30 4.06 70 8320 (1984) 0 (1954) 914 4 24 82 112 242 731 1060 2820 5490
2026-03-20 04:30 4.06 70 8320 (1984) 0 (1954) 914 4 24 82 112 242 731 1060 2820 5490
2026-03-20 03:30 4.06 70 8320 (1984) 0 (1954) 914 4 24 82 112 242 731 1060 2820 5490
2026-03-20 02:30 4.07 71 8320 (1984) 0 (1954) 914 4 24 82 112 242 731 1060 2820 5490
2026-03-20 01:30 4.07 71 8320 (1984) 0 (1954) 914 4 24 82 112 242 731 1060 2820 5490
2026-03-20 00:30 4.07 71 8320 (1984) 0 (1954) 914 4 24 82 112 242 731 1060 2820 5490
2026-03-19 23:30 4.08 72 8320 (1984) 0 (1954) 914 4 24 82 112 242 731 1060 2820 5490
2026-03-19 22:30 4.08 72 10900 (2008) 0 (1954) 840 5 25 80 100 220 566 645 1830 5250
2026-03-19 21:30 4.08 72 10900 (2008) 0 (1954) 840 5 25 80 100 220 566 645 1830 5250
2026-03-19 20:30 4.09 74 10900 (2008) 0 (1954) 840 5 25 80 100 220 566 645 1830 5250
2026-03-19 19:30 4.09 74 10900 (2008) 0 (1954) 840 5 25 80 100 220 566 645 1830 5250
2026-03-19 18:30 4.09 74 10900 (2008) 0 (1954) 840 5 25 80 100 220 566 645 1830 5250
2026-03-19 17:30 4.10 75 10900 (2008) 0 (1954) 840 5 25 80 100 220 566 645 1830 5250
2026-03-19 16:30 4.10 75 10900 (2008) 0 (1954) 840 5 25 80 100 220 566 645 1830 5250
2026-03-19 15:30 4.10 75 10900 (2008) 0 (1954) 840 5 25 80 100 220 566 645 1830 5250
2026-03-19 14:30 4.11 76 10900 (2008) 0 (1954) 840 5 25 80 100 220 566 645 1830 5250
2026-03-19 13:30 4.11 76 10900 (2008) 0 (1954) 840 5 25 80 100 220 566 645 1830 5250
2026-03-19 12:30 4.11 76 10900 (2008) 0 (1954) 840 5 25 80 100 220 566 645 1830 5250
2026-03-19 11:30 4.11 76 10900 (2008) 0 (1954) 840 5 25 80 100 220 566 645 1830 5250
2026-03-19 10:30 4.11 76 10900 (2008) 0 (1954) 840 5 25 80 100 220 566 645 1830 5250
2026-03-19 09:30 4.12 78 10900 (2008) 0 (1954) 840 5 25 80 100 220 566 645 1830 5250
2026-03-19 08:30 4.12 78 10900 (2008) 0 (1954) 840 5 25 80 100 220 566 645 1830 5250
2026-03-19 07:30 4.12 78 10900 (2008) 0 (1954) 840 5 25 80 100 220 566 645 1830 5250
2026-03-19 06:30 4.12 78 10900 (2008) 0 (1954) 840 5 25 80 100 220 566 645 1830 5250
2026-03-19 05:30 4.13 79 10900 (2008) 0 (1954) 840 5 25 80 100 220 566 645 1830 5250
2026-03-19 04:30 4.13 79 10900 (2008) 0 (1954) 840 5 25 80 100 220 566 645 1830 5250
2026-03-19 03:30 4.14 80 10900 (2008) 0 (1954) 840 5 25 80 100 220 566 645 1830 5250
2026-03-19 02:30 4.14 80 10900 (2008) 0 (1954) 840 5 25 80 100 220 566 645 1830 5250
2026-03-19 01:30 4.14 80 10900 (2008) 0 (1954) 840 5 25 80 100 220 566 645 1830 5250
2026-03-19 00:30 4.15 82 10900 (2008) 0 (1954) 840 5 25 80 100 220 566 645 1830 5250
2026-03-18 23:30 4.15 82 10900 (2008) 0 (1954) 840 5 25 80 100 220 566 645 1830 5250
2026-03-18 22:30 4.15 82 7270 (2021) 0 (1954) 654 5 31 72 90 225 531 691 1850 4060
2026-03-18 21:30 4.16 83 7270 (2021) 0 (1954) 654 5 31 72 90 225 531 691 1850 4060
2026-03-18 20:30 4.16 83 7270 (2021) 0 (1954) 654 5 31 72 90 225 531 691 1850 4060
2026-03-18 19:30 4.17 85 7270 (2021) 0 (1954) 654 5 31 72 90 225 531 691 1850 4060
2026-03-18 18:30 4.17 85 7270 (2021) 0 (1954) 654 5 31 72 90 225 531 691 1850 4060
2026-03-18 17:30 4.18 86 7270 (2021) 0 (1954) 654 5 31 72 90 225 531 691 1850 4060
2026-03-18 16:30 4.18 86 7270 (2021) 0 (1954) 654 5 31 72 90 225 531 691 1850 4060
2026-03-18 15:30 4.18 86 7270 (2021) 0 (1954) 654 5 31 72 90 225 531 691 1850 4060
2026-03-18 14:30 4.19 87 7270 (2021) 0 (1954) 654 5 31 72 90 225 531 691 1850 4060
2026-03-18 13:30 4.19 87 7270 (2021) 0 (1954) 654 5 31 72 90 225 531 691 1850 4060
2026-03-18 12:30 4.19 87 7270 (2021) 0 (1954) 654 5 31 72 90 225 531 691 1850 4060
2026-03-18 11:30 4.20 89 7270 (2021) 0 (1954) 654 5 31 72 90 225 531 691 1850 4060
2026-03-18 10:30 4.20 89 7270 (2021) 0 (1954) 654 5 31 72 90 225 531 691 1850 4060
2026-03-18 09:30 4.21 90 7270 (2021) 0 (1954) 654 5 31 72 90 225 531 691 1850 4060
2026-03-18 08:30 4.21 90 7270 (2021) 0 (1954) 654 5 31 72 90 225 531 691 1850 4060
2026-03-18 07:30 4.21 90 7270 (2021) 0 (1954) 654 5 31 72 90 225 531 691 1850 4060
2026-03-18 06:30 4.22 92 7270 (2021) 0 (1954) 654 5 31 72 90 225 531 691 1850 4060
2026-03-18 05:30 4.22 92 7270 (2021) 0 (1954) 654 5 31 72 90 225 531 691 1850 4060
2026-03-18 04:30 4.23 94 7270 (2021) 0 (1954) 654 5 31 72 90 225 531 691 1850 4060
2026-03-18 03:30 4.23 94 7270 (2021) 0 (1954) 654 5 31 72 90 225 531 691 1850 4060
2026-03-18 02:30 4.24 95 7270 (2021) 0 (1954) 654 5 31 72 90 225 531 691 1850 4060
2026-03-18 01:30 4.24 95 7270 (2021) 0 (1954) 654 5 31 72 90 225 531 691 1850 4060
2026-03-18 00:30 4.25 97 7270 (2021) 0 (1954) 654 5 31 72 90 225 531 691 1850 4060
2026-03-17 23:30 4.25 97 7270 (2021) 0 (1954) 654 5 31 72 90 225 531 691 1850 4060
2026-03-17 22:30 4.26 98 4110 (1984) 0 (1954) 507 5 36 66 93 205 526 775 1420 2080
2026-03-17 21:30 4.26 98 4110 (1984) 0 (1954) 507 5 36 66 93 205 526 775 1420 2080
2026-03-17 20:30 4.27 100 4110 (1984) 0 (1954) 507 5 36 66 93 205 526 775 1420 2080
2026-03-17 19:30 4.27 100 4110 (1984) 0 (1954) 507 5 36 66 93 205 526 775 1420 2080
2026-03-17 18:30 4.28 101 4110 (1984) 0 (1954) 507 5 36 66 93 205 526 775 1420 2080
2026-03-17 17:30 4.28 101 4110 (1984) 0 (1954) 507 5 36 66 93 205 526 775 1420 2080
2026-03-17 16:30 4.29 103 4110 (1984) 0 (1954) 507 5 36 66 93 205 526 775 1420 2080
2026-03-17 15:30 4.30 105 4110 (1984) 0 (1954) 507 5 36 66 93 205 526 775 1420 2080
2026-03-17 14:30 4.30 105 4110 (1984) 0 (1954) 507 5 36 66 93 205 526 775 1420 2080
2026-03-17 13:30 4.31 106 4110 (1984) 0 (1954) 507 5 36 66 93 205 526 775 1420 2080
2026-03-17 12:30 4.32 108 4110 (1984) 0 (1954) 507 5 36 66 93 205 526 775 1420 2080
2026-03-17 11:30 4.33 110 4110 (1984) 0 (1954) 507 5 36 66 93 205 526 775 1420 2080
2026-03-17 10:30 4.34 111 4110 (1984) 0 (1954) 507 5 36 66 93 205 526 775 1420 2080
2026-03-17 09:30 4.34 111 4110 (1984) 0 (1954) 507 5 36 66 93 205 526 775 1420 2080
2026-03-17 08:30 4.35 113 4110 (1984) 0 (1954) 507 5 36 66 93 205 526 775 1420 2080
2026-03-17 07:30 4.36 115 4110 (1984) 0 (1954) 507 5 36 66 93 205 526 775 1420 2080
2026-03-17 06:30 4.36 115 4110 (1984) 0 (1954) 507 5 36 66 93 205 526 775 1420 2080
2026-03-17 05:30 4.37 117 4110 (1984) 0 (1954) 507 5 36 66 93 205 526 775 1420 2080
2026-03-17 04:30 4.38 118 4110 (1984) 0 (1954) 507 5 36 66 93 205 526 775 1420 2080
2026-03-17 03:30 4.39 120 4110 (1984) 0 (1954) 507 5 36 66 93 205 526 775 1420 2080
2026-03-17 02:30 4.39 120 4110 (1984) 0 (1954) 507 5 36 66 93 205 526 775 1420 2080
2026-03-17 01:30 4.40 122 4110 (1984) 0 (1954) 507 5 36 66 93 205 526 775 1420 2080
2026-03-17 00:30 4.41 124 4110 (1984) 0 (1954) 507 5 36 66 93 205 526 775 1420 2080
2026-03-16 23:30 4.42 126 4110 (1984) 0 (1954) 507 5 36 66 93 205 526 775 1420 2080
2026-03-16 22:30 4.43 127 6880 (1990) 0 (1954) 538 5 35 71 99 223 571 657 1410 1770
2026-03-16 21:30 4.43 127 6880 (1990) 0 (1954) 538 5 35 71 99 223 571 657 1410 1770
2026-03-16 20:30 4.44 129 6880 (1990) 0 (1954) 538 5 35 71 99 223 571 657 1410 1770
2026-03-16 19:30 4.45 130 6880 (1990) 0 (1954) 538 5 35 71 99 223 571 657 1410 1770
2026-03-16 18:30 4.46 132 6880 (1990) 0 (1954) 538 5 35 71 99 223 571 657 1410 1770
2026-03-16 17:30 4.47 133 6880 (1990) 0 (1954) 538 5 35 71 99 223 571 657 1410 1770
2026-03-16 16:30 4.48 135 6880 (1990) 0 (1954) 538 5 35 71 99 223 571 657 1410 1770
2026-03-16 15:30 4.49 136 6880 (1990) 0 (1954) 538 5 35 71 99 223 571 657 1410 1770
2026-03-16 14:30 4.50 138 6880 (1990) 0 (1954) 538 5 35 71 99 223 571 657 1410 1770
2026-03-16 13:30 4.50 138 6880 (1990) 0 (1954) 538 5 35 71 99 223 571 657 1410 1770
2026-03-16 12:30 4.51 140 6880 (1990) 0 (1954) 538 5 35 71 99 223 571 657 1410 1770
2026-03-16 11:30 4.53 143 6880 (1990) 0 (1954) 538 5 35 71 99 223 571 657 1410 1770
2026-03-16 10:30 4.53 143 6880 (1990) 0 (1954) 538 5 35 71 99 223 571 657 1410 1770
2026-03-16 09:30 4.55 146 6880 (1990) 0 (1954) 538 5 35 71 99 223 571 657 1410 1770
2026-03-16 08:30 4.56 148 6880 (1990) 0 (1954) 538 5 35 71 99 223 571 657 1410 1770
2026-03-16 07:30 4.56 148 6880 (1990) 0 (1954) 538 5 35 71 99 223 571 657 1410 1770
2026-03-16 06:30 4.58 151 6880 (1990) 0 (1954) 538 5 35 71 99 223 571 657 1410 1770
2026-03-16 05:30 4.58 151 6880 (1990) 0 (1954) 538 5 35 71 99 223 571 657 1410 1770
2026-03-16 04:30 4.59 153 6880 (1990) 0 (1954) 538 5 35 71 99 223 571 657 1410 1770
2026-03-16 03:30 4.61 156 6880 (1990) 0 (1954) 538 5 35 71 99 223 571 657 1410 1770
2026-03-16 02:30 4.61 156 6880 (1990) 0 (1954) 538 5 35 71 99 223 571 657 1410 1770
2026-03-16 01:30 4.64 161 6880 (1990) 0 (1954) 538 5 35 71 99 223 571 657 1410 1770
2026-03-16 00:30 4.64 161 6880 (1990) 0 (1954) 538 5 35 71 99 223 571 657 1410 1770
2026-03-15 23:30 4.65 163 6880 (1990) 0 (1954) 538 5 35 71 99 223 571 657 1410 1770
2026-03-15 22:30 4.65 163 9880 (1990) 0 (1954) 703 4 35 81 105 220 546 811 1210 3750
2026-03-15 21:30 4.66 165 9880 (1990) 0 (1954) 703 4 35 81 105 220 546 811 1210 3750
2026-03-15 20:30 4.66 165 9880 (1990) 0 (1954) 703 4 35 81 105 220 546 811 1210 3750
2026-03-15 19:30 4.67 166 9880 (1990) 0 (1954) 703 4 35 81 105 220 546 811 1210 3750
2026-03-15 18:30 4.68 168 9880 (1990) 0 (1954) 703 4 35 81 105 220 546 811 1210 3750
2026-03-15 17:30 4.68 168 9880 (1990) 0 (1954) 703 4 35 81 105 220 546 811 1210 3750
2026-03-15 16:30 4.68 168 9880 (1990) 0 (1954) 703 4 35 81 105 220 546 811 1210 3750
2026-03-15 15:30 4.69 170 9880 (1990) 0 (1954) 703 4 35 81 105 220 546 811 1210 3750
2026-03-15 14:30 4.69 170 9880 (1990) 0 (1954) 703 4 35 81 105 220 546 811 1210 3750
2026-03-15 13:30 4.70 172 9880 (1990) 0 (1954) 703 4 35 81 105 220 546 811 1210 3750
2026-03-15 12:30 4.71 173 9880 (1990) 0 (1954) 703 4 35 81 105 220 546 811 1210 3750
2026-03-15 11:30 4.72 175 9880 (1990) 0 (1954) 703 4 35 81 105 220 546 811 1210 3750
2026-03-15 10:30 4.72 175 9880 (1990) 0 (1954) 703 4 35 81 105 220 546 811 1210 3750
2026-03-15 09:30 4.73 177 9880 (1990) 0 (1954) 703 4 35 81 105 220 546 811 1210 3750
2026-03-15 08:30 4.74 179 9880 (1990) 0 (1954) 703 4 35 81 105 220 546 811 1210 3750
2026-03-15 07:30 4.75 181 9880 (1990) 0 (1954) 703 4 35 81 105 220 546 811 1210 3750
2026-03-15 06:30 4.76 182 9880 (1990) 0 (1954) 703 4 35 81 105 220 546 811 1210 3750
2026-03-15 05:30 4.76 182 9880 (1990) 0 (1954) 703 4 35 81 105 220 546 811 1210 3750
2026-03-15 04:30 4.77 184 9880 (1990) 0 (1954) 703 4 35 81 105 220 546 811 1210 3750
2026-03-15 03:30 4.78 186 9880 (1990) 0 (1954) 703 4 35 81 105 220 546 811 1210 3750
2026-03-15 02:30 4.79 188 9880 (1990) 0 (1954) 703 4 35 81 105 220 546 811 1210 3750
2026-03-15 01:30 4.80 190 9880 (1990) 0 (1954) 703 4 35 81 105 220 546 811 1210 3750
2026-03-15 00:30 4.81 192 9880 (1990) 0 (1954) 703 4 35 81 105 220 546 811 1210 3750
2026-03-14 23:30 4.82 194 9880 (1990) 0 (1954) 703 4 35 81 105 220 546 811 1210 3750
2026-03-14 22:30 4.83 196 7490 (2021) 0 (1954) 598 3 34 87 108 224 588 752 1490 3030
2026-03-14 21:30 4.84 198 7490 (2021) 0 (1954) 598 3 34 87 108 224 588 752 1490 3030
2026-03-14 20:30 4.85 199 7490 (2021) 0 (1954) 598 3 34 87 108 224 588 752 1490 3030
2026-03-14 19:30 4.86 201 7490 (2021) 0 (1954) 598 3 34 87 108 224 588 752 1490 3030
2026-03-14 18:30 4.88 205 7490 (2021) 0 (1954) 598 3 34 87 108 224 588 752 1490 3030
2026-03-14 17:30 4.89 207 7490 (2021) 0 (1954) 598 3 34 87 108 224 588 752 1490 3030
2026-03-14 16:30 4.90 209 7490 (2021) 0 (1954) 598 3 34 87 108 224 588 752 1490 3030
2026-03-14 15:30 4.91 211 7490 (2021) 0 (1954) 598 3 34 87 108 224 588 752 1490 3030
2026-03-14 14:30 4.92 213 7490 (2021) 0 (1954) 598 3 34 87 108 224 588 752 1490 3030
2026-03-14 13:30 4.94 217 7490 (2021) 0 (1954) 598 3 34 87 108 224 588 752 1490 3030
2026-03-14 12:30 4.95 219 7490 (2021) 0 (1954) 598 3 34 87 108 224 588 752 1490 3030
2026-03-14 11:30 4.96 221 7490 (2021) 0 (1954) 598 3 34 87 108 224 588 752 1490 3030
2026-03-14 10:30 4.97 223 7490 (2021) 0 (1954) 598 3 34 87 108 224 588 752 1490 3030
2026-03-14 09:30 4.99 228 7490 (2021) 0 (1954) 598 3 34 87 108 224 588 752 1490 3030
2026-03-14 08:30 5.00 230 7490 (2021) 0 (1954) 598 3 34 87 108 224 588 752 1490 3030
2026-03-14 07:30 5.02 234 7490 (2021) 0 (1954) 598 3 34 87 108 224 588 752 1490 3030
2026-03-14 06:30 5.03 236 7490 (2021) 0 (1954) 598 3 34 87 108 224 588 752 1490 3030
2026-03-14 05:30 5.05 240 7490 (2021) 0 (1954) 598 3 34 87 108 224 588 752 1490 3030
2026-03-14 04:30 5.06 242 7490 (2021) 0 (1954) 598 3 34 87 108 224 588 752 1490 3030
2026-03-14 03:30 5.08 247 7490 (2021) 0 (1954) 598 3 34 87 108 224 588 752 1490 3030
2026-03-14 02:30 5.09 249 7490 (2021) 0 (1954) 598 3 34 87 108 224 588 752 1490 3030
2026-03-14 01:30 5.11 253 7490 (2021) 0 (1954) 598 3 34 87 108 224 588 752 1490 3030
2026-03-14 00:30 5.13 258 7490 (2021) 0 (1954) 598 3 34 87 108 224 588 752 1490 3030
2026-03-13 23:30 5.15 262 7490 (2021) 0 (1954) 598 3 34 87 108 224 588 752 1490 3030
2026-03-13 22:30 5.17 267 6550 (2019) 0 (1954) 606 3 30 85 109 220 490 675 1530 2940
2026-03-13 21:30 5.18 269 6550 (2019) 0 (1954) 606 3 30 85 109 220 490 675 1530 2940
2026-03-13 20:30 5.20 274 6550 (2019) 0 (1954) 606 3 30 85 109 220 490 675 1530 2940
2026-03-13 19:30 5.22 278 6550 (2019) 0 (1954) 606 3 30 85 109 220 490 675 1530 2940
2026-03-13 18:30 5.24 283 6550 (2019) 0 (1954) 606 3 30 85 109 220 490 675 1530 2940
2026-03-13 17:30 5.26 288 6550 (2019) 0 (1954) 606 3 30 85 109 220 490 675 1530 2940
2026-03-13 16:30 5.28 292 6550 (2019) 0 (1954) 606 3 30 85 109 220 490 675 1530 2940
2026-03-13 15:30 5.30 297 6550 (2019) 0 (1954) 606 3 30 85 109 220 490 675 1530 2940
2026-03-13 14:30 5.32 302 6550 (2019) 0 (1954) 606 3 30 85 109 220 490 675 1530 2940
2026-03-13 13:30 5.34 307 6550 (2019) 0 (1954) 606 3 30 85 109 220 490 675 1530 2940
2026-03-13 12:30 5.36 312 6550 (2019) 0 (1954) 606 3 30 85 109 220 490 675 1530 2940
2026-03-13 11:30 5.39 319 6550 (2019) 0 (1954) 606 3 30 85 109 220 490 675 1530 2940
2026-03-13 10:30 5.41 324 6550 (2019) 0 (1954) 606 3 30 85 109 220 490 675 1530 2940
2026-03-13 09:30 5.44 332 6550 (2019) 0 (1954) 606 3 30 85 109 220 490 675 1530 2940
2026-03-13 08:30 5.47 340 6550 (2019) 0 (1954) 606 3 30 85 109 220 490 675 1530 2940
2026-03-13 07:30 5.50 347 6550 (2019) 0 (1954) 606 3 30 85 109 220 490 675 1530 2940
2026-03-13 06:30 5.53 355 6550 (2019) 0 (1954) 606 3 30 85 109 220 490 675 1530 2940
2026-03-13 05:30 5.56 363 6550 (2019) 0 (1954) 606 3 30 85 109 220 490 675 1530 2940
2026-03-13 04:30 5.59 372 6550 (2019) 0 (1954) 606 3 30 85 109 220 490 675 1530 2940
2026-03-13 03:30 5.64 385 6550 (2019) 0 (1954) 606 3 30 85 109 220 490 675 1530 2940
2026-03-13 02:30 5.67 394 6550 (2019) 0 (1954) 606 3 30 85 109 220 490 675 1530 2940
2026-03-13 01:30 5.70 402 6550 (2019) 0 (1954) 606 3 30 85 109 220 490 675 1530 2940
2026-03-13 00:30 5.75 417 6550 (2019) 0 (1954) 606 3 30 85 109 220 490 675 1530 2940
2026-03-12 23:30 5.80 431 6550 (2019) 0 (1954) 606 3 30 85 109 220 490 675 1530 2940
2026-03-12 22:30 5.84 443 9980 (1974) 0 (2006) 626 3 30 77 92 236 584 665 1460 2720
2026-03-12 21:30 5.89 458 9980 (1974) 0 (2006) 626 3 30 77 92 236 584 665 1460 2720
2026-03-12 20:30 5.95 477 9980 (1974) 0 (2006) 626 3 30 77 92 236 584 665 1460 2720
2026-03-12 19:30 5.99 489 9980 (1974) 0 (2006) 626 3 30 77 92 236 584 665 1460 2720
2026-03-12 18:30 6.04 505 9980 (1974) 0 (2006) 626 3 30 77 92 236 584 665 1460 2720
2026-03-12 17:30 6.09 522 9980 (1974) 0 (2006) 626 3 30 77 92 236 584 665 1460 2720
2026-03-12 16:30 6.14 538 9980 (1974) 0 (2006) 626 3 30 77 92 236 584 665 1460 2720
2026-03-12 15:30 6.18 552 9980 (1974) 0 (2006) 626 3 30 77 92 236 584 665 1460 2720
2026-03-12 14:30 6.22 565 9980 (1974) 0 (2006) 626 3 30 77 92 236 584 665 1460 2720
2026-03-12 13:30 6.24 572 9980 (1974) 0 (2006) 626 3 30 77 92 236 584 665 1460 2720
2026-03-12 12:30 6.26 579 9980 (1974) 0 (2006) 626 3 30 77 92 236 584 665 1460 2720
2026-03-12 11:30 6.28 586 9980 (1974) 0 (2006) 626 3 30 77 92 236 584 665 1460 2720
2026-03-12 10:30 6.29 590 9980 (1974) 0 (2006) 626 3 30 77 92 236 584 665 1460 2720
2026-03-12 09:30 6.30 593 9980 (1974) 0 (2006) 626 3 30 77 92 236 584 665 1460 2720
2026-03-12 08:30 6.33 604 9980 (1974) 0 (2006) 626 3 30 77 92 236 584 665 1460 2720
2026-03-12 07:30 6.35 611 9980 (1974) 0 (2006) 626 3 30 77 92 236 584 665 1460 2720
2026-03-12 06:30 6.39 625 9980 (1974) 0 (2006) 626 3 30 77 92 236 584 665 1460 2720
2026-03-12 05:30 6.44 644 9980 (1974) 0 (2006) 626 3 30 77 92 236 584 665 1460 2720
2026-03-12 04:30 6.48 659 9980 (1974) 0 (2006) 626 3 30 77 92 236 584 665 1460 2720
2026-03-12 03:30 6.53 677 9980 (1974) 0 (2006) 626 3 30 77 92 236 584 665 1460 2720
2026-03-12 02:30 6.57 693 9980 (1974) 0 (2006) 626 3 30 77 92 236 584 665 1460 2720
2026-03-12 01:30 6.60 704 9980 (1974) 0 (2006) 626 3 30 77 92 236 584 665 1460 2720
2026-03-12 00:30 6.62 712 9980 (1974) 0 (2006) 626 3 30 77 92 236 584 665 1460 2720
2026-03-11 23:30 6.59 700 9980 (1974) 0 (2006) 626 3 30 77 92 236 584 665 1460 2720
2026-03-11 22:30 6.53 677 16700 (1974) 0 (2006) 704 3 27 68 89 207 565 695 1140 2300
2026-03-11 21:30 6.42 636 16700 (1974) 0 (2006) 704 3 27 68 89 207 565 695 1140 2300
2026-03-11 20:30 6.27 583 16700 (1974) 0 (2006) 704 3 27 68 89 207 565 695 1140 2300
2026-03-11 19:30 6.10 525 16700 (1974) 0 (2006) 704 3 27 68 89 207 565 695 1140 2300
2026-03-11 18:30 5.97 483 16700 (1974) 0 (2006) 704 3 27 68 89 207 565 695 1140 2300
2026-03-11 17:30 5.89 458 16700 (1974) 0 (2006) 704 3 27 68 89 207 565 695 1140 2300
2026-03-11 16:30 5.83 440 16700 (1974) 0 (2006) 704 3 27 68 89 207 565 695 1140 2300
2026-03-11 15:30 5.74 414 16700 (1974) 0 (2006) 704 3 27 68 89 207 565 695 1140 2300
2026-03-11 14:30 5.61 377 16700 (1974) 0 (2006) 704 3 27 68 89 207 565 695 1140 2300
2026-03-11 13:30 5.45 334 16700 (1974) 0 (2006) 704 3 27 68 89 207 565 695 1140 2300
2026-03-11 12:30 5.32 302 16700 (1974) 0 (2006) 704 3 27 68 89 207 565 695 1140 2300
2026-03-11 11:30 5.22 278 16700 (1974) 0 (2006) 704 3 27 68 89 207 565 695 1140 2300
2026-03-11 10:30 5.13 258 16700 (1974) 0 (2006) 704 3 27 68 89 207 565 695 1140 2300
2026-03-11 09:30 5.07 245 16700 (1974) 0 (2006) 704 3 27 68 89 207 565 695 1140 2300
2026-03-11 08:30 5.03 236 16700 (1974) 0 (2006) 704 3 27 68 89 207 565 695 1140 2300
2026-03-11 07:30 4.99 228 16700 (1974) 0 (2006) 704 3 27 68 89 207 565 695 1140 2300
2026-03-11 06:30 4.98 225 16700 (1974) 0 (2006) 704 3 27 68 89 207 565 695 1140 2300
2026-03-11 05:30 4.97 223 16700 (1974) 0 (2006) 704 3 27 68 89 207 565 695 1140 2300
2026-03-11 04:30 4.97 223 16700 (1974) 0 (2006) 704 3 27 68 89 207 565 695 1140 2300
2026-03-11 03:30 4.97 223 16700 (1974) 0 (2006) 704 3 27 68 89 207 565 695 1140 2300
2026-03-11 02:30 4.98 225 16700 (1974) 0 (2006) 704 3 27 68 89 207 565 695 1140 2300
2026-03-11 01:30 4.98 225 16700 (1974) 0 (2006) 704 3 27 68 89 207 565 695 1140 2300
2026-03-11 00:30 4.99 228 16700 (1974) 0 (2006) 704 3 27 68 89 207 565 695 1140 2300
2026-03-10 23:30 4.99 228 16700 (1974) 0 (2006) 704 3 27 68 89 207 565 695 1140 2300
2026-03-10 22:30 5.00 230 5780 (1974) 0 (2006) 517 3 26 58 86 186 478 733 1460 2330
2026-03-10 21:30 5.02 234 5780 (1974) 0 (2006) 517 3 26 58 86 186 478 733 1460 2330
2026-03-10 20:30 5.04 238 5780 (1974) 0 (2006) 517 3 26 58 86 186 478 733 1460 2330
2026-03-10 19:30 5.05 240 5780 (1974) 0 (2006) 517 3 26 58 86 186 478 733 1460 2330
2026-03-10 18:30 5.07 245 5780 (1974) 0 (2006) 517 3 26 58 86 186 478 733 1460 2330
2026-03-10 17:30 5.08 247 5780 (1974) 0 (2006) 517 3 26 58 86 186 478 733 1460 2330
2026-03-10 16:30 5.09 249 5780 (1974) 0 (2006) 517 3 26 58 86 186 478 733 1460 2330
2026-03-10 15:30 5.10 251 5780 (1974) 0 (2006) 517 3 26 58 86 186 478 733 1460 2330
2026-03-10 14:30 5.12 255 5780 (1974) 0 (2006) 517 3 26 58 86 186 478 733 1460 2330
2026-03-10 13:30 5.13 258 5780 (1974) 0 (2006) 517 3 26 58 86 186 478 733 1460 2330
2026-03-10 12:30 5.15 262 5780 (1974) 0 (2006) 517 3 26 58 86 186 478 733 1460 2330
2026-03-10 11:30 5.17 267 5780 (1974) 0 (2006) 517 3 26 58 86 186 478 733 1460 2330
2026-03-10 10:30 5.19 271 5780 (1974) 0 (2006) 517 3 26 58 86 186 478 733 1460 2330
2026-03-10 09:30 5.20 274 5780 (1974) 0 (2006) 517 3 26 58 86 186 478 733 1460 2330
2026-03-10 08:30 5.22 278 5780 (1974) 0 (2006) 517 3 26 58 86 186 478 733 1460 2330
2026-03-10 07:30 5.24 283 5780 (1974) 0 (2006) 517 3 26 58 86 186 478 733 1460 2330
2026-03-10 06:30 5.26 288 5780 (1974) 0 (2006) 517 3 26 58 86 186 478 733 1460 2330
2026-03-10 05:30 5.28 292 5780 (1974) 0 (2006) 517 3 26 58 86 186 478 733 1460 2330
2026-03-10 04:30 5.30 297 5780 (1974) 0 (2006) 517 3 26 58 86 186 478 733 1460 2330
2026-03-10 03:30 5.32 302 5780 (1974) 0 (2006) 517 3 26 58 86 186 478 733 1460 2330
2026-03-10 02:30 5.34 307 5780 (1974) 0 (2006) 517 3 26 58 86 186 478 733 1460 2330
2026-03-10 01:30 5.36 312 5780 (1974) 0 (2006) 517 3 26 58 86 186 478 733 1460 2330
2026-03-10 00:30 5.39 319 5780 (1974) 0 (2006) 517 3 26 58 86 186 478 733 1460 2330
2026-03-09 23:30 5.42 327 5780 (1974) 0 (2006) 517 3 26 58 86 186 478 733 1460 2330
2026-03-09 22:30 5.44 332 4820 (1999) 0 (2006) 461 3 27 55 74 190 401 530 1420 2430
2026-03-09 21:30 5.47 340 4820 (1999) 0 (2006) 461 3 27 55 74 190 401 530 1420 2430
2026-03-09 20:30 5.50 347 4820 (1999) 0 (2006) 461 3 27 55 74 190 401 530 1420 2430
2026-03-09 19:30 5.53 355 4820 (1999) 0 (2006) 461 3 27 55 74 190 401 530 1420 2430
2026-03-09 18:30 5.57 366 4820 (1999) 0 (2006) 461 3 27 55 74 190 401 530 1420 2430
2026-03-09 17:30 5.60 374 4820 (1999) 0 (2006) 461 3 27 55 74 190 401 530 1420 2430
2026-03-09 16:30 5.63 383 4820 (1999) 0 (2006) 461 3 27 55 74 190 401 530 1420 2430
2026-03-09 15:30 5.67 394 4820 (1999) 0 (2006) 461 3 27 55 74 190 401 530 1420 2430
2026-03-09 14:30 5.70 402 4820 (1999) 0 (2006) 461 3 27 55 74 190 401 530 1420 2430
2026-03-09 13:30 5.74 414 4820 (1999) 0 (2006) 461 3 27 55 74 190 401 530 1420 2430
2026-03-09 12:30 5.79 428 4820 (1999) 0 (2006) 461 3 27 55 74 190 401 530 1420 2430
2026-03-09 11:30 5.83 440 4820 (1999) 0 (2006) 461 3 27 55 74 190 401 530 1420 2430
2026-03-09 10:30 5.89 458 4820 (1999) 0 (2006) 461 3 27 55 74 190 401 530 1420 2430
2026-03-09 09:30 5.94 474 4820 (1999) 0 (2006) 461 3 27 55 74 190 401 530 1420 2430
2026-03-09 08:30 6.00 493 4820 (1999) 0 (2006) 461 3 27 55 74 190 401 530 1420 2430
2026-03-09 07:30 6.07 515 4820 (1999) 0 (2006) 461 3 27 55 74 190 401 530 1420 2430
2026-03-09 06:30 6.15 542 4820 (1999) 0 (2006) 461 3 27 55 74 190 401 530 1420 2430
2026-03-09 05:30 6.24 572 4820 (1999) 0 (2006) 461 3 27 55 74 190 401 530 1420 2430
2026-03-09 04:30 6.35 611 4820 (1999) 0 (2006) 461 3 27 55 74 190 401 530 1420 2430
2026-03-09 03:30 6.49 662 4820 (1999) 0 (2006) 461 3 27 55 74 190 401 530 1420 2430
2026-03-09 02:30 6.64 720 4820 (1999) 0 (2006) 461 3 27 55 74 190 401 530 1420 2430
2026-03-09 01:30 6.81 788 4820 (1999) 0 (2006) 461 3 27 55 74 190 401 530 1420 2430
2026-03-09 00:30 7.01 873 4820 (1999) 0 (2006) 461 3 27 55 74 190 401 530 1420 2430
2026-03-08 23:30 7.22 967 4820 (1999) 0 (2006) 461 3 27 55 74 190 401 530 1420 2430
2026-03-08 22:30 7.45 1080 3850 (1998) 0 (2006) 433 3 28 57 71 184 427 560 763 2860
2026-03-08 21:30 7.68 1190 3850 (1998) 0 (2006) 433 3 28 57 71 184 427 560 763 2860
2026-03-08 20:30 7.91 1300 3850 (1998) 0 (2006) 433 3 28 57 71 184 427 560 763 2860
2026-03-08 19:30 8.14 1420 3850 (1998) 0 (2006) 433 3 28 57 71 184 427 560 763 2860
2026-03-08 18:30 8.38 1550 3850 (1998) 0 (2006) 433 3 28 57 71 184 427 560 763 2860
2026-03-08 17:30 8.58 1650 3850 (1998) 0 (2006) 433 3 28 57 71 184 427 560 763 2860
2026-03-08 16:30 8.79 1750 3850 (1998) 0 (2006) 433 3 28 57 71 184 427 560 763 2860
2026-03-08 15:30 8.97 1830 3850 (1998) 0 (2006) 433 3 28 57 71 184 427 560 763 2860
2026-03-08 14:30 9.12 1900 3850 (1998) 0 (2006) 433 3 28 57 71 184 427 560 763 2860
2026-03-08 13:30 9.22 1960 3850 (1998) 0 (2006) 433 3 28 57 71 184 427 560 763 2860
2026-03-08 12:30 9.30 1990 3850 (1998) 0 (2006) 433 3 28 57 71 184 427 560 763 2860
2026-03-08 11:30 9.32 2000 3850 (1998) 0 (2006) 433 3 28 57 71 184 427 560 763 2860
2026-03-08 10:30 9.30 1990 3850 (1998) 0 (2006) 433 3 28 57 71 184 427 560 763 2860
2026-03-08 09:30 9.21 1950 3850 (1998) 0 (2006) 433 3 28 57 71 184 427 560 763 2860
2026-03-08 08:30 9.11 1900 3850 (1998) 0 (2006) 433 3 28 57 71 184 427 560 763 2860
2026-03-08 07:30 8.94 1820 3850 (1998) 0 (2006) 433 3 28 57 71 184 427 560 763 2860
2026-03-08 06:30 8.71 1710 3850 (1998) 0 (2006) 433 3 28 57 71 184 427 560 763 2860
2026-03-08 05:30 8.46 1590 3850 (1998) 0 (2006) 433 3 28 57 71 184 427 560 763 2860
2026-03-08 04:30 8.19 1450 3850 (1998) 0 (2006) 433 3 28 57 71 184 427 560 763 2860
2026-03-08 03:30 7.93 1310 3850 (1998) 0 (2006) 433 3 28 57 71 184 427 560 763 2860
2026-03-08 01:30 7.73 1210 3850 (1998) 0 (2006) 433 3 28 57 71 184 427 560 763 2860
2026-03-08 00:30 7.63 1160 3850 (1998) 0 (2006) 433 3 28 57 71 184 427 560 763 2860
2026-03-07 23:30 7.64 1170 3850 (1998) 0 (2006) 433 3 28 57 71 184 427 560 763 2860
2026-03-07 22:30 7.74 1220 5630 (1973) 0 (2006) 369 3 27 60 79 180 365 436 830 1650
2026-03-07 21:30 7.87 1280 5630 (1973) 0 (2006) 369 3 27 60 79 180 365 436 830 1650
2026-03-07 20:30 8.00 1350 5630 (1973) 0 (2006) 369 3 27 60 79 180 365 436 830 1650
2026-03-07 19:30 8.12 1410 5630 (1973) 0 (2006) 369 3 27 60 79 180 365 436 830 1650
2026-03-07 18:30 8.17 1440 5630 (1973) 0 (2006) 369 3 27 60 79 180 365 436 830 1650
2026-03-07 17:30 8.13 1410 5630 (1973) 0 (2006) 369 3 27 60 79 180 365 436 830 1650
2026-03-07 16:30 7.92 1310 5630 (1973) 0 (2006) 369 3 27 60 79 180 365 436 830 1650
2026-03-07 15:30 7.46 1080 5630 (1973) 0 (2006) 369 3 27 60 79 180 365 436 830 1650
2026-03-07 14:30 6.54 681 5630 (1973) 0 (2006) 369 3 27 60 79 180 365 436 830 1650
2026-03-07 13:30 5.31 300 5630 (1973) 0 (2006) 369 3 27 60 79 180 365 436 830 1650
2026-03-07 12:30 4.78 186 5630 (1973) 0 (2006) 369 3 27 60 79 180 365 436 830 1650
2026-03-07 11:30 4.72 175 5630 (1973) 0 (2006) 369 3 27 60 79 180 365 436 830 1650
2026-03-07 10:30 4.70 172 5630 (1973) 0 (2006) 369 3 27 60 79 180 365 436 830 1650
2026-03-07 09:30 4.69 170 5630 (1973) 0 (2006) 369 3 27 60 79 180 365 436 830 1650
2026-03-07 08:30 4.67 166 5630 (1973) 0 (2006) 369 3 27 60 79 180 365 436 830 1650
2026-03-07 07:30 4.64 161 5630 (1973) 0 (2006) 369 3 27 60 79 180 365 436 830 1650
2026-03-07 06:30 4.60 154 5630 (1973) 0 (2006) 369 3 27 60 79 180 365 436 830 1650
2026-03-07 05:30 4.57 149 5630 (1973) 0 (2006) 369 3 27 60 79 180 365 436 830 1650
2026-03-07 04:30 4.54 144 5630 (1973) 0 (2006) 369 3 27 60 79 180 365 436 830 1650
2026-03-07 03:30 4.51 140 5630 (1973) 0 (2006) 369 3 27 60 79 180 365 436 830 1650
2026-03-07 02:30 4.49 136 5630 (1973) 0 (2006) 369 3 27 60 79 180 365 436 830 1650
2026-03-07 01:30 4.49 136 5630 (1973) 0 (2006) 369 3 27 60 79 180 365 436 830 1650
2026-03-07 00:30 4.47 133 5630 (1973) 0 (2006) 369 3 27 60 79 180 365 436 830 1650
2026-03-06 23:30 4.47 133 5630 (1973) 0 (2006) 369 3 27 60 79 180 365 436 830 1650
2026-03-06 22:30 4.47 133 5730 (2004) 0 (2006) 446 3 13 60 71 182 372 481 718 2080
2026-03-06 21:30 4.46 132 5730 (2004) 0 (2006) 446 3 13 60 71 182 372 481 718 2080
2026-03-06 20:30 4.46 132 5730 (2004) 0 (2006) 446 3 13 60 71 182 372 481 718 2080
2026-03-06 19:30 4.46 132 5730 (2004) 0 (2006) 446 3 13 60 71 182 372 481 718 2080
2026-03-06 18:30 4.47 133 5730 (2004) 0 (2006) 446 3 13 60 71 182 372 481 718 2080
2026-03-06 17:30 4.47 133 5730 (2004) 0 (2006) 446 3 13 60 71 182 372 481 718 2080
2026-03-06 16:30 4.47 133 5730 (2004) 0 (2006) 446 3 13 60 71 182 372 481 718 2080
2026-03-06 15:30 4.46 132 5730 (2004) 0 (2006) 446 3 13 60 71 182 372 481 718 2080
2026-03-06 14:30 4.46 132 5730 (2004) 0 (2006) 446 3 13 60 71 182 372 481 718 2080
2026-03-06 13:30 4.46 132 5730 (2004) 0 (2006) 446 3 13 60 71 182 372 481 718 2080
2026-03-06 12:30 4.46 132 5730 (2004) 0 (2006) 446 3 13 60 71 182 372 481 718 2080
2026-03-06 11:30 4.46 132 5730 (2004) 0 (2006) 446 3 13 60 71 182 372 481 718 2080
2026-03-06 10:30 4.47 133 5730 (2004) 0 (2006) 446 3 13 60 71 182 372 481 718 2080
2026-03-06 09:30 4.48 135 5730 (2004) 0 (2006) 446 3 13 60 71 182 372 481 718 2080
2026-03-06 08:30 4.47 133 5730 (2004) 0 (2006) 446 3 13 60 71 182 372 481 718 2080
2026-03-06 07:30 4.47 133 5730 (2004) 0 (2006) 446 3 13 60 71 182 372 481 718 2080
2026-03-06 06:30 4.47 133 5730 (2004) 0 (2006) 446 3 13 60 71 182 372 481 718 2080
2026-03-06 05:30 4.46 132 5730 (2004) 0 (2006) 446 3 13 60 71 182 372 481 718 2080
2026-03-06 04:30 4.44 129 5730 (2004) 0 (2006) 446 3 13 60 71 182 372 481 718 2080
2026-03-06 03:30 4.42 126 5730 (2004) 0 (2006) 446 3 13 60 71 182 372 481 718 2080
2026-03-06 02:30 4.38 118 5730 (2004) 0 (2006) 446 3 13 60 71 182 372 481 718 2080
2026-03-06 01:30 4.34 111 5730 (2004) 0 (2006) 446 3 13 60 71 182 372 481 718 2080
2026-03-06 00:30 4.30 105 5730 (2004) 0 (2006) 446 3 13 60 71 182 372 481 718 2080
2026-03-05 23:30 4.26 98 5730 (2004) 0 (2006) 446 3 13 60 71 182 372 481 718 2080
2026-03-05 22:30 4.22 92 7590 (2004) 0 (2006) 550 3 14 55 74 195 460 558 1160 3060
2026-03-05 21:30 4.19 87 7590 (2004) 0 (2006) 550 3 14 55 74 195 460 558 1160 3060
2026-03-05 20:30 4.17 85 7590 (2004) 0 (2006) 550 3 14 55 74 195 460 558 1160 3060
2026-03-05 19:30 4.14 80 7590 (2004) 0 (2006) 550 3 14 55 74 195 460 558 1160 3060
2026-03-05 18:30 4.11 76 7590 (2004) 0 (2006) 550 3 14 55 74 195 460 558 1160 3060
2026-03-05 17:30 4.07 71 7590 (2004) 0 (2006) 550 3 14 55 74 195 460 558 1160 3060
2026-03-05 16:30 4.04 67 7590 (2004) 0 (2006) 550 3 14 55 74 195 460 558 1160 3060
2026-03-05 15:30 4.00 62 7590 (2004) 0 (2006) 550 3 14 55 74 195 460 558 1160 3060
2026-03-05 14:30 3.96 58 7590 (2004) 0 (2006) 550 3 14 55 74 195 460 558 1160 3060
2026-03-05 13:30 3.92 53 7590 (2004) 0 (2006) 550 3 14 55 74 195 460 558 1160 3060
2026-03-05 12:30 3.89 50 7590 (2004) 0 (2006) 550 3 14 55 74 195 460 558 1160 3060
2026-03-05 11:30 3.86 47 7590 (2004) 0 (2006) 550 3 14 55 74 195 460 558 1160 3060
2026-03-05 10:30 3.84 45 7590 (2004) 0 (2006) 550 3 14 55 74 195 460 558 1160 3060
2026-03-05 09:30 3.81 42 7590 (2004) 0 (2006) 550 3 14 55 74 195 460 558 1160 3060
2026-03-05 08:30 3.80 41 7590 (2004) 0 (2006) 550 3 14 55 74 195 460 558 1160 3060
2026-03-05 07:30 3.78 40 7590 (2004) 0 (2006) 550 3 14 55 74 195 460 558 1160 3060
2026-03-05 06:30 3.78 40 7590 (2004) 0 (2006) 550 3 14 55 74 195 460 558 1160 3060
2026-03-05 05:30 3.77 39 7590 (2004) 0 (2006) 550 3 14 55 74 195 460 558 1160 3060
2026-03-05 04:30 3.77 39 7590 (2004) 0 (2006) 550 3 14 55 74 195 460 558 1160 3060
2026-03-05 03:30 3.76 38 7590 (2004) 0 (2006) 550 3 14 55 74 195 460 558 1160 3060
2026-03-05 02:30 3.75 37 7590 (2004) 0 (2006) 550 3 14 55 74 195 460 558 1160 3060
2026-03-05 01:30 3.74 36 7590 (2004) 0 (2006) 550 3 14 55 74 195 460 558 1160 3060
2026-03-05 00:30 3.73 35 7590 (2004) 0 (2006) 550 3 14 55 74 195 460 558 1160 3060
2026-03-04 23:30 3.72 34 7590 (2004) 0 (2006) 550 3 14 55 74 195 460 558 1160 3060
2026-03-04 22:30 3.70 33 5850 (1988) 0 (2006) 508 4 15 53 77 188 486 552 1120 2640
2026-03-04 21:30 3.68 31 5850 (1988) 0 (2006) 508 4 15 53 77 188 486 552 1120 2640
2026-03-04 20:30 3.67 31 5850 (1988) 0 (2006) 508 4 15 53 77 188 486 552 1120 2640
2026-03-04 19:30 3.66 30 5850 (1988) 0 (2006) 508 4 15 53 77 188 486 552 1120 2640
2026-03-04 18:30 3.65 29 5850 (1988) 0 (2006) 508 4 15 53 77 188 486 552 1120 2640
2026-03-04 17:30 3.64 28 5850 (1988) 0 (2006) 508 4 15 53 77 188 486 552 1120 2640
2026-03-04 16:30 3.63 27 5850 (1988) 0 (2006) 508 4 15 53 77 188 486 552 1120 2640
2026-03-04 15:30 3.61 26 5850 (1988) 0 (2006) 508 4 15 53 77 188 486 552 1120 2640
2026-03-04 14:30 3.61 26 5850 (1988) 0 (2006) 508 4 15 53 77 188 486 552 1120 2640
2026-03-04 13:30 3.60 25 5850 (1988) 0 (2006) 508 4 15 53 77 188 486 552 1120 2640
2026-03-04 12:30 3.59 25 5850 (1988) 0 (2006) 508 4 15 53 77 188 486 552 1120 2640
2026-03-04 11:30 3.59 25 5850 (1988) 0 (2006) 508 4 15 53 77 188 486 552 1120 2640
2026-03-04 10:30 3.58 24 5850 (1988) 0 (2006) 508 4 15 53 77 188 486 552 1120 2640
2026-03-04 09:30 3.57 23 5850 (1988) 0 (2006) 508 4 15 53 77 188 486 552 1120 2640
2026-03-04 08:30 3.55 21 5850 (1988) 0 (2006) 508 4 15 53 77 188 486 552 1120 2640
2026-03-04 07:30 3.55 21 5850 (1988) 0 (2006) 508 4 15 53 77 188 486 552 1120 2640
2026-03-04 06:30 3.55 21 5850 (1988) 0 (2006) 508 4 15 53 77 188 486 552 1120 2640
2026-03-04 05:30 3.55 21 5850 (1988) 0 (2006) 508 4 15 53 77 188 486 552 1120 2640
2026-03-04 04:30 3.55 21 5850 (1988) 0 (2006) 508 4 15 53 77 188 486 552 1120 2640
2026-03-04 03:30 3.55 21 5850 (1988) 0 (2006) 508 4 15 53 77 188 486 552 1120 2640
2026-03-04 02:30 3.55 21 5850 (1988) 0 (2006) 508 4 15 53 77 188 486 552 1120 2640
2026-03-04 01:30 3.55 21 5850 (1988) 0 (2006) 508 4 15 53 77 188 486 552 1120 2640
2026-03-04 00:30 3.55 21 5850 (1988) 0 (2006) 508 4 15 53 77 188 486 552 1120 2640
2026-03-03 23:30 3.55 21 5850 (1988) 0 (2006) 508 4 15 53 77 188 486 552 1120 2640
2026-03-03 22:30 3.55 21 3790 (1988) 0 (2006) 368 4 15 46 82 159 393 489 791 1610
2026-03-03 21:30 3.55 21 3790 (1988) 0 (2006) 368 4 15 46 82 159 393 489 791 1610
2026-03-03 20:30 3.55 21 3790 (1988) 0 (2006) 368 4 15 46 82 159 393 489 791 1610
2026-03-03 19:30 3.54 21 3790 (1988) 0 (2006) 368 4 15 46 82 159 393 489 791 1610
2026-03-03 18:30 3.54 21 3790 (1988) 0 (2006) 368 4 15 46 82 159 393 489 791 1610
2026-03-03 17:30 3.54 21 3790 (1988) 0 (2006) 368 4 15 46 82 159 393 489 791 1610
2026-03-03 16:30 3.54 21 3790 (1988) 0 (2006) 368 4 15 46 82 159 393 489 791 1610
2026-03-03 15:30 3.54 21 3790 (1988) 0 (2006) 368 4 15 46 82 159 393 489 791 1610
2026-03-03 14:30 3.54 21 3790 (1988) 0 (2006) 368 4 15 46 82 159 393 489 791 1610
2026-03-03 13:30 3.53 20 3790 (1988) 0 (2006) 368 4 15 46 82 159 393 489 791 1610
2026-03-03 12:30 3.53 20 3790 (1988) 0 (2006) 368 4 15 46 82 159 393 489 791 1610
2026-03-03 11:30 3.53 20 3790 (1988) 0 (2006) 368 4 15 46 82 159 393 489 791 1610
2026-03-03 10:30 3.53 20 3790 (1988) 0 (2006) 368 4 15 46 82 159 393 489 791 1610
2026-03-03 09:30 3.52 19 3790 (1988) 0 (2006) 368 4 15 46 82 159 393 489 791 1610
2026-03-03 08:30 3.52 19 3790 (1988) 0 (2006) 368 4 15 46 82 159 393 489 791 1610
2026-03-03 07:30 3.51 18 3790 (1988) 0 (2006) 368 4 15 46 82 159 393 489 791 1610
2026-03-03 06:30 3.51 18 3790 (1988) 0 (2006) 368 4 15 46 82 159 393 489 791 1610
2026-03-03 05:30 3.51 18 3790 (1988) 0 (2006) 368 4 15 46 82 159 393 489 791 1610
2026-03-03 04:30 3.51 18 3790 (1988) 0 (2006) 368 4 15 46 82 159 393 489 791 1610
2026-03-03 03:30 3.51 18 3790 (1988) 0 (2006) 368 4 15 46 82 159 393 489 791 1610
2026-03-03 02:30 3.51 18 3790 (1988) 0 (2006) 368 4 15 46 82 159 393 489 791 1610
2026-03-03 01:30 3.51 18 3790 (1988) 0 (2006) 368 4 15 46 82 159 393 489 791 1610
2026-03-03 00:30 3.51 18 3790 (1988) 0 (2006) 368 4 15 46 82 159 393 489 791 1610
2026-03-02 23:30 3.51 18 3790 (1988) 0 (2006) 368 4 15 46 82 159 393 489 791 1610
2026-03-02 22:30 3.51 18 6400 (1987) 0 (2006) 366 4 15 42 81 169 348 445 802 1410
2026-03-02 21:30 3.51 18 6400 (1987) 0 (2006) 366 4 15 42 81 169 348 445 802 1410
2026-03-02 20:30 3.51 18 6400 (1987) 0 (2006) 366 4 15 42 81 169 348 445 802 1410
2026-03-02 19:30 3.51 18 6400 (1987) 0 (2006) 366 4 15 42 81 169 348 445 802 1410
2026-03-02 18:30 3.51 18 6400 (1987) 0 (2006) 366 4 15 42 81 169 348 445 802 1410
2026-03-02 17:30 3.51 18 6400 (1987) 0 (2006) 366 4 15 42 81 169 348 445 802 1410
2026-03-02 16:30 3.51 18 6400 (1987) 0 (2006) 366 4 15 42 81 169 348 445 802 1410
2026-03-02 15:30 3.51 18 6400 (1987) 0 (2006) 366 4 15 42 81 169 348 445 802 1410
2026-03-02 14:30 3.51 18 6400 (1987) 0 (2006) 366 4 15 42 81 169 348 445 802 1410
2026-03-02 13:30 3.51 18 6400 (1987) 0 (2006) 366 4 15 42 81 169 348 445 802 1410
2026-03-02 12:30 3.51 18 6400 (1987) 0 (2006) 366 4 15 42 81 169 348 445 802 1410
2026-03-02 11:30 3.51 18 6400 (1987) 0 (2006) 366 4 15 42 81 169 348 445 802 1410
2026-03-02 10:30 3.51 18 6400 (1987) 0 (2006) 366 4 15 42 81 169 348 445 802 1410
2026-03-02 09:30 3.51 18 6400 (1987) 0 (2006) 366 4 15 42 81 169 348 445 802 1410
2026-03-02 08:30 3.51 18 6400 (1987) 0 (2006) 366 4 15 42 81 169 348 445 802 1410
2026-03-02 07:30 3.51 18 6400 (1987) 0 (2006) 366 4 15 42 81 169 348 445 802 1410
2026-03-02 06:30 3.51 18 6400 (1987) 0 (2006) 366 4 15 42 81 169 348 445 802 1410
2026-03-02 05:30 3.51 18 6400 (1987) 0 (2006) 366 4 15 42 81 169 348 445 802 1410
2026-03-02 04:30 3.51 18 6400 (1987) 0 (2006) 366 4 15 42 81 169 348 445 802 1410
2026-03-02 03:30 3.52 19 6400 (1987) 0 (2006) 366 4 15 42 81 169 348 445 802 1410
2026-03-02 02:30 3.52 19 6400 (1987) 0 (2006) 366 4 15 42 81 169 348 445 802 1410
2026-03-02 01:30 3.51 18 6400 (1987) 0 (2006) 366 4 15 42 81 169 348 445 802 1410
2026-03-02 00:30 3.52 19 6400 (1987) 0 (2006) 366 4 15 42 81 169 348 445 802 1410
2026-03-01 23:30 3.52 19 6400 (1987) 0 (2006) 366 4 15 42 81 169 348 445 802 1410
2026-03-01 22:30 3.51 18 7670 (1987) 0 (2006) 416 4 9 44 74 183 381 465 977 1610
2026-03-01 21:30 3.51 18 7670 (1987) 0 (2006) 416 4 9 44 74 183 381 465 977 1610
2026-03-01 20:30 3.51 18 7670 (1987) 0 (2006) 416 4 9 44 74 183 381 465 977 1610
2026-03-01 19:30 3.51 18 7670 (1987) 0 (2006) 416 4 9 44 74 183 381 465 977 1610
2026-03-01 18:30 3.51 18 7670 (1987) 0 (2006) 416 4 9 44 74 183 381 465 977 1610
2026-03-01 17:30 3.51 18 7670 (1987) 0 (2006) 416 4 9 44 74 183 381 465 977 1610
2026-03-01 16:30 3.50 18 7670 (1987) 0 (2006) 416 4 9 44 74 183 381 465 977 1610
2026-03-01 15:30 3.48 16 7670 (1987) 0 (2006) 416 4 9 44 74 183 381 465 977 1610
2026-03-01 14:30 3.47 16 7670 (1987) 0 (2006) 416 4 9 44 74 183 381 465 977 1610
2026-03-01 13:30 3.47 16 7670 (1987) 0 (2006) 416 4 9 44 74 183 381 465 977 1610
2026-03-01 12:30 3.48 16 7670 (1987) 0 (2006) 416 4 9 44 74 183 381 465 977 1610
2026-03-01 11:30 3.48 16 7670 (1987) 0 (2006) 416 4 9 44 74 183 381 465 977 1610
2026-03-01 10:30 3.48 16 7670 (1987) 0 (2006) 416 4 9 44 74 183 381 465 977 1610
2026-03-01 09:30 3.48 16 7670 (1987) 0 (2006) 416 4 9 44 74 183 381 465 977 1610
2026-03-01 08:30 3.49 17 7670 (1987) 0 (2006) 416 4 9 44 74 183 381 465 977 1610
2026-03-01 07:30 3.49 17 7670 (1987) 0 (2006) 416 4 9 44 74 183 381 465 977 1610
2026-03-01 06:30 3.49 17 7670 (1987) 0 (2006) 416 4 9 44 74 183 381 465 977 1610
2026-03-01 05:30 3.49 17 7670 (1987) 0 (2006) 416 4 9 44 74 183 381 465 977 1610
2026-03-01 04:30 3.49 17 7670 (1987) 0 (2006) 416 4 9 44 74 183 381 465 977 1610
2026-03-01 03:30 3.50 18 7670 (1987) 0 (2006) 416 4 9 44 74 183 381 465 977 1610
2026-03-01 02:30 3.50 18 7670 (1987) 0 (2006) 416 4 9 44 74 183 381 465 977 1610
2026-03-01 01:30 3.50 18 7670 (1987) 0 (2006) 416 4 9 44 74 183 381 465 977 1610
2026-03-01 00:30 3.50 18 7670 (1987) 0 (2006) 416 4 9 44 74 183 381 465 977 1610
2026-02-28 23:30 3.51 18 7670 (1987) 0 (2006) 416 4 9 44 74 183 381 465 977 1610
2026-02-28 22:30 3.51 18 3710 (2011) 0 (2006) 394 4 10 37 58 212 400 469 712 2130
2026-02-28 21:30 3.51 18 3710 (2011) 0 (2006) 394 4 10 37 58 212 400 469 712 2130
2026-02-28 20:30 3.51 18 3710 (2011) 0 (2006) 394 4 10 37 58 212 400 469 712 2130
2026-02-28 19:30 3.52 19 3710 (2011) 0 (2006) 394 4 10 37 58 212 400 469 712 2130
2026-02-28 18:30 3.52 19 3710 (2011) 0 (2006) 394 4 10 37 58 212 400 469 712 2130
2026-02-28 17:30 3.52 19 3710 (2011) 0 (2006) 394 4 10 37 58 212 400 469 712 2130
2026-02-28 16:30 3.52 19 3710 (2011) 0 (2006) 394 4 10 37 58 212 400 469 712 2130
2026-02-28 15:30 3.53 20 3710 (2011) 0 (2006) 394 4 10 37 58 212 400 469 712 2130
2026-02-28 14:30 3.53 20 3710 (2011) 0 (2006) 394 4 10 37 58 212 400 469 712 2130
2026-02-28 13:30 3.53 20 3710 (2011) 0 (2006) 394 4 10 37 58 212 400 469 712 2130
2026-02-28 12:30 3.53 20 3710 (2011) 0 (2006) 394 4 10 37 58 212 400 469 712 2130
2026-02-28 11:30 3.54 21 3710 (2011) 0 (2006) 394 4 10 37 58 212 400 469 712 2130
2026-02-28 10:30 3.54 21 3710 (2011) 0 (2006) 394 4 10 37 58 212 400 469 712 2130
2026-02-28 09:30 3.54 21 3710 (2011) 0 (2006) 394 4 10 37 58 212 400 469 712 2130
2026-02-28 08:30 3.54 21 3710 (2011) 0 (2006) 394 4 10 37 58 212 400 469 712 2130
2026-02-28 07:30 3.54 21 3710 (2011) 0 (2006) 394 4 10 37 58 212 400 469 712 2130
2026-02-28 06:30 3.54 21 3710 (2011) 0 (2006) 394 4 10 37 58 212 400 469 712 2130
2026-02-28 05:30 3.55 21 3710 (2011) 0 (2006) 394 4 10 37 58 212 400 469 712 2130
2026-02-28 04:30 3.55 21 3710 (2011) 0 (2006) 394 4 10 37 58 212 400 469 712 2130
2026-02-28 03:30 3.55 21 3710 (2011) 0 (2006) 394 4 10 37 58 212 400 469 712 2130
2026-02-28 02:30 3.55 21 3710 (2011) 0 (2006) 394 4 10 37 58 212 400 469 712 2130
2026-02-28 01:30 3.56 22 3710 (2011) 0 (2006) 394 4 10 37 58 212 400 469 712 2130
2026-02-28 00:30 3.56 22 3710 (2011) 0 (2006) 394 4 10 37 58 212 400 469 712 2130
2026-02-27 23:30 3.56 22 3710 (2011) 0 (2006) 394 4 10 37 58 212 400 469 712 2130
2026-02-27 22:30 3.56 22 4990 (1997) 0 (2006) 371 5 10 38 60 174 384 492 879 1410
2026-02-27 21:30 3.56 22 4990 (1997) 0 (2006) 371 5 10 38 60 174 384 492 879 1410
2026-02-27 20:30 3.56 22 4990 (1997) 0 (2006) 371 5 10 38 60 174 384 492 879 1410
2026-02-27 19:30 3.57 23 4990 (1997) 0 (2006) 371 5 10 38 60 174 384 492 879 1410
2026-02-27 18:30 3.57 23 4990 (1997) 0 (2006) 371 5 10 38 60 174 384 492 879 1410
2026-02-27 17:30 3.57 23 4990 (1997) 0 (2006) 371 5 10 38 60 174 384 492 879 1410
2026-02-27 16:30 3.57 23 4990 (1997) 0 (2006) 371 5 10 38 60 174 384 492 879 1410
2026-02-27 15:30 3.58 24 4990 (1997) 0 (2006) 371 5 10 38 60 174 384 492 879 1410
2026-02-27 14:30 3.58 24 4990 (1997) 0 (2006) 371 5 10 38 60 174 384 492 879 1410
2026-02-27 13:30 3.58 24 4990 (1997) 0 (2006) 371 5 10 38 60 174 384 492 879 1410
2026-02-27 12:30 3.58 24 4990 (1997) 0 (2006) 371 5 10 38 60 174 384 492 879 1410
2026-02-27 11:30 3.58 24 4990 (1997) 0 (2006) 371 5 10 38 60 174 384 492 879 1410
2026-02-27 10:30 3.58 24 4990 (1997) 0 (2006) 371 5 10 38 60 174 384 492 879 1410
2026-02-27 09:30 3.58 24 4990 (1997) 0 (2006) 371 5 10 38 60 174 384 492 879 1410
2026-02-27 08:30 3.58 24 4990 (1997) 0 (2006) 371 5 10 38 60 174 384 492 879 1410
2026-02-27 07:30 3.58 24 4990 (1997) 0 (2006) 371 5 10 38 60 174 384 492 879 1410
2026-02-27 06:30 3.58 24 4990 (1997) 0 (2006) 371 5 10 38 60 174 384 492 879 1410
2026-02-27 05:30 3.58 24 4990 (1997) 0 (2006) 371 5 10 38 60 174 384 492 879 1410
2026-02-27 04:30 3.58 24 4990 (1997) 0 (2006) 371 5 10 38 60 174 384 492 879 1410
2026-02-27 03:30 3.58 24 4990 (1997) 0 (2006) 371 5 10 38 60 174 384 492 879 1410
2026-02-27 02:30 3.58 24 4990 (1997) 0 (2006) 371 5 10 38 60 174 384 492 879 1410
2026-02-27 01:30 3.59 25 4990 (1997) 0 (2006) 371 5 10 38 60 174 384 492 879 1410
2026-02-27 00:30 3.59 25 4990 (1997) 0 (2006) 371 5 10 38 60 174 384 492 879 1410
2026-02-26 23:30 3.59 25 4990 (1997) 0 (2006) 371 5 10 38 60 174 384 492 879 1410
2026-02-26 22:30 3.59 25 4430 (2001) 0 (2006) 410 5 10 42 55 179 438 530 1090 1640
2026-02-26 21:30 3.59 25 4430 (2001) 0 (2006) 410 5 10 42 55 179 438 530 1090 1640
2026-02-26 20:30 3.60 25 4430 (2001) 0 (2006) 410 5 10 42 55 179 438 530 1090 1640
2026-02-26 19:30 3.60 25 4430 (2001) 0 (2006) 410 5 10 42 55 179 438 530 1090 1640
2026-02-26 18:30 3.60 25 4430 (2001) 0 (2006) 410 5 10 42 55 179 438 530 1090 1640
2026-02-26 17:30 3.60 25 4430 (2001) 0 (2006) 410 5 10 42 55 179 438 530 1090 1640
2026-02-26 16:30 3.60 25 4430 (2001) 0 (2006) 410 5 10 42 55 179 438 530 1090 1640
2026-02-26 15:30 3.60 25 4430 (2001) 0 (2006) 410 5 10 42 55 179 438 530 1090 1640
2026-02-26 14:30 3.60 25 4430 (2001) 0 (2006) 410 5 10 42 55 179 438 530 1090 1640
2026-02-26 13:30 3.61 26 4430 (2001) 0 (2006) 410 5 10 42 55 179 438 530 1090 1640
2026-02-26 12:30 3.61 26 4430 (2001) 0 (2006) 410 5 10 42 55 179 438 530 1090 1640
2026-02-26 11:30 3.61 26 4430 (2001) 0 (2006) 410 5 10 42 55 179 438 530 1090 1640
2026-02-26 10:30 3.61 26 4430 (2001) 0 (2006) 410 5 10 42 55 179 438 530 1090 1640
2026-02-26 09:30 3.61 26 4430 (2001) 0 (2006) 410 5 10 42 55 179 438 530 1090 1640
2026-02-26 08:30 3.61 26 4430 (2001) 0 (2006) 410 5 10 42 55 179 438 530 1090 1640
2026-02-26 07:30 3.61 26 4430 (2001) 0 (2006) 410 5 10 42 55 179 438 530 1090 1640
2026-02-26 06:30 3.61 26 4430 (2001) 0 (2006) 410 5 10 42 55 179 438 530 1090 1640
2026-02-26 05:30 3.61 26 4430 (2001) 0 (2006) 410 5 10 42 55 179 438 530 1090 1640
2026-02-26 04:30 3.62 27 4430 (2001) 0 (2006) 410 5 10 42 55 179 438 530 1090 1640
2026-02-26 03:30 3.62 27 4430 (2001) 0 (2006) 410 5 10 42 55 179 438 530 1090 1640
2026-02-26 02:30 3.62 27 4430 (2001) 0 (2006) 410 5 10 42 55 179 438 530 1090 1640
2026-02-26 01:30 3.62 27 4430 (2001) 0 (2006) 410 5 10 42 55 179 438 530 1090 1640
2026-02-26 00:30 3.62 27 4430 (2001) 0 (2006) 410 5 10 42 55 179 438 530 1090 1640
2026-02-25 23:30 3.62 27 4430 (2001) 0 (2006) 410 5 10 42 55 179 438 530 1090 1640
2026-02-25 22:30 3.62 27 8480 (1985) 0 (2006) 615 5 10 45 57 202 442 569 898 4390
2026-02-25 21:30 3.62 27 8480 (1985) 0 (2006) 615 5 10 45 57 202 442 569 898 4390
2026-02-25 20:30 3.62 27 8480 (1985) 0 (2006) 615 5 10 45 57 202 442 569 898 4390
2026-02-25 19:30 3.62 27 8480 (1985) 0 (2006) 615 5 10 45 57 202 442 569 898 4390
2026-02-25 18:30 3.63 27 8480 (1985) 0 (2006) 615 5 10 45 57 202 442 569 898 4390
2026-02-25 17:30 3.63 27 8480 (1985) 0 (2006) 615 5 10 45 57 202 442 569 898 4390
2026-02-25 16:30 3.63 27 8480 (1985) 0 (2006) 615 5 10 45 57 202 442 569 898 4390
2026-02-25 15:30 3.63 27 8480 (1985) 0 (2006) 615 5 10 45 57 202 442 569 898 4390
2026-02-25 14:30 3.63 27 8480 (1985) 0 (2006) 615 5 10 45 57 202 442 569 898 4390
2026-02-25 13:30 3.63 27 8480 (1985) 0 (2006) 615 5 10 45 57 202 442 569 898 4390
2026-02-25 12:30 3.63 27 8480 (1985) 0 (2006) 615 5 10 45 57 202 442 569 898 4390
2026-02-25 11:30 3.64 28 8480 (1985) 0 (2006) 615 5 10 45 57 202 442 569 898 4390
2026-02-25 10:30 3.64 28 8480 (1985) 0 (2006) 615 5 10 45 57 202 442 569 898 4390
2026-02-25 09:30 3.64 28 8480 (1985) 0 (2006) 615 5 10 45 57 202 442 569 898 4390
2026-02-25 08:30 3.64 28 8480 (1985) 0 (2006) 615 5 10 45 57 202 442 569 898 4390
2026-02-25 07:30 3.64 28 8480 (1985) 0 (2006) 615 5 10 45 57 202 442 569 898 4390
2026-02-25 06:30 3.65 29 8480 (1985) 0 (2006) 615 5 10 45 57 202 442 569 898 4390
2026-02-25 05:30 3.65 29 8480 (1985) 0 (2006) 615 5 10 45 57 202 442 569 898 4390
2026-02-25 04:30 3.65 29 8480 (1985) 0 (2006) 615 5 10 45 57 202 442 569 898 4390
2026-02-25 03:30 3.65 29 8480 (1985) 0 (2006) 615 5 10 45 57 202 442 569 898 4390
2026-02-25 02:30 3.66 30 8480 (1985) 0 (2006) 615 5 10 45 57 202 442 569 898 4390
2026-02-25 01:30 3.66 30 8480 (1985) 0 (2006) 615 5 10 45 57 202 442 569 898 4390
2026-02-25 00:30 3.66 30 8480 (1985) 0 (2006) 615 5 10 45 57 202 442 569 898 4390
2026-02-24 23:30 3.66 30 8480 (1985) 0 (2006) 615 5 10 45 57 202 442 569 898 4390
2026-02-24 22:30 3.66 30 15100 (1985) 0 (2006) 617 5 10 47 59 159 490 646 1330 2590
2026-02-24 21:30 3.66 30 15100 (1985) 0 (2006) 617 5 10 47 59 159 490 646 1330 2590
2026-02-24 20:30 3.66 30 15100 (1985) 0 (2006) 617 5 10 47 59 159 490 646 1330 2590
2026-02-24 19:30 3.67 31 15100 (1985) 0 (2006) 617 5 10 47 59 159 490 646 1330 2590
2026-02-24 18:30 3.67 31 15100 (1985) 0 (2006) 617 5 10 47 59 159 490 646 1330 2590
2026-02-24 17:30 3.67 31 15100 (1985) 0 (2006) 617 5 10 47 59 159 490 646 1330 2590
2026-02-24 16:30 3.67 31 15100 (1985) 0 (2006) 617 5 10 47 59 159 490 646 1330 2590
2026-02-24 15:30 3.68 31 15100 (1985) 0 (2006) 617 5 10 47 59 159 490 646 1330 2590
2026-02-24 14:30 3.68 31 15100 (1985) 0 (2006) 617 5 10 47 59 159 490 646 1330 2590
2026-02-24 13:30 3.69 32 15100 (1985) 0 (2006) 617 5 10 47 59 159 490 646 1330 2590
2026-02-24 12:30 3.69 32 15100 (1985) 0 (2006) 617 5 10 47 59 159 490 646 1330 2590
2026-02-24 11:30 3.68 31 15100 (1985) 0 (2006) 617 5 10 47 59 159 490 646 1330 2590
2026-02-24 10:30 3.69 32 15100 (1985) 0 (2006) 617 5 10 47 59 159 490 646 1330 2590
2026-02-24 09:30 3.69 32 15100 (1985) 0 (2006) 617 5 10 47 59 159 490 646 1330 2590
2026-02-24 08:30 3.69 32 15100 (1985) 0 (2006) 617 5 10 47 59 159 490 646 1330 2590
2026-02-24 07:30 3.70 33 15100 (1985) 0 (2006) 617 5 10 47 59 159 490 646 1330 2590
2026-02-24 06:30 3.70 33 15100 (1985) 0 (2006) 617 5 10 47 59 159 490 646 1330 2590
2026-02-24 05:30 3.70 33 15100 (1985) 0 (2006) 617 5 10 47 59 159 490 646 1330 2590
2026-02-24 04:30 3.71 34 15100 (1985) 0 (2006) 617 5 10 47 59 159 490 646 1330 2590
2026-02-24 03:30 3.71 34 15100 (1985) 0 (2006) 617 5 10 47 59 159 490 646 1330 2590
2026-02-24 02:30 3.71 34 15100 (1985) 0 (2006) 617 5 10 47 59 159 490 646 1330 2590
2026-02-24 01:30 3.72 34 15100 (1985) 0 (2006) 617 5 10 47 59 159 490 646 1330 2590
2026-02-24 00:30 3.72 34 15100 (1985) 0 (2006) 617 5 10 47 59 159 490 646 1330 2590
2026-02-23 23:30 3.72 34 15100 (1985) 0 (2006) 617 5 10 47 59 159 490 646 1330 2590
2026-02-23 22:30 3.73 35 21000 (1985) 0 (2006) 721 5 11 49 57 155 495 542 1130 2570
2026-02-23 21:30 3.73 35 21000 (1985) 0 (2006) 721 5 11 49 57 155 495 542 1130 2570
2026-02-23 20:30 3.74 36 21000 (1985) 0 (2006) 721 5 11 49 57 155 495 542 1130 2570
2026-02-23 19:30 3.74 36 21000 (1985) 0 (2006) 721 5 11 49 57 155 495 542 1130 2570
2026-02-23 18:30 3.74 36 21000 (1985) 0 (2006) 721 5 11 49 57 155 495 542 1130 2570
2026-02-23 17:30 3.74 36 21000 (1985) 0 (2006) 721 5 11 49 57 155 495 542 1130 2570
2026-02-23 16:30 3.75 37 21000 (1985) 0 (2006) 721 5 11 49 57 155 495 542 1130 2570
2026-02-23 15:30 3.76 38 21000 (1985) 0 (2006) 721 5 11 49 57 155 495 542 1130 2570
2026-02-23 14:30 3.76 38 21000 (1985) 0 (2006) 721 5 11 49 57 155 495 542 1130 2570
2026-02-23 13:30 3.76 38 21000 (1985) 0 (2006) 721 5 11 49 57 155 495 542 1130 2570
2026-02-23 12:30 3.77 39 21000 (1985) 0 (2006) 721 5 11 49 57 155 495 542 1130 2570
2026-02-23 11:30 3.77 39 21000 (1985) 0 (2006) 721 5 11 49 57 155 495 542 1130 2570
2026-02-23 10:30 3.77 39 21000 (1985) 0 (2006) 721 5 11 49 57 155 495 542 1130 2570
2026-02-23 09:30 3.78 40 21000 (1985) 0 (2006) 721 5 11 49 57 155 495 542 1130 2570
2026-02-23 08:30 3.78 40 21000 (1985) 0 (2006) 721 5 11 49 57 155 495 542 1130 2570
2026-02-23 07:30 3.79 40 21000 (1985) 0 (2006) 721 5 11 49 57 155 495 542 1130 2570
2026-02-23 06:30 3.79 40 21000 (1985) 0 (2006) 721 5 11 49 57 155 495 542 1130 2570
2026-02-23 05:30 3.79 40 21000 (1985) 0 (2006) 721 5 11 49 57 155 495 542 1130 2570
2026-02-23 04:30 3.80 41 21000 (1985) 0 (2006) 721 5 11 49 57 155 495 542 1130 2570
2026-02-23 03:30 3.80 41 21000 (1985) 0 (2006) 721 5 11 49 57 155 495 542 1130 2570
2026-02-23 02:30 3.81 42 21000 (1985) 0 (2006) 721 5 11 49 57 155 495 542 1130 2570
2026-02-23 01:30 3.81 42 21000 (1985) 0 (2006) 721 5 11 49 57 155 495 542 1130 2570
2026-02-23 00:30 3.82 43 21000 (1985) 0 (2006) 721 5 11 49 57 155 495 542 1130 2570
2026-02-22 23:30 3.82 43 21000 (1985) 0 (2006) 721 5 11 49 57 155 495 542 1130 2570
2026-02-22 22:30 3.83 44 9790 (1997) 0 (2006) 614 5 10 49 57 165 376 502 1470 2380
2026-02-22 21:30 3.83 44 9790 (1997) 0 (2006) 614 5 10 49 57 165 376 502 1470 2380
2026-02-22 20:30 3.83 44 9790 (1997) 0 (2006) 614 5 10 49 57 165 376 502 1470 2380
2026-02-22 19:30 3.83 44 9790 (1997) 0 (2006) 614 5 10 49 57 165 376 502 1470 2380
2026-02-22 18:30 3.84 45 9790 (1997) 0 (2006) 614 5 10 49 57 165 376 502 1470 2380
2026-02-22 17:30 3.84 45 9790 (1997) 0 (2006) 614 5 10 49 57 165 376 502 1470 2380
2026-02-22 16:30 3.85 46 9790 (1997) 0 (2006) 614 5 10 49 57 165 376 502 1470 2380
2026-02-22 15:30 3.85 46 9790 (1997) 0 (2006) 614 5 10 49 57 165 376 502 1470 2380
2026-02-22 14:30 3.86 47 9790 (1997) 0 (2006) 614 5 10 49 57 165 376 502 1470 2380
2026-02-22 13:30 3.86 47 9790 (1997) 0 (2006) 614 5 10 49 57 165 376 502 1470 2380
2026-02-22 12:30 3.87 48 9790 (1997) 0 (2006) 614 5 10 49 57 165 376 502 1470 2380
2026-02-22 11:30 3.88 49 9790 (1997) 0 (2006) 614 5 10 49 57 165 376 502 1470 2380
2026-02-22 10:30 3.88 49 9790 (1997) 0 (2006) 614 5 10 49 57 165 376 502 1470 2380
2026-02-22 09:30 3.88 49 9790 (1997) 0 (2006) 614 5 10 49 57 165 376 502 1470 2380
2026-02-22 08:30 3.89 50 9790 (1997) 0 (2006) 614 5 10 49 57 165 376 502 1470 2380
2026-02-22 07:30 3.90 51 9790 (1997) 0 (2006) 614 5 10 49 57 165 376 502 1470 2380
2026-02-22 06:30 3.90 51 9790 (1997) 0 (2006) 614 5 10 49 57 165 376 502 1470 2380
2026-02-22 05:30 3.91 52 9790 (1997) 0 (2006) 614 5 10 49 57 165 376 502 1470 2380
2026-02-22 04:30 3.91 52 9790 (1997) 0 (2006) 614 5 10 49 57 165 376 502 1470 2380
2026-02-22 03:30 3.92 53 9790 (1997) 0 (2006) 614 5 10 49 57 165 376 502 1470 2380
2026-02-22 02:30 3.92 53 9790 (1997) 0 (2006) 614 5 10 49 57 165 376 502 1470 2380
2026-02-22 01:30 3.93 54 9790 (1997) 0 (2006) 614 5 10 49 57 165 376 502 1470 2380
2026-02-22 00:30 3.93 54 9790 (1997) 0 (2006) 614 5 10 49 57 165 376 502 1470 2380
2026-02-21 23:30 3.94 55 9790 (1997) 0 (2006) 614 5 10 49 57 165 376 502 1470 2380
2026-02-21 22:30 3.95 57 9450 (1997) 0 (2006) 610 4 13 50 60 165 359 521 1120 3610
2026-02-21 21:30 3.95 57 9450 (1997) 0 (2006) 610 4 13 50 60 165 359 521 1120 3610
2026-02-21 20:30 3.96 58 9450 (1997) 0 (2006) 610 4 13 50 60 165 359 521 1120 3610
2026-02-21 19:30 3.96 58 9450 (1997) 0 (2006) 610 4 13 50 60 165 359 521 1120 3610
2026-02-21 18:30 3.97 59 9450 (1997) 0 (2006) 610 4 13 50 60 165 359 521 1120 3610
2026-02-21 17:30 3.98 60 9450 (1997) 0 (2006) 610 4 13 50 60 165 359 521 1120 3610
2026-02-21 16:30 3.98 60 9450 (1997) 0 (2006) 610 4 13 50 60 165 359 521 1120 3610
2026-02-21 15:30 3.99 61 9450 (1997) 0 (2006) 610 4 13 50 60 165 359 521 1120 3610
2026-02-21 14:30 3.99 61 9450 (1997) 0 (2006) 610 4 13 50 60 165 359 521 1120 3610
2026-02-21 13:30 4.00 62 9450 (1997) 0 (2006) 610 4 13 50 60 165 359 521 1120 3610
2026-02-21 12:30 4.00 62 9450 (1997) 0 (2006) 610 4 13 50 60 165 359 521 1120 3610
2026-02-21 11:30 4.01 64 9450 (1997) 0 (2006) 610 4 13 50 60 165 359 521 1120 3610
2026-02-21 10:30 4.02 65 9450 (1997) 0 (2006) 610 4 13 50 60 165 359 521 1120 3610
2026-02-21 09:30 4.03 66 9450 (1997) 0 (2006) 610 4 13 50 60 165 359 521 1120 3610
2026-02-21 08:30 4.03 66 9450 (1997) 0 (2006) 610 4 13 50 60 165 359 521 1120 3610
2026-02-21 07:30 4.04 67 9450 (1997) 0 (2006) 610 4 13 50 60 165 359 521 1120 3610
2026-02-21 06:30 4.04 67 9450 (1997) 0 (2006) 610 4 13 50 60 165 359 521 1120 3610
2026-02-21 05:30 4.05 68 9450 (1997) 0 (2006) 610 4 13 50 60 165 359 521 1120 3610
2026-02-21 04:30 4.06 70 9450 (1997) 0 (2006) 610 4 13 50 60 165 359 521 1120 3610
2026-02-21 03:30 4.07 71 9450 (1997) 0 (2006) 610 4 13 50 60 165 359 521 1120 3610
2026-02-21 02:30 4.07 71 9450 (1997) 0 (2006) 610 4 13 50 60 165 359 521 1120 3610
2026-02-21 01:30 4.08 72 9450 (1997) 0 (2006) 610 4 13 50 60 165 359 521 1120 3610
2026-02-21 00:30 4.09 74 9450 (1997) 0 (2006) 610 4 13 50 60 165 359 521 1120 3610
2026-02-20 23:30 4.09 74 9450 (1997) 0 (2006) 610 4 13 50 60 165 359 521 1120 3610
2026-02-20 22:30 4.10 75 6640 (1951) 0 (2006) 452 2 14 51 60 176 307 394 824 2920
2026-02-20 21:30 4.11 76 6640 (1951) 0 (2006) 452 2 14 51 60 176 307 394 824 2920
2026-02-20 20:30 4.12 78 6640 (1951) 0 (2006) 452 2 14 51 60 176 307 394 824 2920
2026-02-20 19:30 4.13 79 6640 (1951) 0 (2006) 452 2 14 51 60 176 307 394 824 2920
2026-02-20 18:30 4.14 80 6640 (1951) 0 (2006) 452 2 14 51 60 176 307 394 824 2920
2026-02-20 17:30 4.14 80 6640 (1951) 0 (2006) 452 2 14 51 60 176 307 394 824 2920
2026-02-20 16:30 4.16 83 6640 (1951) 0 (2006) 452 2 14 51 60 176 307 394 824 2920
2026-02-20 15:30 4.16 83 6640 (1951) 0 (2006) 452 2 14 51 60 176 307 394 824 2920
2026-02-20 14:30 4.18 86 6640 (1951) 0 (2006) 452 2 14 51 60 176 307 394 824 2920
2026-02-20 13:30 4.18 86 6640 (1951) 0 (2006) 452 2 14 51 60 176 307 394 824 2920
2026-02-20 12:30 4.19 87 6640 (1951) 0 (2006) 452 2 14 51 60 176 307 394 824 2920
2026-02-20 11:30 4.20 89 6640 (1951) 0 (2006) 452 2 14 51 60 176 307 394 824 2920
2026-02-20 10:30 4.21 90 6640 (1951) 0 (2006) 452 2 14 51 60 176 307 394 824 2920
2026-02-20 09:30 4.22 92 6640 (1951) 0 (2006) 452 2 14 51 60 176 307 394 824 2920
2026-02-20 08:30 4.23 94 6640 (1951) 0 (2006) 452 2 14 51 60 176 307 394 824 2920
2026-02-20 07:30 4.24 95 6640 (1951) 0 (2006) 452 2 14 51 60 176 307 394 824 2920
2026-02-20 06:30 4.25 97 6640 (1951) 0 (2006) 452 2 14 51 60 176 307 394 824 2920
2026-02-20 05:30 4.26 98 6640 (1951) 0 (2006) 452 2 14 51 60 176 307 394 824 2920
2026-02-20 04:30 4.26 98 6640 (1951) 0 (2006) 452 2 14 51 60 176 307 394 824 2920
2026-02-20 03:30 4.27 100 6640 (1951) 0 (2006) 452 2 14 51 60 176 307 394 824 2920
2026-02-20 02:30 4.28 101 6640 (1951) 0 (2006) 452 2 14 51 60 176 307 394 824 2920
2026-02-20 01:30 4.29 103 6640 (1951) 0 (2006) 452 2 14 51 60 176 307 394 824 2920
2026-02-20 00:30 4.30 105 6640 (1951) 0 (2006) 452 2 14 51 60 176 307 394 824 2920
2026-02-19 23:30 4.30 105 6640 (1951) 0 (2006) 452 2 14 51 60 176 307 394 824 2920
2026-02-19 22:30 4.31 106 3780 (1951) 0 (2006) 368 2 15 44 60 179 348 468 1100 1500
2026-02-19 21:30 4.32 108 3780 (1951) 0 (2006) 368 2 15 44 60 179 348 468 1100 1500
2026-02-19 20:30 4.34 111 3780 (1951) 0 (2006) 368 2 15 44 60 179 348 468 1100 1500
2026-02-19 19:30 4.34 111 3780 (1951) 0 (2006) 368 2 15 44 60 179 348 468 1100 1500
2026-02-19 18:30 4.35 113 3780 (1951) 0 (2006) 368 2 15 44 60 179 348 468 1100 1500
2026-02-19 17:30 4.36 115 3780 (1951) 0 (2006) 368 2 15 44 60 179 348 468 1100 1500
2026-02-19 16:30 4.37 117 3780 (1951) 0 (2006) 368 2 15 44 60 179 348 468 1100 1500
2026-02-19 15:30 4.38 118 3780 (1951) 0 (2006) 368 2 15 44 60 179 348 468 1100 1500
2026-02-19 14:30 4.39 120 3780 (1951) 0 (2006) 368 2 15 44 60 179 348 468 1100 1500
2026-02-19 13:30 4.40 122 3780 (1951) 0 (2006) 368 2 15 44 60 179 348 468 1100 1500
2026-02-19 12:30 4.41 124 3780 (1951) 0 (2006) 368 2 15 44 60 179 348 468 1100 1500
2026-02-19 11:30 4.42 126 3780 (1951) 0 (2006) 368 2 15 44 60 179 348 468 1100 1500
2026-02-19 10:30 4.43 127 3780 (1951) 0 (2006) 368 2 15 44 60 179 348 468 1100 1500
2026-02-19 09:30 4.45 130 3780 (1951) 0 (2006) 368 2 15 44 60 179 348 468 1100 1500
2026-02-19 08:30 4.46 132 3780 (1951) 0 (2006) 368 2 15 44 60 179 348 468 1100 1500
2026-02-19 07:30 4.47 133 3780 (1951) 0 (2006) 368 2 15 44 60 179 348 468 1100 1500
2026-02-19 06:30 4.48 135 3780 (1951) 0 (2006) 368 2 15 44 60 179 348 468 1100 1500
2026-02-19 05:30 4.49 136 3780 (1951) 0 (2006) 368 2 15 44 60 179 348 468 1100 1500
2026-02-19 04:30 4.50 138 3780 (1951) 0 (2006) 368 2 15 44 60 179 348 468 1100 1500
2026-02-19 03:30 4.51 140 3780 (1951) 0 (2006) 368 2 15 44 60 179 348 468 1100 1500
2026-02-19 02:30 4.52 141 3780 (1951) 0 (2006) 368 2 15 44 60 179 348 468 1100 1500
2026-02-19 01:30 4.53 143 3780 (1951) 0 (2006) 368 2 15 44 60 179 348 468 1100 1500
2026-02-19 00:30 4.55 146 3780 (1951) 0 (2006) 368 2 15 44 60 179 348 468 1100 1500
2026-02-18 23:30 4.55 146 3780 (1951) 0 (2006) 368 2 15 44 60 179 348 468 1100 1500
2026-02-18 22:30 4.56 148 3580 (1924) 0 (2006) 334 2 18 40 63 149 339 420 708 1140
2026-02-18 21:30 4.57 149 3580 (1924) 0 (2006) 334 2 18 40 63 149 339 420 708 1140
2026-02-18 20:30 4.58 151 3580 (1924) 0 (2006) 334 2 18 40 63 149 339 420 708 1140
2026-02-18 19:30 4.59 153 3580 (1924) 0 (2006) 334 2 18 40 63 149 339 420 708 1140
2026-02-18 18:30 4.60 154 3580 (1924) 0 (2006) 334 2 18 40 63 149 339 420 708 1140
2026-02-18 17:30 4.61 156 3580 (1924) 0 (2006) 334 2 18 40 63 149 339 420 708 1140
2026-02-18 16:30 4.62 158 3580 (1924) 0 (2006) 334 2 18 40 63 149 339 420 708 1140
2026-02-18 15:30 4.63 159 3580 (1924) 0 (2006) 334 2 18 40 63 149 339 420 708 1140
2026-02-18 14:30 4.65 163 3580 (1924) 0 (2006) 334 2 18 40 63 149 339 420 708 1140
2026-02-18 13:30 4.66 165 3580 (1924) 0 (2006) 334 2 18 40 63 149 339 420 708 1140
2026-02-18 12:30 4.67 166 3580 (1924) 0 (2006) 334 2 18 40 63 149 339 420 708 1140
2026-02-18 11:30 4.69 170 3580 (1924) 0 (2006) 334 2 18 40 63 149 339 420 708 1140
2026-02-18 10:30 4.70 172 3580 (1924) 0 (2006) 334 2 18 40 63 149 339 420 708 1140
2026-02-18 09:30 4.72 175 3580 (1924) 0 (2006) 334 2 18 40 63 149 339 420 708 1140
2026-02-18 08:30 4.73 177 3580 (1924) 0 (2006) 334 2 18 40 63 149 339 420 708 1140
2026-02-18 07:30 4.74 179 3580 (1924) 0 (2006) 334 2 18 40 63 149 339 420 708 1140
2026-02-18 06:30 4.76 182 3580 (1924) 0 (2006) 334 2 18 40 63 149 339 420 708 1140
2026-02-18 05:30 4.78 186 3580 (1924) 0 (2006) 334 2 18 40 63 149 339 420 708 1140
2026-02-18 04:30 4.80 190 3580 (1924) 0 (2006) 334 2 18 40 63 149 339 420 708 1140
2026-02-18 03:30 4.82 194 3580 (1924) 0 (2006) 334 2 18 40 63 149 339 420 708 1140
2026-02-18 02:30 4.84 198 3580 (1924) 0 (2006) 334 2 18 40 63 149 339 420 708 1140
2026-02-18 01:30 4.86 201 3580 (1924) 0 (2006) 334 2 18 40 63 149 339 420 708 1140
2026-02-18 00:30 4.88 205 3580 (1924) 0 (2006) 334 2 18 40 63 149 339 420 708 1140
2026-02-17 23:30 4.90 209 3580 (1924) 0 (2006) 334 2 18 40 63 149 339 420 708 1140
2026-02-17 22:30 4.93 215 3820 (1924) 0 (1954) 378 2 13 39 59 147 352 503 943 2130
2026-02-17 21:30 4.94 217 3820 (1924) 0 (1954) 378 2 13 39 59 147 352 503 943 2130
2026-02-17 20:30 4.96 221 3820 (1924) 0 (1954) 378 2 13 39 59 147 352 503 943 2130
2026-02-17 19:30 4.98 225 3820 (1924) 0 (1954) 378 2 13 39 59 147 352 503 943 2130
2026-02-17 18:30 4.99 228 3820 (1924) 0 (1954) 378 2 13 39 59 147 352 503 943 2130
2026-02-17 17:30 5.01 232 3820 (1924) 0 (1954) 378 2 13 39 59 147 352 503 943 2130
2026-02-17 16:30 5.02 234 3820 (1924) 0 (1954) 378 2 13 39 59 147 352 503 943 2130
2026-02-17 15:30 5.04 238 3820 (1924) 0 (1954) 378 2 13 39 59 147 352 503 943 2130
2026-02-17 14:30 5.05 240 3820 (1924) 0 (1954) 378 2 13 39 59 147 352 503 943 2130
2026-02-17 13:30 5.07 245 3820 (1924) 0 (1954) 378 2 13 39 59 147 352 503 943 2130
2026-02-17 12:30 5.09 249 3820 (1924) 0 (1954) 378 2 13 39 59 147 352 503 943 2130
2026-02-17 11:30 5.11 253 3820 (1924) 0 (1954) 378 2 13 39 59 147 352 503 943 2130
2026-02-17 10:30 5.13 258 3820 (1924) 0 (1954) 378 2 13 39 59 147 352 503 943 2130
2026-02-17 09:30 5.16 264 3820 (1924) 0 (1954) 378 2 13 39 59 147 352 503 943 2130
2026-02-17 08:30 5.18 269 3820 (1924) 0 (1954) 378 2 13 39 59 147 352 503 943 2130
2026-02-17 07:30 5.21 276 3820 (1924) 0 (1954) 378 2 13 39 59 147 352 503 943 2130
2026-02-17 06:30 5.24 283 3820 (1924) 0 (1954) 378 2 13 39 59 147 352 503 943 2130
2026-02-17 05:30 5.26 288 3820 (1924) 0 (1954) 378 2 13 39 59 147 352 503 943 2130
2026-02-17 04:30 5.30 297 3820 (1924) 0 (1954) 378 2 13 39 59 147 352 503 943 2130
2026-02-17 03:30 5.33 304 3820 (1924) 0 (1954) 378 2 13 39 59 147 352 503 943 2130
2026-02-17 02:30 5.36 312 3820 (1924) 0 (1954) 378 2 13 39 59 147 352 503 943 2130
2026-02-17 01:30 5.40 322 3820 (1924) 0 (1954) 378 2 13 39 59 147 352 503 943 2130
2026-02-17 00:30 5.43 329 3820 (1924) 0 (1954) 378 2 13 39 59 147 352 503 943 2130
2026-02-16 23:30 5.47 340 3820 (1924) 0 (1954) 378 2 13 39 59 147 352 503 943 2130
2026-02-16 22:30 5.51 350 4820 (1987) 0 (1954) 372 2 12 44 62 153 318 381 750 1800
2026-02-16 21:30 5.55 361 4820 (1987) 0 (1954) 372 2 12 44 62 153 318 381 750 1800
2026-02-16 20:30 5.59 372 4820 (1987) 0 (1954) 372 2 12 44 62 153 318 381 750 1800
2026-02-16 19:30 5.64 385 4820 (1987) 0 (1954) 372 2 12 44 62 153 318 381 750 1800
2026-02-16 18:30 5.69 399 4820 (1987) 0 (1954) 372 2 12 44 62 153 318 381 750 1800
2026-02-16 17:30 5.74 414 4820 (1987) 0 (1954) 372 2 12 44 62 153 318 381 750 1800
2026-02-16 16:30 5.79 428 4820 (1987) 0 (1954) 372 2 12 44 62 153 318 381 750 1800
2026-02-16 15:30 5.84 443 4820 (1987) 0 (1954) 372 2 12 44 62 153 318 381 750 1800
2026-02-16 14:30 5.89 458 4820 (1987) 0 (1954) 372 2 12 44 62 153 318 381 750 1800
2026-02-16 13:30 5.95 477 4820 (1987) 0 (1954) 372 2 12 44 62 153 318 381 750 1800
2026-02-16 12:30 6.01 496 4820 (1987) 0 (1954) 372 2 12 44 62 153 318 381 750 1800
2026-02-16 11:30 6.07 515 4820 (1987) 0 (1954) 372 2 12 44 62 153 318 381 750 1800
2026-02-16 10:30 6.14 538 4820 (1987) 0 (1954) 372 2 12 44 62 153 318 381 750 1800
2026-02-16 09:30 6.22 565 4820 (1987) 0 (1954) 372 2 12 44 62 153 318 381 750 1800
2026-02-16 08:30 6.30 593 4820 (1987) 0 (1954) 372 2 12 44 62 153 318 381 750 1800
2026-02-16 07:30 6.39 625 4820 (1987) 0 (1954) 372 2 12 44 62 153 318 381 750 1800
2026-02-16 06:30 6.48 659 4820 (1987) 0 (1954) 372 2 12 44 62 153 318 381 750 1800
2026-02-16 05:30 6.58 697 4820 (1987) 0 (1954) 372 2 12 44 62 153 318 381 750 1800
2026-02-16 04:30 6.70 744 4820 (1987) 0 (1954) 372 2 12 44 62 153 318 381 750 1800
2026-02-16 03:30 6.82 792 4820 (1987) 0 (1954) 372 2 12 44 62 153 318 381 750 1800
2026-02-16 02:30 6.95 847 4820 (1987) 0 (1954) 372 2 12 44 62 153 318 381 750 1800
2026-02-16 01:30 7.08 904 4820 (1987) 0 (1954) 372 2 12 44 62 153 318 381 750 1800
2026-02-16 00:30 7.21 963 4820 (1987) 0 (1954) 372 2 12 44 62 153 318 381 750 1800
2026-02-15 23:30 7.34 1020 4820 (1987) 0 (1954) 372 2 12 44 62 153 318 381 750 1800
2026-02-15 22:30 7.46 1080 2340 (1992) 0 (1954) 293 2 10 44 61 143 354 383 638 1410
2026-02-15 21:30 7.57 1130 2340 (1992) 0 (1954) 293 2 10 44 61 143 354 383 638 1410
2026-02-15 20:30 7.66 1180 2340 (1992) 0 (1954) 293 2 10 44 61 143 354 383 638 1410
2026-02-15 19:30 7.75 1220 2340 (1992) 0 (1954) 293 2 10 44 61 143 354 383 638 1410
2026-02-15 18:30 7.82 1250 2340 (1992) 0 (1954) 293 2 10 44 61 143 354 383 638 1410
2026-02-15 17:30 7.88 1280 2340 (1992) 0 (1954) 293 2 10 44 61 143 354 383 638 1410
2026-02-15 16:30 7.92 1310 2340 (1992) 0 (1954) 293 2 10 44 61 143 354 383 638 1410
2026-02-15 15:30 7.95 1320 2340 (1992) 0 (1954) 293 2 10 44 61 143 354 383 638 1410
2026-02-15 14:30 7.98 1340 2340 (1992) 0 (1954) 293 2 10 44 61 143 354 383 638 1410
2026-02-15 13:30 8.01 1350 2340 (1992) 0 (1954) 293 2 10 44 61 143 354 383 638 1410
2026-02-15 12:30 8.03 1360 2340 (1992) 0 (1954) 293 2 10 44 61 143 354 383 638 1410
2026-02-15 11:30 8.06 1380 2340 (1992) 0 (1954) 293 2 10 44 61 143 354 383 638 1410
2026-02-15 10:30 8.11 1400 2340 (1992) 0 (1954) 293 2 10 44 61 143 354 383 638 1410
2026-02-15 09:30 8.16 1430 2340 (1992) 0 (1954) 293 2 10 44 61 143 354 383 638 1410
2026-02-15 08:30 8.23 1470 2340 (1992) 0 (1954) 293 2 10 44 61 143 354 383 638 1410
2026-02-15 07:30 8.30 1510 2340 (1992) 0 (1954) 293 2 10 44 61 143 354 383 638 1410
2026-02-15 06:30 8.36 1540 2340 (1992) 0 (1954) 293 2 10 44 61 143 354 383 638 1410
2026-02-15 05:30 8.36 1540 2340 (1992) 0 (1954) 293 2 10 44 61 143 354 383 638 1410
2026-02-15 04:30 8.30 1510 2340 (1992) 0 (1954) 293 2 10 44 61 143 354 383 638 1410
2026-02-15 03:30 8.11 1400 2340 (1992) 0 (1954) 293 2 10 44 61 143 354 383 638 1410
2026-02-15 02:30 7.78 1240 2340 (1992) 0 (1954) 293 2 10 44 61 143 354 383 638 1410
2026-02-15 01:30 7.05 891 2340 (1992) 0 (1954) 293 2 10 44 61 143 354 383 638 1410
2026-02-15 00:30 5.53 355 2340 (1992) 0 (1954) 293 2 10 44 61 143 354 383 638 1410
2026-02-14 23:30 3.91 52 2340 (1992) 0 (1954) 293 2 10 44 61 143 354 383 638 1410
2026-02-14 22:30 3.83 44 2470 (2005) 0 (1954) 264 1 10 42 55 133 299 359 518 1420
2026-02-14 21:30 3.78 40 2470 (2005) 0 (1954) 264 1 10 42 55 133 299 359 518 1420
2026-02-14 20:30 3.71 34 2470 (2005) 0 (1954) 264 1 10 42 55 133 299 359 518 1420
2026-02-14 19:30 3.61 26 2470 (2005) 0 (1954) 264 1 10 42 55 133 299 359 518 1420
2026-02-14 18:30 3.54 21 2470 (2005) 0 (1954) 264 1 10 42 55 133 299 359 518 1420
2026-02-14 17:30 3.52 19 2470 (2005) 0 (1954) 264 1 10 42 55 133 299 359 518 1420
2026-02-14 16:30 3.56 22 2470 (2005) 0 (1954) 264 1 10 42 55 133 299 359 518 1420
2026-02-14 15:30 3.59 25 2470 (2005) 0 (1954) 264 1 10 42 55 133 299 359 518 1420
2026-02-14 14:30 3.57 23 2470 (2005) 0 (1954) 264 1 10 42 55 133 299 359 518 1420
2026-02-14 13:30 3.55 21 2470 (2005) 0 (1954) 264 1 10 42 55 133 299 359 518 1420
2026-02-14 12:30 3.54 21 2470 (2005) 0 (1954) 264 1 10 42 55 133 299 359 518 1420
2026-02-14 11:30 3.52 19 2470 (2005) 0 (1954) 264 1 10 42 55 133 299 359 518 1420
2026-02-14 10:30 3.51 18 2470 (2005) 0 (1954) 264 1 10 42 55 133 299 359 518 1420
2026-02-14 09:30 3.49 17 2470 (2005) 0 (1954) 264 1 10 42 55 133 299 359 518 1420
2026-02-14 08:30 3.48 16 2470 (2005) 0 (1954) 264 1 10 42 55 133 299 359 518 1420
2026-02-14 07:30 3.47 16 2470 (2005) 0 (1954) 264 1 10 42 55 133 299 359 518 1420
2026-02-14 06:30 3.46 15 2470 (2005) 0 (1954) 264 1 10 42 55 133 299 359 518 1420
2026-02-14 05:30 3.43 13 2470 (2005) 0 (1954) 264 1 10 42 55 133 299 359 518 1420
2026-02-14 04:30 3.40 11 2470 (2005) 0 (1954) 264 1 10 42 55 133 299 359 518 1420
2026-02-14 03:30 3.38 10 2470 (2005) 0 (1954) 264 1 10 42 55 133 299 359 518 1420
2026-02-14 02:30 3.36 9 2470 (2005) 0 (1954) 264 1 10 42 55 133 299 359 518 1420
2026-02-14 01:30 3.35 9 2470 (2005) 0 (1954) 264 1 10 42 55 133 299 359 518 1420
2026-02-14 00:30 3.35 9 2470 (2005) 0 (1954) 264 1 10 42 55 133 299 359 518 1420
2026-02-13 23:30 3.34 8 2470 (2005) 0 (1954) 264 1 10 42 55 133 299 359 518 1420
2026-02-13 22:30 3.34 8 2110 (2005) 0 (1954) 260 1 12 39 53 130 307 405 750 1090
2026-02-13 21:30 3.34 8 2110 (2005) 0 (1954) 260 1 12 39 53 130 307 405 750 1090
2026-02-13 20:30 3.33 8 2110 (2005) 0 (1954) 260 1 12 39 53 130 307 405 750 1090
2026-02-13 19:30 3.33 8 2110 (2005) 0 (1954) 260 1 12 39 53 130 307 405 750 1090
2026-02-13 18:30 3.33 8 2110 (2005) 0 (1954) 260 1 12 39 53 130 307 405 750 1090
2026-02-13 17:30 3.33 8 2110 (2005) 0 (1954) 260 1 12 39 53 130 307 405 750 1090
2026-02-13 16:30 3.33 8 2110 (2005) 0 (1954) 260 1 12 39 53 130 307 405 750 1090
2026-02-13 15:30 3.33 8 2110 (2005) 0 (1954) 260 1 12 39 53 130 307 405 750 1090
2026-02-13 14:30 3.33 8 2110 (2005) 0 (1954) 260 1 12 39 53 130 307 405 750 1090
2026-02-13 13:30 3.33 8 2110 (2005) 0 (1954) 260 1 12 39 53 130 307 405 750 1090
2026-02-13 12:30 3.33 8 2110 (2005) 0 (1954) 260 1 12 39 53 130 307 405 750 1090
2026-02-13 11:30 3.33 8 2110 (2005) 0 (1954) 260 1 12 39 53 130 307 405 750 1090
2026-02-13 10:30 3.33 8 2110 (2005) 0 (1954) 260 1 12 39 53 130 307 405 750 1090
2026-02-13 09:30 3.33 8 2110 (2005) 0 (1954) 260 1 12 39 53 130 307 405 750 1090
2026-02-13 08:30 3.33 8 2110 (2005) 0 (1954) 260 1 12 39 53 130 307 405 750 1090
2026-02-13 07:30 3.32 8 2110 (2005) 0 (1954) 260 1 12 39 53 130 307 405 750 1090
2026-02-13 06:30 3.32 8 2110 (2005) 0 (1954) 260 1 12 39 53 130 307 405 750 1090
2026-02-13 05:30 3.32 8 2110 (2005) 0 (1954) 260 1 12 39 53 130 307 405 750 1090
2026-02-13 04:30 3.32 8 2110 (2005) 0 (1954) 260 1 12 39 53 130 307 405 750 1090
2026-02-13 03:30 3.31 7 2110 (2005) 0 (1954) 260 1 12 39 53 130 307 405 750 1090
2026-02-13 02:30 3.31 7 2110 (2005) 0 (1954) 260 1 12 39 53 130 307 405 750 1090
2026-02-13 01:30 3.31 7 2110 (2005) 0 (1954) 260 1 12 39 53 130 307 405 750 1090
2026-02-13 00:30 3.31 7 2110 (2005) 0 (1954) 260 1 12 39 53 130 307 405 750 1090
2026-02-12 23:30 3.31 7 2110 (2005) 0 (1954) 260 1 12 39 53 130 307 405 750 1090
2026-02-12 22:30 3.30 7 2050 (2009) 0 (1954) 236 1 10 33 52 124 278 349 521 1130
2026-02-12 21:30 3.30 7 2050 (2009) 0 (1954) 236 1 10 33 52 124 278 349 521 1130
2026-02-12 20:30 3.30 7 2050 (2009) 0 (1954) 236 1 10 33 52 124 278 349 521 1130
2026-02-12 19:30 3.30 7 2050 (2009) 0 (1954) 236 1 10 33 52 124 278 349 521 1130
2026-02-12 18:30 3.30 7 2050 (2009) 0 (1954) 236 1 10 33 52 124 278 349 521 1130
2026-02-12 17:30 3.30 7 2050 (2009) 0 (1954) 236 1 10 33 52 124 278 349 521 1130
2026-02-12 16:30 3.30 7 2050 (2009) 0 (1954) 236 1 10 33 52 124 278 349 521 1130
2026-02-12 15:30 3.30 7 2050 (2009) 0 (1954) 236 1 10 33 52 124 278 349 521 1130
2026-02-12 14:30 3.30 7 2050 (2009) 0 (1954) 236 1 10 33 52 124 278 349 521 1130
2026-02-12 13:30 3.30 7 2050 (2009) 0 (1954) 236 1 10 33 52 124 278 349 521 1130
2026-02-12 12:30 3.30 7 2050 (2009) 0 (1954) 236 1 10 33 52 124 278 349 521 1130
2026-02-12 11:30 3.30 7 2050 (2009) 0 (1954) 236 1 10 33 52 124 278 349 521 1130
2026-02-12 10:30 3.30 7 2050 (2009) 0 (1954) 236 1 10 33 52 124 278 349 521 1130
2026-02-12 09:30 3.30 7 2050 (2009) 0 (1954) 236 1 10 33 52 124 278 349 521 1130
2026-02-12 08:30 3.30 7 2050 (2009) 0 (1954) 236 1 10 33 52 124 278 349 521 1130
2026-02-12 07:30 3.30 7 2050 (2009) 0 (1954) 236 1 10 33 52 124 278 349 521 1130
2026-02-12 06:30 3.30 7 2050 (2009) 0 (1954) 236 1 10 33 52 124 278 349 521 1130
2026-02-12 05:30 3.30 7 2050 (2009) 0 (1954) 236 1 10 33 52 124 278 349 521 1130
2026-02-12 04:30 3.30 7 2050 (2009) 0 (1954) 236 1 10 33 52 124 278 349 521 1130
2026-02-12 03:30 3.30 7 2050 (2009) 0 (1954) 236 1 10 33 52 124 278 349 521 1130
2026-02-12 02:30 3.30 7 2050 (2009) 0 (1954) 236 1 10 33 52 124 278 349 521 1130
2026-02-12 01:30 3.30 7 2050 (2009) 0 (1954) 236 1 10 33 52 124 278 349 521 1130
2026-02-12 00:30 3.31 7 2050 (2009) 0 (1954) 236 1 10 33 52 124 278 349 521 1130
2026-02-11 23:30 3.31 7 2050 (2009) 0 (1954) 236 1 10 33 52 124 278 349 521 1130
2026-02-11 22:30 3.31 7 3410 (1959) 0 (1954) 249 2 10 36 52 123 296 385 529 627
2026-02-11 21:30 3.31 7 3410 (1959) 0 (1954) 249 2 10 36 52 123 296 385 529 627
2026-02-11 20:30 3.31 7 3410 (1959) 0 (1954) 249 2 10 36 52 123 296 385 529 627
2026-02-11 19:30 3.31 7 3410 (1959) 0 (1954) 249 2 10 36 52 123 296 385 529 627
2026-02-11 18:30 3.31 7 3410 (1959) 0 (1954) 249 2 10 36 52 123 296 385 529 627
2026-02-11 17:30 3.31 7 3410 (1959) 0 (1954) 249 2 10 36 52 123 296 385 529 627
2026-02-11 16:30 3.31 7 3410 (1959) 0 (1954) 249 2 10 36 52 123 296 385 529 627
2026-02-11 15:30 3.31 7 3410 (1959) 0 (1954) 249 2 10 36 52 123 296 385 529 627
2026-02-11 14:30 3.31 7 3410 (1959) 0 (1954) 249 2 10 36 52 123 296 385 529 627
2026-02-11 13:30 3.31 7 3410 (1959) 0 (1954) 249 2 10 36 52 123 296 385 529 627
2026-02-11 12:30 3.31 7 3410 (1959) 0 (1954) 249 2 10 36 52 123 296 385 529 627
2026-02-11 11:30 3.31 7 3410 (1959) 0 (1954) 249 2 10 36 52 123 296 385 529 627
2026-02-11 10:30 3.31 7 3410 (1959) 0 (1954) 249 2 10 36 52 123 296 385 529 627
2026-02-11 09:30 3.31 7 3410 (1959) 0 (1954) 249 2 10 36 52 123 296 385 529 627
2026-02-11 08:30 3.32 8 3410 (1959) 0 (1954) 249 2 10 36 52 123 296 385 529 627
2026-02-11 07:30 3.31 7 3410 (1959) 0 (1954) 249 2 10 36 52 123 296 385 529 627
2026-02-11 06:30 3.31 7 3410 (1959) 0 (1954) 249 2 10 36 52 123 296 385 529 627
2026-02-11 05:30 3.31 7 3410 (1959) 0 (1954) 249 2 10 36 52 123 296 385 529 627
2026-02-11 04:30 3.32 8 3410 (1959) 0 (1954) 249 2 10 36 52 123 296 385 529 627
2026-02-11 03:30 3.31 7 3410 (1959) 0 (1954) 249 2 10 36 52 123 296 385 529 627
2026-02-11 02:30 3.31 7 3410 (1959) 0 (1954) 249 2 10 36 52 123 296 385 529 627
2026-02-11 01:30 3.31 7 3410 (1959) 0 (1954) 249 2 10 36 52 123 296 385 529 627
2026-02-11 00:30 3.31 7 3410 (1959) 0 (1954) 249 2 10 36 52 123 296 385 529 627
2026-02-10 23:30 3.31 7 3410 (1959) 0 (1954) 249 2 10 36 52 123 296 385 529 627
2026-02-10 22:30 3.31 7 3760 (1959) 0 (1954) 249 2 9 34 54 116 253 413 596 868
2026-02-10 21:30 3.31 7 3760 (1959) 0 (1954) 249 2 9 34 54 116 253 413 596 868
2026-02-10 20:30 3.31 7 3760 (1959) 0 (1954) 249 2 9 34 54 116 253 413 596 868
2026-02-10 19:30 3.31 7 3760 (1959) 0 (1954) 249 2 9 34 54 116 253 413 596 868
2026-02-10 18:30 3.31 7 3760 (1959) 0 (1954) 249 2 9 34 54 116 253 413 596 868
2026-02-10 17:30 3.31 7 3760 (1959) 0 (1954) 249 2 9 34 54 116 253 413 596 868
2026-02-10 16:30 3.31 7 3760 (1959) 0 (1954) 249 2 9 34 54 116 253 413 596 868
2026-02-10 15:30 3.31 7 3760 (1959) 0 (1954) 249 2 9 34 54 116 253 413 596 868
2026-02-10 14:30 3.31 7 3760 (1959) 0 (1954) 249 2 9 34 54 116 253 413 596 868
2026-02-10 13:30 3.31 7 3760 (1959) 0 (1954) 249 2 9 34 54 116 253 413 596 868
2026-02-10 12:30 3.31 7 3760 (1959) 0 (1954) 249 2 9 34 54 116 253 413 596 868
2026-02-10 11:30 3.31 7 3760 (1959) 0 (1954) 249 2 9 34 54 116 253 413 596 868
2026-02-10 10:30 3.31 7 3760 (1959) 0 (1954) 249 2 9 34 54 116 253 413 596 868
2026-02-10 09:30 3.31 7 3760 (1959) 0 (1954) 249 2 9 34 54 116 253 413 596 868
2026-02-10 08:30 3.31 7 3760 (1959) 0 (1954) 249 2 9 34 54 116 253 413 596 868
2026-02-10 07:30 3.30 7 3760 (1959) 0 (1954) 249 2 9 34 54 116 253 413 596 868
2026-02-10 06:30 3.31 7 3760 (1959) 0 (1954) 249 2 9 34 54 116 253 413 596 868
2026-02-10 05:30 3.31 7 3760 (1959) 0 (1954) 249 2 9 34 54 116 253 413 596 868
2026-02-10 04:30 3.31 7 3760 (1959) 0 (1954) 249 2 9 34 54 116 253 413 596 868
2026-02-10 03:30 3.31 7 3760 (1959) 0 (1954) 249 2 9 34 54 116 253 413 596 868
2026-02-10 02:30 3.31 7 3760 (1959) 0 (1954) 249 2 9 34 54 116 253 413 596 868
2026-02-10 01:30 3.31 7 3760 (1959) 0 (1954) 249 2 9 34 54 116 253 413 596 868
2026-02-10 00:30 3.31 7 3760 (1959) 0 (1954) 249 2 9 34 54 116 253 413 596 868
2026-02-09 23:30 3.31 7 3760 (1959) 0 (1954) 249 2 9 34 54 116 253 413 596 868
2026-02-09 22:30 3.31 7 1440 (1925) 0 (1954) 225 1 8 32 54 122 268 342 644 820
2026-02-09 21:30 3.30 7 1440 (1925) 0 (1954) 225 1 8 32 54 122 268 342 644 820
2026-02-09 20:30 3.31 7 1440 (1925) 0 (1954) 225 1 8 32 54 122 268 342 644 820
2026-02-09 19:30 3.30 7 1440 (1925) 0 (1954) 225 1 8 32 54 122 268 342 644 820
2026-02-09 18:30 3.30 7 1440 (1925) 0 (1954) 225 1 8 32 54 122 268 342 644 820
2026-02-09 17:30 3.30 7 1440 (1925) 0 (1954) 225 1 8 32 54 122 268 342 644 820
2026-02-09 16:30 3.30 7 1440 (1925) 0 (1954) 225 1 8 32 54 122 268 342 644 820
2026-02-09 15:30 3.30 7 1440 (1925) 0 (1954) 225 1 8 32 54 122 268 342 644 820
2026-02-09 14:30 3.30 7 1440 (1925) 0 (1954) 225 1 8 32 54 122 268 342 644 820
2026-02-09 13:30 3.30 7 1440 (1925) 0 (1954) 225 1 8 32 54 122 268 342 644 820
2026-02-09 12:30 3.30 7 1440 (1925) 0 (1954) 225 1 8 32 54 122 268 342 644 820
2026-02-09 11:30 3.30 7 1440 (1925) 0 (1954) 225 1 8 32 54 122 268 342 644 820
2026-02-09 10:30 3.30 7 1440 (1925) 0 (1954) 225 1 8 32 54 122 268 342 644 820
2026-02-09 09:30 3.30 7 1440 (1925) 0 (1954) 225 1 8 32 54 122 268 342 644 820
2026-02-09 08:30 3.30 7 1440 (1925) 0 (1954) 225 1 8 32 54 122 268 342 644 820
2026-02-09 07:30 3.30 7 1440 (1925) 0 (1954) 225 1 8 32 54 122 268 342 644 820
2026-02-09 06:30 3.29 6 1440 (1925) 0 (1954) 225 1 8 32 54 122 268 342 644 820
2026-02-09 05:30 3.29 6 1440 (1925) 0 (1954) 225 1 8 32 54 122 268 342 644 820
2026-02-09 04:30 3.29 6 1440 (1925) 0 (1954) 225 1 8 32 54 122 268 342 644 820
2026-02-09 03:30 3.29 6 1440 (1925) 0 (1954) 225 1 8 32 54 122 268 342 644 820
2026-02-09 02:30 3.29 6 1440 (1925) 0 (1954) 225 1 8 32 54 122 268 342 644 820
2026-02-09 01:30 3.29 6 1440 (1925) 0 (1954) 225 1 8 32 54 122 268 342 644 820
2026-02-09 00:30 3.29 6 1440 (1925) 0 (1954) 225 1 8 32 54 122 268 342 644 820
2026-02-08 23:30 3.29 6 1440 (1925) 0 (1954) 225 1 8 32 54 122 268 342 644 820
2026-02-08 22:30 3.29 6 2740 (2019) 0 (1954) 251 1 8 31 50 116 249 318 693 1010
2026-02-08 21:30 3.29 6 2740 (2019) 0 (1954) 251 1 8 31 50 116 249 318 693 1010
2026-02-08 20:30 3.29 6 2740 (2019) 0 (1954) 251 1 8 31 50 116 249 318 693 1010
2026-02-08 19:30 3.29 6 2740 (2019) 0 (1954) 251 1 8 31 50 116 249 318 693 1010
2026-02-08 18:30 3.29 6 2740 (2019) 0 (1954) 251 1 8 31 50 116 249 318 693 1010
2026-02-08 17:30 3.29 6 2740 (2019) 0 (1954) 251 1 8 31 50 116 249 318 693 1010
2026-02-08 16:30 3.29 6 2740 (2019) 0 (1954) 251 1 8 31 50 116 249 318 693 1010
2026-02-08 15:30 3.29 6 2740 (2019) 0 (1954) 251 1 8 31 50 116 249 318 693 1010
2026-02-08 14:30 3.29 6 2740 (2019) 0 (1954) 251 1 8 31 50 116 249 318 693 1010
2026-02-08 13:30 3.28 6 2740 (2019) 0 (1954) 251 1 8 31 50 116 249 318 693 1010
2026-02-08 12:30 3.28 6 2740 (2019) 0 (1954) 251 1 8 31 50 116 249 318 693 1010
2026-02-08 11:30 3.28 6 2740 (2019) 0 (1954) 251 1 8 31 50 116 249 318 693 1010
2026-02-08 10:30 3.28 6 2740 (2019) 0 (1954) 251 1 8 31 50 116 249 318 693 1010
2026-02-08 09:30 3.28 6 2740 (2019) 0 (1954) 251 1 8 31 50 116 249 318 693 1010
2026-02-08 08:30 3.28 6 2740 (2019) 0 (1954) 251 1 8 31 50 116 249 318 693 1010
2026-02-08 07:30 3.28 6 2740 (2019) 0 (1954) 251 1 8 31 50 116 249 318 693 1010
2026-02-08 06:30 3.28 6 2740 (2019) 0 (1954) 251 1 8 31 50 116 249 318 693 1010
2026-02-08 05:30 3.28 6 2740 (2019) 0 (1954) 251 1 8 31 50 116 249 318 693 1010
2026-02-08 04:30 3.28 6 2740 (2019) 0 (1954) 251 1 8 31 50 116 249 318 693 1010
2026-02-08 03:30 3.28 6 2740 (2019) 0 (1954) 251 1 8 31 50 116 249 318 693 1010
2026-02-08 02:30 3.28 6 2740 (2019) 0 (1954) 251 1 8 31 50 116 249 318 693 1010
2026-02-08 01:30 3.28 6 2740 (2019) 0 (1954) 251 1 8 31 50 116 249 318 693 1010
2026-02-08 00:30 3.28 6 2740 (2019) 0 (1954) 251 1 8 31 50 116 249 318 693 1010
2026-02-07 23:30 3.27 6 2740 (2019) 0 (1954) 251 1 8 31 50 116 249 318 693 1010
2026-02-07 22:30 3.27 6 2000 (2019) 0 (1954) 255 1 8 30 44 118 291 348 616 1240
2026-02-07 21:30 3.27 6 2000 (2019) 0 (1954) 255 1 8 30 44 118 291 348 616 1240
2026-02-07 20:30 3.27 6 2000 (2019) 0 (1954) 255 1 8 30 44 118 291 348 616 1240
2026-02-07 19:30 3.27 6 2000 (2019) 0 (1954) 255 1 8 30 44 118 291 348 616 1240
2026-02-07 18:30 3.27 6 2000 (2019) 0 (1954) 255 1 8 30 44 118 291 348 616 1240
2026-02-07 17:30 3.27 6 2000 (2019) 0 (1954) 255 1 8 30 44 118 291 348 616 1240
2026-02-07 16:30 3.26 5 2000 (2019) 0 (1954) 255 1 8 30 44 118 291 348 616 1240
2026-02-07 15:30 3.27 6 2000 (2019) 0 (1954) 255 1 8 30 44 118 291 348 616 1240
2026-02-07 14:30 3.26 5 2000 (2019) 0 (1954) 255 1 8 30 44 118 291 348 616 1240
2026-02-07 13:30 3.26 5 2000 (2019) 0 (1954) 255 1 8 30 44 118 291 348 616 1240
2026-02-07 12:30 3.26 5 2000 (2019) 0 (1954) 255 1 8 30 44 118 291 348 616 1240
2026-02-07 11:30 3.26 5 2000 (2019) 0 (1954) 255 1 8 30 44 118 291 348 616 1240
2026-02-07 10:30 3.26 5 2000 (2019) 0 (1954) 255 1 8 30 44 118 291 348 616 1240
2026-02-07 09:30 3.26 5 2000 (2019) 0 (1954) 255 1 8 30 44 118 291 348 616 1240
2026-02-07 08:30 3.26 5 2000 (2019) 0 (1954) 255 1 8 30 44 118 291 348 616 1240
2026-02-07 07:30 3.26 5 2000 (2019) 0 (1954) 255 1 8 30 44 118 291 348 616 1240
2026-02-07 06:30 3.26 5 2000 (2019) 0 (1954) 255 1 8 30 44 118 291 348 616 1240
2026-02-07 05:30 3.26 5 2000 (2019) 0 (1954) 255 1 8 30 44 118 291 348 616 1240
2026-02-07 04:30 3.26 5 2000 (2019) 0 (1954) 255 1 8 30 44 118 291 348 616 1240
2026-02-07 03:30 3.25 5 2000 (2019) 0 (1954) 255 1 8 30 44 118 291 348 616 1240
2026-02-07 02:30 3.25 5 2000 (2019) 0 (1954) 255 1 8 30 44 118 291 348 616 1240
2026-02-07 01:30 3.25 5 2000 (2019) 0 (1954) 255 1 8 30 44 118 291 348 616 1240
2026-02-07 00:30 3.25 5 2000 (2019) 0 (1954) 255 1 8 30 44 118 291 348 616 1240
2026-02-06 23:30 3.25 5 2000 (2019) 0 (1954) 255 1 8 30 44 118 291 348 616 1240
2026-02-06 22:30 3.24 5 1250 (1986) 0 (1954) 220 1 7 30 45 119 291 333 583 1050
2026-02-06 21:30 3.24 5 1250 (1986) 0 (1954) 220 1 7 30 45 119 291 333 583 1050
2026-02-06 20:30 3.24 5 1250 (1986) 0 (1954) 220 1 7 30 45 119 291 333 583 1050
2026-02-06 19:30 3.24 5 1250 (1986) 0 (1954) 220 1 7 30 45 119 291 333 583 1050
2026-02-06 18:30 3.24 5 1250 (1986) 0 (1954) 220 1 7 30 45 119 291 333 583 1050
2026-02-06 17:30 3.24 5 1250 (1986) 0 (1954) 220 1 7 30 45 119 291 333 583 1050
2026-02-06 16:30 3.24 5 1250 (1986) 0 (1954) 220 1 7 30 45 119 291 333 583 1050
2026-02-06 15:30 3.24 5 1250 (1986) 0 (1954) 220 1 7 30 45 119 291 333 583 1050
2026-02-06 14:30 3.24 5 1250 (1986) 0 (1954) 220 1 7 30 45 119 291 333 583 1050
2026-02-06 13:30 3.24 5 1250 (1986) 0 (1954) 220 1 7 30 45 119 291 333 583 1050
2026-02-06 12:30 3.23 4 1250 (1986) 0 (1954) 220 1 7 30 45 119 291 333 583 1050
2026-02-06 11:30 3.23 4 1250 (1986) 0 (1954) 220 1 7 30 45 119 291 333 583 1050
2026-02-06 10:30 3.23 4 1250 (1986) 0 (1954) 220 1 7 30 45 119 291 333 583 1050
2026-02-06 09:30 3.23 4 1250 (1986) 0 (1954) 220 1 7 30 45 119 291 333 583 1050
2026-02-06 08:30 3.23 4 1250 (1986) 0 (1954) 220 1 7 30 45 119 291 333 583 1050
2026-02-06 07:30 3.23 4 1250 (1986) 0 (1954) 220 1 7 30 45 119 291 333 583 1050
2026-02-06 06:30 3.23 4 1250 (1986) 0 (1954) 220 1 7 30 45 119 291 333 583 1050
2026-02-06 05:30 3.23 4 1250 (1986) 0 (1954) 220 1 7 30 45 119 291 333 583 1050
2026-02-06 04:30 3.23 4 1250 (1986) 0 (1954) 220 1 7 30 45 119 291 333 583 1050
2026-02-06 03:30 3.22 4 1250 (1986) 0 (1954) 220 1 7 30 45 119 291 333 583 1050
2026-02-06 02:30 3.22 4 1250 (1986) 0 (1954) 220 1 7 30 45 119 291 333 583 1050
2026-02-06 01:30 3.22 4 1250 (1986) 0 (1954) 220 1 7 30 45 119 291 333 583 1050
2026-02-06 00:30 3.22 4 1250 (1986) 0 (1954) 220 1 7 30 45 119 291 333 583 1050
2026-02-05 23:30 3.22 4 1250 (1986) 0 (1954) 220 1 7 30 45 119 291 333 583 1050
2026-02-05 22:30 3.22 4 3080 (1986) 0 (1954) 245 1 7 29 32 112 308 346 556 901
2026-02-05 21:30 3.22 4 3080 (1986) 0 (1954) 245 1 7 29 32 112 308 346 556 901
2026-02-05 20:30 3.22 4 3080 (1986) 0 (1954) 245 1 7 29 32 112 308 346 556 901
2026-02-05 19:30 3.22 4 3080 (1986) 0 (1954) 245 1 7 29 32 112 308 346 556 901
2026-02-05 18:30 3.22 4 3080 (1986) 0 (1954) 245 1 7 29 32 112 308 346 556 901
2026-02-05 17:30 3.22 4 3080 (1986) 0 (1954) 245 1 7 29 32 112 308 346 556 901
2026-02-05 16:30 3.22 4 3080 (1986) 0 (1954) 245 1 7 29 32 112 308 346 556 901
2026-02-05 15:30 3.21 4 3080 (1986) 0 (1954) 245 1 7 29 32 112 308 346 556 901
2026-02-05 14:30 3.21 4 3080 (1986) 0 (1954) 245 1 7 29 32 112 308 346 556 901
2026-02-05 13:30 3.21 4 3080 (1986) 0 (1954) 245 1 7 29 32 112 308 346 556 901
2026-02-05 12:30 3.20 4 3080 (1986) 0 (1954) 245 1 7 29 32 112 308 346 556 901
2026-02-05 11:30 3.19 4 3080 (1986) 0 (1954) 245 1 7 29 32 112 308 346 556 901
2026-02-05 10:30 3.19 4 3080 (1986) 0 (1954) 245 1 7 29 32 112 308 346 556 901
2026-02-05 09:30 3.19 4 3080 (1986) 0 (1954) 245 1 7 29 32 112 308 346 556 901
2026-02-05 08:30 3.20 4 3080 (1986) 0 (1954) 245 1 7 29 32 112 308 346 556 901
2026-02-05 07:30 3.20 4 3080 (1986) 0 (1954) 245 1 7 29 32 112 308 346 556 901
2026-02-05 06:30 3.20 4 3080 (1986) 0 (1954) 245 1 7 29 32 112 308 346 556 901
2026-02-05 05:30 3.20 4 3080 (1986) 0 (1954) 245 1 7 29 32 112 308 346 556 901
2026-02-05 04:30 3.20 4 3080 (1986) 0 (1954) 245 1 7 29 32 112 308 346 556 901
2026-02-05 03:30 3.19 4 3080 (1986) 0 (1954) 245 1 7 29 32 112 308 346 556 901
2026-02-05 02:30 3.19 4 3080 (1986) 0 (1954) 245 1 7 29 32 112 308 346 556 901
2026-02-05 01:30 3.19 4 3080 (1986) 0 (1954) 245 1 7 29 32 112 308 346 556 901
2026-02-05 00:30 3.19 4 3080 (1986) 0 (1954) 245 1 7 29 32 112 308 346 556 901
2026-02-04 23:30 3.19 4 3080 (1986) 0 (1954) 245 1 7 29 32 112 308 346 556 901
2026-02-04 22:30 3.19 4 6110 (1986) 0 (1954) 295 1 7 28 32 108 322 394 570 863
2026-02-04 21:30 3.19 4 6110 (1986) 0 (1954) 295 1 7 28 32 108 322 394 570 863
2026-02-04 20:30 3.19 4 6110 (1986) 0 (1954) 295 1 7 28 32 108 322 394 570 863
2026-02-04 19:30 3.19 4 6110 (1986) 0 (1954) 295 1 7 28 32 108 322 394 570 863
2026-02-04 18:30 3.19 11 6110 (1986) 0 (1954) 295 1 7 28 32 108 322 394 570 863
2026-02-04 17:30 3.18 11 6110 (1986) 0 (1954) 295 1 7 28 32 108 322 394 570 863
2026-02-04 16:30 3.18 11 6110 (1986) 0 (1954) 295 1 7 28 32 108 322 394 570 863
2026-02-04 15:30 3.18 11 6110 (1986) 0 (1954) 295 1 7 28 32 108 322 394 570 863
2026-02-04 14:30 3.18 11 6110 (1986) 0 (1954) 295 1 7 28 32 108 322 394 570 863
2026-02-04 13:30 3.18 11 6110 (1986) 0 (1954) 295 1 7 28 32 108 322 394 570 863
2026-02-04 12:30 3.18 11 6110 (1986) 0 (1954) 295 1 7 28 32 108 322 394 570 863
2026-02-04 11:30 3.18 11 6110 (1986) 0 (1954) 295 1 7 28 32 108 322 394 570 863
2026-02-04 10:30 3.18 11 6110 (1986) 0 (1954) 295 1 7 28 32 108 322 394 570 863
2026-02-04 09:30 3.18 11 6110 (1986) 0 (1954) 295 1 7 28 32 108 322 394 570 863
2026-02-04 08:30 3.18 11 6110 (1986) 0 (1954) 295 1 7 28 32 108 322 394 570 863
2026-02-04 07:30 3.18 11 6110 (1986) 0 (1954) 295 1 7 28 32 108 322 394 570 863
2026-02-04 06:30 3.18 11 6110 (1986) 0 (1954) 295 1 7 28 32 108 322 394 570 863
2026-02-04 05:30 3.18 11 6110 (1986) 0 (1954) 295 1 7 28 32 108 322 394 570 863
2026-02-04 04:30 3.18 11 6110 (1986) 0 (1954) 295 1 7 28 32 108 322 394 570 863
2026-02-04 03:30 3.18 11 6110 (1986) 0 (1954) 295 1 7 28 32 108 322 394 570 863
2026-02-04 02:30 3.18 11 6110 (1986) 0 (1954) 295 1 7 28 32 108 322 394 570 863
2026-02-04 01:30 3.18 11 6110 (1986) 0 (1954) 295 1 7 28 32 108 322 394 570 863
2026-02-04 00:30 3.18 11 6110 (1986) 0 (1954) 295 1 7 28 32 108 322 394 570 863
2026-02-03 23:30 3.18 11 6110 (1986) 0 (1954) 295 1 7 28 32 108 322 394 570 863
2026-02-03 22:30 3.18 11 4470 (1986) 0 (1954) 310 1 7 20 30 101 303 368 710 1130
2026-02-03 21:30 3.18 11 4470 (1986) 0 (1954) 310 1 7 20 30 101 303 368 710 1130
2026-02-03 20:30 3.18 11 4470 (1986) 0 (1954) 310 1 7 20 30 101 303 368 710 1130
2026-02-03 19:30 3.17 10 4470 (1986) 0 (1954) 310 1 7 20 30 101 303 368 710 1130
2026-02-03 18:30 3.18 11 4470 (1986) 0 (1954) 310 1 7 20 30 101 303 368 710 1130
2026-02-03 17:30 3.18 11 4470 (1986) 0 (1954) 310 1 7 20 30 101 303 368 710 1130
2026-02-03 16:30 3.18 11 4470 (1986) 0 (1954) 310 1 7 20 30 101 303 368 710 1130
2026-02-03 15:30 3.18 11 4470 (1986) 0 (1954) 310 1 7 20 30 101 303 368 710 1130
2026-02-03 14:30 3.17 10 4470 (1986) 0 (1954) 310 1 7 20 30 101 303 368 710 1130
2026-02-03 13:30 3.18 11 4470 (1986) 0 (1954) 310 1 7 20 30 101 303 368 710 1130
2026-02-03 12:30 3.18 11 4470 (1986) 0 (1954) 310 1 7 20 30 101 303 368 710 1130
2026-02-03 11:30 3.17 10 4470 (1986) 0 (1954) 310 1 7 20 30 101 303 368 710 1130
2026-02-03 10:30 3.17 10 4470 (1986) 0 (1954) 310 1 7 20 30 101 303 368 710 1130
2026-02-03 09:30 3.17 10 4470 (1986) 0 (1954) 310 1 7 20 30 101 303 368 710 1130
2026-02-03 08:30 3.18 11 4470 (1986) 0 (1954) 310 1 7 20 30 101 303 368 710 1130
2026-02-03 07:30 3.17 10 4470 (1986) 0 (1954) 310 1 7 20 30 101 303 368 710 1130
2026-02-03 06:30 3.17 10 4470 (1986) 0 (1954) 310 1 7 20 30 101 303 368 710 1130
2026-02-03 05:30 3.17 10 4470 (1986) 0 (1954) 310 1 7 20 30 101 303 368 710 1130
2026-02-03 04:30 3.17 10 4470 (1986) 0 (1954) 310 1 7 20 30 101 303 368 710 1130
2026-02-03 03:30 3.17 10 4470 (1986) 0 (1954) 310 1 7 20 30 101 303 368 710 1130
2026-02-03 02:30 3.17 10 4470 (1986) 0 (1954) 310 1 7 20 30 101 303 368 710 1130
2026-02-03 01:30 3.17 10 4470 (1986) 0 (1954) 310 1 7 20 30 101 303 368 710 1130
2026-02-03 00:30 3.17 10 4470 (1986) 0 (1954) 310 1 7 20 30 101 303 368 710 1130
2026-02-02 23:30 3.17 10 4470 (1986) 0 (1954) 310 1 7 20 30 101 303 368 710 1130
2026-02-02 22:30 3.17 10 3800 (1975) 0 (1954) 347 1 7 19 30 102 283 384 955 2220
2026-02-02 21:30 3.17 10 3800 (1975) 0 (1954) 347 1 7 19 30 102 283 384 955 2220
2026-02-02 20:30 3.17 10 3800 (1975) 0 (1954) 347 1 7 19 30 102 283 384 955 2220
2026-02-02 19:30 3.17 10 3800 (1975) 0 (1954) 347 1 7 19 30 102 283 384 955 2220
2026-02-02 18:30 3.17 10 3800 (1975) 0 (1954) 347 1 7 19 30 102 283 384 955 2220
2026-02-02 17:30 3.17 10 3800 (1975) 0 (1954) 347 1 7 19 30 102 283 384 955 2220
2026-02-02 16:30 3.17 10 3800 (1975) 0 (1954) 347 1 7 19 30 102 283 384 955 2220
2026-02-02 15:30 3.16 10 3800 (1975) 0 (1954) 347 1 7 19 30 102 283 384 955 2220
2026-02-02 14:30 3.16 10 3800 (1975) 0 (1954) 347 1 7 19 30 102 283 384 955 2220
2026-02-02 13:30 3.16 10 3800 (1975) 0 (1954) 347 1 7 19 30 102 283 384 955 2220
2026-02-02 12:30 3.16 10 3800 (1975) 0 (1954) 347 1 7 19 30 102 283 384 955 2220
2026-02-02 11:30 3.16 10 3800 (1975) 0 (1954) 347 1 7 19 30 102 283 384 955 2220
2026-02-02 10:30 3.17 10 3800 (1975) 0 (1954) 347 1 7 19 30 102 283 384 955 2220
2026-02-02 09:30 3.17 10 3800 (1975) 0 (1954) 347 1 7 19 30 102 283 384 955 2220
2026-02-02 08:30 3.18 11 3800 (1975) 0 (1954) 347 1 7 19 30 102 283 384 955 2220
2026-02-02 07:30 3.18 11 3800 (1975) 0 (1954) 347 1 7 19 30 102 283 384 955 2220
2026-02-02 06:30 3.18 11 3800 (1975) 0 (1954) 347 1 7 19 30 102 283 384 955 2220
2026-02-02 05:30 3.18 11 3800 (1975) 0 (1954) 347 1 7 19 30 102 283 384 955 2220
2026-02-02 04:30 3.18 11 3800 (1975) 0 (1954) 347 1 7 19 30 102 283 384 955 2220
2026-02-02 03:30 3.18 11 3800 (1975) 0 (1954) 347 1 7 19 30 102 283 384 955 2220
2026-02-02 02:30 3.17 10 3800 (1975) 0 (1954) 347 1 7 19 30 102 283 384 955 2220
2026-02-02 01:30 3.17 10 3800 (1975) 0 (1954) 347 1 7 19 30 102 283 384 955 2220
2026-02-02 00:30 3.17 10 3800 (1975) 0 (1954) 347 1 7 19 30 102 283 384 955 2220
2026-02-01 23:30 3.17 10 3800 (1975) 0 (1954) 347 1 7 19 30 102 283 384 955 2220
2026-02-01 22:30 3.17 10 7630 (1975) 0 (1954) 381 1 5 19 28 111 279 456 944 1530
2026-02-01 21:30 3.17 10 7630 (1975) 0 (1954) 381 1 5 19 28 111 279 456 944 1530
2026-02-01 20:30 3.17 10 7630 (1975) 0 (1954) 381 1 5 19 28 111 279 456 944 1530
2026-02-01 19:30 3.16 10 7630 (1975) 0 (1954) 381 1 5 19 28 111 279 456 944 1530
2026-02-01 18:30 3.16 10 7630 (1975) 0 (1954) 381 1 5 19 28 111 279 456 944 1530
2026-02-01 17:30 3.16 10 7630 (1975) 0 (1954) 381 1 5 19 28 111 279 456 944 1530
2026-02-01 16:30 3.16 10 7630 (1975) 0 (1954) 381 1 5 19 28 111 279 456 944 1530
2026-02-01 15:30 3.16 10 7630 (1975) 0 (1954) 381 1 5 19 28 111 279 456 944 1530
2026-02-01 14:30 3.16 10 7630 (1975) 0 (1954) 381 1 5 19 28 111 279 456 944 1530
2026-02-01 13:30 3.16 10 7630 (1975) 0 (1954) 381 1 5 19 28 111 279 456 944 1530
2026-02-01 12:30 3.16 10 7630 (1975) 0 (1954) 381 1 5 19 28 111 279 456 944 1530
2026-02-01 11:30 3.16 10 7630 (1975) 0 (1954) 381 1 5 19 28 111 279 456 944 1530
2026-02-01 10:30 3.17 10 7630 (1975) 0 (1954) 381 1 5 19 28 111 279 456 944 1530
2026-02-01 09:30 3.17 10 7630 (1975) 0 (1954) 381 1 5 19 28 111 279 456 944 1530
2026-02-01 08:30 3.17 10 7630 (1975) 0 (1954) 381 1 5 19 28 111 279 456 944 1530
2026-02-01 07:30 3.17 10 7630 (1975) 0 (1954) 381 1 5 19 28 111 279 456 944 1530
2026-02-01 06:30 3.17 10 7630 (1975) 0 (1954) 381 1 5 19 28 111 279 456 944 1530
2026-02-01 05:30 3.17 10 7630 (1975) 0 (1954) 381 1 5 19 28 111 279 456 944 1530
2026-02-01 04:30 3.17 10 7630 (1975) 0 (1954) 381 1 5 19 28 111 279 456 944 1530
2026-02-01 03:30 3.18 11 7630 (1975) 0 (1954) 381 1 5 19 28 111 279 456 944 1530
2026-02-01 02:30 3.18 11 7630 (1975) 0 (1954) 381 1 5 19 28 111 279 456 944 1530
2026-02-01 01:30 3.18 11 7630 (1975) 0 (1954) 381 1 5 19 28 111 279 456 944 1530
2026-02-01 00:30 3.18 11 7630 (1975) 0 (1954) 381 1 5 19 28 111 279 456 944 1530
2026-01-31 23:30 3.18 11 7630 (1975) 0 (1954) 381 1 5 19 28 111 279 456 944 1530
2026-01-31 22:30 3.18 11 8610 (1975) 0 (1954) 475 1 5 22 26 113 292 503 985 3010
2026-01-31 21:30 3.18 11 8610 (1975) 0 (1954) 475 1 5 22 26 113 292 503 985 3010
2026-01-31 20:30 3.18 11 8610 (1975) 0 (1954) 475 1 5 22 26 113 292 503 985 3010
2026-01-31 19:30 3.18 11 8610 (1975) 0 (1954) 475 1 5 22 26 113 292 503 985 3010
2026-01-31 18:30 3.18 11 8610 (1975) 0 (1954) 475 1 5 22 26 113 292 503 985 3010
2026-01-31 17:30 3.18 11 8610 (1975) 0 (1954) 475 1 5 22 26 113 292 503 985 3010
2026-01-31 16:30 3.18 11 8610 (1975) 0 (1954) 475 1 5 22 26 113 292 503 985 3010
2026-01-31 15:30 3.17 10 8610 (1975) 0 (1954) 475 1 5 22 26 113 292 503 985 3010
2026-01-31 14:30 3.17 10 8610 (1975) 0 (1954) 475 1 5 22 26 113 292 503 985 3010
2026-01-31 13:30 3.18 11 8610 (1975) 0 (1954) 475 1 5 22 26 113 292 503 985 3010
2026-01-31 12:30 3.18 11 8610 (1975) 0 (1954) 475 1 5 22 26 113 292 503 985 3010
2026-01-31 11:30 3.18 11 8610 (1975) 0 (1954) 475 1 5 22 26 113 292 503 985 3010
2026-01-31 10:30 3.18 11 8610 (1975) 0 (1954) 475 1 5 22 26 113 292 503 985 3010
2026-01-31 09:30 3.19 11 8610 (1975) 0 (1954) 475 1 5 22 26 113 292 503 985 3010
2026-01-31 08:30 3.19 11 8610 (1975) 0 (1954) 475 1 5 22 26 113 292 503 985 3010
2026-01-31 07:30 3.19 11 8610 (1975) 0 (1954) 475 1 5 22 26 113 292 503 985 3010
2026-01-31 06:30 3.19 11 8610 (1975) 0 (1954) 475 1 5 22 26 113 292 503 985 3010
2026-01-31 05:30 3.19 11 8610 (1975) 0 (1954) 475 1 5 22 26 113 292 503 985 3010
2026-01-31 04:30 3.19 11 8610 (1975) 0 (1954) 475 1 5 22 26 113 292 503 985 3010
2026-01-31 03:30 3.19 11 8610 (1975) 0 (1954) 475 1 5 22 26 113 292 503 985 3010
2026-01-31 02:30 3.19 11 8610 (1975) 0 (1954) 475 1 5 22 26 113 292 503 985 3010
2026-01-31 01:30 3.19 11 8610 (1975) 0 (1954) 475 1 5 22 26 113 292 503 985 3010
2026-01-31 00:30 3.19 11 8610 (1975) 0 (1954) 475 1 5 22 26 113 292 503 985 3010
2026-01-30 23:30 3.19 11 8610 (1975) 0 (1954) 475 1 5 22 26 113 292 503 985 3010
2026-01-30 22:30 3.19 11 5840 (1969) 0 (1954) 359 0 5 22 27 123 247 370 965 1740
2026-01-30 21:30 3.19 11 5840 (1969) 0 (1954) 359 0 5 22 27 123 247 370 965 1740
2026-01-30 20:30 3.19 11 5840 (1969) 0 (1954) 359 0 5 22 27 123 247 370 965 1740
2026-01-30 19:30 3.19 11 5840 (1969) 0 (1954) 359 0 5 22 27 123 247 370 965 1740
2026-01-30 18:30 3.19 11 5840 (1969) 0 (1954) 359 0 5 22 27 123 247 370 965 1740
2026-01-30 17:30 3.19 11 5840 (1969) 0 (1954) 359 0 5 22 27 123 247 370 965 1740
2026-01-30 16:30 3.19 11 5840 (1969) 0 (1954) 359 0 5 22 27 123 247 370 965 1740
2026-01-30 15:30 3.19 11 5840 (1969) 0 (1954) 359 0 5 22 27 123 247 370 965 1740
2026-01-30 14:30 3.18 11 5840 (1969) 0 (1954) 359 0 5 22 27 123 247 370 965 1740
2026-01-30 13:30 3.19 11 5840 (1969) 0 (1954) 359 0 5 22 27 123 247 370 965 1740
2026-01-30 12:30 3.19 11 5840 (1969) 0 (1954) 359 0 5 22 27 123 247 370 965 1740
2026-01-30 11:30 3.19 11 5840 (1969) 0 (1954) 359 0 5 22 27 123 247 370 965 1740
2026-01-30 10:30 3.19 11 5840 (1969) 0 (1954) 359 0 5 22 27 123 247 370 965 1740
2026-01-30 09:30 3.19 11 5840 (1969) 0 (1954) 359 0 5 22 27 123 247 370 965 1740
2026-01-30 08:30 3.19 11 5840 (1969) 0 (1954) 359 0 5 22 27 123 247 370 965 1740
2026-01-30 07:30 3.19 11 5840 (1969) 0 (1954) 359 0 5 22 27 123 247 370 965 1740
2026-01-30 06:30 3.19 11 5840 (1969) 0 (1954) 359 0 5 22 27 123 247 370 965 1740
2026-01-30 05:30 3.19 11 5840 (1969) 0 (1954) 359 0 5 22 27 123 247 370 965 1740
2026-01-30 04:30 3.19 11 5840 (1969) 0 (1954) 359 0 5 22 27 123 247 370 965 1740
2026-01-30 03:30 3.19 11 5840 (1969) 0 (1954) 359 0 5 22 27 123 247 370 965 1740
2026-01-30 02:30 3.19 11 5840 (1969) 0 (1954) 359 0 5 22 27 123 247 370 965 1740
2026-01-30 01:30 3.19 11 5840 (1969) 0 (1954) 359 0 5 22 27 123 247 370 965 1740
2026-01-30 00:30 3.19 11 5840 (1969) 0 (1954) 359 0 5 22 27 123 247 370 965 1740
2026-01-29 23:30 3.18 11 5840 (1969) 0 (1954) 359 0 5 22 27 123 247 370 965 1740
2026-01-29 22:30 3.18 11 2250 (1974) 0 (1964) 252 1 5 22 28 117 220 319 538 1860
2026-01-29 21:30 3.18 11 2250 (1974) 0 (1964) 252 1 5 22 28 117 220 319 538 1860
2026-01-29 20:30 3.18 11 2250 (1974) 0 (1964) 252 1 5 22 28 117 220 319 538 1860
2026-01-29 19:30 3.18 11 2250 (1974) 0 (1964) 252 1 5 22 28 117 220 319 538 1860
2026-01-29 18:30 3.18 11 2250 (1974) 0 (1964) 252 1 5 22 28 117 220 319 538 1860
2026-01-29 17:30 3.18 11 2250 (1974) 0 (1964) 252 1 5 22 28 117 220 319 538 1860
2026-01-29 16:30 3.18 11 2250 (1974) 0 (1964) 252 1 5 22 28 117 220 319 538 1860
2026-01-29 15:30 3.18 11 2250 (1974) 0 (1964) 252 1 5 22 28 117 220 319 538 1860
2026-01-29 14:30 3.18 11 2250 (1974) 0 (1964) 252 1 5 22 28 117 220 319 538 1860
2026-01-29 13:30 3.18 11 2250 (1974) 0 (1964) 252 1 5 22 28 117 220 319 538 1860
2026-01-29 12:30 3.18 11 2250 (1974) 0 (1964) 252 1 5 22 28 117 220 319 538 1860
2026-01-29 11:30 3.18 11 2250 (1974) 0 (1964) 252 1 5 22 28 117 220 319 538 1860
2026-01-29 10:30 3.18 11 2250 (1974) 0 (1964) 252 1 5 22 28 117 220 319 538 1860
2026-01-29 09:30 3.19 11 2250 (1974) 0 (1964) 252 1 5 22 28 117 220 319 538 1860
2026-01-29 08:30 3.19 11 2250 (1974) 0 (1964) 252 1 5 22 28 117 220 319 538 1860
2026-01-29 07:30 3.19 11 2250 (1974) 0 (1964) 252 1 5 22 28 117 220 319 538 1860
2026-01-29 06:30 3.18 11 2250 (1974) 0 (1964) 252 1 5 22 28 117 220 319 538 1860
2026-01-29 05:30 3.18 11 2250 (1974) 0 (1964) 252 1 5 22 28 117 220 319 538 1860
2026-01-29 04:30 3.18 11 2250 (1974) 0 (1964) 252 1 5 22 28 117 220 319 538 1860
2026-01-29 03:30 3.18 11 2250 (1974) 0 (1964) 252 1 5 22 28 117 220 319 538 1860
2026-01-29 02:30 3.18 11 2250 (1974) 0 (1964) 252 1 5 22 28 117 220 319 538 1860
2026-01-29 01:30 3.18 11 2250 (1974) 0 (1964) 252 1 5 22 28 117 220 319 538 1860
2026-01-29 00:30 3.18 11 2250 (1974) 0 (1964) 252 1 5 22 28 117 220 319 538 1860
2026-01-28 23:30 3.18 11 2250 (1974) 0 (1964) 252 1 5 22 28 117 220 319 538 1860
2026-01-28 22:30 3.18 11 1730 (1995) 0 (1954) 206 0 5 21 28 112 220 279 535 834
2026-01-28 21:30 3.18 11 1730 (1995) 0 (1954) 206 0 5 21 28 112 220 279 535 834
2026-01-28 20:30 3.19 11 1730 (1995) 0 (1954) 206 0 5 21 28 112 220 279 535 834
2026-01-28 19:30 3.18 11 1730 (1995) 0 (1954) 206 0 5 21 28 112 220 279 535 834
2026-01-28 18:30 3.18 11 1730 (1995) 0 (1954) 206 0 5 21 28 112 220 279 535 834
2026-01-28 17:30 3.18 11 1730 (1995) 0 (1954) 206 0 5 21 28 112 220 279 535 834
2026-01-28 16:30 3.18 11 1730 (1995) 0 (1954) 206 0 5 21 28 112 220 279 535 834
2026-01-28 15:30 3.18 11 1730 (1995) 0 (1954) 206 0 5 21 28 112 220 279 535 834
2026-01-28 14:30 3.19 11 1730 (1995) 0 (1954) 206 0 5 21 28 112 220 279 535 834
2026-01-28 13:30 3.19 11 1730 (1995) 0 (1954) 206 0 5 21 28 112 220 279 535 834
2026-01-28 12:30 3.19 11 1730 (1995) 0 (1954) 206 0 5 21 28 112 220 279 535 834
2026-01-28 11:30 3.19 11 1730 (1995) 0 (1954) 206 0 5 21 28 112 220 279 535 834
2026-01-28 10:30 3.19 11 1730 (1995) 0 (1954) 206 0 5 21 28 112 220 279 535 834
2026-01-28 09:30 3.20 12 1730 (1995) 0 (1954) 206 0 5 21 28 112 220 279 535 834
2026-01-28 08:30 3.20 12 1730 (1995) 0 (1954) 206 0 5 21 28 112 220 279 535 834
2026-01-28 07:30 3.20 12 1730 (1995) 0 (1954) 206 0 5 21 28 112 220 279 535 834
2026-01-28 06:30 3.20 12 1730 (1995) 0 (1954) 206 0 5 21 28 112 220 279 535 834
2026-01-28 05:30 3.20 12 1730 (1995) 0 (1954) 206 0 5 21 28 112 220 279 535 834
2026-01-28 04:30 3.20 12 1730 (1995) 0 (1954) 206 0 5 21 28 112 220 279 535 834
2026-01-28 03:30 3.21 12 1730 (1995) 0 (1954) 206 0 5 21 28 112 220 279 535 834
2026-01-28 02:30 3.21 12 1730 (1995) 0 (1954) 206 0 5 21 28 112 220 279 535 834
2026-01-28 01:30 3.21 12 1730 (1995) 0 (1954) 206 0 5 21 28 112 220 279 535 834
2026-01-28 00:30 3.20 12 1730 (1995) 0 (1954) 206 0 5 21 28 112 220 279 535 834
2026-01-27 23:30 3.21 12 1730 (1995) 0 (1954) 206 0 5 21 28 112 220 279 535 834
2026-01-27 22:30 3.21 12 1960 (1962) 0 (1964) 222 0 5 18 27 102 225 301 553 979
2026-01-27 21:30 3.21 12 1960 (1962) 0 (1964) 222 0 5 18 27 102 225 301 553 979
2026-01-27 20:30 3.21 12 1960 (1962) 0 (1964) 222 0 5 18 27 102 225 301 553 979
2026-01-27 19:30 3.21 12 1960 (1962) 0 (1964) 222 0 5 18 27 102 225 301 553 979
2026-01-27 18:30 3.20 12 1960 (1962) 0 (1964) 222 0 5 18 27 102 225 301 553 979
2026-01-27 17:30 3.21 12 1960 (1962) 0 (1964) 222 0 5 18 27 102 225 301 553 979
2026-01-27 16:30 3.21 12 1960 (1962) 0 (1964) 222 0 5 18 27 102 225 301 553 979
2026-01-27 15:30 3.21 12 1960 (1962) 0 (1964) 222 0 5 18 27 102 225 301 553 979
2026-01-27 14:30 3.20 12 1960 (1962) 0 (1964) 222 0 5 18 27 102 225 301 553 979
2026-01-27 13:30 3.20 12 1960 (1962) 0 (1964) 222 0 5 18 27 102 225 301 553 979
2026-01-27 12:30 3.20 12 1960 (1962) 0 (1964) 222 0 5 18 27 102 225 301 553 979
2026-01-27 11:30 3.20 12 1960 (1962) 0 (1964) 222 0 5 18 27 102 225 301 553 979
2026-01-27 10:30 3.21 12 1960 (1962) 0 (1964) 222 0 5 18 27 102 225 301 553 979
2026-01-27 09:30 3.21 12 1960 (1962) 0 (1964) 222 0 5 18 27 102 225 301 553 979
2026-01-27 08:30 3.21 12 1960 (1962) 0 (1964) 222 0 5 18 27 102 225 301 553 979
2026-01-27 07:30 3.21 12 1960 (1962) 0 (1964) 222 0 5 18 27 102 225 301 553 979
2026-01-27 06:30 3.21 12 1960 (1962) 0 (1964) 222 0 5 18 27 102 225 301 553 979
2026-01-27 05:30 3.21 12 1960 (1962) 0 (1964) 222 0 5 18 27 102 225 301 553 979
2026-01-27 04:30 3.21 12 1960 (1962) 0 (1964) 222 0 5 18 27 102 225 301 553 979
2026-01-27 03:30 3.21 12 1960 (1962) 0 (1964) 222 0 5 18 27 102 225 301 553 979
2026-01-27 02:30 3.21 12 1960 (1962) 0 (1964) 222 0 5 18 27 102 225 301 553 979
2026-01-27 01:30 3.21 12 1960 (1962) 0 (1964) 222 0 5 18 27 102 225 301 553 979
2026-01-27 00:30 3.21 12 1960 (1962) 0 (1964) 222 0 5 18 27 102 225 301 553 979
2026-01-26 23:30 3.21 12 1960 (1962) 0 (1964) 222 0 5 18 27 102 225 301 553 979
2026-01-26 22:30 3.21 12 4550 (2021) 0 (1964) 273 0 5 18 27 106 243 304 677 1180
2026-01-26 21:30 3.21 12 4550 (2021) 0 (1964) 273 0 5 18 27 106 243 304 677 1180
2026-01-26 20:30 3.21 12 4550 (2021) 0 (1964) 273 0 5 18 27 106 243 304 677 1180
2026-01-26 19:30 3.21 12 4550 (2021) 0 (1964) 273 0 5 18 27 106 243 304 677 1180
2026-01-26 18:30 3.21 12 4550 (2021) 0 (1964) 273 0 5 18 27 106 243 304 677 1180
2026-01-26 17:30 3.20 12 4550 (2021) 0 (1964) 273 0 5 18 27 106 243 304 677 1180
2026-01-26 16:30 3.20 12 4550 (2021) 0 (1964) 273 0 5 18 27 106 243 304 677 1180
2026-01-26 15:30 3.20 12 4550 (2021) 0 (1964) 273 0 5 18 27 106 243 304 677 1180
2026-01-26 14:30 3.20 12 4550 (2021) 0 (1964) 273 0 5 18 27 106 243 304 677 1180
2026-01-26 13:30 3.20 12 4550 (2021) 0 (1964) 273 0 5 18 27 106 243 304 677 1180
2026-01-26 12:30 3.21 12 4550 (2021) 0 (1964) 273 0 5 18 27 106 243 304 677 1180
2026-01-26 11:30 3.21 12 4550 (2021) 0 (1964) 273 0 5 18 27 106 243 304 677 1180
2026-01-26 10:30 3.21 12 4550 (2021) 0 (1964) 273 0 5 18 27 106 243 304 677 1180
2026-01-26 09:30 3.21 12 4550 (2021) 0 (1964) 273 0 5 18 27 106 243 304 677 1180
2026-01-26 08:30 3.21 12 4550 (2021) 0 (1964) 273 0 5 18 27 106 243 304 677 1180
2026-01-26 07:30 3.21 12 4550 (2021) 0 (1964) 273 0 5 18 27 106 243 304 677 1180
2026-01-26 06:30 3.21 12 4550 (2021) 0 (1964) 273 0 5 18 27 106 243 304 677 1180
2026-01-26 05:30 3.21 12 4550 (2021) 0 (1964) 273 0 5 18 27 106 243 304 677 1180
2026-01-26 04:30 3.21 12 4550 (2021) 0 (1964) 273 0 5 18 27 106 243 304 677 1180
2026-01-26 03:30 3.21 12 4550 (2021) 0 (1964) 273 0 5 18 27 106 243 304 677 1180
2026-01-26 02:30 3.21 12 4550 (2021) 0 (1964) 273 0 5 18 27 106 243 304 677 1180
2026-01-26 01:30 3.21 12 4550 (2021) 0 (1964) 273 0 5 18 27 106 243 304 677 1180
2026-01-26 00:30 3.21 12 4550 (2021) 0 (1964) 273 0 5 18 27 106 243 304 677 1180
2026-01-25 23:30 3.21 12 4550 (2021) 0 (1964) 273 0 5 18 27 106 243 304 677 1180
2026-01-25 22:30 3.21 12 3860 (1949) 0 (1954) 295 0 4 20 27 101 265 305 564 2180
2026-01-25 21:30 3.21 12 3860 (1949) 0 (1954) 295 0 4 20 27 101 265 305 564 2180
2026-01-25 20:30 3.21 12 3860 (1949) 0 (1954) 295 0 4 20 27 101 265 305 564 2180
2026-01-25 19:30 3.21 12 3860 (1949) 0 (1954) 295 0 4 20 27 101 265 305 564 2180
2026-01-25 18:30 3.20 12 3860 (1949) 0 (1954) 295 0 4 20 27 101 265 305 564 2180
2026-01-25 17:30 3.20 12 3860 (1949) 0 (1954) 295 0 4 20 27 101 265 305 564 2180
2026-01-25 16:30 3.20 12 3860 (1949) 0 (1954) 295 0 4 20 27 101 265 305 564 2180
2026-01-25 15:30 3.20 12 3860 (1949) 0 (1954) 295 0 4 20 27 101 265 305 564 2180
2026-01-25 14:30 3.20 12 3860 (1949) 0 (1954) 295 0 4 20 27 101 265 305 564 2180
2026-01-25 13:30 3.20 12 3860 (1949) 0 (1954) 295 0 4 20 27 101 265 305 564 2180
2026-01-25 12:30 3.21 12 3860 (1949) 0 (1954) 295 0 4 20 27 101 265 305 564 2180
2026-01-25 11:30 3.21 12 3860 (1949) 0 (1954) 295 0 4 20 27 101 265 305 564 2180
2026-01-25 10:30 3.21 12 3860 (1949) 0 (1954) 295 0 4 20 27 101 265 305 564 2180
2026-01-25 09:30 3.20 12 3860 (1949) 0 (1954) 295 0 4 20 27 101 265 305 564 2180
2026-01-25 08:30 3.20 12 3860 (1949) 0 (1954) 295 0 4 20 27 101 265 305 564 2180
2026-01-25 07:30 3.20 12 3860 (1949) 0 (1954) 295 0 4 20 27 101 265 305 564 2180
2026-01-25 06:30 3.20 12 3860 (1949) 0 (1954) 295 0 4 20 27 101 265 305 564 2180
2026-01-25 05:30 3.20 12 3860 (1949) 0 (1954) 295 0 4 20 27 101 265 305 564 2180
2026-01-25 04:30 3.20 12 3860 (1949) 0 (1954) 295 0 4 20 27 101 265 305 564 2180
2026-01-25 03:30 3.20 12 3860 (1949) 0 (1954) 295 0 4 20 27 101 265 305 564 2180
2026-01-25 02:30 3.19 11 3860 (1949) 0 (1954) 295 0 4 20 27 101 265 305 564 2180
2026-01-25 01:30 3.19 11 3860 (1949) 0 (1954) 295 0 4 20 27 101 265 305 564 2180
2026-01-25 00:30 3.19 11 3860 (1949) 0 (1954) 295 0 4 20 27 101 265 305 564 2180
2026-01-24 23:30 3.18 11 3860 (1949) 0 (1954) 295 0 4 20 27 101 265 305 564 2180
2026-01-24 22:30 3.18 11 5790 (1949) 0 (1954) 282 0 5 20 27 102 249 272 644 1330
2026-01-24 21:30 3.18 11 5790 (1949) 0 (1954) 282 0 5 20 27 102 249 272 644 1330
2026-01-24 20:30 3.18 11 5790 (1949) 0 (1954) 282 0 5 20 27 102 249 272 644 1330
2026-01-24 19:30 3.17 10 5790 (1949) 0 (1954) 282 0 5 20 27 102 249 272 644 1330
2026-01-24 18:30 3.17 10 5790 (1949) 0 (1954) 282 0 5 20 27 102 249 272 644 1330
2026-01-24 17:30 3.17 10 5790 (1949) 0 (1954) 282 0 5 20 27 102 249 272 644 1330
2026-01-24 16:30 3.17 10 5790 (1949) 0 (1954) 282 0 5 20 27 102 249 272 644 1330
2026-01-24 15:30 3.17 10 5790 (1949) 0 (1954) 282 0 5 20 27 102 249 272 644 1330
2026-01-24 14:30 3.17 10 5790 (1949) 0 (1954) 282 0 5 20 27 102 249 272 644 1330
2026-01-24 13:30 3.17 10 5790 (1949) 0 (1954) 282 0 5 20 27 102 249 272 644 1330
2026-01-24 12:30 3.17 10 5790 (1949) 0 (1954) 282 0 5 20 27 102 249 272 644 1330
2026-01-24 11:30 3.17 10 5790 (1949) 0 (1954) 282 0 5 20 27 102 249 272 644 1330
2026-01-24 10:30 3.17 10 5790 (1949) 0 (1954) 282 0 5 20 27 102 249 272 644 1330
2026-01-24 09:30 3.17 10 5790 (1949) 0 (1954) 282 0 5 20 27 102 249 272 644 1330
2026-01-24 08:30 3.17 10 5790 (1949) 0 (1954) 282 0 5 20 27 102 249 272 644 1330
2026-01-24 07:30 3.17 10 5790 (1949) 0 (1954) 282 0 5 20 27 102 249 272 644 1330
2026-01-24 06:30 3.17 10 5790 (1949) 0 (1954) 282 0 5 20 27 102 249 272 644 1330
2026-01-24 05:30 3.17 10 5790 (1949) 0 (1954) 282 0 5 20 27 102 249 272 644 1330
2026-01-24 04:30 3.18 11 5790 (1949) 0 (1954) 282 0 5 20 27 102 249 272 644 1330
2026-01-24 03:30 3.18 11 5790 (1949) 0 (1954) 282 0 5 20 27 102 249 272 644 1330
2026-01-24 02:30 3.18 11 5790 (1949) 0 (1954) 282 0 5 20 27 102 249 272 644 1330
2026-01-24 01:30 3.18 11 5790 (1949) 0 (1954) 282 0 5 20 27 102 249 272 644 1330
2026-01-24 00:30 3.18 11 5790 (1949) 0 (1954) 282 0 5 20 27 102 249 272 644 1330
2026-01-23 23:30 3.19 11 5790 (1949) 0 (1954) 282 0 5 20 27 102 249 272 644 1330
2026-01-23 22:30 3.19 11 3880 (1949) 0 (1954) 229 0 4 21 29 95 221 286 497 975
2026-01-23 21:30 3.19 11 3880 (1949) 0 (1954) 229 0 4 21 29 95 221 286 497 975
2026-01-23 20:30 3.19 11 3880 (1949) 0 (1954) 229 0 4 21 29 95 221 286 497 975
2026-01-23 19:30 3.19 11 3880 (1949) 0 (1954) 229 0 4 21 29 95 221 286 497 975
2026-01-23 18:30 3.19 11 3880 (1949) 0 (1954) 229 0 4 21 29 95 221 286 497 975
2026-01-23 17:30 3.19 11 3880 (1949) 0 (1954) 229 0 4 21 29 95 221 286 497 975
2026-01-23 16:30 3.19 11 3880 (1949) 0 (1954) 229 0 4 21 29 95 221 286 497 975
2026-01-23 15:30 3.20 12 3880 (1949) 0 (1954) 229 0 4 21 29 95 221 286 497 975
2026-01-23 14:30 3.20 12 3880 (1949) 0 (1954) 229 0 4 21 29 95 221 286 497 975
2026-01-23 13:30 3.20 12 3880 (1949) 0 (1954) 229 0 4 21 29 95 221 286 497 975
2026-01-23 12:30 3.20 12 3880 (1949) 0 (1954) 229 0 4 21 29 95 221 286 497 975
2026-01-23 11:30 3.20 12 3880 (1949) 0 (1954) 229 0 4 21 29 95 221 286 497 975
2026-01-23 10:30 3.20 12 3880 (1949) 0 (1954) 229 0 4 21 29 95 221 286 497 975
2026-01-23 09:30 3.21 12 3880 (1949) 0 (1954) 229 0 4 21 29 95 221 286 497 975
2026-01-23 08:30 3.21 12 3880 (1949) 0 (1954) 229 0 4 21 29 95 221 286 497 975
2026-01-23 07:30 3.21 12 3880 (1949) 0 (1954) 229 0 4 21 29 95 221 286 497 975
2026-01-23 06:30 3.21 12 3880 (1949) 0 (1954) 229 0 4 21 29 95 221 286 497 975
2026-01-23 05:30 3.21 12 3880 (1949) 0 (1954) 229 0 4 21 29 95 221 286 497 975
2026-01-23 04:30 3.21 12 3880 (1949) 0 (1954) 229 0 4 21 29 95 221 286 497 975
2026-01-23 03:30 3.21 12 3880 (1949) 0 (1954) 229 0 4 21 29 95 221 286 497 975
2026-01-23 02:30 3.21 12 3880 (1949) 0 (1954) 229 0 4 21 29 95 221 286 497 975
2026-01-23 01:30 3.21 12 3880 (1949) 0 (1954) 229 0 4 21 29 95 221 286 497 975
2026-01-23 00:30 3.21 12 3880 (1949) 0 (1954) 229 0 4 21 29 95 221 286 497 975
2026-01-22 23:30 3.21 12 3880 (1949) 0 (1954) 229 0 4 21 29 95 221 286 497 975
2026-01-22 22:30 3.21 12 1530 (1993) 0 (1954) 197 0 3 18 28 95 238 303 526 672
2026-01-22 21:30 3.21 12 1530 (1993) 0 (1954) 197 0 3 18 28 95 238 303 526 672
2026-01-22 20:30 3.21 12 1530 (1993) 0 (1954) 197 0 3 18 28 95 238 303 526 672
2026-01-22 19:30 3.21 12 1530 (1993) 0 (1954) 197 0 3 18 28 95 238 303 526 672
2026-01-22 18:30 3.21 12 1530 (1993) 0 (1954) 197 0 3 18 28 95 238 303 526 672
2026-01-22 17:30 3.22 13 1530 (1993) 0 (1954) 197 0 3 18 28 95 238 303 526 672
2026-01-22 16:30 3.22 13 1530 (1993) 0 (1954) 197 0 3 18 28 95 238 303 526 672
2026-01-22 15:30 3.22 13 1530 (1993) 0 (1954) 197 0 3 18 28 95 238 303 526 672
2026-01-22 14:30 3.22 13 1530 (1993) 0 (1954) 197 0 3 18 28 95 238 303 526 672
2026-01-22 13:30 3.22 13 1530 (1993) 0 (1954) 197 0 3 18 28 95 238 303 526 672
2026-01-22 12:30 3.22 13 1530 (1993) 0 (1954) 197 0 3 18 28 95 238 303 526 672
2026-01-22 11:30 3.22 13 1530 (1993) 0 (1954) 197 0 3 18 28 95 238 303 526 672
2026-01-22 10:30 3.22 13 1530 (1993) 0 (1954) 197 0 3 18 28 95 238 303 526 672
2026-01-22 09:30 3.22 13 1530 (1993) 0 (1954) 197 0 3 18 28 95 238 303 526 672
2026-01-22 08:30 3.22 13 1530 (1993) 0 (1954) 197 0 3 18 28 95 238 303 526 672
2026-01-22 07:30 3.22 13 1530 (1993) 0 (1954) 197 0 3 18 28 95 238 303 526 672
2026-01-22 06:30 3.22 13 1530 (1993) 0 (1954) 197 0 3 18 28 95 238 303 526 672
2026-01-22 05:30 3.22 13 1530 (1993) 0 (1954) 197 0 3 18 28 95 238 303 526 672
2026-01-22 04:30 3.23 13 1530 (1993) 0 (1954) 197 0 3 18 28 95 238 303 526 672
2026-01-22 03:30 3.23 13 1530 (1993) 0 (1954) 197 0 3 18 28 95 238 303 526 672
2026-01-22 02:30 3.23 13 1530 (1993) 0 (1954) 197 0 3 18 28 95 238 303 526 672
2026-01-22 01:30 3.23 13 1530 (1993) 0 (1954) 197 0 3 18 28 95 238 303 526 672
2026-01-22 00:30 3.23 13 1530 (1993) 0 (1954) 197 0 3 18 28 95 238 303 526 672
2026-01-21 23:30 3.23 13 1530 (1993) 0 (1954) 197 0 3 18 28 95 238 303 526 672
2026-01-21 22:30 3.23 13 2890 (1993) 0 (1964) 217 0 3 18 28 84 240 332 554 856
2026-01-21 21:30 3.23 13 2890 (1993) 0 (1964) 217 0 3 18 28 84 240 332 554 856
2026-01-21 20:30 3.23 13 2890 (1993) 0 (1964) 217 0 3 18 28 84 240 332 554 856
2026-01-21 19:30 3.23 13 2890 (1993) 0 (1964) 217 0 3 18 28 84 240 332 554 856
2026-01-21 18:30 3.23 13 2890 (1993) 0 (1964) 217 0 3 18 28 84 240 332 554 856
2026-01-21 17:30 3.23 13 2890 (1993) 0 (1964) 217 0 3 18 28 84 240 332 554 856
2026-01-21 16:30 3.23 13 2890 (1993) 0 (1964) 217 0 3 18 28 84 240 332 554 856
2026-01-21 15:30 3.23 13 2890 (1993) 0 (1964) 217 0 3 18 28 84 240 332 554 856
2026-01-21 14:30 3.23 13 2890 (1993) 0 (1964) 217 0 3 18 28 84 240 332 554 856
2026-01-21 13:30 3.23 13 2890 (1993) 0 (1964) 217 0 3 18 28 84 240 332 554 856
2026-01-21 12:30 3.24 14 2890 (1993) 0 (1964) 217 0 3 18 28 84 240 332 554 856
2026-01-21 11:30 3.23 13 2890 (1993) 0 (1964) 217 0 3 18 28 84 240 332 554 856
2026-01-21 10:30 3.23 13 2890 (1993) 0 (1964) 217 0 3 18 28 84 240 332 554 856
2026-01-21 09:30 3.24 14 2890 (1993) 0 (1964) 217 0 3 18 28 84 240 332 554 856
2026-01-21 08:30 3.23 13 2890 (1993) 0 (1964) 217 0 3 18 28 84 240 332 554 856
2026-01-21 07:30 3.23 13 2890 (1993) 0 (1964) 217 0 3 18 28 84 240 332 554 856
2026-01-21 06:30 3.23 13 2890 (1993) 0 (1964) 217 0 3 18 28 84 240 332 554 856
2026-01-21 05:30 3.23 13 2890 (1993) 0 (1964) 217 0 3 18 28 84 240 332 554 856
2026-01-21 04:30 3.23 13 2890 (1993) 0 (1964) 217 0 3 18 28 84 240 332 554 856
2026-01-21 03:30 3.23 13 2890 (1993) 0 (1964) 217 0 3 18 28 84 240 332 554 856
2026-01-21 02:30 3.23 13 2890 (1993) 0 (1964) 217 0 3 18 28 84 240 332 554 856
2026-01-21 01:30 3.23 13 2890 (1993) 0 (1964) 217 0 3 18 28 84 240 332 554 856
2026-01-21 00:30 3.23 13 2890 (1993) 0 (1964) 217 0 3 18 28 84 240 332 554 856
2026-01-20 23:30 3.23 13 2890 (1993) 0 (1964) 217 0 3 18 28 84 240 332 554 856
2026-01-20 22:30 3.23 13 1350 (1993) 0 (1964) 200 0 3 20 25 80 253 315 675 880
2026-01-20 21:30 3.23 13 1350 (1993) 0 (1964) 200 0 3 20 25 80 253 315 675 880
2026-01-20 20:30 3.23 13 1350 (1993) 0 (1964) 200 0 3 20 25 80 253 315 675 880
2026-01-20 19:30 3.22 13 1350 (1993) 0 (1964) 200 0 3 20 25 80 253 315 675 880
2026-01-20 18:30 3.22 13 1350 (1993) 0 (1964) 200 0 3 20 25 80 253 315 675 880
2026-01-20 17:30 3.22 13 1350 (1993) 0 (1964) 200 0 3 20 25 80 253 315 675 880
2026-01-20 16:30 3.22 13 1350 (1993) 0 (1964) 200 0 3 20 25 80 253 315 675 880
2026-01-20 15:30 3.22 13 1350 (1993) 0 (1964) 200 0 3 20 25 80 253 315 675 880
2026-01-20 14:30 3.22 13 1350 (1993) 0 (1964) 200 0 3 20 25 80 253 315 675 880
2026-01-20 13:30 3.22 13 1350 (1993) 0 (1964) 200 0 3 20 25 80 253 315 675 880
2026-01-20 12:30 3.22 13 1350 (1993) 0 (1964) 200 0 3 20 25 80 253 315 675 880
2026-01-20 11:30 3.22 13 1350 (1993) 0 (1964) 200 0 3 20 25 80 253 315 675 880
2026-01-20 10:30 3.22 13 1350 (1993) 0 (1964) 200 0 3 20 25 80 253 315 675 880
2026-01-20 09:30 3.22 13 1350 (1993) 0 (1964) 200 0 3 20 25 80 253 315 675 880
2026-01-20 08:30 3.22 13 1350 (1993) 0 (1964) 200 0 3 20 25 80 253 315 675 880
2026-01-20 07:30 3.22 13 1350 (1993) 0 (1964) 200 0 3 20 25 80 253 315 675 880
2026-01-20 06:30 3.22 13 1350 (1993) 0 (1964) 200 0 3 20 25 80 253 315 675 880
2026-01-20 05:30 3.22 13 1350 (1993) 0 (1964) 200 0 3 20 25 80 253 315 675 880
2026-01-20 04:30 3.22 13 1350 (1993) 0 (1964) 200 0 3 20 25 80 253 315 675 880
2026-01-20 03:30 3.22 13 1350 (1993) 0 (1964) 200 0 3 20 25 80 253 315 675 880
2026-01-20 02:30 3.22 13 1350 (1993) 0 (1964) 200 0 3 20 25 80 253 315 675 880
2026-01-20 01:30 3.22 13 1350 (1993) 0 (1964) 200 0 3 20 25 80 253 315 675 880
2026-01-20 00:30 3.22 13 1350 (1993) 0 (1964) 200 0 3 20 25 80 253 315 675 880
2026-01-19 23:30 3.22 13 1350 (1993) 0 (1964) 200 0 3 20 25 80 253 315 675 880
2026-01-19 22:30 3.22 13 2350 (2020) 0 (1954) 229 0 3 20 26 79 239 298 534 1130
2026-01-19 21:30 3.22 13 2350 (2020) 0 (1954) 229 0 3 20 26 79 239 298 534 1130
2026-01-19 20:30 3.22 13 2350 (2020) 0 (1954) 229 0 3 20 26 79 239 298 534 1130
2026-01-19 19:30 3.22 13 2350 (2020) 0 (1954) 229 0 3 20 26 79 239 298 534 1130
2026-01-19 18:30 3.22 13 2350 (2020) 0 (1954) 229 0 3 20 26 79 239 298 534 1130
2026-01-19 17:30 3.22 13 2350 (2020) 0 (1954) 229 0 3 20 26 79 239 298 534 1130
2026-01-19 16:30 3.22 13 2350 (2020) 0 (1954) 229 0 3 20 26 79 239 298 534 1130
2026-01-19 15:30 3.22 13 2350 (2020) 0 (1954) 229 0 3 20 26 79 239 298 534 1130
2026-01-19 14:30 3.22 13 2350 (2020) 0 (1954) 229 0 3 20 26 79 239 298 534 1130
2026-01-19 13:30 3.22 13 2350 (2020) 0 (1954) 229 0 3 20 26 79 239 298 534 1130
2026-01-19 12:30 3.22 13 2350 (2020) 0 (1954) 229 0 3 20 26 79 239 298 534 1130
2026-01-19 11:30 3.23 13 2350 (2020) 0 (1954) 229 0 3 20 26 79 239 298 534 1130
2026-01-19 10:30 3.23 13 2350 (2020) 0 (1954) 229 0 3 20 26 79 239 298 534 1130
2026-01-19 09:30 3.23 13 2350 (2020) 0 (1954) 229 0 3 20 26 79 239 298 534 1130
2026-01-19 08:30 3.23 13 2350 (2020) 0 (1954) 229 0 3 20 26 79 239 298 534 1130
2026-01-19 07:30 3.23 13 2350 (2020) 0 (1954) 229 0 3 20 26 79 239 298 534 1130
2026-01-19 06:30 3.23 13 2350 (2020) 0 (1954) 229 0 3 20 26 79 239 298 534 1130
2026-01-19 05:30 3.23 13 2350 (2020) 0 (1954) 229 0 3 20 26 79 239 298 534 1130
2026-01-19 04:30 3.23 13 2350 (2020) 0 (1954) 229 0 3 20 26 79 239 298 534 1130
2026-01-19 03:30 3.24 14 2350 (2020) 0 (1954) 229 0 3 20 26 79 239 298 534 1130
2026-01-19 02:30 3.24 14 2350 (2020) 0 (1954) 229 0 3 20 26 79 239 298 534 1130
2026-01-19 01:30 3.25 14 2350 (2020) 0 (1954) 229 0 3 20 26 79 239 298 534 1130
2026-01-19 00:30 3.24 14 2350 (2020) 0 (1954) 229 0 3 20 26 79 239 298 534 1130
2026-01-18 23:30 3.25 14 2350 (2020) 0 (1954) 229 0 3 20 26 79 239 298 534 1130
2026-01-18 22:30 3.25 14 4240 (2004) 0 (1954) 300 0 3 15 21 76 254 290 629 1600
2026-01-18 21:30 3.25 14 4240 (2004) 0 (1954) 300 0 3 15 21 76 254 290 629 1600
2026-01-18 20:30 3.25 14 4240 (2004) 0 (1954) 300 0 3 15 21 76 254 290 629 1600
2026-01-18 19:30 3.25 14 4240 (2004) 0 (1954) 300 0 3 15 21 76 254 290 629 1600
2026-01-18 18:30 3.25 14 4240 (2004) 0 (1954) 300 0 3 15 21 76 254 290 629 1600
2026-01-18 17:30 3.25 14 4240 (2004) 0 (1954) 300 0 3 15 21 76 254 290 629 1600
2026-01-18 16:30 3.26 15 4240 (2004) 0 (1954) 300 0 3 15 21 76 254 290 629 1600
2026-01-18 15:30 3.26 15 4240 (2004) 0 (1954) 300 0 3 15 21 76 254 290 629 1600
2026-01-18 14:30 3.26 15 4240 (2004) 0 (1954) 300 0 3 15 21 76 254 290 629 1600
2026-01-18 13:30 3.27 16 4240 (2004) 0 (1954) 300 0 3 15 21 76 254 290 629 1600
2026-01-18 12:30 3.26 15 4240 (2004) 0 (1954) 300 0 3 15 21 76 254 290 629 1600
2026-01-18 11:30 3.27 16 4240 (2004) 0 (1954) 300 0 3 15 21 76 254 290 629 1600
2026-01-18 10:30 3.26 15 4240 (2004) 0 (1954) 300 0 3 15 21 76 254 290 629 1600
2026-01-18 09:30 3.27 16 4240 (2004) 0 (1954) 300 0 3 15 21 76 254 290 629 1600
2026-01-18 08:30 3.27 16 4240 (2004) 0 (1954) 300 0 3 15 21 76 254 290 629 1600
2026-01-18 07:30 3.27 16 4240 (2004) 0 (1954) 300 0 3 15 21 76 254 290 629 1600
2026-01-18 06:30 3.27 16 4240 (2004) 0 (1954) 300 0 3 15 21 76 254 290 629 1600
2026-01-18 05:30 3.27 16 4240 (2004) 0 (1954) 300 0 3 15 21 76 254 290 629 1600
2026-01-18 04:30 3.27 16 4240 (2004) 0 (1954) 300 0 3 15 21 76 254 290 629 1600
2026-01-18 03:30 3.27 16 4240 (2004) 0 (1954) 300 0 3 15 21 76 254 290 629 1600
2026-01-18 02:30 3.28 16 4240 (2004) 0 (1954) 300 0 3 15 21 76 254 290 629 1600
2026-01-18 01:30 3.28 16 4240 (2004) 0 (1954) 300 0 3 15 21 76 254 290 629 1600
2026-01-18 00:30 3.28 16 4240 (2004) 0 (1954) 300 0 3 15 21 76 254 290 629 1600
2026-01-17 23:30 3.28 16 4240 (2004) 0 (1954) 300 0 3 15 21 76 254 290 629 1600
2026-01-17 22:30 3.28 16 2450 (1974) 0 (1954) 240 0 3 13 23 77 230 283 577 1510
2026-01-17 21:30 3.29 17 2450 (1974) 0 (1954) 240 0 3 13 23 77 230 283 577 1510
2026-01-17 20:30 3.29 17 2450 (1974) 0 (1954) 240 0 3 13 23 77 230 283 577 1510
2026-01-17 19:30 3.29 17 2450 (1974) 0 (1954) 240 0 3 13 23 77 230 283 577 1510
2026-01-17 18:30 3.29 17 2450 (1974) 0 (1954) 240 0 3 13 23 77 230 283 577 1510
2026-01-17 17:30 3.29 17 2450 (1974) 0 (1954) 240 0 3 13 23 77 230 283 577 1510
2026-01-17 16:30 3.29 17 2450 (1974) 0 (1954) 240 0 3 13 23 77 230 283 577 1510
2026-01-17 15:30 3.30 18 2450 (1974) 0 (1954) 240 0 3 13 23 77 230 283 577 1510
2026-01-17 14:30 3.30 18 2450 (1974) 0 (1954) 240 0 3 13 23 77 230 283 577 1510
2026-01-17 13:30 3.30 18 2450 (1974) 0 (1954) 240 0 3 13 23 77 230 283 577 1510
2026-01-17 12:30 3.31 18 2450 (1974) 0 (1954) 240 0 3 13 23 77 230 283 577 1510
2026-01-17 11:30 3.31 18 2450 (1974) 0 (1954) 240 0 3 13 23 77 230 283 577 1510
2026-01-17 10:30 3.31 18 2450 (1974) 0 (1954) 240 0 3 13 23 77 230 283 577 1510
2026-01-17 09:30 3.31 18 2450 (1974) 0 (1954) 240 0 3 13 23 77 230 283 577 1510
2026-01-17 08:30 3.31 18 2450 (1974) 0 (1954) 240 0 3 13 23 77 230 283 577 1510
2026-01-17 07:30 3.31 18 2450 (1974) 0 (1954) 240 0 3 13 23 77 230 283 577 1510
2026-01-17 06:30 3.31 18 2450 (1974) 0 (1954) 240 0 3 13 23 77 230 283 577 1510
2026-01-17 05:30 3.32 19 2450 (1974) 0 (1954) 240 0 3 13 23 77 230 283 577 1510
2026-01-17 04:30 3.32 19 2450 (1974) 0 (1954) 240 0 3 13 23 77 230 283 577 1510
2026-01-17 03:30 3.33 20 2450 (1974) 0 (1954) 240 0 3 13 23 77 230 283 577 1510
2026-01-17 02:30 3.33 20 2450 (1974) 0 (1954) 240 0 3 13 23 77 230 283 577 1510
2026-01-17 01:30 3.33 20 2450 (1974) 0 (1954) 240 0 3 13 23 77 230 283 577 1510
2026-01-17 00:30 3.33 20 2450 (1974) 0 (1954) 240 0 3 13 23 77 230 283 577 1510
2026-01-16 23:30 3.33 20 2450 (1974) 0 (1954) 240 0 3 13 23 77 230 283 577 1510
2026-01-16 22:30 3.33 20 3050 (1991) 0 (1954) 220 0 3 14 22 80 240 255 563 780
2026-01-16 21:30 3.33 20 3050 (1991) 0 (1954) 220 0 3 14 22 80 240 255 563 780
2026-01-16 20:30 3.33 20 3050 (1991) 0 (1954) 220 0 3 14 22 80 240 255 563 780
2026-01-16 19:30 3.34 21 3050 (1991) 0 (1954) 220 0 3 14 22 80 240 255 563 780
2026-01-16 18:30 3.33 20 3050 (1991) 0 (1954) 220 0 3 14 22 80 240 255 563 780
2026-01-16 17:30 3.33 20 3050 (1991) 0 (1954) 220 0 3 14 22 80 240 255 563 780
2026-01-16 16:30 3.33 20 3050 (1991) 0 (1954) 220 0 3 14 22 80 240 255 563 780
2026-01-16 15:30 3.34 21 3050 (1991) 0 (1954) 220 0 3 14 22 80 240 255 563 780
2026-01-16 14:30 3.33 20 3050 (1991) 0 (1954) 220 0 3 14 22 80 240 255 563 780
2026-01-16 13:30 3.33 20 3050 (1991) 0 (1954) 220 0 3 14 22 80 240 255 563 780
2026-01-16 12:30 3.33 20 3050 (1991) 0 (1954) 220 0 3 14 22 80 240 255 563 780
2026-01-16 11:30 3.34 21 3050 (1991) 0 (1954) 220 0 3 14 22 80 240 255 563 780
2026-01-16 10:30 3.34 21 3050 (1991) 0 (1954) 220 0 3 14 22 80 240 255 563 780
2026-01-16 09:30 3.34 21 3050 (1991) 0 (1954) 220 0 3 14 22 80 240 255 563 780
2026-01-16 08:30 3.34 21 3050 (1991) 0 (1954) 220 0 3 14 22 80 240 255 563 780
2026-01-16 07:30 3.34 21 3050 (1991) 0 (1954) 220 0 3 14 22 80 240 255 563 780
2026-01-16 06:30 3.33 20 3050 (1991) 0 (1954) 220 0 3 14 22 80 240 255 563 780
2026-01-16 05:30 3.34 21 3050 (1991) 0 (1954) 220 0 3 14 22 80 240 255 563 780
2026-01-16 04:30 3.33 20 3050 (1991) 0 (1954) 220 0 3 14 22 80 240 255 563 780
2026-01-16 03:30 3.34 21 3050 (1991) 0 (1954) 220 0 3 14 22 80 240 255 563 780
2026-01-16 02:30 3.33 20 3050 (1991) 0 (1954) 220 0 3 14 22 80 240 255 563 780
2026-01-16 01:30 3.34 21 3050 (1991) 0 (1954) 220 0 3 14 22 80 240 255 563 780
2026-01-16 00:30 3.33 20 3050 (1991) 0 (1954) 220 0 3 14 22 80 240 255 563 780
2026-01-15 23:30 3.33 20 3050 (1991) 0 (1954) 220 0 3 14 22 80 240 255 563 780
2026-01-15 22:30 3.33 20 2790 (1949) 0 (1954) 240 0 3 15 20 76 238 264 545 1470
2026-01-15 21:30 3.33 20 2790 (1949) 0 (1954) 240 0 3 15 20 76 238 264 545 1470
2026-01-15 20:30 3.33 20 2790 (1949) 0 (1954) 240 0 3 15 20 76 238 264 545 1470
2026-01-15 19:30 3.33 20 2790 (1949) 0 (1954) 240 0 3 15 20 76 238 264 545 1470
2026-01-15 18:30 3.32 19 2790 (1949) 0 (1954) 240 0 3 15 20 76 238 264 545 1470
2026-01-15 17:30 3.32 19 2790 (1949) 0 (1954) 240 0 3 15 20 76 238 264 545 1470
2026-01-15 16:30 3.32 19 2790 (1949) 0 (1954) 240 0 3 15 20 76 238 264 545 1470
2026-01-15 15:30 3.32 19 2790 (1949) 0 (1954) 240 0 3 15 20 76 238 264 545 1470
2026-01-15 14:30 3.33 20 2790 (1949) 0 (1954) 240 0 3 15 20 76 238 264 545 1470
2026-01-15 13:30 3.32 19 2790 (1949) 0 (1954) 240 0 3 15 20 76 238 264 545 1470
2026-01-15 12:30 3.32 19 2790 (1949) 0 (1954) 240 0 3 15 20 76 238 264 545 1470
2026-01-15 11:30 3.32 19 2790 (1949) 0 (1954) 240 0 3 15 20 76 238 264 545 1470
2026-01-15 10:30 3.32 19 2790 (1949) 0 (1954) 240 0 3 15 20 76 238 264 545 1470
2026-01-15 09:30 3.32 19 2790 (1949) 0 (1954) 240 0 3 15 20 76 238 264 545 1470
2026-01-15 08:30 3.32 19 2790 (1949) 0 (1954) 240 0 3 15 20 76 238 264 545 1470
2026-01-15 07:30 3.33 20 2790 (1949) 0 (1954) 240 0 3 15 20 76 238 264 545 1470
2026-01-15 06:30 3.33 20 2790 (1949) 0 (1954) 240 0 3 15 20 76 238 264 545 1470
2026-01-15 05:30 3.33 20 2790 (1949) 0 (1954) 240 0 3 15 20 76 238 264 545 1470
2026-01-15 04:30 3.34 21 2790 (1949) 0 (1954) 240 0 3 15 20 76 238 264 545 1470
2026-01-15 03:30 3.34 21 2790 (1949) 0 (1954) 240 0 3 15 20 76 238 264 545 1470
2026-01-15 02:30 3.34 21 2790 (1949) 0 (1954) 240 0 3 15 20 76 238 264 545 1470
2026-01-15 01:30 3.35 21 2790 (1949) 0 (1954) 240 0 3 15 20 76 238 264 545 1470
2026-01-15 00:30 3.35 21 2790 (1949) 0 (1954) 240 0 3 15 20 76 238 264 545 1470
2026-01-14 23:30 3.36 22 2790 (1949) 0 (1954) 240 0 3 15 20 76 238 264 545 1470
2026-01-14 22:30 3.36 22 2960 (1950) 0 (1954) 267 0 3 13 18 73 235 273 750 1950
2026-01-14 21:30 3.36 22 2960 (1950) 0 (1954) 267 0 3 13 18 73 235 273 750 1950
2026-01-14 20:30 3.37 23 2960 (1950) 0 (1954) 267 0 3 13 18 73 235 273 750 1950
2026-01-14 19:30 3.37 23 2960 (1950) 0 (1954) 267 0 3 13 18 73 235 273 750 1950
2026-01-14 18:30 3.37 23 2960 (1950) 0 (1954) 267 0 3 13 18 73 235 273 750 1950
2026-01-14 17:30 3.38 24 2960 (1950) 0 (1954) 267 0 3 13 18 73 235 273 750 1950
2026-01-14 16:30 3.38 24 2960 (1950) 0 (1954) 267 0 3 13 18 73 235 273 750 1950
2026-01-14 15:30 3.38 24 2960 (1950) 0 (1954) 267 0 3 13 18 73 235 273 750 1950
2026-01-14 14:30 3.39 24 2960 (1950) 0 (1954) 267 0 3 13 18 73 235 273 750 1950
2026-01-14 13:30 3.39 24 2960 (1950) 0 (1954) 267 0 3 13 18 73 235 273 750 1950
2026-01-14 12:30 3.39 24 2960 (1950) 0 (1954) 267 0 3 13 18 73 235 273 750 1950
2026-01-14 11:30 3.40 25 2960 (1950) 0 (1954) 267 0 3 13 18 73 235 273 750 1950
2026-01-14 10:30 3.39 24 2960 (1950) 0 (1954) 267 0 3 13 18 73 235 273 750 1950
2026-01-14 09:30 3.39 24 2960 (1950) 0 (1954) 267 0 3 13 18 73 235 273 750 1950
2026-01-14 08:30 3.39 24 2960 (1950) 0 (1954) 267 0 3 13 18 73 235 273 750 1950
2026-01-14 07:30 3.40 25 2960 (1950) 0 (1954) 267 0 3 13 18 73 235 273 750 1950
2026-01-14 06:30 3.40 25 2960 (1950) 0 (1954) 267 0 3 13 18 73 235 273 750 1950
2026-01-14 05:30 3.40 25 2960 (1950) 0 (1954) 267 0 3 13 18 73 235 273 750 1950
2026-01-14 04:30 3.40 25 2960 (1950) 0 (1954) 267 0 3 13 18 73 235 273 750 1950
2026-01-14 03:30 3.41 26 2960 (1950) 0 (1954) 267 0 3 13 18 73 235 273 750 1950
2026-01-14 02:30 3.41 26 2960 (1950) 0 (1954) 267 0 3 13 18 73 235 273 750 1950
2026-01-14 01:30 3.41 26 2960 (1950) 0 (1954) 267 0 3 13 18 73 235 273 750 1950
2026-01-14 00:30 3.42 26 2960 (1950) 0 (1954) 267 0 3 13 18 73 235 273 750 1950
2026-01-13 23:30 3.42 26 2960 (1950) 0 (1954) 267 0 3 13 18 73 235 273 750 1950
2026-01-13 22:30 3.42 26 4130 (2005) 0 (1954) 266 0 4 14 15 86 211 255 489 1520
2026-01-13 21:30 3.43 27 4130 (2005) 0 (1954) 266 0 4 14 15 86 211 255 489 1520
2026-01-13 20:30 3.43 27 4130 (2005) 0 (1954) 266 0 4 14 15 86 211 255 489 1520
2026-01-13 19:30 3.43 27 4130 (2005) 0 (1954) 266 0 4 14 15 86 211 255 489 1520
2026-01-13 18:30 3.44 28 4130 (2005) 0 (1954) 266 0 4 14 15 86 211 255 489 1520
2026-01-13 17:30 3.45 28 4130 (2005) 0 (1954) 266 0 4 14 15 86 211 255 489 1520
2026-01-13 16:30 3.45 28 4130 (2005) 0 (1954) 266 0 4 14 15 86 211 255 489 1520
2026-01-13 15:30 3.46 29 4130 (2005) 0 (1954) 266 0 4 14 15 86 211 255 489 1520
2026-01-13 14:30 3.47 30 4130 (2005) 0 (1954) 266 0 4 14 15 86 211 255 489 1520
2026-01-13 13:30 3.47 30 4130 (2005) 0 (1954) 266 0 4 14 15 86 211 255 489 1520
2026-01-13 12:30 3.48 31 4130 (2005) 0 (1954) 266 0 4 14 15 86 211 255 489 1520
2026-01-13 11:30 3.49 31 4130 (2005) 0 (1954) 266 0 4 14 15 86 211 255 489 1520
2026-01-13 10:30 3.50 32 4130 (2005) 0 (1954) 266 0 4 14 15 86 211 255 489 1520
2026-01-13 09:30 3.50 32 4130 (2005) 0 (1954) 266 0 4 14 15 86 211 255 489 1520
2026-01-13 08:30 3.50 32 4130 (2005) 0 (1954) 266 0 4 14 15 86 211 255 489 1520
2026-01-13 06:30 3.51 33 4130 (2005) 0 (1954) 266 0 4 14 15 86 211 255 489 1520
2026-01-13 05:30 3.52 34 4130 (2005) 0 (1954) 266 0 4 14 15 86 211 255 489 1520
2026-01-13 04:30 3.51 33 4130 (2005) 0 (1954) 266 0 4 14 15 86 211 255 489 1520
2026-01-13 03:30 3.51 33 4130 (2005) 0 (1954) 266 0 4 14 15 86 211 255 489 1520
2026-01-13 02:30 3.51 33 4130 (2005) 0 (1954) 266 0 4 14 15 86 211 255 489 1520
2026-01-13 01:30 3.51 33 4130 (2005) 0 (1954) 266 0 4 14 15 86 211 255 489 1520
2026-01-13 00:30 3.51 33 4130 (2005) 0 (1954) 266 0 4 14 15 86 211 255 489 1520
2026-01-12 23:30 3.51 33 4130 (2005) 0 (1954) 266 0 4 14 15 86 211 255 489 1520
2026-01-12 22:30 3.50 32 3890 (2020) 0 (1954) 215 1 4 13 15 92 199 243 516 884
2026-01-12 21:30 3.50 32 3890 (2020) 0 (1954) 215 1 4 13 15 92 199 243 516 884
2026-01-12 20:30 3.49 31 3890 (2020) 0 (1954) 215 1 4 13 15 92 199 243 516 884
2026-01-12 19:30 3.49 31 3890 (2020) 0 (1954) 215 1 4 13 15 92 199 243 516 884
2026-01-12 18:30 3.49 31 3890 (2020) 0 (1954) 215 1 4 13 15 92 199 243 516 884
2026-01-12 17:30 3.49 31 3890 (2020) 0 (1954) 215 1 4 13 15 92 199 243 516 884
2026-01-12 16:30 3.49 31 3890 (2020) 0 (1954) 215 1 4 13 15 92 199 243 516 884
2026-01-12 15:30 3.48 31 3890 (2020) 0 (1954) 215 1 4 13 15 92 199 243 516 884
2026-01-12 14:30 3.47 30 3890 (2020) 0 (1954) 215 1 4 13 15 92 199 243 516 884
2026-01-12 13:30 3.47 30 3890 (2020) 0 (1954) 215 1 4 13 15 92 199 243 516 884
2026-01-12 12:30 3.47 30 3890 (2020) 0 (1954) 215 1 4 13 15 92 199 243 516 884
2026-01-12 11:30 3.47 30 3890 (2020) 0 (1954) 215 1 4 13 15 92 199 243 516 884
2026-01-12 10:30 3.47 30 3890 (2020) 0 (1954) 215 1 4 13 15 92 199 243 516 884
2026-01-12 09:30 3.46 29 3890 (2020) 0 (1954) 215 1 4 13 15 92 199 243 516 884
2026-01-12 08:30 3.46 29 3890 (2020) 0 (1954) 215 1 4 13 15 92 199 243 516 884
2026-01-12 07:30 3.46 29 3890 (2020) 0 (1954) 215 1 4 13 15 92 199 243 516 884
2026-01-12 06:30 3.45 28 3890 (2020) 0 (1954) 215 1 4 13 15 92 199 243 516 884
2026-01-12 05:30 3.45 28 3890 (2020) 0 (1954) 215 1 4 13 15 92 199 243 516 884
2026-01-12 04:30 3.45 28 3890 (2020) 0 (1954) 215 1 4 13 15 92 199 243 516 884
2026-01-12 03:30 3.45 28 3890 (2020) 0 (1954) 215 1 4 13 15 92 199 243 516 884
2026-01-12 02:30 3.45 28 3890 (2020) 0 (1954) 215 1 4 13 15 92 199 243 516 884
2026-01-12 01:30 3.45 28 3890 (2020) 0 (1954) 215 1 4 13 15 92 199 243 516 884
2026-01-12 00:30 3.44 28 3890 (2020) 0 (1954) 215 1 4 13 15 92 199 243 516 884
2026-01-11 23:30 3.43 27 3890 (2020) 0 (1954) 215 1 4 13 15 92 199 243 516 884
2026-01-11 22:30 3.43 27 4890 (2020) 0 (1954) 242 0 4 13 16 92 210 226 607 948
2026-01-11 21:30 3.42 26 4890 (2020) 0 (1954) 242 0 4 13 16 92 210 226 607 948
2026-01-11 20:30 3.42 26 4890 (2020) 0 (1954) 242 0 4 13 16 92 210 226 607 948
2026-01-11 19:30 3.42 26 4890 (2020) 0 (1954) 242 0 4 13 16 92 210 226 607 948
2026-01-11 18:30 3.43 27 4890 (2020) 0 (1954) 242 0 4 13 16 92 210 226 607 948
2026-01-11 17:30 3.44 28 4890 (2020) 0 (1954) 242 0 4 13 16 92 210 226 607 948
2026-01-11 16:30 3.44 28 4890 (2020) 0 (1954) 242 0 4 13 16 92 210 226 607 948
2026-01-11 15:30 3.45 28 4890 (2020) 0 (1954) 242 0 4 13 16 92 210 226 607 948
2026-01-11 14:30 3.46 29 4890 (2020) 0 (1954) 242 0 4 13 16 92 210 226 607 948
2026-01-11 13:30 3.47 30 4890 (2020) 0 (1954) 242 0 4 13 16 92 210 226 607 948
2026-01-11 12:30 3.47 30 4890 (2020) 0 (1954) 242 0 4 13 16 92 210 226 607 948
2026-01-11 11:30 3.47 30 4890 (2020) 0 (1954) 242 0 4 13 16 92 210 226 607 948
2026-01-11 10:30 3.47 30 4890 (2020) 0 (1954) 242 0 4 13 16 92 210 226 607 948
2026-01-11 09:30 3.47 30 4890 (2020) 0 (1954) 242 0 4 13 16 92 210 226 607 948
2026-01-11 08:30 3.46 29 4890 (2020) 0 (1954) 242 0 4 13 16 92 210 226 607 948
2026-01-11 07:30 3.45 28 4890 (2020) 0 (1954) 242 0 4 13 16 92 210 226 607 948
2026-01-11 06:30 3.44 28 4890 (2020) 0 (1954) 242 0 4 13 16 92 210 226 607 948
2026-01-11 05:30 3.42 26 4890 (2020) 0 (1954) 242 0 4 13 16 92 210 226 607 948
2026-01-11 04:30 3.40 25 4890 (2020) 0 (1954) 242 0 4 13 16 92 210 226 607 948
2026-01-11 03:30 3.38 24 4890 (2020) 0 (1954) 242 0 4 13 16 92 210 226 607 948
2026-01-11 02:30 3.35 21 4890 (2020) 0 (1954) 242 0 4 13 16 92 210 226 607 948
2026-01-11 01:30 3.32 19 4890 (2020) 0 (1954) 242 0 4 13 16 92 210 226 607 948
2026-01-11 00:30 3.30 18 4890 (2020) 0 (1954) 242 0 4 13 16 92 210 226 607 948
2026-01-10 23:30 3.27 16 4890 (2020) 0 (1954) 242 0 4 13 16 92 210 226 607 948
2026-01-10 22:30 3.25 14 1260 (1984) 0 (1954) 173 0 4 12 16 81 198 238 476 963
2026-01-10 21:30 3.24 14 1260 (1984) 0 (1954) 173 0 4 12 16 81 198 238 476 963
2026-01-10 20:30 3.23 13 1260 (1984) 0 (1954) 173 0 4 12 16 81 198 238 476 963
2026-01-10 19:30 3.23 13 1260 (1984) 0 (1954) 173 0 4 12 16 81 198 238 476 963
2026-01-10 18:30 3.23 13 1260 (1984) 0 (1954) 173 0 4 12 16 81 198 238 476 963
2026-01-10 17:30 3.23 13 1260 (1984) 0 (1954) 173 0 4 12 16 81 198 238 476 963
2026-01-10 16:30 3.24 14 1260 (1984) 0 (1954) 173 0 4 12 16 81 198 238 476 963
2026-01-10 15:30 3.24 14 1260 (1984) 0 (1954) 173 0 4 12 16 81 198 238 476 963
2026-01-10 14:30 3.24 14 1260 (1984) 0 (1954) 173 0 4 12 16 81 198 238 476 963
2026-01-10 13:30 3.25 14 1260 (1984) 0 (1954) 173 0 4 12 16 81 198 238 476 963
2026-01-10 12:30 3.25 14 1260 (1984) 0 (1954) 173 0 4 12 16 81 198 238 476 963
2026-01-10 11:30 3.25 14 1260 (1984) 0 (1954) 173 0 4 12 16 81 198 238 476 963
2026-01-10 10:30 3.26 15 1260 (1984) 0 (1954) 173 0 4 12 16 81 198 238 476 963
2026-01-10 09:30 3.26 15 1260 (1984) 0 (1954) 173 0 4 12 16 81 198 238 476 963
2026-01-10 08:30 3.27 16 1260 (1984) 0 (1954) 173 0 4 12 16 81 198 238 476 963
2026-01-10 07:30 3.27 16 1260 (1984) 0 (1954) 173 0 4 12 16 81 198 238 476 963
2026-01-10 06:30 3.28 16 1260 (1984) 0 (1954) 173 0 4 12 16 81 198 238 476 963
2026-01-10 05:30 3.28 16 1260 (1984) 0 (1954) 173 0 4 12 16 81 198 238 476 963
2026-01-10 04:30 3.29 17 1260 (1984) 0 (1954) 173 0 4 12 16 81 198 238 476 963
2026-01-10 03:30 3.30 18 1260 (1984) 0 (1954) 173 0 4 12 16 81 198 238 476 963
2026-01-10 02:30 3.30 18 1260 (1984) 0 (1954) 173 0 4 12 16 81 198 238 476 963
2026-01-10 01:30 3.31 18 1260 (1984) 0 (1954) 173 0 4 12 16 81 198 238 476 963
2026-01-10 00:30 3.31 18 1260 (1984) 0 (1954) 173 0 4 12 16 81 198 238 476 963
2026-01-09 23:30 3.32 19 1260 (1984) 0 (1954) 173 0 4 12 16 81 198 238 476 963
2026-01-09 22:30 3.33 20 2130 (1998) 0 (1954) 181 0 4 11 16 68 203 254 388 914
2026-01-09 21:30 3.34 21 2130 (1998) 0 (1954) 181 0 4 11 16 68 203 254 388 914
2026-01-09 20:30 3.35 21 2130 (1998) 0 (1954) 181 0 4 11 16 68 203 254 388 914
2026-01-09 19:30 3.36 22 2130 (1998) 0 (1954) 181 0 4 11 16 68 203 254 388 914
2026-01-09 18:30 3.37 23 2130 (1998) 0 (1954) 181 0 4 11 16 68 203 254 388 914
2026-01-09 17:30 3.38 24 2130 (1998) 0 (1954) 181 0 4 11 16 68 203 254 388 914
2026-01-09 16:30 3.39 24 2130 (1998) 0 (1954) 181 0 4 11 16 68 203 254 388 914
2026-01-09 15:30 3.40 25 2130 (1998) 0 (1954) 181 0 4 11 16 68 203 254 388 914
2026-01-09 14:30 3.41 26 2130 (1998) 0 (1954) 181 0 4 11 16 68 203 254 388 914
2026-01-09 13:30 3.41 26 2130 (1998) 0 (1954) 181 0 4 11 16 68 203 254 388 914
2026-01-09 12:30 3.41 26 2130 (1998) 0 (1954) 181 0 4 11 16 68 203 254 388 914
2026-01-09 11:30 3.40 25 2130 (1998) 0 (1954) 181 0 4 11 16 68 203 254 388 914
2026-01-09 10:30 3.38 24 2130 (1998) 0 (1954) 181 0 4 11 16 68 203 254 388 914
2026-01-09 09:30 3.36 22 2130 (1998) 0 (1954) 181 0 4 11 16 68 203 254 388 914
2026-01-09 08:30 3.33 20 2130 (1998) 0 (1954) 181 0 4 11 16 68 203 254 388 914
2026-01-09 07:30 3.30 18 2130 (1998) 0 (1954) 181 0 4 11 16 68 203 254 388 914
2026-01-09 06:30 3.26 15 2130 (1998) 0 (1954) 181 0 4 11 16 68 203 254 388 914
2026-01-09 05:30 3.23 13 2130 (1998) 0 (1954) 181 0 4 11 16 68 203 254 388 914
2026-01-09 04:30 3.21 12 2130 (1998) 0 (1954) 181 0 4 11 16 68 203 254 388 914
2026-01-09 03:30 3.21 12 2130 (1998) 0 (1954) 181 0 4 11 16 68 203 254 388 914
2026-01-09 02:30 3.21 12 2130 (1998) 0 (1954) 181 0 4 11 16 68 203 254 388 914
2026-01-09 01:30 3.21 12 2130 (1998) 0 (1954) 181 0 4 11 16 68 203 254 388 914
2026-01-09 00:30 3.21 12 2130 (1998) 0 (1954) 181 0 4 11 16 68 203 254 388 914
2026-01-08 23:30 3.21 12 2130 (1998) 0 (1954) 181 0 4 11 16 68 203 254 388 914
2026-01-08 22:30 3.21 12 1720 (2021) 0 (1954) 185 0 4 11 16 68 217 249 445 879
2026-01-08 21:30 3.20 12 1720 (2021) 0 (1954) 185 0 4 11 16 68 217 249 445 879
2026-01-08 20:30 3.20 12 1720 (2021) 0 (1954) 185 0 4 11 16 68 217 249 445 879
2026-01-08 19:30 3.20 12 1720 (2021) 0 (1954) 185 0 4 11 16 68 217 249 445 879
2026-01-08 18:30 3.19 11 1720 (2021) 0 (1954) 185 0 4 11 16 68 217 249 445 879
2026-01-08 17:30 3.19 11 1720 (2021) 0 (1954) 185 0 4 11 16 68 217 249 445 879
2026-01-08 16:30 3.19 11 1720 (2021) 0 (1954) 185 0 4 11 16 68 217 249 445 879
2026-01-08 15:30 3.18 11 1720 (2021) 0 (1954) 185 0 4 11 16 68 217 249 445 879
2026-01-08 14:30 3.19 11 1720 (2021) 0 (1954) 185 0 4 11 16 68 217 249 445 879
2026-01-08 13:30 3.18 11 1720 (2021) 0 (1954) 185 0 4 11 16 68 217 249 445 879
2026-01-08 12:30 3.17 10 1720 (2021) 0 (1954) 185 0 4 11 16 68 217 249 445 879
2026-01-08 11:30 3.13 8 1720 (2021) 0 (1954) 185 0 4 11 16 68 217 249 445 879
2026-01-08 10:30 3.10 7 1720 (2021) 0 (1954) 185 0 4 11 16 68 217 249 445 879
2026-01-08 09:30 3.10 7 1720 (2021) 0 (1954) 185 0 4 11 16 68 217 249 445 879
2026-01-08 08:30 3.10 7 1720 (2021) 0 (1954) 185 0 4 11 16 68 217 249 445 879
2026-01-08 07:30 3.10 7 1720 (2021) 0 (1954) 185 0 4 11 16 68 217 249 445 879
2026-01-08 06:30 3.09 7 1720 (2021) 0 (1954) 185 0 4 11 16 68 217 249 445 879
2026-01-08 05:30 3.09 7 1720 (2021) 0 (1954) 185 0 4 11 16 68 217 249 445 879
2026-01-08 04:30 3.09 7 1720 (2021) 0 (1954) 185 0 4 11 16 68 217 249 445 879
2026-01-08 03:30 3.09 7 1720 (2021) 0 (1954) 185 0 4 11 16 68 217 249 445 879
2026-01-08 02:30 3.09 7 1720 (2021) 0 (1954) 185 0 4 11 16 68 217 249 445 879
2026-01-08 01:30 3.08 7 1720 (2021) 0 (1954) 185 0 4 11 16 68 217 249 445 879
2026-01-08 00:30 3.08 7 1720 (2021) 0 (1954) 185 0 4 11 16 68 217 249 445 879
2026-01-07 23:30 3.08 7 1720 (2021) 0 (1954) 185 0 4 11 16 68 217 249 445 879
2026-01-07 22:30 3.08 7 6560 (2005) 0 (1954) 252 0 4 10 13 68 241 302 481 675
2026-01-07 21:30 3.08 7 6560 (2005) 0 (1954) 252 0 4 10 13 68 241 302 481 675
2026-01-07 20:30 3.08 7 6560 (2005) 0 (1954) 252 0 4 10 13 68 241 302 481 675
2026-01-07 19:30 3.08 7 6560 (2005) 0 (1954) 252 0 4 10 13 68 241 302 481 675
2026-01-07 18:30 3.08 7 6560 (2005) 0 (1954) 252 0 4 10 13 68 241 302 481 675
2026-01-07 17:30 3.08 7 6560 (2005) 0 (1954) 252 0 4 10 13 68 241 302 481 675
2026-01-07 16:30 3.08 7 6560 (2005) 0 (1954) 252 0 4 10 13 68 241 302 481 675
2026-01-07 15:30 3.07 6 6560 (2005) 0 (1954) 252 0 4 10 13 68 241 302 481 675
2026-01-07 14:30 3.08 7 6560 (2005) 0 (1954) 252 0 4 10 13 68 241 302 481 675
2026-01-07 13:30 3.07 6 6560 (2005) 0 (1954) 252 0 4 10 13 68 241 302 481 675
2026-01-07 12:30 3.07 6 6560 (2005) 0 (1954) 252 0 4 10 13 68 241 302 481 675
2026-01-07 11:30 3.08 7 6560 (2005) 0 (1954) 252 0 4 10 13 68 241 302 481 675
2026-01-07 10:30 3.08 7 6560 (2005) 0 (1954) 252 0 4 10 13 68 241 302 481 675
2026-01-07 09:30 3.08 7 6560 (2005) 0 (1954) 252 0 4 10 13 68 241 302 481 675
2026-01-07 08:30 3.08 7 6560 (2005) 0 (1954) 252 0 4 10 13 68 241 302 481 675
2026-01-07 07:30 3.08 7 6560 (2005) 0 (1954) 252 0 4 10 13 68 241 302 481 675
2026-01-07 06:30 3.07 6 6560 (2005) 0 (1954) 252 0 4 10 13 68 241 302 481 675
2026-01-07 05:30 3.07 6 6560 (2005) 0 (1954) 252 0 4 10 13 68 241 302 481 675
2026-01-07 04:30 3.07 6 6560 (2005) 0 (1954) 252 0 4 10 13 68 241 302 481 675
2026-01-07 03:30 3.07 6 6560 (2005) 0 (1954) 252 0 4 10 13 68 241 302 481 675
2026-01-07 02:30 3.07 6 6560 (2005) 0 (1954) 252 0 4 10 13 68 241 302 481 675
2026-01-07 01:30 3.07 6 6560 (2005) 0 (1954) 252 0 4 10 13 68 241 302 481 675
2026-01-07 00:30 3.07 6 6560 (2005) 0 (1954) 252 0 4 10 13 68 241 302 481 675
2026-01-06 23:30 3.07 6 6560 (2005) 0 (1954) 252 0 4 10 13 68 241 302 481 675
2026-01-06 22:30 3.07 6 9520 (2005) 0 (1954) 298 0 4 11 14 71 242 286 525 781
2026-01-06 21:30 3.07 6 9520 (2005) 0 (1954) 298 0 4 11 14 71 242 286 525 781
2026-01-06 20:30 3.07 6 9520 (2005) 0 (1954) 298 0 4 11 14 71 242 286 525 781
2026-01-06 19:30 3.07 6 9520 (2005) 0 (1954) 298 0 4 11 14 71 242 286 525 781
2026-01-06 18:30 3.06 6 9520 (2005) 0 (1954) 298 0 4 11 14 71 242 286 525 781
2026-01-06 17:30 3.07 6 9520 (2005) 0 (1954) 298 0 4 11 14 71 242 286 525 781
2026-01-06 16:30 3.07 6 9520 (2005) 0 (1954) 298 0 4 11 14 71 242 286 525 781
2026-01-06 15:30 3.06 6 9520 (2005) 0 (1954) 298 0 4 11 14 71 242 286 525 781
2026-01-06 14:30 3.07 6 9520 (2005) 0 (1954) 298 0 4 11 14 71 242 286 525 781
2026-01-06 13:30 3.06 6 9520 (2005) 0 (1954) 298 0 4 11 14 71 242 286 525 781
2026-01-06 12:30 3.06 6 9520 (2005) 0 (1954) 298 0 4 11 14 71 242 286 525 781
2026-01-06 11:30 3.06 6 9520 (2005) 0 (1954) 298 0 4 11 14 71 242 286 525 781
2026-01-06 10:30 3.06 6 9520 (2005) 0 (1954) 298 0 4 11 14 71 242 286 525 781
2026-01-06 09:30 3.06 6 9520 (2005) 0 (1954) 298 0 4 11 14 71 242 286 525 781
2026-01-06 08:30 3.06 6 9520 (2005) 0 (1954) 298 0 4 11 14 71 242 286 525 781
2026-01-06 07:30 3.06 6 9520 (2005) 0 (1954) 298 0 4 11 14 71 242 286 525 781
2026-01-06 06:30 3.06 6 9520 (2005) 0 (1954) 298 0 4 11 14 71 242 286 525 781
2026-01-06 05:30 3.06 6 9520 (2005) 0 (1954) 298 0 4 11 14 71 242 286 525 781
2026-01-06 04:30 3.06 6 9520 (2005) 0 (1954) 298 0 4 11 14 71 242 286 525 781
2026-01-06 03:30 3.06 6 9520 (2005) 0 (1954) 298 0 4 11 14 71 242 286 525 781
2026-01-06 02:30 3.06 6 9520 (2005) 0 (1954) 298 0 4 11 14 71 242 286 525 781
2026-01-06 01:30 3.06 6 9520 (2005) 0 (1954) 298 0 4 11 14 71 242 286 525 781
2026-01-06 00:30 3.05 6 9520 (2005) 0 (1954) 298 0 4 11 14 71 242 286 525 781
2026-01-05 23:30 3.06 6 9520 (2005) 0 (1954) 298 0 4 11 14 71 242 286 525 781
2026-01-05 22:30 3.06 6 3120 (2005) 0 (1954) 267 0 4 13 15 76 259 310 808 1470
2026-01-05 21:30 3.06 6 3120 (2005) 0 (1954) 267 0 4 13 15 76 259 310 808 1470
2026-01-05 20:30 3.06 6 3120 (2005) 0 (1954) 267 0 4 13 15 76 259 310 808 1470
2026-01-05 19:30 3.05 6 3120 (2005) 0 (1954) 267 0 4 13 15 76 259 310 808 1470
2026-01-05 18:30 3.05 6 3120 (2005) 0 (1954) 267 0 4 13 15 76 259 310 808 1470
2026-01-05 17:30 3.06 6 3120 (2005) 0 (1954) 267 0 4 13 15 76 259 310 808 1470
2026-01-05 16:30 3.05 6 3120 (2005) 0 (1954) 267 0 4 13 15 76 259 310 808 1470
2026-01-05 15:30 3.05 6 3120 (2005) 0 (1954) 267 0 4 13 15 76 259 310 808 1470
2026-01-05 14:30 3.05 6 3120 (2005) 0 (1954) 267 0 4 13 15 76 259 310 808 1470
2026-01-05 13:30 3.05 6 3120 (2005) 0 (1954) 267 0 4 13 15 76 259 310 808 1470
2026-01-05 12:30 3.05 6 3120 (2005) 0 (1954) 267 0 4 13 15 76 259 310 808 1470
2026-01-05 11:30 3.05 6 3120 (2005) 0 (1954) 267 0 4 13 15 76 259 310 808 1470
2026-01-05 10:30 3.05 6 3120 (2005) 0 (1954) 267 0 4 13 15 76 259 310 808 1470
2026-01-05 09:30 3.05 6 3120 (2005) 0 (1954) 267 0 4 13 15 76 259 310 808 1470
2026-01-05 08:30 3.05 6 3120 (2005) 0 (1954) 267 0 4 13 15 76 259 310 808 1470
2026-01-05 07:30 3.05 6 3120 (2005) 0 (1954) 267 0 4 13 15 76 259 310 808 1470
2026-01-05 06:30 3.05 6 3120 (2005) 0 (1954) 267 0 4 13 15 76 259 310 808 1470
2026-01-05 05:30 3.05 6 3120 (2005) 0 (1954) 267 0 4 13 15 76 259 310 808 1470
2026-01-05 04:30 3.05 6 3120 (2005) 0 (1954) 267 0 4 13 15 76 259 310 808 1470
2026-01-05 03:30 3.05 6 3120 (2005) 0 (1954) 267 0 4 13 15 76 259 310 808 1470
2026-01-05 02:30 3.05 6 3120 (2005) 0 (1954) 267 0 4 13 15 76 259 310 808 1470
2026-01-05 01:30 3.05 6 3120 (2005) 0 (1954) 267 0 4 13 15 76 259 310 808 1470
2026-01-05 00:30 3.05 6 3120 (2005) 0 (1954) 267 0 4 13 15 76 259 310 808 1470
2026-01-04 23:30 3.05 6 3120 (2005) 0 (1954) 267 0 4 13 15 76 259 310 808 1470
2026-01-04 22:30 3.05 6 4690 (1971) 0 (1954) 300 0 4 13 16 75 282 364 648 1190
2026-01-04 21:30 3.05 6 4690 (1971) 0 (1954) 300 0 4 13 16 75 282 364 648 1190
2026-01-04 20:30 3.05 6 4690 (1971) 0 (1954) 300 0 4 13 16 75 282 364 648 1190
2026-01-04 19:30 3.05 6 4690 (1971) 0 (1954) 300 0 4 13 16 75 282 364 648 1190
2026-01-04 18:30 3.05 6 4690 (1971) 0 (1954) 300 0 4 13 16 75 282 364 648 1190
2026-01-04 17:30 3.05 6 4690 (1971) 0 (1954) 300 0 4 13 16 75 282 364 648 1190
2026-01-04 16:30 3.05 6 4690 (1971) 0 (1954) 300 0 4 13 16 75 282 364 648 1190
2026-01-04 15:30 3.05 6 4690 (1971) 0 (1954) 300 0 4 13 16 75 282 364 648 1190
2026-01-04 14:30 3.05 6 4690 (1971) 0 (1954) 300 0 4 13 16 75 282 364 648 1190
2026-01-04 13:30 3.05 6 4690 (1971) 0 (1954) 300 0 4 13 16 75 282 364 648 1190
2026-01-04 12:30 3.05 6 4690 (1971) 0 (1954) 300 0 4 13 16 75 282 364 648 1190
2026-01-04 11:30 3.05 6 4690 (1971) 0 (1954) 300 0 4 13 16 75 282 364 648 1190
2026-01-04 10:30 3.05 6 4690 (1971) 0 (1954) 300 0 4 13 16 75 282 364 648 1190
2026-01-04 09:30 3.05 6 4690 (1971) 0 (1954) 300 0 4 13 16 75 282 364 648 1190
2026-01-04 08:30 3.05 6 4690 (1971) 0 (1954) 300 0 4 13 16 75 282 364 648 1190
2026-01-04 07:30 3.05 6 4690 (1971) 0 (1954) 300 0 4 13 16 75 282 364 648 1190
2026-01-04 06:30 3.05 6 4690 (1971) 0 (1954) 300 0 4 13 16 75 282 364 648 1190
2026-01-04 05:30 3.05 6 4690 (1971) 0 (1954) 300 0 4 13 16 75 282 364 648 1190
2026-01-04 04:30 3.05 6 4690 (1971) 0 (1954) 300 0 4 13 16 75 282 364 648 1190
2026-01-04 03:30 3.05 6 4690 (1971) 0 (1954) 300 0 4 13 16 75 282 364 648 1190
2026-01-04 02:30 3.05 6 4690 (1971) 0 (1954) 300 0 4 13 16 75 282 364 648 1190
2026-01-04 01:30 3.06 6 4690 (1971) 0 (1954) 300 0 4 13 16 75 282 364 648 1190
2026-01-04 00:30 3.05 6 4690 (1971) 0 (1954) 300 0 4 13 16 75 282 364 648 1190
2026-01-03 23:30 3.06 6 4690 (1971) 0 (1954) 300 0 4 13 16 75 282 364 648 1190
2026-01-03 22:30 3.06 6 5000 (1985) 0 (1954) 254 0 4 13 15 77 254 306 595 996
2026-01-03 21:30 3.06 6 5000 (1985) 0 (1954) 254 0 4 13 15 77 254 306 595 996
2026-01-03 20:30 3.06 6 5000 (1985) 0 (1954) 254 0 4 13 15 77 254 306 595 996
2026-01-03 19:30 3.06 6 5000 (1985) 0 (1954) 254 0 4 13 15 77 254 306 595 996
2026-01-03 18:30 3.06 6 5000 (1985) 0 (1954) 254 0 4 13 15 77 254 306 595 996
2026-01-03 17:30 3.06 6 5000 (1985) 0 (1954) 254 0 4 13 15 77 254 306 595 996
2026-01-03 16:30 3.06 6 5000 (1985) 0 (1954) 254 0 4 13 15 77 254 306 595 996
2026-01-03 15:30 3.06 6 5000 (1985) 0 (1954) 254 0 4 13 15 77 254 306 595 996
2026-01-03 14:30 3.06 6 5000 (1985) 0 (1954) 254 0 4 13 15 77 254 306 595 996
2026-01-03 13:30 3.06 6 5000 (1985) 0 (1954) 254 0 4 13 15 77 254 306 595 996
2026-01-03 12:30 3.06 6 5000 (1985) 0 (1954) 254 0 4 13 15 77 254 306 595 996
2026-01-03 11:30 3.06 6 5000 (1985) 0 (1954) 254 0 4 13 15 77 254 306 595 996
2026-01-03 10:30 3.06 6 5000 (1985) 0 (1954) 254 0 4 13 15 77 254 306 595 996
2026-01-03 09:30 3.06 6 5000 (1985) 0 (1954) 254 0 4 13 15 77 254 306 595 996
2026-01-03 08:30 3.06 6 5000 (1985) 0 (1954) 254 0 4 13 15 77 254 306 595 996
2026-01-03 07:30 3.06 6 5000 (1985) 0 (1954) 254 0 4 13 15 77 254 306 595 996
2026-01-03 06:30 3.06 6 5000 (1985) 0 (1954) 254 0 4 13 15 77 254 306 595 996
2026-01-03 05:30 3.07 6 5000 (1985) 0 (1954) 254 0 4 13 15 77 254 306 595 996
2026-01-03 04:30 3.07 6 5000 (1985) 0 (1954) 254 0 4 13 15 77 254 306 595 996
2026-01-03 03:30 3.07 6 5000 (1985) 0 (1954) 254 0 4 13 15 77 254 306 595 996
2026-01-03 02:30 3.06 6 5000 (1985) 0 (1954) 254 0 4 13 15 77 254 306 595 996
2026-01-03 01:30 3.06 6 5000 (1985) 0 (1954) 254 0 4 13 15 77 254 306 595 996
2026-01-03 00:30 3.07 6 5000 (1985) 0 (1954) 254 0 4 13 15 77 254 306 595 996
2026-01-02 23:30 3.07 6 5000 (1985) 0 (1954) 254 0 4 13 15 77 254 306 595 996
2026-01-02 22:30 3.07 6 7520 (1985) 0 (1954) 299 0 4 13 16 79 285 326 551 926
2026-01-02 21:30 3.07 6 7520 (1985) 0 (1954) 299 0 4 13 16 79 285 326 551 926
2026-01-02 20:30 3.07 6 7520 (1985) 0 (1954) 299 0 4 13 16 79 285 326 551 926
2026-01-02 19:30 3.07 6 7520 (1985) 0 (1954) 299 0 4 13 16 79 285 326 551 926
2026-01-02 18:30 3.07 6 7520 (1985) 0 (1954) 299 0 4 13 16 79 285 326 551 926
2026-01-02 17:30 3.07 6 7520 (1985) 0 (1954) 299 0 4 13 16 79 285 326 551 926
2026-01-02 16:30 3.07 6 7520 (1985) 0 (1954) 299 0 4 13 16 79 285 326 551 926
2026-01-02 15:30 3.07 6 7520 (1985) 0 (1954) 299 0 4 13 16 79 285 326 551 926
2026-01-02 14:30 3.08 7 7520 (1985) 0 (1954) 299 0 4 13 16 79 285 326 551 926
2026-01-02 13:30 3.08 7 7520 (1985) 0 (1954) 299 0 4 13 16 79 285 326 551 926
2026-01-02 12:30 3.08 7 7520 (1985) 0 (1954) 299 0 4 13 16 79 285 326 551 926
2026-01-02 11:30 3.08 7 7520 (1985) 0 (1954) 299 0 4 13 16 79 285 326 551 926
2026-01-02 10:30 3.08 7 7520 (1985) 0 (1954) 299 0 4 13 16 79 285 326 551 926
2026-01-02 09:30 3.09 7 7520 (1985) 0 (1954) 299 0 4 13 16 79 285 326 551 926
2026-01-02 08:30 3.08 7 7520 (1985) 0 (1954) 299 0 4 13 16 79 285 326 551 926
2026-01-02 07:30 3.09 7 7520 (1985) 0 (1954) 299 0 4 13 16 79 285 326 551 926
2026-01-02 06:30 3.08 7 7520 (1985) 0 (1954) 299 0 4 13 16 79 285 326 551 926
2026-01-02 05:30 3.09 7 7520 (1985) 0 (1954) 299 0 4 13 16 79 285 326 551 926
2026-01-02 04:30 3.09 7 7520 (1985) 0 (1954) 299 0 4 13 16 79 285 326 551 926
2026-01-02 03:30 3.09 7 7520 (1985) 0 (1954) 299 0 4 13 16 79 285 326 551 926
2026-01-02 02:30 3.09 7 7520 (1985) 0 (1954) 299 0 4 13 16 79 285 326 551 926
2026-01-02 01:30 3.10 7 7520 (1985) 0 (1954) 299 0 4 13 16 79 285 326 551 926
2026-01-02 00:30 3.10 7 7520 (1985) 0 (1954) 299 0 4 13 16 79 285 326 551 926
2026-01-01 23:30 3.10 7 7520 (1985) 0 (1954) 299 0 4 13 16 79 285 326 551 926
2026-01-01 22:30 3.10 7 9140 (1985) 0 (1954) 323 0 4 14 18 84 278 336 609 874
2026-01-01 21:30 3.10 7 9140 (1985) 0 (1954) 323 0 4 14 18 84 278 336 609 874
2026-01-01 20:30 3.10 7 9140 (1985) 0 (1954) 323 0 4 14 18 84 278 336 609 874
2026-01-01 19:30 3.10 7 9140 (1985) 0 (1954) 323 0 4 14 18 84 278 336 609 874
2026-01-01 18:30 3.10 7 9140 (1985) 0 (1954) 323 0 4 14 18 84 278 336 609 874
2026-01-01 17:30 3.10 7 9140 (1985) 0 (1954) 323 0 4 14 18 84 278 336 609 874
2026-01-01 16:30 3.10 7 9140 (1985) 0 (1954) 323 0 4 14 18 84 278 336 609 874
2026-01-01 15:30 3.10 7 9140 (1985) 0 (1954) 323 0 4 14 18 84 278 336 609 874
2026-01-01 14:30 3.10 7 9140 (1985) 0 (1954) 323 0 4 14 18 84 278 336 609 874
2026-01-01 13:30 3.10 7 9140 (1985) 0 (1954) 323 0 4 14 18 84 278 336 609 874
2026-01-01 12:30 3.10 7 9140 (1985) 0 (1954) 323 0 4 14 18 84 278 336 609 874
2026-01-01 11:30 3.10 7 9140 (1985) 0 (1954) 323 0 4 14 18 84 278 336 609 874
2026-01-01 10:30 3.10 7 9140 (1985) 0 (1954) 323 0 4 14 18 84 278 336 609 874
2026-01-01 09:30 3.10 7 9140 (1985) 0 (1954) 323 0 4 14 18 84 278 336 609 874
2026-01-01 08:30 3.10 7 9140 (1985) 0 (1954) 323 0 4 14 18 84 278 336 609 874
2026-01-01 07:30 3.10 7 9140 (1985) 0 (1954) 323 0 4 14 18 84 278 336 609 874
2026-01-01 06:30 3.10 7 9140 (1985) 0 (1954) 323 0 4 14 18 84 278 336 609 874
2026-01-01 05:30 3.10 7 9140 (1985) 0 (1954) 323 0 4 14 18 84 278 336 609 874
2026-01-01 04:30 3.10 7 9140 (1985) 0 (1954) 323 0 4 14 18 84 278 336 609 874
2026-01-01 03:30 3.10 7 9140 (1985) 0 (1954) 323 0 4 14 18 84 278 336 609 874
2026-01-01 02:30 3.10 7 9140 (1985) 0 (1954) 323 0 4 14 18 84 278 336 609 874
2026-01-01 01:30 3.10 7 9140 (1985) 0 (1954) 323 0 4 14 18 84 278 336 609 874
2026-01-01 00:30 3.10 7 9140 (1985) 0 (1954) 323 0 4 14 18 84 278 336 609 874
2025-12-31 23:30 3.10 7 9140 (1985) 0 (1954) 323 0 4 14 18 84 278 336 609 874
2025-12-31 22:30 3.10 7 2340 (1985) 0 (1954) 224 0 4 14 19 76 227 314 644 1160
2025-12-31 21:30 3.10 7 2340 (1985) 0 (1954) 224 0 4 14 19 76 227 314 644 1160
2025-12-31 20:30 3.10 7 2340 (1985) 0 (1954) 224 0 4 14 19 76 227 314 644 1160
2025-12-31 19:30 3.10 7 2340 (1985) 0 (1954) 224 0 4 14 19 76 227 314 644 1160
2025-12-31 18:30 3.10 7 2340 (1985) 0 (1954) 224 0 4 14 19 76 227 314 644 1160
2025-12-31 17:30 3.10 7 2340 (1985) 0 (1954) 224 0 4 14 19 76 227 314 644 1160
2025-12-31 16:30 3.10 7 2340 (1985) 0 (1954) 224 0 4 14 19 76 227 314 644 1160
2025-12-31 15:30 3.10 7 2340 (1985) 0 (1954) 224 0 4 14 19 76 227 314 644 1160
2025-12-31 14:30 3.10 7 2340 (1985) 0 (1954) 224 0 4 14 19 76 227 314 644 1160
2025-12-31 13:30 3.10 7 2340 (1985) 0 (1954) 224 0 4 14 19 76 227 314 644 1160
2025-12-31 12:30 3.10 7 2340 (1985) 0 (1954) 224 0 4 14 19 76 227 314 644 1160
2025-12-31 11:30 3.10 7 2340 (1985) 0 (1954) 224 0 4 14 19 76 227 314 644 1160
2025-12-31 10:30 3.10 7 2340 (1985) 0 (1954) 224 0 4 14 19 76 227 314 644 1160
2025-12-31 09:30 3.10 7 2340 (1985) 0 (1954) 224 0 4 14 19 76 227 314 644 1160
2025-12-31 08:30 3.10 7 2340 (1985) 0 (1954) 224 0 4 14 19 76 227 314 644 1160
2025-12-31 07:30 3.10 7 2340 (1985) 0 (1954) 224 0 4 14 19 76 227 314 644 1160
2025-12-31 06:30 3.10 7 2340 (1985) 0 (1954) 224 0 4 14 19 76 227 314 644 1160
2025-12-31 05:30 3.10 7 2340 (1985) 0 (1954) 224 0 4 14 19 76 227 314 644 1160
2025-12-31 04:30 3.10 7 2340 (1985) 0 (1954) 224 0 4 14 19 76 227 314 644 1160
2025-12-31 03:30 3.10 7 2340 (1985) 0 (1954) 224 0 4 14 19 76 227 314 644 1160
2025-12-31 02:30 3.10 7 2340 (1985) 0 (1954) 224 0 4 14 19 76 227 314 644 1160
2025-12-31 01:30 3.10 7 2340 (1985) 0 (1954) 224 0 4 14 19 76 227 314 644 1160
2025-12-31 00:30 3.10 7 2340 (1985) 0 (1954) 224 0 4 14 19 76 227 314 644 1160
2025-12-30 23:30 3.10 7 2340 (1985) 0 (1954) 224 0 4 14 19 76 227 314 644 1160
2025-12-30 22:30 3.10 7 6610 (2016) 0 (1954) 310 0 4 15 19 81 232 346 737 1710
2025-12-30 21:30 3.10 7 6610 (2016) 0 (1954) 310 0 4 15 19 81 232 346 737 1710
2025-12-30 20:30 3.10 7 6610 (2016) 0 (1954) 310 0 4 15 19 81 232 346 737 1710
2025-12-30 19:30 3.10 7 6610 (2016) 0 (1954) 310 0 4 15 19 81 232 346 737 1710
2025-12-30 18:30 3.10 7 6610 (2016) 0 (1954) 310 0 4 15 19 81 232 346 737 1710
2025-12-30 17:30 3.10 7 6610 (2016) 0 (1954) 310 0 4 15 19 81 232 346 737 1710
2025-12-30 16:30 3.10 7 6610 (2016) 0 (1954) 310 0 4 15 19 81 232 346 737 1710
2025-12-30 15:30 3.10 7 6610 (2016) 0 (1954) 310 0 4 15 19 81 232 346 737 1710
2025-12-30 14:30 3.10 7 6610 (2016) 0 (1954) 310 0 4 15 19 81 232 346 737 1710
2025-12-30 13:30 3.10 7 6610 (2016) 0 (1954) 310 0 4 15 19 81 232 346 737 1710
2025-12-30 12:30 3.10 7 6610 (2016) 0 (1954) 310 0 4 15 19 81 232 346 737 1710
2025-12-30 11:30 3.10 7 6610 (2016) 0 (1954) 310 0 4 15 19 81 232 346 737 1710
2025-12-30 10:30 3.10 7 6610 (2016) 0 (1954) 310 0 4 15 19 81 232 346 737 1710
2025-12-30 09:30 3.10 7 6610 (2016) 0 (1954) 310 0 4 15 19 81 232 346 737 1710
2025-12-30 08:30 3.10 7 6610 (2016) 0 (1954) 310 0 4 15 19 81 232 346 737 1710
2025-12-30 07:30 3.10 7 6610 (2016) 0 (1954) 310 0 4 15 19 81 232 346 737 1710
2025-12-30 06:30 3.10 7 6610 (2016) 0 (1954) 310 0 4 15 19 81 232 346 737 1710
2025-12-30 05:30 3.10 7 6610 (2016) 0 (1954) 310 0 4 15 19 81 232 346 737 1710
2025-12-30 04:30 3.10 7 6610 (2016) 0 (1954) 310 0 4 15 19 81 232 346 737 1710
2025-12-30 03:30 3.10 7 6610 (2016) 0 (1954) 310 0 4 15 19 81 232 346 737 1710
2025-12-30 02:30 3.10 7 6610 (2016) 0 (1954) 310 0 4 15 19 81 232 346 737 1710
2025-12-30 01:30 3.10 7 6610 (2016) 0 (1954) 310 0 4 15 19 81 232 346 737 1710
2025-12-30 00:30 3.10 7 6610 (2016) 0 (1954) 310 0 4 15 19 81 232 346 737 1710
2025-12-29 23:30 3.10 7 6610 (2016) 0 (1954) 310 0 4 15 19 81 232 346 737 1710
2025-12-29 22:30 3.10 7 12700 (2016) 0 (1954) 424 0 4 16 19 81 233 345 943 1730
2025-12-29 21:30 3.10 7 12700 (2016) 0 (1954) 424 0 4 16 19 81 233 345 943 1730
2025-12-29 20:30 3.10 7 12700 (2016) 0 (1954) 424 0 4 16 19 81 233 345 943 1730
2025-12-29 19:30 3.10 7 12700 (2016) 0 (1954) 424 0 4 16 19 81 233 345 943 1730
2025-12-29 18:30 3.10 7 12700 (2016) 0 (1954) 424 0 4 16 19 81 233 345 943 1730
2025-12-29 17:30 3.10 7 12700 (2016) 0 (1954) 424 0 4 16 19 81 233 345 943 1730
2025-12-29 16:30 3.10 7 12700 (2016) 0 (1954) 424 0 4 16 19 81 233 345 943 1730
2025-12-29 15:30 3.10 7 12700 (2016) 0 (1954) 424 0 4 16 19 81 233 345 943 1730
2025-12-29 14:30 3.09 7 12700 (2016) 0 (1954) 424 0 4 16 19 81 233 345 943 1730
2025-12-29 13:30 3.10 7 12700 (2016) 0 (1954) 424 0 4 16 19 81 233 345 943 1730
2025-12-29 12:30 3.10 7 12700 (2016) 0 (1954) 424 0 4 16 19 81 233 345 943 1730
2025-12-29 11:30 3.09 7 12700 (2016) 0 (1954) 424 0 4 16 19 81 233 345 943 1730
2025-12-29 10:30 3.09 7 12700 (2016) 0 (1954) 424 0 4 16 19 81 233 345 943 1730
2025-12-29 09:30 3.09 7 12700 (2016) 0 (1954) 424 0 4 16 19 81 233 345 943 1730
2025-12-29 08:30 3.09 7 12700 (2016) 0 (1954) 424 0 4 16 19 81 233 345 943 1730
2025-12-29 07:30 3.09 7 12700 (2016) 0 (1954) 424 0 4 16 19 81 233 345 943 1730
2025-12-29 06:30 3.09 7 12700 (2016) 0 (1954) 424 0 4 16 19 81 233 345 943 1730
2025-12-29 05:30 3.09 7 12700 (2016) 0 (1954) 424 0 4 16 19 81 233 345 943 1730
2025-12-29 04:30 3.08 7 12700 (2016) 0 (1954) 424 0 4 16 19 81 233 345 943 1730
2025-12-29 03:30 3.08 7 12700 (2016) 0 (1954) 424 0 4 16 19 81 233 345 943 1730
2025-12-29 02:30 3.09 7 12700 (2016) 0 (1954) 424 0 4 16 19 81 233 345 943 1730
2025-12-29 01:30 3.09 7 12700 (2016) 0 (1954) 424 0 4 16 19 81 233 345 943 1730
2025-12-29 00:30 3.09 7 12700 (2016) 0 (1954) 424 0 4 16 19 81 233 345 943 1730
2025-12-28 23:30 3.09 7 12700 (2016) 0 (1954) 424 0 4 16 19 81 233 345 943 1730
2025-12-28 22:30 3.09 7 28300 (2016) 0 (1954) 675 0 4 14 19 89 225 286 715 3270
2025-12-28 21:30 3.09 7 28300 (2016) 0 (1954) 675 0 4 14 19 89 225 286 715 3270
2025-12-28 20:30 3.08 7 28300 (2016) 0 (1954) 675 0 4 14 19 89 225 286 715 3270
2025-12-28 19:30 3.09 7 28300 (2016) 0 (1954) 675 0 4 14 19 89 225 286 715 3270
2025-12-28 18:30 3.09 7 28300 (2016) 0 (1954) 675 0 4 14 19 89 225 286 715 3270
2025-12-28 17:30 3.09 7 28300 (2016) 0 (1954) 675 0 4 14 19 89 225 286 715 3270
2025-12-28 16:30 3.09 7 28300 (2016) 0 (1954) 675 0 4 14 19 89 225 286 715 3270
2025-12-28 15:30 3.09 7 28300 (2016) 0 (1954) 675 0 4 14 19 89 225 286 715 3270
2025-12-28 14:30 3.09 7 28300 (2016) 0 (1954) 675 0 4 14 19 89 225 286 715 3270
2025-12-28 13:30 3.09 7 28300 (2016) 0 (1954) 675 0 4 14 19 89 225 286 715 3270
2025-12-28 12:30 3.09 7 28300 (2016) 0 (1954) 675 0 4 14 19 89 225 286 715 3270
2025-12-28 11:30 3.08 7 28300 (2016) 0 (1954) 675 0 4 14 19 89 225 286 715 3270
2025-12-28 10:30 3.09 7 28300 (2016) 0 (1954) 675 0 4 14 19 89 225 286 715 3270
2025-12-28 09:30 3.08 7 28300 (2016) 0 (1954) 675 0 4 14 19 89 225 286 715 3270
2025-12-28 08:30 3.08 7 28300 (2016) 0 (1954) 675 0 4 14 19 89 225 286 715 3270
2025-12-28 07:30 3.08 7 28300 (2016) 0 (1954) 675 0 4 14 19 89 225 286 715 3270
2025-12-28 06:30 3.08 7 28300 (2016) 0 (1954) 675 0 4 14 19 89 225 286 715 3270
2025-12-28 05:30 3.08 7 28300 (2016) 0 (1954) 675 0 4 14 19 89 225 286 715 3270
2025-12-28 04:30 3.08 7 28300 (2016) 0 (1954) 675 0 4 14 19 89 225 286 715 3270
2025-12-28 03:30 3.08 7 28300 (2016) 0 (1954) 675 0 4 14 19 89 225 286 715 3270
2025-12-28 02:30 3.08 7 28300 (2016) 0 (1954) 675 0 4 14 19 89 225 286 715 3270
2025-12-28 01:30 3.08 7 28300 (2016) 0 (1954) 675 0 4 14 19 89 225 286 715 3270
2025-12-28 00:30 3.08 7 28300 (2016) 0 (1954) 675 0 4 14 19 89 225 286 715 3270
2025-12-27 23:30 3.08 7 28300 (2016) 0 (1954) 675 0 4 14 19 89 225 286 715 3270
2025-12-27 22:30 3.08 7 19200 (2016) 0 (1954) 455 0 4 14 18 78 196 249 430 1460
2025-12-27 21:30 3.08 7 19200 (2016) 0 (1954) 455 0 4 14 18 78 196 249 430 1460
2025-12-27 20:30 3.08 7 19200 (2016) 0 (1954) 455 0 4 14 18 78 196 249 430 1460
2025-12-27 19:30 3.08 7 19200 (2016) 0 (1954) 455 0 4 14 18 78 196 249 430 1460
2025-12-27 18:30 3.08 7 19200 (2016) 0 (1954) 455 0 4 14 18 78 196 249 430 1460
2025-12-27 17:30 3.08 7 19200 (2016) 0 (1954) 455 0 4 14 18 78 196 249 430 1460
2025-12-27 16:30 3.08 7 19200 (2016) 0 (1954) 455 0 4 14 18 78 196 249 430 1460
2025-12-27 15:30 3.08 7 19200 (2016) 0 (1954) 455 0 4 14 18 78 196 249 430 1460
2025-12-27 14:30 3.08 7 19200 (2016) 0 (1954) 455 0 4 14 18 78 196 249 430 1460
2025-12-27 13:30 3.08 7 19200 (2016) 0 (1954) 455 0 4 14 18 78 196 249 430 1460
2025-12-27 12:30 3.08 7 19200 (2016) 0 (1954) 455 0 4 14 18 78 196 249 430 1460
2025-12-27 11:30 3.07 6 19200 (2016) 0 (1954) 455 0 4 14 18 78 196 249 430 1460
2025-12-27 10:30 3.08 7 19200 (2016) 0 (1954) 455 0 4 14 18 78 196 249 430 1460
2025-12-27 09:30 3.08 7 19200 (2016) 0 (1954) 455 0 4 14 18 78 196 249 430 1460
2025-12-27 08:30 3.08 7 19200 (2016) 0 (1954) 455 0 4 14 18 78 196 249 430 1460
2025-12-27 07:30 3.08 7 19200 (2016) 0 (1954) 455 0 4 14 18 78 196 249 430 1460
2025-12-27 06:30 3.08 7 19200 (2016) 0 (1954) 455 0 4 14 18 78 196 249 430 1460
2025-12-27 05:30 3.08 7 19200 (2016) 0 (1954) 455 0 4 14 18 78 196 249 430 1460
2025-12-27 04:30 3.08 7 19200 (2016) 0 (1954) 455 0 4 14 18 78 196 249 430 1460
2025-12-27 03:30 3.08 7 19200 (2016) 0 (1954) 455 0 4 14 18 78 196 249 430 1460
2025-12-27 02:30 3.08 7 19200 (2016) 0 (1954) 455 0 4 14 18 78 196 249 430 1460
2025-12-27 01:30 3.08 7 19200 (2016) 0 (1954) 455 0 4 14 18 78 196 249 430 1460
2025-12-27 00:30 3.08 7 19200 (2016) 0 (1954) 455 0 4 14 18 78 196 249 430 1460
2025-12-26 23:30 3.08 7 19200 (2016) 0 (1954) 455 0 4 14 18 78 196 249 430 1460
2025-12-26 22:30 3.08 7 3000 (1974) 0 (1954) 199 0 4 15 18 67 197 251 460 894
2025-12-26 21:30 3.08 7 3000 (1974) 0 (1954) 199 0 4 15 18 67 197 251 460 894
2025-12-26 20:30 3.08 7 3000 (1974) 0 (1954) 199 0 4 15 18 67 197 251 460 894
2025-12-26 19:30 3.08 7 3000 (1974) 0 (1954) 199 0 4 15 18 67 197 251 460 894
2025-12-26 18:30 3.07 6 3000 (1974) 0 (1954) 199 0 4 15 18 67 197 251 460 894
2025-12-26 17:30 3.07 6 3000 (1974) 0 (1954) 199 0 4 15 18 67 197 251 460 894
2025-12-26 16:30 3.07 6 3000 (1974) 0 (1954) 199 0 4 15 18 67 197 251 460 894
2025-12-26 15:30 3.07 6 3000 (1974) 0 (1954) 199 0 4 15 18 67 197 251 460 894
2025-12-26 14:30 3.07 6 3000 (1974) 0 (1954) 199 0 4 15 18 67 197 251 460 894
2025-12-26 13:30 3.07 6 3000 (1974) 0 (1954) 199 0 4 15 18 67 197 251 460 894
2025-12-26 12:30 3.07 6 3000 (1974) 0 (1954) 199 0 4 15 18 67 197 251 460 894
2025-12-26 11:30 3.07 6 3000 (1974) 0 (1954) 199 0 4 15 18 67 197 251 460 894
2025-12-26 10:30 3.07 6 3000 (1974) 0 (1954) 199 0 4 15 18 67 197 251 460 894
2025-12-26 09:30 3.07 6 3000 (1974) 0 (1954) 199 0 4 15 18 67 197 251 460 894
2025-12-26 08:30 3.07 6 3000 (1974) 0 (1954) 199 0 4 15 18 67 197 251 460 894
2025-12-26 07:30 3.07 6 3000 (1974) 0 (1954) 199 0 4 15 18 67 197 251 460 894
2025-12-26 06:30 3.07 6 3000 (1974) 0 (1954) 199 0 4 15 18 67 197 251 460 894
2025-12-26 05:30 3.07 6 3000 (1974) 0 (1954) 199 0 4 15 18 67 197 251 460 894
2025-12-26 04:30 3.07 6 3000 (1974) 0 (1954) 199 0 4 15 18 67 197 251 460 894
2025-12-26 03:30 3.07 6 3000 (1974) 0 (1954) 199 0 4 15 18 67 197 251 460 894
2025-12-26 02:30 3.07 6 3000 (1974) 0 (1954) 199 0 4 15 18 67 197 251 460 894
2025-12-26 01:30 3.06 6 3000 (1974) 0 (1954) 199 0 4 15 18 67 197 251 460 894
2025-12-26 00:30 3.07 6 3000 (1974) 0 (1954) 199 0 4 15 18 67 197 251 460 894
2025-12-25 23:30 3.06 6 3000 (1974) 0 (1954) 199 0 4 15 18 67 197 251 460 894
2025-12-25 22:30 3.06 6 5630 (1974) 0 (1954) 260 0 4 11 17 70 212 250 508 1030
2025-12-25 21:30 3.06 6 5630 (1974) 0 (1954) 260 0 4 11 17 70 212 250 508 1030
2025-12-25 20:30 3.06 6 5630 (1974) 0 (1954) 260 0 4 11 17 70 212 250 508 1030
2025-12-25 19:30 3.05 6 5630 (1974) 0 (1954) 260 0 4 11 17 70 212 250 508 1030
2025-12-25 18:30 3.05 6 5630 (1974) 0 (1954) 260 0 4 11 17 70 212 250 508 1030
2025-12-25 17:30 3.04 5 5630 (1974) 0 (1954) 260 0 4 11 17 70 212 250 508 1030
2025-12-25 16:30 3.04 5 5630 (1974) 0 (1954) 260 0 4 11 17 70 212 250 508 1030
2025-12-25 15:30 3.04 5 5630 (1974) 0 (1954) 260 0 4 11 17 70 212 250 508 1030
2025-12-25 14:30 3.03 5 5630 (1974) 0 (1954) 260 0 4 11 17 70 212 250 508 1030
2025-12-25 13:30 3.03 5 5630 (1974) 0 (1954) 260 0 4 11 17 70 212 250 508 1030
2025-12-25 12:30 3.02 5 5630 (1974) 0 (1954) 260 0 4 11 17 70 212 250 508 1030
2025-12-25 11:30 3.02 5 5630 (1974) 0 (1954) 260 0 4 11 17 70 212 250 508 1030
2025-12-25 10:30 3.02 5 5630 (1974) 0 (1954) 260 0 4 11 17 70 212 250 508 1030
2025-12-25 09:30 3.02 5 5630 (1974) 0 (1954) 260 0 4 11 17 70 212 250 508 1030
2025-12-25 08:30 3.02 5 5630 (1974) 0 (1954) 260 0 4 11 17 70 212 250 508 1030
2025-12-25 07:30 3.02 5 5630 (1974) 0 (1954) 260 0 4 11 17 70 212 250 508 1030
2025-12-25 06:30 3.02 5 5630 (1974) 0 (1954) 260 0 4 11 17 70 212 250 508 1030
2025-12-25 05:30 3.02 5 5630 (1974) 0 (1954) 260 0 4 11 17 70 212 250 508 1030
2025-12-25 04:30 3.02 5 5630 (1974) 0 (1954) 260 0 4 11 17 70 212 250 508 1030
2025-12-25 03:30 3.02 5 5630 (1974) 0 (1954) 260 0 4 11 17 70 212 250 508 1030
2025-12-25 02:30 3.01 5 5630 (1974) 0 (1954) 260 0 4 11 17 70 212 250 508 1030
2025-12-25 01:30 3.01 5 5630 (1974) 0 (1954) 260 0 4 11 17 70 212 250 508 1030
2025-12-25 00:30 3.01 5 5630 (1974) 0 (1954) 260 0 4 11 17 70 212 250 508 1030
2025-12-24 23:30 3.01 5 5630 (1974) 0 (1954) 260 0 4 11 17 70 212 250 508 1030
2025-12-24 22:30 3.02 5 2730 (1974) 0 (1954) 231 0 4 9 16 76 237 262 593 1420
2025-12-24 21:30 3.01 5 2730 (1974) 0 (1954) 231 0 4 9 16 76 237 262 593 1420
2025-12-24 20:30 3.01 5 2730 (1974) 0 (1954) 231 0 4 9 16 76 237 262 593 1420
2025-12-24 19:30 3.01 5 2730 (1974) 0 (1954) 231 0 4 9 16 76 237 262 593 1420
2025-12-24 18:30 3.01 5 2730 (1974) 0 (1954) 231 0 4 9 16 76 237 262 593 1420
2025-12-24 17:30 3.01 5 2730 (1974) 0 (1954) 231 0 4 9 16 76 237 262 593 1420
2025-12-24 16:30 3.01 5 2730 (1974) 0 (1954) 231 0 4 9 16 76 237 262 593 1420
2025-12-24 15:30 3.01 5 2730 (1974) 0 (1954) 231 0 4 9 16 76 237 262 593 1420
2025-12-24 14:30 3.01 5 2730 (1974) 0 (1954) 231 0 4 9 16 76 237 262 593 1420
2025-12-24 13:30 3.00 4 2730 (1974) 0 (1954) 231 0 4 9 16 76 237 262 593 1420
2025-12-24 12:30 3.01 5 2730 (1974) 0 (1954) 231 0 4 9 16 76 237 262 593 1420
2025-12-24 11:30 3.00 4 2730 (1974) 0 (1954) 231 0 4 9 16 76 237 262 593 1420
2025-12-24 10:30 3.00 4 2730 (1974) 0 (1954) 231 0 4 9 16 76 237 262 593 1420
2025-12-24 09:30 2.99 4 2730 (1974) 0 (1954) 231 0 4 9 16 76 237 262 593 1420
2025-12-24 08:30 2.99 4 2730 (1974) 0 (1954) 231 0 4 9 16 76 237 262 593 1420
2025-12-24 07:30 2.99 4 2730 (1974) 0 (1954) 231 0 4 9 16 76 237 262 593 1420
2025-12-24 06:30 2.99 4 2730 (1974) 0 (1954) 231 0 4 9 16 76 237 262 593 1420
2025-12-24 05:30 2.99 4 2730 (1974) 0 (1954) 231 0 4 9 16 76 237 262 593 1420
2025-12-24 04:30 2.99 4 2730 (1974) 0 (1954) 231 0 4 9 16 76 237 262 593 1420
2025-12-24 03:30 2.99 4 2730 (1974) 0 (1954) 231 0 4 9 16 76 237 262 593 1420
2025-12-24 02:30 2.99 4 2730 (1974) 0 (1954) 231 0 4 9 16 76 237 262 593 1420
2025-12-24 01:30 2.99 4 2730 (1974) 0 (1954) 231 0 4 9 16 76 237 262 593 1420
2025-12-24 00:30 2.99 4 2730 (1974) 0 (1954) 231 0 4 9 16 76 237 262 593 1420
2025-12-23 23:30 3.00 4 2730 (1974) 0 (1954) 231 0 4 9 16 76 237 262 593 1420
2025-12-23 22:30 2.99 4 2590 (1989) 0 (1954) 219 0 3 9 15 70 232 293 589 876
2025-12-23 21:30 2.99 4 2590 (1989) 0 (1954) 219 0 3 9 15 70 232 293 589 876
2025-12-23 20:30 2.99 4 2590 (1989) 0 (1954) 219 0 3 9 15 70 232 293 589 876
2025-12-23 19:30 2.99 4 2590 (1989) 0 (1954) 219 0 3 9 15 70 232 293 589 876
2025-12-23 18:30 2.99 4 2590 (1989) 0 (1954) 219 0 3 9 15 70 232 293 589 876
2025-12-23 17:30 2.99 4 2590 (1989) 0 (1954) 219 0 3 9 15 70 232 293 589 876
2025-12-23 16:30 2.99 4 2590 (1989) 0 (1954) 219 0 3 9 15 70 232 293 589 876
2025-12-23 15:30 2.99 4 2590 (1989) 0 (1954) 219 0 3 9 15 70 232 293 589 876
2025-12-23 14:30 2.99 4 2590 (1989) 0 (1954) 219 0 3 9 15 70 232 293 589 876
2025-12-23 13:30 2.98 4 2590 (1989) 0 (1954) 219 0 3 9 15 70 232 293 589 876
2025-12-23 12:30 2.98 4 2590 (1989) 0 (1954) 219 0 3 9 15 70 232 293 589 876
2025-12-23 11:30 2.98 4 2590 (1989) 0 (1954) 219 0 3 9 15 70 232 293 589 876
2025-12-23 10:30 2.98 4 2590 (1989) 0 (1954) 219 0 3 9 15 70 232 293 589 876
2025-12-23 09:30 2.98 4 2590 (1989) 0 (1954) 219 0 3 9 15 70 232 293 589 876
2025-12-23 08:30 2.98 4 2590 (1989) 0 (1954) 219 0 3 9 15 70 232 293 589 876
2025-12-23 07:30 2.98 4 2590 (1989) 0 (1954) 219 0 3 9 15 70 232 293 589 876
2025-12-23 06:30 2.99 4 2590 (1989) 0 (1954) 219 0 3 9 15 70 232 293 589 876
2025-12-23 05:30 2.98 4 2590 (1989) 0 (1954) 219 0 3 9 15 70 232 293 589 876
2025-12-23 04:30 2.98 4 2590 (1989) 0 (1954) 219 0 3 9 15 70 232 293 589 876
2025-12-23 03:30 2.98 4 2590 (1989) 0 (1954) 219 0 3 9 15 70 232 293 589 876
2025-12-23 02:30 2.98 4 2590 (1989) 0 (1954) 219 0 3 9 15 70 232 293 589 876
2025-12-23 01:30 2.99 4 2590 (1989) 0 (1954) 219 0 3 9 15 70 232 293 589 876
2025-12-23 00:30 2.99 4 2590 (1989) 0 (1954) 219 0 3 9 15 70 232 293 589 876
2025-12-22 23:30 2.99 4 2590 (1989) 0 (1954) 219 0 3 9 15 70 232 293 589 876
2025-12-22 22:30 2.99 4 2890 (1988) 0 (1954) 220 0 3 9 15 64 254 301 660 1190
2025-12-22 21:30 2.99 4 2890 (1988) 0 (1954) 220 0 3 9 15 64 254 301 660 1190
2025-12-22 20:30 2.99 4 2890 (1988) 0 (1954) 220 0 3 9 15 64 254 301 660 1190
2025-12-22 19:30 2.99 4 2890 (1988) 0 (1954) 220 0 3 9 15 64 254 301 660 1190
2025-12-22 18:30 2.99 4 2890 (1988) 0 (1954) 220 0 3 9 15 64 254 301 660 1190
2025-12-22 17:30 2.99 4 2890 (1988) 0 (1954) 220 0 3 9 15 64 254 301 660 1190
2025-12-22 16:30 2.99 4 2890 (1988) 0 (1954) 220 0 3 9 15 64 254 301 660 1190
2025-12-22 15:30 2.99 4 2890 (1988) 0 (1954) 220 0 3 9 15 64 254 301 660 1190
2025-12-22 14:30 2.99 4 2890 (1988) 0 (1954) 220 0 3 9 15 64 254 301 660 1190
2025-12-22 13:30 2.98 4 2890 (1988) 0 (1954) 220 0 3 9 15 64 254 301 660 1190
2025-12-22 12:30 2.99 4 2890 (1988) 0 (1954) 220 0 3 9 15 64 254 301 660 1190
2025-12-22 11:30 2.98 4 2890 (1988) 0 (1954) 220 0 3 9 15 64 254 301 660 1190
2025-12-22 10:30 2.98 4 2890 (1988) 0 (1954) 220 0 3 9 15 64 254 301 660 1190
2025-12-22 09:30 2.98 4 2890 (1988) 0 (1954) 220 0 3 9 15 64 254 301 660 1190
2025-12-22 08:30 2.98 4 2890 (1988) 0 (1954) 220 0 3 9 15 64 254 301 660 1190
2025-12-22 07:30 2.98 4 2890 (1988) 0 (1954) 220 0 3 9 15 64 254 301 660 1190
2025-12-22 06:30 2.98 4 2890 (1988) 0 (1954) 220 0 3 9 15 64 254 301 660 1190
2025-12-22 05:30 2.97 4 2890 (1988) 0 (1954) 220 0 3 9 15 64 254 301 660 1190
2025-12-22 04:30 2.97 4 2890 (1988) 0 (1954) 220 0 3 9 15 64 254 301 660 1190
2025-12-22 03:30 2.97 4 2890 (1988) 0 (1954) 220 0 3 9 15 64 254 301 660 1190
2025-12-22 02:30 2.97 4 2890 (1988) 0 (1954) 220 0 3 9 15 64 254 301 660 1190
2025-12-22 01:30 2.97 4 2890 (1988) 0 (1954) 220 0 3 9 15 64 254 301 660 1190
2025-12-22 00:30 2.97 4 2890 (1988) 0 (1954) 220 0 3 9 15 64 254 301 660 1190
2025-12-21 23:30 2.97 4 2890 (1988) 0 (1954) 220 0 3 9 15 64 254 301 660 1190
2025-12-21 22:30 2.97 4 7470 (1988) 0 (1954) 305 0 3 8 15 60 258 297 662 1370
2025-12-21 21:30 2.96 4 7470 (1988) 0 (1954) 305 0 3 8 15 60 258 297 662 1370
2025-12-21 20:30 2.96 4 7470 (1988) 0 (1954) 305 0 3 8 15 60 258 297 662 1370
2025-12-21 19:30 2.96 4 7470 (1988) 0 (1954) 305 0 3 8 15 60 258 297 662 1370
2025-12-21 18:30 2.96 4 7470 (1988) 0 (1954) 305 0 3 8 15 60 258 297 662 1370
2025-12-21 17:30 2.96 4 7470 (1988) 0 (1954) 305 0 3 8 15 60 258 297 662 1370
2025-12-21 16:30 2.96 4 7470 (1988) 0 (1954) 305 0 3 8 15 60 258 297 662 1370
2025-12-21 15:30 2.95 3 7470 (1988) 0 (1954) 305 0 3 8 15 60 258 297 662 1370
2025-12-21 14:30 2.95 3 7470 (1988) 0 (1954) 305 0 3 8 15 60 258 297 662 1370
2025-12-21 13:30 2.96 4 7470 (1988) 0 (1954) 305 0 3 8 15 60 258 297 662 1370
2025-12-21 12:30 2.96 4 7470 (1988) 0 (1954) 305 0 3 8 15 60 258 297 662 1370
2025-12-21 11:30 2.95 3 7470 (1988) 0 (1954) 305 0 3 8 15 60 258 297 662 1370
2025-12-21 10:30 2.96 4 7470 (1988) 0 (1954) 305 0 3 8 15 60 258 297 662 1370
2025-12-21 09:30 2.96 4 7470 (1988) 0 (1954) 305 0 3 8 15 60 258 297 662 1370
2025-12-21 08:30 2.96 4 7470 (1988) 0 (1954) 305 0 3 8 15 60 258 297 662 1370
2025-12-21 07:30 2.96 4 7470 (1988) 0 (1954) 305 0 3 8 15 60 258 297 662 1370
2025-12-21 06:30 2.96 4 7470 (1988) 0 (1954) 305 0 3 8 15 60 258 297 662 1370
2025-12-21 05:30 2.96 4 7470 (1988) 0 (1954) 305 0 3 8 15 60 258 297 662 1370
2025-12-21 04:30 2.96 4 7470 (1988) 0 (1954) 305 0 3 8 15 60 258 297 662 1370
2025-12-21 03:30 2.96 4 7470 (1988) 0 (1954) 305 0 3 8 15 60 258 297 662 1370
2025-12-21 02:30 2.96 4 7470 (1988) 0 (1954) 305 0 3 8 15 60 258 297 662 1370
2025-12-21 01:30 2.96 4 7470 (1988) 0 (1954) 305 0 3 8 15 60 258 297 662 1370
2025-12-21 00:30 2.96 4 7470 (1988) 0 (1954) 305 0 3 8 15 60 258 297 662 1370
2025-12-20 23:30 2.96 4 7470 (1988) 0 (1954) 305 0 3 8 15 60 258 297 662 1370
2025-12-20 22:30 2.96 4 8650 (1988) 0 (1954) 324 0 3 9 15 54 271 321 517 1850
2025-12-20 21:30 2.97 4 8650 (1988) 0 (1954) 324 0 3 9 15 54 271 321 517 1850
2025-12-20 20:30 2.97 4 8650 (1988) 0 (1954) 324 0 3 9 15 54 271 321 517 1850
2025-12-20 19:30 2.97 4 8650 (1988) 0 (1954) 324 0 3 9 15 54 271 321 517 1850
2025-12-20 18:30 2.97 4 8650 (1988) 0 (1954) 324 0 3 9 15 54 271 321 517 1850
2025-12-20 17:30 2.97 4 8650 (1988) 0 (1954) 324 0 3 9 15 54 271 321 517 1850
2025-12-20 16:30 2.97 4 8650 (1988) 0 (1954) 324 0 3 9 15 54 271 321 517 1850
2025-12-20 15:30 2.97 4 8650 (1988) 0 (1954) 324 0 3 9 15 54 271 321 517 1850
2025-12-20 14:30 2.97 4 8650 (1988) 0 (1954) 324 0 3 9 15 54 271 321 517 1850
2025-12-20 13:30 2.97 4 8650 (1988) 0 (1954) 324 0 3 9 15 54 271 321 517 1850
2025-12-20 12:30 2.97 4 8650 (1988) 0 (1954) 324 0 3 9 15 54 271 321 517 1850
2025-12-20 11:30 2.97 4 8650 (1988) 0 (1954) 324 0 3 9 15 54 271 321 517 1850
2025-12-20 10:30 2.98 4 8650 (1988) 0 (1954) 324 0 3 9 15 54 271 321 517 1850
2025-12-20 09:30 2.98 4 8650 (1988) 0 (1954) 324 0 3 9 15 54 271 321 517 1850
2025-12-20 08:30 2.98 4 8650 (1988) 0 (1954) 324 0 3 9 15 54 271 321 517 1850
2025-12-20 07:30 2.98 4 8650 (1988) 0 (1954) 324 0 3 9 15 54 271 321 517 1850
2025-12-20 06:30 2.98 4 8650 (1988) 0 (1954) 324 0 3 9 15 54 271 321 517 1850
2025-12-20 05:30 2.98 4 8650 (1988) 0 (1954) 324 0 3 9 15 54 271 321 517 1850
2025-12-20 04:30 2.98 4 8650 (1988) 0 (1954) 324 0 3 9 15 54 271 321 517 1850
2025-12-20 03:30 2.98 4 8650 (1988) 0 (1954) 324 0 3 9 15 54 271 321 517 1850
2025-12-20 02:30 2.98 4 8650 (1988) 0 (1954) 324 0 3 9 15 54 271 321 517 1850
2025-12-20 01:30 2.98 4 8650 (1988) 0 (1954) 324 0 3 9 15 54 271 321 517 1850
2025-12-20 00:30 2.98 4 8650 (1988) 0 (1954) 324 0 3 9 15 54 271 321 517 1850
2025-12-19 23:30 2.98 4 8650 (1988) 0 (1954) 324 0 3 9 15 54 271 321 517 1850
2025-12-19 22:30 2.98 4 1510 (1988) 0 (1954) 187 0 3 9 15 49 239 283 489 1040
2025-12-19 21:30 2.98 4 1510 (1988) 0 (1954) 187 0 3 9 15 49 239 283 489 1040
2025-12-19 20:30 2.98 4 1510 (1988) 0 (1954) 187 0 3 9 15 49 239 283 489 1040
2025-12-19 19:30 2.99 4 1510 (1988) 0 (1954) 187 0 3 9 15 49 239 283 489 1040
2025-12-19 18:30 2.99 4 1510 (1988) 0 (1954) 187 0 3 9 15 49 239 283 489 1040
2025-12-19 17:30 2.99 4 1510 (1988) 0 (1954) 187 0 3 9 15 49 239 283 489 1040
2025-12-19 16:30 2.99 4 1510 (1988) 0 (1954) 187 0 3 9 15 49 239 283 489 1040
2025-12-19 15:30 2.99 4 1510 (1988) 0 (1954) 187 0 3 9 15 49 239 283 489 1040
2025-12-19 14:30 2.99 4 1510 (1988) 0 (1954) 187 0 3 9 15 49 239 283 489 1040
2025-12-19 13:30 2.99 4 1510 (1988) 0 (1954) 187 0 3 9 15 49 239 283 489 1040
2025-12-19 12:30 2.99 4 1510 (1988) 0 (1954) 187 0 3 9 15 49 239 283 489 1040
2025-12-19 11:30 2.99 4 1510 (1988) 0 (1954) 187 0 3 9 15 49 239 283 489 1040
2025-12-19 10:30 2.99 4 1510 (1988) 0 (1954) 187 0 3 9 15 49 239 283 489 1040
2025-12-19 09:30 2.99 4 1510 (1988) 0 (1954) 187 0 3 9 15 49 239 283 489 1040
2025-12-19 08:30 2.99 4 1510 (1988) 0 (1954) 187 0 3 9 15 49 239 283 489 1040
2025-12-19 07:30 2.98 4 1510 (1988) 0 (1954) 187 0 3 9 15 49 239 283 489 1040
2025-12-19 06:30 2.98 4 1510 (1988) 0 (1954) 187 0 3 9 15 49 239 283 489 1040
2025-12-19 05:30 2.98 4 1510 (1988) 0 (1954) 187 0 3 9 15 49 239 283 489 1040
2025-12-19 04:30 2.98 4 1510 (1988) 0 (1954) 187 0 3 9 15 49 239 283 489 1040
2025-12-19 03:30 2.99 4 1510 (1988) 0 (1954) 187 0 3 9 15 49 239 283 489 1040
2025-12-19 02:30 2.99 4 1510 (1988) 0 (1954) 187 0 3 9 15 49 239 283 489 1040
2025-12-19 01:30 2.99 4 1510 (1988) 0 (1954) 187 0 3 9 15 49 239 283 489 1040
2025-12-19 00:30 2.99 4 1510 (1988) 0 (1954) 187 0 3 9 15 49 239 283 489 1040
2025-12-18 23:30 2.99 4 1510 (1988) 0 (1954) 187 0 3 9 15 49 239 283 489 1040
2025-12-18 22:30 2.99 4 1640 (1962) 0 (1954) 182 0 1 10 15 51 222 322 450 724
2025-12-18 21:30 3.00 4 1640 (1962) 0 (1954) 182 0 1 10 15 51 222 322 450 724
2025-12-18 20:30 3.00 4 1640 (1962) 0 (1954) 182 0 1 10 15 51 222 322 450 724
2025-12-18 19:30 3.01 5 1640 (1962) 0 (1954) 182 0 1 10 15 51 222 322 450 724
2025-12-18 18:30 3.01 5 1640 (1962) 0 (1954) 182 0 1 10 15 51 222 322 450 724
2025-12-18 17:30 3.01 5 1640 (1962) 0 (1954) 182 0 1 10 15 51 222 322 450 724
2025-12-18 16:30 3.01 5 1640 (1962) 0 (1954) 182 0 1 10 15 51 222 322 450 724
2025-12-18 15:30 3.01 5 1640 (1962) 0 (1954) 182 0 1 10 15 51 222 322 450 724
2025-12-18 14:30 3.02 5 1640 (1962) 0 (1954) 182 0 1 10 15 51 222 322 450 724
2025-12-18 13:30 3.01 5 1640 (1962) 0 (1954) 182 0 1 10 15 51 222 322 450 724
2025-12-18 12:30 3.02 5 1640 (1962) 0 (1954) 182 0 1 10 15 51 222 322 450 724
2025-12-18 11:30 3.01 5 1640 (1962) 0 (1954) 182 0 1 10 15 51 222 322 450 724
2025-12-18 10:30 3.01 5 1640 (1962) 0 (1954) 182 0 1 10 15 51 222 322 450 724
2025-12-18 09:30 3.01 5 1640 (1962) 0 (1954) 182 0 1 10 15 51 222 322 450 724
2025-12-18 08:30 3.01 5 1640 (1962) 0 (1954) 182 0 1 10 15 51 222 322 450 724
2025-12-18 07:30 3.01 5 1640 (1962) 0 (1954) 182 0 1 10 15 51 222 322 450 724
2025-12-18 06:30 3.01 5 1640 (1962) 0 (1954) 182 0 1 10 15 51 222 322 450 724
2025-12-18 05:30 3.01 5 1640 (1962) 0 (1954) 182 0 1 10 15 51 222 322 450 724
2025-12-18 04:30 3.01 5 1640 (1962) 0 (1954) 182 0 1 10 15 51 222 322 450 724
2025-12-18 03:30 3.01 5 1640 (1962) 0 (1954) 182 0 1 10 15 51 222 322 450 724
2025-12-18 02:30 3.02 5 1640 (1962) 0 (1954) 182 0 1 10 15 51 222 322 450 724
2025-12-18 01:30 3.02 5 1640 (1962) 0 (1954) 182 0 1 10 15 51 222 322 450 724
2025-12-18 00:30 3.02 5 1640 (1962) 0 (1954) 182 0 1 10 15 51 222 322 450 724
2025-12-17 23:30 3.02 5 1640 (1962) 0 (1954) 182 0 1 10 15 51 222 322 450 724
2025-12-17 22:30 3.02 5 5250 (1993) 0 (1954) 265 0 1 11 14 51 213 278 532 1430
2025-12-17 21:30 3.02 5 5250 (1993) 0 (1954) 265 0 1 11 14 51 213 278 532 1430
2025-12-17 20:30 3.02 5 5250 (1993) 0 (1954) 265 0 1 11 14 51 213 278 532 1430
2025-12-17 19:30 3.02 5 5250 (1993) 0 (1954) 265 0 1 11 14 51 213 278 532 1430
2025-12-17 18:30 3.02 5 5250 (1993) 0 (1954) 265 0 1 11 14 51 213 278 532 1430
2025-12-17 17:30 3.02 5 5250 (1993) 0 (1954) 265 0 1 11 14 51 213 278 532 1430
2025-12-17 16:30 3.02 5 5250 (1993) 0 (1954) 265 0 1 11 14 51 213 278 532 1430
2025-12-17 15:30 3.02 5 5250 (1993) 0 (1954) 265 0 1 11 14 51 213 278 532 1430
2025-12-17 14:30 3.02 5 5250 (1993) 0 (1954) 265 0 1 11 14 51 213 278 532 1430
2025-12-17 13:30 3.02 5 5250 (1993) 0 (1954) 265 0 1 11 14 51 213 278 532 1430
2025-12-17 12:30 3.02 5 5250 (1993) 0 (1954) 265 0 1 11 14 51 213 278 532 1430
2025-12-17 11:30 3.02 5 5250 (1993) 0 (1954) 265 0 1 11 14 51 213 278 532 1430
2025-12-17 10:30 3.02 5 5250 (1993) 0 (1954) 265 0 1 11 14 51 213 278 532 1430
2025-12-17 09:30 3.02 5 5250 (1993) 0 (1954) 265 0 1 11 14 51 213 278 532 1430
2025-12-17 08:30 3.03 5 5250 (1993) 0 (1954) 265 0 1 11 14 51 213 278 532 1430
2025-12-17 07:30 3.02 5 5250 (1993) 0 (1954) 265 0 1 11 14 51 213 278 532 1430
2025-12-17 06:30 3.03 5 5250 (1993) 0 (1954) 265 0 1 11 14 51 213 278 532 1430
2025-12-17 05:30 3.03 5 5250 (1993) 0 (1954) 265 0 1 11 14 51 213 278 532 1430
2025-12-17 04:30 3.02 5 5250 (1993) 0 (1954) 265 0 1 11 14 51 213 278 532 1430
2025-12-17 03:30 3.03 5 5250 (1993) 0 (1954) 265 0 1 11 14 51 213 278 532 1430
2025-12-17 02:30 3.02 5 5250 (1993) 0 (1954) 265 0 1 11 14 51 213 278 532 1430
2025-12-17 01:30 3.03 5 5250 (1993) 0 (1954) 265 0 1 11 14 51 213 278 532 1430
2025-12-17 00:30 3.03 5 5250 (1993) 0 (1954) 265 0 1 11 14 51 213 278 532 1430
2025-12-16 23:30 3.03 5 5250 (1993) 0 (1954) 265 0 1 11 14 51 213 278 532 1430
2025-12-16 22:30 3.03 5 9290 (1993) 0 (1954) 361 0 1 11 14 48 175 300 585 1170
2025-12-16 21:30 3.03 5 9290 (1993) 0 (1954) 361 0 1 11 14 48 175 300 585 1170
2025-12-16 20:30 3.03 5 9290 (1993) 0 (1954) 361 0 1 11 14 48 175 300 585 1170
2025-12-16 19:30 3.03 5 9290 (1993) 0 (1954) 361 0 1 11 14 48 175 300 585 1170
2025-12-16 18:30 3.03 5 9290 (1993) 0 (1954) 361 0 1 11 14 48 175 300 585 1170
2025-12-16 17:30 3.03 5 9290 (1993) 0 (1954) 361 0 1 11 14 48 175 300 585 1170
2025-12-16 16:30 3.03 5 9290 (1993) 0 (1954) 361 0 1 11 14 48 175 300 585 1170
2025-12-16 15:30 3.03 5 9290 (1993) 0 (1954) 361 0 1 11 14 48 175 300 585 1170
2025-12-16 14:30 3.03 5 9290 (1993) 0 (1954) 361 0 1 11 14 48 175 300 585 1170
2025-12-16 13:30 3.03 5 9290 (1993) 0 (1954) 361 0 1 11 14 48 175 300 585 1170
2025-12-16 12:30 3.02 5 9290 (1993) 0 (1954) 361 0 1 11 14 48 175 300 585 1170
2025-12-16 11:30 3.03 5 9290 (1993) 0 (1954) 361 0 1 11 14 48 175 300 585 1170
2025-12-16 10:30 3.03 5 9290 (1993) 0 (1954) 361 0 1 11 14 48 175 300 585 1170
2025-12-16 09:30 3.03 5 9290 (1993) 0 (1954) 361 0 1 11 14 48 175 300 585 1170
2025-12-16 08:30 3.03 5 9290 (1993) 0 (1954) 361 0 1 11 14 48 175 300 585 1170
2025-12-16 07:30 3.03 5 9290 (1993) 0 (1954) 361 0 1 11 14 48 175 300 585 1170
2025-12-16 06:30 3.03 5 9290 (1993) 0 (1954) 361 0 1 11 14 48 175 300 585 1170
2025-12-16 05:30 3.03 5 9290 (1993) 0 (1954) 361 0 1 11 14 48 175 300 585 1170
2025-12-16 04:30 3.03 5 9290 (1993) 0 (1954) 361 0 1 11 14 48 175 300 585 1170
2025-12-16 03:30 3.03 5 9290 (1993) 0 (1954) 361 0 1 11 14 48 175 300 585 1170
2025-12-16 02:30 3.03 5 9290 (1993) 0 (1954) 361 0 1 11 14 48 175 300 585 1170
2025-12-16 01:30 3.03 5 9290 (1993) 0 (1954) 361 0 1 11 14 48 175 300 585 1170
2025-12-16 00:30 3.03 5 9290 (1993) 0 (1954) 361 0 1 11 14 48 175 300 585 1170
2025-12-15 23:30 3.03 5 9290 (1993) 0 (1954) 361 0 1 11 14 48 175 300 585 1170
2025-12-15 22:30 3.03 5 10100 (1993) 0 (1954) 406 0 1 12 14 47 197 260 732 1370
2025-12-15 21:30 3.03 5 10100 (1993) 0 (1954) 406 0 1 12 14 47 197 260 732 1370
2025-12-15 20:30 3.03 5 10100 (1993) 0 (1954) 406 0 1 12 14 47 197 260 732 1370
2025-12-15 19:30 3.03 5 10100 (1993) 0 (1954) 406 0 1 12 14 47 197 260 732 1370
2025-12-15 18:30 3.03 5 10100 (1993) 0 (1954) 406 0 1 12 14 47 197 260 732 1370
2025-12-15 17:30 3.03 5 10100 (1993) 0 (1954) 406 0 1 12 14 47 197 260 732 1370
2025-12-15 16:30 3.03 5 10100 (1993) 0 (1954) 406 0 1 12 14 47 197 260 732 1370
2025-12-15 15:30 3.03 5 10100 (1993) 0 (1954) 406 0 1 12 14 47 197 260 732 1370
2025-12-15 14:30 3.03 5 10100 (1993) 0 (1954) 406 0 1 12 14 47 197 260 732 1370
2025-12-15 13:30 3.03 5 10100 (1993) 0 (1954) 406 0 1 12 14 47 197 260 732 1370
2025-12-15 12:30 3.03 5 10100 (1993) 0 (1954) 406 0 1 12 14 47 197 260 732 1370
2025-12-15 11:30 3.03 5 10100 (1993) 0 (1954) 406 0 1 12 14 47 197 260 732 1370
2025-12-15 10:30 3.03 5 10100 (1993) 0 (1954) 406 0 1 12 14 47 197 260 732 1370
2025-12-15 09:30 3.03 5 10100 (1993) 0 (1954) 406 0 1 12 14 47 197 260 732 1370
2025-12-15 08:30 3.03 5 10100 (1993) 0 (1954) 406 0 1 12 14 47 197 260 732 1370
2025-12-15 07:30 3.03 5 10100 (1993) 0 (1954) 406 0 1 12 14 47 197 260 732 1370
2025-12-15 06:30 3.03 5 10100 (1993) 0 (1954) 406 0 1 12 14 47 197 260 732 1370
2025-12-15 05:30 3.03 5 10100 (1993) 0 (1954) 406 0 1 12 14 47 197 260 732 1370
2025-12-15 04:30 3.03 5 10100 (1993) 0 (1954) 406 0 1 12 14 47 197 260 732 1370
2025-12-15 03:30 3.03 5 10100 (1993) 0 (1954) 406 0 1 12 14 47 197 260 732 1370
2025-12-15 02:30 3.03 5 10100 (1993) 0 (1954) 406 0 1 12 14 47 197 260 732 1370
2025-12-15 01:30 3.04 5 10100 (1993) 0 (1954) 406 0 1 12 14 47 197 260 732 1370
2025-12-15 00:30 3.04 5 10100 (1993) 0 (1954) 406 0 1 12 14 47 197 260 732 1370
2025-12-14 23:30 3.04 5 10100 (1993) 0 (1954) 406 0 1 12 14 47 197 260 732 1370
2025-12-14 22:30 3.04 5 7500 (2016) 0 (2007) 391 0 1 11 13 48 208 305 712 1940
2025-12-14 21:30 3.04 5 7500 (2016) 0 (2007) 391 0 1 11 13 48 208 305 712 1940
2025-12-14 20:30 3.04 5 7500 (2016) 0 (2007) 391 0 1 11 13 48 208 305 712 1940
2025-12-14 19:30 3.04 5 7500 (2016) 0 (2007) 391 0 1 11 13 48 208 305 712 1940
2025-12-14 18:30 3.04 5 7500 (2016) 0 (2007) 391 0 1 11 13 48 208 305 712 1940
2025-12-14 17:30 3.04 5 7500 (2016) 0 (2007) 391 0 1 11 13 48 208 305 712 1940
2025-12-14 16:30 3.04 5 7500 (2016) 0 (2007) 391 0 1 11 13 48 208 305 712 1940
2025-12-14 15:30 3.04 5 7500 (2016) 0 (2007) 391 0 1 11 13 48 208 305 712 1940
2025-12-14 14:30 3.04 5 7500 (2016) 0 (2007) 391 0 1 11 13 48 208 305 712 1940
2025-12-14 13:30 3.04 5 7500 (2016) 0 (2007) 391 0 1 11 13 48 208 305 712 1940
2025-12-14 12:30 3.04 5 7500 (2016) 0 (2007) 391 0 1 11 13 48 208 305 712 1940
2025-12-14 11:30 3.04 5 7500 (2016) 0 (2007) 391 0 1 11 13 48 208 305 712 1940
2025-12-14 10:30 3.04 5 7500 (2016) 0 (2007) 391 0 1 11 13 48 208 305 712 1940
2025-12-14 09:30 3.05 6 7500 (2016) 0 (2007) 391 0 1 11 13 48 208 305 712 1940
2025-12-14 08:30 3.04 5 7500 (2016) 0 (2007) 391 0 1 11 13 48 208 305 712 1940
2025-12-14 07:30 3.05 6 7500 (2016) 0 (2007) 391 0 1 11 13 48 208 305 712 1940
2025-12-14 06:30 3.05 6 7500 (2016) 0 (2007) 391 0 1 11 13 48 208 305 712 1940
2025-12-14 05:30 3.05 6 7500 (2016) 0 (2007) 391 0 1 11 13 48 208 305 712 1940
2025-12-14 04:30 3.05 6 7500 (2016) 0 (2007) 391 0 1 11 13 48 208 305 712 1940
2025-12-14 03:30 3.05 6 7500 (2016) 0 (2007) 391 0 1 11 13 48 208 305 712 1940
2025-12-14 02:30 3.05 6 7500 (2016) 0 (2007) 391 0 1 11 13 48 208 305 712 1940
2025-12-14 01:30 3.05 6 7500 (2016) 0 (2007) 391 0 1 11 13 48 208 305 712 1940
2025-12-14 00:30 3.05 6 7500 (2016) 0 (2007) 391 0 1 11 13 48 208 305 712 1940
2025-12-13 23:30 3.05 6 7500 (2016) 0 (2007) 391 0 1 11 13 48 208 305 712 1940
2025-12-13 22:30 3.05 6 3860 (1924) 0 (1954) 235 0 1 10 15 52 240 305 566 1050
2025-12-13 21:30 3.06 6 3860 (1924) 0 (1954) 235 0 1 10 15 52 240 305 566 1050
2025-12-13 20:30 3.05 6 3860 (1924) 0 (1954) 235 0 1 10 15 52 240 305 566 1050
2025-12-13 19:30 3.06 6 3860 (1924) 0 (1954) 235 0 1 10 15 52 240 305 566 1050
2025-12-13 18:30 3.06 6 3860 (1924) 0 (1954) 235 0 1 10 15 52 240 305 566 1050
2025-12-13 17:30 3.06 6 3860 (1924) 0 (1954) 235 0 1 10 15 52 240 305 566 1050
2025-12-13 16:30 3.07 6 3860 (1924) 0 (1954) 235 0 1 10 15 52 240 305 566 1050
2025-12-13 15:30 3.07 6 3860 (1924) 0 (1954) 235 0 1 10 15 52 240 305 566 1050
2025-12-13 14:30 3.07 6 3860 (1924) 0 (1954) 235 0 1 10 15 52 240 305 566 1050
2025-12-13 13:30 3.07 6 3860 (1924) 0 (1954) 235 0 1 10 15 52 240 305 566 1050
2025-12-13 12:30 3.07 6 3860 (1924) 0 (1954) 235 0 1 10 15 52 240 305 566 1050
2025-12-13 11:30 3.07 6 3860 (1924) 0 (1954) 235 0 1 10 15 52 240 305 566 1050
2025-12-13 10:30 3.07 6 3860 (1924) 0 (1954) 235 0 1 10 15 52 240 305 566 1050
2025-12-13 09:30 3.08 7 3860 (1924) 0 (1954) 235 0 1 10 15 52 240 305 566 1050
2025-12-13 08:30 3.08 7 3860 (1924) 0 (1954) 235 0 1 10 15 52 240 305 566 1050
2025-12-13 07:30 3.08 7 3860 (1924) 0 (1954) 235 0 1 10 15 52 240 305 566 1050
2025-12-13 06:30 3.08 7 3860 (1924) 0 (1954) 235 0 1 10 15 52 240 305 566 1050
2025-12-13 05:30 3.09 7 3860 (1924) 0 (1954) 235 0 1 10 15 52 240 305 566 1050
2025-12-13 04:30 3.09 7 3860 (1924) 0 (1954) 235 0 1 10 15 52 240 305 566 1050
2025-12-13 03:30 3.09 7 3860 (1924) 0 (1954) 235 0 1 10 15 52 240 305 566 1050
2025-12-13 02:30 3.09 7 3860 (1924) 0 (1954) 235 0 1 10 15 52 240 305 566 1050
2025-12-13 01:30 3.09 7 3860 (1924) 0 (1954) 235 0 1 10 15 52 240 305 566 1050
2025-12-13 00:30 3.10 7 3860 (1924) 0 (1954) 235 0 1 10 15 52 240 305 566 1050
2025-12-12 23:30 3.10 7 3860 (1924) 0 (1954) 235 0 1 10 15 52 240 305 566 1050
2025-12-12 22:30 3.10 7 3300 (1986) 0 (2007) 270 0 1 9 14 47 208 279 639 2030
2025-12-12 21:30 3.10 7 3300 (1986) 0 (2007) 270 0 1 9 14 47 208 279 639 2030
2025-12-12 20:30 3.10 7 3300 (1986) 0 (2007) 270 0 1 9 14 47 208 279 639 2030
2025-12-12 19:30 3.11 8 3300 (1986) 0 (2007) 270 0 1 9 14 47 208 279 639 2030
2025-12-12 18:30 3.11 8 3300 (1986) 0 (2007) 270 0 1 9 14 47 208 279 639 2030
2025-12-12 17:30 3.11 8 3300 (1986) 0 (2007) 270 0 1 9 14 47 208 279 639 2030
2025-12-12 16:30 3.11 8 3300 (1986) 0 (2007) 270 0 1 9 14 47 208 279 639 2030
2025-12-12 15:30 3.11 8 3300 (1986) 0 (2007) 270 0 1 9 14 47 208 279 639 2030
2025-12-12 14:30 3.11 8 3300 (1986) 0 (2007) 270 0 1 9 14 47 208 279 639 2030
2025-12-12 13:30 3.11 8 3300 (1986) 0 (2007) 270 0 1 9 14 47 208 279 639 2030
2025-12-12 12:30 3.12 8 3300 (1986) 0 (2007) 270 0 1 9 14 47 208 279 639 2030
2025-12-12 11:30 3.12 8 3300 (1986) 0 (2007) 270 0 1 9 14 47 208 279 639 2030
2025-12-12 10:30 3.12 8 3300 (1986) 0 (2007) 270 0 1 9 14 47 208 279 639 2030
2025-12-12 09:30 3.12 8 3300 (1986) 0 (2007) 270 0 1 9 14 47 208 279 639 2030
2025-12-12 08:30 3.12 8 3300 (1986) 0 (2007) 270 0 1 9 14 47 208 279 639 2030
2025-12-12 07:30 3.12 8 3300 (1986) 0 (2007) 270 0 1 9 14 47 208 279 639 2030
2025-12-12 06:30 3.12 8 3300 (1986) 0 (2007) 270 0 1 9 14 47 208 279 639 2030
2025-12-12 05:30 3.12 8 3300 (1986) 0 (2007) 270 0 1 9 14 47 208 279 639 2030
2025-12-12 04:30 3.13 8 3300 (1986) 0 (2007) 270 0 1 9 14 47 208 279 639 2030
2025-12-12 03:30 3.13 8 3300 (1986) 0 (2007) 270 0 1 9 14 47 208 279 639 2030
2025-12-12 02:30 3.13 8 3300 (1986) 0 (2007) 270 0 1 9 14 47 208 279 639 2030
2025-12-12 01:30 3.13 8 3300 (1986) 0 (2007) 270 0 1 9 14 47 208 279 639 2030
2025-12-12 00:30 3.13 8 3300 (1986) 0 (2007) 270 0 1 9 14 47 208 279 639 2030
2025-12-11 23:30 3.13 8 3300 (1986) 0 (2007) 270 0 1 9 14 47 208 279 639 2030
2025-12-11 22:30 3.14 9 4060 (1972) 0 (1954) 305 0 1 8 12 42 206 246 1050 1700
2025-12-11 21:30 3.14 9 4060 (1972) 0 (1954) 305 0 1 8 12 42 206 246 1050 1700
2025-12-11 20:30 3.14 9 4060 (1972) 0 (1954) 305 0 1 8 12 42 206 246 1050 1700
2025-12-11 19:30 3.14 9 4060 (1972) 0 (1954) 305 0 1 8 12 42 206 246 1050 1700
2025-12-11 18:30 3.14 9 4060 (1972) 0 (1954) 305 0 1 8 12 42 206 246 1050 1700
2025-12-11 17:30 3.14 9 4060 (1972) 0 (1954) 305 0 1 8 12 42 206 246 1050 1700
2025-12-11 16:30 3.14 9 4060 (1972) 0 (1954) 305 0 1 8 12 42 206 246 1050 1700
2025-12-11 15:30 3.14 9 4060 (1972) 0 (1954) 305 0 1 8 12 42 206 246 1050 1700
2025-12-11 14:30 3.14 9 4060 (1972) 0 (1954) 305 0 1 8 12 42 206 246 1050 1700
2025-12-11 13:30 3.14 9 4060 (1972) 0 (1954) 305 0 1 8 12 42 206 246 1050 1700
2025-12-11 12:30 3.14 9 4060 (1972) 0 (1954) 305 0 1 8 12 42 206 246 1050 1700
2025-12-11 11:30 3.14 9 4060 (1972) 0 (1954) 305 0 1 8 12 42 206 246 1050 1700
2025-12-11 10:30 3.14 9 4060 (1972) 0 (1954) 305 0 1 8 12 42 206 246 1050 1700
2025-12-11 09:30 3.14 9 4060 (1972) 0 (1954) 305 0 1 8 12 42 206 246 1050 1700
2025-12-11 08:30 3.14 9 4060 (1972) 0 (1954) 305 0 1 8 12 42 206 246 1050 1700
2025-12-11 07:30 3.14 9 4060 (1972) 0 (1954) 305 0 1 8 12 42 206 246 1050 1700
2025-12-11 06:30 3.14 9 4060 (1972) 0 (1954) 305 0 1 8 12 42 206 246 1050 1700
2025-12-11 05:30 3.14 9 4060 (1972) 0 (1954) 305 0 1 8 12 42 206 246 1050 1700
2025-12-11 04:30 3.14 9 4060 (1972) 0 (1954) 305 0 1 8 12 42 206 246 1050 1700
2025-12-11 03:30 3.14 9 4060 (1972) 0 (1954) 305 0 1 8 12 42 206 246 1050 1700
2025-12-11 02:30 3.14 9 4060 (1972) 0 (1954) 305 0 1 8 12 42 206 246 1050 1700
2025-12-11 01:30 3.14 9 4060 (1972) 0 (1954) 305 0 1 8 12 42 206 246 1050 1700
2025-12-11 00:30 3.13 8 4060 (1972) 0 (1954) 305 0 1 8 12 42 206 246 1050 1700
2025-12-10 23:30 3.13 8 4060 (1972) 0 (1954) 305 0 1 8 12 42 206 246 1050 1700
2025-12-10 22:30 3.13 8 2500 (1993) 0 (2007) 180 0 1 8 12 42 208 245 673 749
2025-12-10 21:30 3.13 8 2500 (1993) 0 (2007) 180 0 1 8 12 42 208 245 673 749
2025-12-10 20:30 3.13 8 2500 (1993) 0 (2007) 180 0 1 8 12 42 208 245 673 749
2025-12-10 19:30 3.13 8 2500 (1993) 0 (2007) 180 0 1 8 12 42 208 245 673 749
2025-12-10 18:30 3.13 8 2500 (1993) 0 (2007) 180 0 1 8 12 42 208 245 673 749
2025-12-10 17:30 3.13 8 2500 (1993) 0 (2007) 180 0 1 8 12 42 208 245 673 749
2025-12-10 16:30 3.13 8 2500 (1993) 0 (2007) 180 0 1 8 12 42 208 245 673 749
2025-12-10 15:30 3.13 8 2500 (1993) 0 (2007) 180 0 1 8 12 42 208 245 673 749
2025-12-10 14:30 3.14 9 2500 (1993) 0 (2007) 180 0 1 8 12 42 208 245 673 749
2025-12-10 13:30 3.14 9 2500 (1993) 0 (2007) 180 0 1 8 12 42 208 245 673 749
2025-12-10 12:30 3.14 9 2500 (1993) 0 (2007) 180 0 1 8 12 42 208 245 673 749
2025-12-10 11:30 3.14 9 2500 (1993) 0 (2007) 180 0 1 8 12 42 208 245 673 749
2025-12-10 10:30 3.15 9 2500 (1993) 0 (2007) 180 0 1 8 12 42 208 245 673 749
2025-12-10 09:30 3.15 9 2500 (1993) 0 (2007) 180 0 1 8 12 42 208 245 673 749
2025-12-10 08:30 3.15 9 2500 (1993) 0 (2007) 180 0 1 8 12 42 208 245 673 749
2025-12-10 07:30 3.15 9 2500 (1993) 0 (2007) 180 0 1 8 12 42 208 245 673 749
2025-12-10 06:30 3.15 9 2500 (1993) 0 (2007) 180 0 1 8 12 42 208 245 673 749
2025-12-10 05:30 3.16 10 2500 (1993) 0 (2007) 180 0 1 8 12 42 208 245 673 749
2025-12-10 04:30 3.16 10 2500 (1993) 0 (2007) 180 0 1 8 12 42 208 245 673 749
2025-12-10 03:30 3.16 10 2500 (1993) 0 (2007) 180 0 1 8 12 42 208 245 673 749
2025-12-10 02:30 3.16 10 2500 (1993) 0 (2007) 180 0 1 8 12 42 208 245 673 749
2025-12-10 01:30 3.16 10 2500 (1993) 0 (2007) 180 0 1 8 12 42 208 245 673 749
2025-12-10 00:30 3.16 10 2500 (1993) 0 (2007) 180 0 1 8 12 42 208 245 673 749
2025-12-09 23:30 3.16 10 2500 (1993) 0 (2007) 180 0 1 8 12 42 208 245 673 749
2025-12-09 22:30 3.16 10 1280 (1998) 0 (1954) 144 0 1 8 13 44 200 218 419 705
2025-12-09 21:30 3.17 10 1280 (1998) 0 (1954) 144 0 1 8 13 44 200 218 419 705
2025-12-09 20:30 3.17 10 1280 (1998) 0 (1954) 144 0 1 8 13 44 200 218 419 705
2025-12-09 19:30 3.17 10 1280 (1998) 0 (1954) 144 0 1 8 13 44 200 218 419 705
2025-12-09 18:30 3.17 10 1280 (1998) 0 (1954) 144 0 1 8 13 44 200 218 419 705
2025-12-09 17:30 3.17 10 1280 (1998) 0 (1954) 144 0 1 8 13 44 200 218 419 705
2025-12-09 16:30 3.17 10 1280 (1998) 0 (1954) 144 0 1 8 13 44 200 218 419 705
2025-12-09 15:30 3.17 10 1280 (1998) 0 (1954) 144 0 1 8 13 44 200 218 419 705
2025-12-09 14:30 3.18 11 1280 (1998) 0 (1954) 144 0 1 8 13 44 200 218 419 705
2025-12-09 13:30 3.17 10 1280 (1998) 0 (1954) 144 0 1 8 13 44 200 218 419 705
2025-12-09 12:30 3.18 11 1280 (1998) 0 (1954) 144 0 1 8 13 44 200 218 419 705
2025-12-09 11:30 3.18 11 1280 (1998) 0 (1954) 144 0 1 8 13 44 200 218 419 705
2025-12-09 10:30 3.17 10 1280 (1998) 0 (1954) 144 0 1 8 13 44 200 218 419 705
2025-12-09 09:30 3.18 11 1280 (1998) 0 (1954) 144 0 1 8 13 44 200 218 419 705
2025-12-09 07:30 3.18 11 1280 (1998) 0 (1954) 144 0 1 8 13 44 200 218 419 705
2025-12-09 06:30 3.18 11 1280 (1998) 0 (1954) 144 0 1 8 13 44 200 218 419 705
2025-12-09 05:30 3.19 11 1280 (1998) 0 (1954) 144 0 1 8 13 44 200 218 419 705
2025-12-09 04:30 3.19 11 1280 (1998) 0 (1954) 144 0 1 8 13 44 200 218 419 705
2025-12-09 03:30 3.19 11 1280 (1998) 0 (1954) 144 0 1 8 13 44 200 218 419 705
2025-12-09 02:30 3.19 11 1280 (1998) 0 (1954) 144 0 1 8 13 44 200 218 419 705
2025-12-09 01:30 3.19 11 1280 (1998) 0 (1954) 144 0 1 8 13 44 200 218 419 705
2025-12-09 00:30 3.19 11 1280 (1998) 0 (1954) 144 0 1 8 13 44 200 218 419 705
2025-12-08 23:30 3.20 12 1280 (1998) 0 (1954) 144 0 1 8 13 44 200 218 419 705
2025-12-08 22:30 3.20 12 3530 (2005) 0 (2007) 176 0 1 8 12 45 209 240 379 608
2025-12-08 21:30 3.20 12 3530 (2005) 0 (2007) 176 0 1 8 12 45 209 240 379 608
2025-12-08 20:30 3.20 12 3530 (2005) 0 (2007) 176 0 1 8 12 45 209 240 379 608
2025-12-08 19:30 3.20 12 3530 (2005) 0 (2007) 176 0 1 8 12 45 209 240 379 608
2025-12-08 18:30 3.20 12 3530 (2005) 0 (2007) 176 0 1 8 12 45 209 240 379 608
2025-12-08 17:30 3.20 12 3530 (2005) 0 (2007) 176 0 1 8 12 45 209 240 379 608
2025-12-08 16:30 3.20 12 3530 (2005) 0 (2007) 176 0 1 8 12 45 209 240 379 608
2025-12-08 15:30 3.21 12 3530 (2005) 0 (2007) 176 0 1 8 12 45 209 240 379 608
2025-12-08 14:30 3.21 12 3530 (2005) 0 (2007) 176 0 1 8 12 45 209 240 379 608
2025-12-08 13:30 3.21 12 3530 (2005) 0 (2007) 176 0 1 8 12 45 209 240 379 608
2025-12-08 12:30 3.21 12 3530 (2005) 0 (2007) 176 0 1 8 12 45 209 240 379 608
2025-12-08 11:30 3.21 12 3530 (2005) 0 (2007) 176 0 1 8 12 45 209 240 379 608
2025-12-08 10:30 3.21 12 3530 (2005) 0 (2007) 176 0 1 8 12 45 209 240 379 608
2025-12-08 09:30 3.21 12 3530 (2005) 0 (2007) 176 0 1 8 12 45 209 240 379 608
2025-12-08 08:30 3.21 12 3530 (2005) 0 (2007) 176 0 1 8 12 45 209 240 379 608
2025-12-08 07:30 3.22 13 3530 (2005) 0 (2007) 176 0 1 8 12 45 209 240 379 608
2025-12-08 06:30 3.21 12 3530 (2005) 0 (2007) 176 0 1 8 12 45 209 240 379 608
2025-12-08 05:30 3.22 13 3530 (2005) 0 (2007) 176 0 1 8 12 45 209 240 379 608
2025-12-08 04:30 3.22 13 3530 (2005) 0 (2007) 176 0 1 8 12 45 209 240 379 608
2025-12-08 03:30 3.22 13 3530 (2005) 0 (2007) 176 0 1 8 12 45 209 240 379 608
2025-12-08 02:30 3.22 13 3530 (2005) 0 (2007) 176 0 1 8 12 45 209 240 379 608
2025-12-08 01:30 3.22 13 3530 (2005) 0 (2007) 176 0 1 8 12 45 209 240 379 608
2025-12-08 00:30 3.22 13 3530 (2005) 0 (2007) 176 0 1 8 12 45 209 240 379 608
2025-12-07 23:30 3.22 13 3530 (2005) 0 (2007) 176 0 1 8 12 45 209 240 379 608
2025-12-07 22:30 3.22 13 4110 (2005) 0 (2007) 211 0 1 8 10 47 201 248 335 703
2025-12-07 21:30 3.22 13 4110 (2005) 0 (2007) 211 0 1 8 10 47 201 248 335 703
2025-12-07 20:30 3.22 13 4110 (2005) 0 (2007) 211 0 1 8 10 47 201 248 335 703
2025-12-07 19:30 3.22 13 4110 (2005) 0 (2007) 211 0 1 8 10 47 201 248 335 703
2025-12-07 18:30 3.22 13 4110 (2005) 0 (2007) 211 0 1 8 10 47 201 248 335 703
2025-12-07 17:30 3.22 13 4110 (2005) 0 (2007) 211 0 1 8 10 47 201 248 335 703
2025-12-07 16:30 3.22 13 4110 (2005) 0 (2007) 211 0 1 8 10 47 201 248 335 703
2025-12-07 15:30 3.22 13 4110 (2005) 0 (2007) 211 0 1 8 10 47 201 248 335 703
2025-12-07 14:30 3.22 13 4110 (2005) 0 (2007) 211 0 1 8 10 47 201 248 335 703
2025-12-07 13:30 3.22 13 4110 (2005) 0 (2007) 211 0 1 8 10 47 201 248 335 703
2025-12-07 12:30 3.21 12 4110 (2005) 0 (2007) 211 0 1 8 10 47 201 248 335 703
2025-12-07 11:30 3.21 12 4110 (2005) 0 (2007) 211 0 1 8 10 47 201 248 335 703
2025-12-07 10:30 3.21 12 4110 (2005) 0 (2007) 211 0 1 8 10 47 201 248 335 703
2025-12-07 09:30 3.21 12 4110 (2005) 0 (2007) 211 0 1 8 10 47 201 248 335 703
2025-12-07 08:30 3.21 12 4110 (2005) 0 (2007) 211 0 1 8 10 47 201 248 335 703
2025-12-07 07:30 3.20 12 4110 (2005) 0 (2007) 211 0 1 8 10 47 201 248 335 703
2025-12-07 06:30 3.20 12 4110 (2005) 0 (2007) 211 0 1 8 10 47 201 248 335 703
2025-12-07 05:30 3.20 12 4110 (2005) 0 (2007) 211 0 1 8 10 47 201 248 335 703
2025-12-07 04:30 3.20 12 4110 (2005) 0 (2007) 211 0 1 8 10 47 201 248 335 703
2025-12-07 03:30 3.20 12 4110 (2005) 0 (2007) 211 0 1 8 10 47 201 248 335 703
2025-12-07 02:30 3.20 12 4110 (2005) 0 (2007) 211 0 1 8 10 47 201 248 335 703
2025-12-07 01:30 3.20 12 4110 (2005) 0 (2007) 211 0 1 8 10 47 201 248 335 703
2025-12-07 00:30 3.20 12 4110 (2005) 0 (2007) 211 0 1 8 10 47 201 248 335 703
2025-12-06 23:30 3.21 12 4110 (2005) 0 (2007) 211 0 1 8 10 47 201 248 335 703
2025-12-06 22:30 3.21 12 3560 (1974) 0 (2007) 204 0 1 9 12 47 198 250 432 1140
2025-12-06 21:30 3.20 12 3560 (1974) 0 (2007) 204 0 1 9 12 47 198 250 432 1140
2025-12-06 20:30 3.21 12 3560 (1974) 0 (2007) 204 0 1 9 12 47 198 250 432 1140
2025-12-06 19:30 3.21 12 3560 (1974) 0 (2007) 204 0 1 9 12 47 198 250 432 1140
2025-12-06 18:30 3.21 12 3560 (1974) 0 (2007) 204 0 1 9 12 47 198 250 432 1140
2025-12-06 17:30 3.21 12 3560 (1974) 0 (2007) 204 0 1 9 12 47 198 250 432 1140
2025-12-06 16:30 3.21 12 3560 (1974) 0 (2007) 204 0 1 9 12 47 198 250 432 1140
2025-12-06 15:30 3.21 12 3560 (1974) 0 (2007) 204 0 1 9 12 47 198 250 432 1140
2025-12-06 14:30 3.21 12 3560 (1974) 0 (2007) 204 0 1 9 12 47 198 250 432 1140
2025-12-06 13:30 3.22 13 3560 (1974) 0 (2007) 204 0 1 9 12 47 198 250 432 1140
2025-12-06 12:30 3.22 13 3560 (1974) 0 (2007) 204 0 1 9 12 47 198 250 432 1140
2025-12-06 11:30 3.22 13 3560 (1974) 0 (2007) 204 0 1 9 12 47 198 250 432 1140
2025-12-06 10:30 3.22 13 3560 (1974) 0 (2007) 204 0 1 9 12 47 198 250 432 1140
2025-12-06 09:30 3.22 13 3560 (1974) 0 (2007) 204 0 1 9 12 47 198 250 432 1140
2025-12-06 08:30 3.22 13 3560 (1974) 0 (2007) 204 0 1 9 12 47 198 250 432 1140
2025-12-06 07:30 3.22 13 3560 (1974) 0 (2007) 204 0 1 9 12 47 198 250 432 1140
2025-12-06 06:30 3.22 13 3560 (1974) 0 (2007) 204 0 1 9 12 47 198 250 432 1140
2025-12-06 05:30 3.22 13 3560 (1974) 0 (2007) 204 0 1 9 12 47 198 250 432 1140
2025-12-06 04:30 3.22 13 3560 (1974) 0 (2007) 204 0 1 9 12 47 198 250 432 1140
2025-12-06 03:30 3.22 13 3560 (1974) 0 (2007) 204 0 1 9 12 47 198 250 432 1140
2025-12-06 02:30 3.22 13 3560 (1974) 0 (2007) 204 0 1 9 12 47 198 250 432 1140
2025-12-06 01:30 3.22 13 3560 (1974) 0 (2007) 204 0 1 9 12 47 198 250 432 1140
2025-12-06 00:30 3.22 13 3560 (1974) 0 (2007) 204 0 1 9 12 47 198 250 432 1140
2025-12-05 23:30 3.23 13 3560 (1974) 0 (2007) 204 0 1 9 12 47 198 250 432 1140
2025-12-05 22:30 3.23 13 7200 (1974) 0 (2007) 249 0 0 9 14 43 186 212 395 819
2025-12-05 21:30 3.23 13 7200 (1974) 0 (2007) 249 0 0 9 14 43 186 212 395 819
2025-12-05 20:30 3.23 13 7200 (1974) 0 (2007) 249 0 0 9 14 43 186 212 395 819
2025-12-05 19:30 3.23 13 7200 (1974) 0 (2007) 249 0 0 9 14 43 186 212 395 819
2025-12-05 18:30 3.24 14 7200 (1974) 0 (2007) 249 0 0 9 14 43 186 212 395 819
2025-12-05 17:30 3.24 14 7200 (1974) 0 (2007) 249 0 0 9 14 43 186 212 395 819
2025-12-05 16:30 3.24 14 7200 (1974) 0 (2007) 249 0 0 9 14 43 186 212 395 819
2025-12-05 15:30 3.24 14 7200 (1974) 0 (2007) 249 0 0 9 14 43 186 212 395 819
2025-12-05 14:30 3.25 14 7200 (1974) 0 (2007) 249 0 0 9 14 43 186 212 395 819
2025-12-05 13:30 3.25 14 7200 (1974) 0 (2007) 249 0 0 9 14 43 186 212 395 819
2025-12-05 12:30 3.25 14 7200 (1974) 0 (2007) 249 0 0 9 14 43 186 212 395 819
2025-12-05 11:30 3.25 14 7200 (1974) 0 (2007) 249 0 0 9 14 43 186 212 395 819
2025-12-05 10:30 3.26 15 7200 (1974) 0 (2007) 249 0 0 9 14 43 186 212 395 819
2025-12-05 09:30 3.26 15 7200 (1974) 0 (2007) 249 0 0 9 14 43 186 212 395 819
2025-12-05 08:30 3.26 15 7200 (1974) 0 (2007) 249 0 0 9 14 43 186 212 395 819
2025-12-05 07:30 3.27 16 7200 (1974) 0 (2007) 249 0 0 9 14 43 186 212 395 819
2025-12-05 06:30 3.27 16 7200 (1974) 0 (2007) 249 0 0 9 14 43 186 212 395 819
2025-12-05 05:30 3.27 16 7200 (1974) 0 (2007) 249 0 0 9 14 43 186 212 395 819
2025-12-05 04:30 3.27 16 7200 (1974) 0 (2007) 249 0 0 9 14 43 186 212 395 819
2025-12-05 03:30 3.28 16 7200 (1974) 0 (2007) 249 0 0 9 14 43 186 212 395 819
2025-12-05 02:30 3.28 16 7200 (1974) 0 (2007) 249 0 0 9 14 43 186 212 395 819
2025-12-05 01:30 3.28 16 7200 (1974) 0 (2007) 249 0 0 9 14 43 186 212 395 819
2025-12-05 00:30 3.29 17 7200 (1974) 0 (2007) 249 0 0 9 14 43 186 212 395 819
2025-12-04 23:30 3.29 17 7200 (1974) 0 (2007) 249 0 0 9 14 43 186 212 395 819
2025-12-04 22:30 3.29 17 4350 (1974) 0 (2007) 250 0 0 7 11 39 191 225 458 596
2025-12-04 21:30 3.30 18 4350 (1974) 0 (2007) 250 0 0 7 11 39 191 225 458 596
2025-12-04 20:30 3.30 18 4350 (1974) 0 (2007) 250 0 0 7 11 39 191 225 458 596
2025-12-04 19:30 3.30 18 4350 (1974) 0 (2007) 250 0 0 7 11 39 191 225 458 596
2025-12-04 18:30 3.30 18 4350 (1974) 0 (2007) 250 0 0 7 11 39 191 225 458 596
2025-12-04 17:30 3.30 18 4350 (1974) 0 (2007) 250 0 0 7 11 39 191 225 458 596
2025-12-04 16:30 3.31 18 4350 (1974) 0 (2007) 250 0 0 7 11 39 191 225 458 596
2025-12-04 15:30 3.31 18 4350 (1974) 0 (2007) 250 0 0 7 11 39 191 225 458 596
2025-12-04 14:30 3.31 18 4350 (1974) 0 (2007) 250 0 0 7 11 39 191 225 458 596
2025-12-04 13:30 3.32 19 4350 (1974) 0 (2007) 250 0 0 7 11 39 191 225 458 596
2025-12-04 12:30 3.32 19 4350 (1974) 0 (2007) 250 0 0 7 11 39 191 225 458 596
2025-12-04 11:30 3.32 19 4350 (1974) 0 (2007) 250 0 0 7 11 39 191 225 458 596
2025-12-04 10:30 3.33 20 4350 (1974) 0 (2007) 250 0 0 7 11 39 191 225 458 596
2025-12-04 09:30 3.33 20 4350 (1974) 0 (2007) 250 0 0 7 11 39 191 225 458 596
2025-12-04 08:30 3.33 20 4350 (1974) 0 (2007) 250 0 0 7 11 39 191 225 458 596
2025-12-04 07:30 3.34 21 4350 (1974) 0 (2007) 250 0 0 7 11 39 191 225 458 596
2025-12-04 06:30 3.34 21 4350 (1974) 0 (2007) 250 0 0 7 11 39 191 225 458 596
2025-12-04 05:30 3.34 21 4350 (1974) 0 (2007) 250 0 0 7 11 39 191 225 458 596
2025-12-04 04:30 3.34 21 4350 (1974) 0 (2007) 250 0 0 7 11 39 191 225 458 596
2025-12-04 03:30 3.35 21 4350 (1974) 0 (2007) 250 0 0 7 11 39 191 225 458 596
2025-12-04 02:30 3.35 21 4350 (1974) 0 (2007) 250 0 0 7 11 39 191 225 458 596
2025-12-04 01:30 3.35 21 4350 (1974) 0 (2007) 250 0 0 7 11 39 191 225 458 596
2025-12-04 00:30 3.36 22 4350 (1974) 0 (2007) 250 0 0 7 11 39 191 225 458 596
2025-12-03 23:30 3.36 22 4350 (1974) 0 (2007) 250 0 0 7 11 39 191 225 458 596
2025-12-03 22:30 3.36 22 4890 (1983) 0 (2007) 200 0 0 5 11 41 199 256 507 660
2025-12-03 21:30 3.36 22 4890 (1983) 0 (2007) 200 0 0 5 11 41 199 256 507 660
2025-12-03 20:30 3.36 22 4890 (1983) 0 (2007) 200 0 0 5 11 41 199 256 507 660
2025-12-03 19:30 3.36 22 4890 (1983) 0 (2007) 200 0 0 5 11 41 199 256 507 660
2025-12-03 18:30 3.36 22 4890 (1983) 0 (2007) 200 0 0 5 11 41 199 256 507 660
2025-12-03 17:30 3.36 22 4890 (1983) 0 (2007) 200 0 0 5 11 41 199 256 507 660
2025-12-03 16:30 3.36 22 4890 (1983) 0 (2007) 200 0 0 5 11 41 199 256 507 660
2025-12-03 15:30 3.35 32 4890 (1983) 0 (2007) 200 0 0 5 11 41 199 256 507 660
2025-12-03 14:30 3.35 32 4890 (1983) 0 (2007) 200 0 0 5 11 41 199 256 507 660
2025-12-03 13:30 3.35 32 4890 (1983) 0 (2007) 200 0 0 5 11 41 199 256 507 660
2025-12-03 12:30 3.34 32 4890 (1983) 0 (2007) 200 0 0 5 11 41 199 256 507 660
2025-12-03 11:30 3.34 32 4890 (1983) 0 (2007) 200 0 0 5 11 41 199 256 507 660
2025-12-03 10:30 3.34 32 4890 (1983) 0 (2007) 200 0 0 5 11 41 199 256 507 660
2025-12-03 09:30 3.33 31 4890 (1983) 0 (2007) 200 0 0 5 11 41 199 256 507 660
2025-12-03 08:30 3.33 31 4890 (1983) 0 (2007) 200 0 0 5 11 41 199 256 507 660
2025-12-03 07:30 3.33 31 4890 (1983) 0 (2007) 200 0 0 5 11 41 199 256 507 660
2025-12-03 06:30 3.32 30 4890 (1983) 0 (2007) 200 0 0 5 11 41 199 256 507 660
2025-12-03 05:30 3.32 30 4890 (1983) 0 (2007) 200 0 0 5 11 41 199 256 507 660
2025-12-03 04:30 3.32 30 4890 (1983) 0 (2007) 200 0 0 5 11 41 199 256 507 660
2025-12-03 03:30 3.32 30 4890 (1983) 0 (2007) 200 0 0 5 11 41 199 256 507 660
2025-12-03 02:30 3.32 30 4890 (1983) 0 (2007) 200 0 0 5 11 41 199 256 507 660
2025-12-03 01:30 3.32 30 4890 (1983) 0 (2007) 200 0 0 5 11 41 199 256 507 660
2025-12-03 00:30 3.32 30 4890 (1983) 0 (2007) 200 0 0 5 11 41 199 256 507 660
2025-12-02 23:30 3.32 30 4890 (1983) 0 (2007) 200 0 0 5 11 41 199 256 507 660
2025-12-02 22:30 3.32 30 2500 (1986) 0 (2007) 204 0 0 4 9 41 206 274 627 884
2025-12-02 21:30 3.32 30 2500 (1986) 0 (2007) 204 0 0 4 9 41 206 274 627 884
2025-12-02 20:30 3.32 30 2500 (1986) 0 (2007) 204 0 0 4 9 41 206 274 627 884
2025-12-02 19:30 3.33 31 2500 (1986) 0 (2007) 204 0 0 4 9 41 206 274 627 884
2025-12-02 18:30 3.33 31 2500 (1986) 0 (2007) 204 0 0 4 9 41 206 274 627 884
2025-12-02 17:30 3.33 31 2500 (1986) 0 (2007) 204 0 0 4 9 41 206 274 627 884
2025-12-02 16:30 3.33 31 2500 (1986) 0 (2007) 204 0 0 4 9 41 206 274 627 884
2025-12-02 15:30 3.34 32 2500 (1986) 0 (2007) 204 0 0 4 9 41 206 274 627 884
2025-12-02 14:30 3.34 32 2500 (1986) 0 (2007) 204 0 0 4 9 41 206 274 627 884
2025-12-02 13:30 3.34 32 2500 (1986) 0 (2007) 204 0 0 4 9 41 206 274 627 884
2025-12-02 12:30 3.33 31 2500 (1986) 0 (2007) 204 0 0 4 9 41 206 274 627 884
2025-12-02 11:30 3.33 31 2500 (1986) 0 (2007) 204 0 0 4 9 41 206 274 627 884
2025-12-02 10:30 3.34 32 2500 (1986) 0 (2007) 204 0 0 4 9 41 206 274 627 884
2025-12-02 09:30 3.34 32 2500 (1986) 0 (2007) 204 0 0 4 9 41 206 274 627 884
2025-12-02 08:30 3.33 31 2500 (1986) 0 (2007) 204 0 0 4 9 41 206 274 627 884
2025-12-02 07:30 3.33 31 2500 (1986) 0 (2007) 204 0 0 4 9 41 206 274 627 884
2025-12-02 06:30 3.33 31 2500 (1986) 0 (2007) 204 0 0 4 9 41 206 274 627 884
2025-12-02 05:30 3.33 31 2500 (1986) 0 (2007) 204 0 0 4 9 41 206 274 627 884
2025-12-02 04:30 3.32 30 2500 (1986) 0 (2007) 204 0 0 4 9 41 206 274 627 884
2025-12-02 03:30 3.32 30 2500 (1986) 0 (2007) 204 0 0 4 9 41 206 274 627 884
2025-12-02 02:30 3.31 29 2500 (1986) 0 (2007) 204 0 0 4 9 41 206 274 627 884
2025-12-02 01:30 3.31 29 2500 (1986) 0 (2007) 204 0 0 4 9 41 206 274 627 884
2025-12-02 00:30 3.30 29 2500 (1986) 0 (2007) 204 0 0 4 9 41 206 274 627 884
2025-12-01 23:30 3.30 29 2500 (1986) 0 (2007) 204 0 0 4 9 41 206 274 627 884
2025-12-01 22:30 3.29 28 3030 (1986) 0 (1954) 241 0 0 4 8 43 184 253 803 1440
2025-12-01 21:30 3.28 27 3030 (1986) 0 (1954) 241 0 0 4 8 43 184 253 803 1440
2025-12-01 20:30 3.27 27 3030 (1986) 0 (1954) 241 0 0 4 8 43 184 253 803 1440
2025-12-01 19:30 3.27 27 3030 (1986) 0 (1954) 241 0 0 4 8 43 184 253 803 1440
2025-12-01 18:30 3.26 26 3030 (1986) 0 (1954) 241 0 0 4 8 43 184 253 803 1440
2025-12-01 17:30 3.25 25 3030 (1986) 0 (1954) 241 0 0 4 8 43 184 253 803 1440
2025-12-01 16:30 3.25 25 3030 (1986) 0 (1954) 241 0 0 4 8 43 184 253 803 1440
2025-12-01 15:30 3.24 25 3030 (1986) 0 (1954) 241 0 0 4 8 43 184 253 803 1440
2025-12-01 14:30 3.24 25 3030 (1986) 0 (1954) 241 0 0 4 8 43 184 253 803 1440
2025-12-01 13:30 3.23 24 3030 (1986) 0 (1954) 241 0 0 4 8 43 184 253 803 1440
2025-12-01 12:30 3.23 24 3030 (1986) 0 (1954) 241 0 0 4 8 43 184 253 803 1440
2025-12-01 11:30 3.23 24 3030 (1986) 0 (1954) 241 0 0 4 8 43 184 253 803 1440
2025-12-01 10:30 3.23 24 3030 (1986) 0 (1954) 241 0 0 4 8 43 184 253 803 1440
2025-12-01 09:30 3.22 23 3030 (1986) 0 (1954) 241 0 0 4 8 43 184 253 803 1440
2025-12-01 08:30 3.22 23 3030 (1986) 0 (1954) 241 0 0 4 8 43 184 253 803 1440
2025-12-01 07:30 3.22 23 3030 (1986) 0 (1954) 241 0 0 4 8 43 184 253 803 1440
2025-12-01 06:30 3.22 23 3030 (1986) 0 (1954) 241 0 0 4 8 43 184 253 803 1440
2025-12-01 05:30 3.22 23 3030 (1986) 0 (1954) 241 0 0 4 8 43 184 253 803 1440
2025-12-01 04:30 3.22 23 3030 (1986) 0 (1954) 241 0 0 4 8 43 184 253 803 1440
2025-12-01 03:30 3.22 23 3030 (1986) 0 (1954) 241 0 0 4 8 43 184 253 803 1440
2025-12-01 02:30 3.22 23 3030 (1986) 0 (1954) 241 0 0 4 8 43 184 253 803 1440
2025-12-01 01:30 3.22 23 3030 (1986) 0 (1954) 241 0 0 4 8 43 184 253 803 1440
2025-12-01 00:30 3.22 23 3030 (1986) 0 (1954) 241 0 0 4 8 43 184 253 803 1440
2025-11-30 23:30 3.22 23 3030 (1986) 0 (1954) 241 0 0 4 8 43 184 253 803 1440
2025-11-30 22:30 3.23 24 3180 (2005) 0 (2007) 239 0 0 4 9 45 212 293 657 1310
2025-11-30 21:30 3.23 24 3180 (2005) 0 (2007) 239 0 0 4 9 45 212 293 657 1310
2025-11-30 20:30 3.23 24 3180 (2005) 0 (2007) 239 0 0 4 9 45 212 293 657 1310
2025-11-30 19:30 3.23 24 3180 (2005) 0 (2007) 239 0 0 4 9 45 212 293 657 1310
2025-11-30 18:30 3.23 24 3180 (2005) 0 (2007) 239 0 0 4 9 45 212 293 657 1310
2025-11-30 17:30 3.23 24 3180 (2005) 0 (2007) 239 0 0 4 9 45 212 293 657 1310
2025-11-30 16:30 3.24 25 3180 (2005) 0 (2007) 239 0 0 4 9 45 212 293 657 1310
2025-11-30 15:30 3.24 25 3180 (2005) 0 (2007) 239 0 0 4 9 45 212 293 657 1310
2025-11-30 14:30 3.24 25 3180 (2005) 0 (2007) 239 0 0 4 9 45 212 293 657 1310
2025-11-30 13:30 3.24 25 3180 (2005) 0 (2007) 239 0 0 4 9 45 212 293 657 1310
2025-11-30 12:30 3.24 25 3180 (2005) 0 (2007) 239 0 0 4 9 45 212 293 657 1310
2025-11-30 11:30 3.24 25 3180 (2005) 0 (2007) 239 0 0 4 9 45 212 293 657 1310
2025-11-30 10:30 3.24 25 3180 (2005) 0 (2007) 239 0 0 4 9 45 212 293 657 1310
2025-11-30 09:30 3.24 25 3180 (2005) 0 (2007) 239 0 0 4 9 45 212 293 657 1310
2025-11-30 08:30 3.24 25 3180 (2005) 0 (2007) 239 0 0 4 9 45 212 293 657 1310
2025-11-30 07:30 3.24 25 3180 (2005) 0 (2007) 239 0 0 4 9 45 212 293 657 1310
2025-11-30 06:30 3.24 25 3180 (2005) 0 (2007) 239 0 0 4 9 45 212 293 657 1310
2025-11-30 05:30 3.24 25 3180 (2005) 0 (2007) 239 0 0 4 9 45 212 293 657 1310
2025-11-30 04:30 3.24 25 3180 (2005) 0 (2007) 239 0 0 4 9 45 212 293 657 1310
2025-11-30 03:30 3.24 25 3180 (2005) 0 (2007) 239 0 0 4 9 45 212 293 657 1310
2025-11-30 02:30 3.24 25 3180 (2005) 0 (2007) 239 0 0 4 9 45 212 293 657 1310
2025-11-30 01:30 3.24 25 3180 (2005) 0 (2007) 239 0 0 4 9 45 212 293 657 1310
2025-11-30 00:30 3.24 25 3180 (2005) 0 (2007) 239 0 0 4 9 45 212 293 657 1310
2025-11-29 23:30 3.24 25 3180 (2005) 0 (2007) 239 0 0 4 9 45 212 293 657 1310
2025-11-29 22:30 3.24 25 3100 (1969) 0 (1954) 242 0 0 4 9 47 169 279 714 1500
2025-11-29 21:30 3.24 25 3100 (1969) 0 (1954) 242 0 0 4 9 47 169 279 714 1500
2025-11-29 20:30 3.24 25 3100 (1969) 0 (1954) 242 0 0 4 9 47 169 279 714 1500
2025-11-29 19:30 3.24 25 3100 (1969) 0 (1954) 242 0 0 4 9 47 169 279 714 1500
2025-11-29 18:30 3.24 25 3100 (1969) 0 (1954) 242 0 0 4 9 47 169 279 714 1500
2025-11-29 17:30 3.24 25 3100 (1969) 0 (1954) 242 0 0 4 9 47 169 279 714 1500
2025-11-29 16:30 3.24 25 3100 (1969) 0 (1954) 242 0 0 4 9 47 169 279 714 1500
2025-11-29 15:30 3.25 25 3100 (1969) 0 (1954) 242 0 0 4 9 47 169 279 714 1500
2025-11-29 14:30 3.24 25 3100 (1969) 0 (1954) 242 0 0 4 9 47 169 279 714 1500
2025-11-29 13:30 3.24 25 3100 (1969) 0 (1954) 242 0 0 4 9 47 169 279 714 1500
2025-11-29 12:30 3.24 25 3100 (1969) 0 (1954) 242 0 0 4 9 47 169 279 714 1500
2025-11-29 11:30 3.23 24 3100 (1969) 0 (1954) 242 0 0 4 9 47 169 279 714 1500
2025-11-29 10:30 3.22 23 3100 (1969) 0 (1954) 242 0 0 4 9 47 169 279 714 1500
2025-11-29 09:30 3.22 23 3100 (1969) 0 (1954) 242 0 0 4 9 47 169 279 714 1500
2025-11-29 08:30 3.22 23 3100 (1969) 0 (1954) 242 0 0 4 9 47 169 279 714 1500
2025-11-29 07:30 3.22 23 3100 (1969) 0 (1954) 242 0 0 4 9 47 169 279 714 1500
2025-11-29 06:30 3.22 23 3100 (1969) 0 (1954) 242 0 0 4 9 47 169 279 714 1500
2025-11-29 05:30 3.22 23 3100 (1969) 0 (1954) 242 0 0 4 9 47 169 279 714 1500
2025-11-29 04:30 3.22 23 3100 (1969) 0 (1954) 242 0 0 4 9 47 169 279 714 1500
2025-11-29 03:30 3.22 23 3100 (1969) 0 (1954) 242 0 0 4 9 47 169 279 714 1500
2025-11-29 02:30 3.21 23 3100 (1969) 0 (1954) 242 0 0 4 9 47 169 279 714 1500
2025-11-29 01:30 3.20 22 3100 (1969) 0 (1954) 242 0 0 4 9 47 169 279 714 1500
2025-11-29 00:30 3.20 22 3100 (1969) 0 (1954) 242 0 0 4 9 47 169 279 714 1500
2025-11-28 23:30 3.20 22 3100 (1969) 0 (1954) 242 0 0 4 9 47 169 279 714 1500
2025-11-28 22:30 3.20 22 6890 (2016) 0 (2007) 310 0 0 5 9 41 195 271 735 1470
2025-11-28 21:30 3.20 22 6890 (2016) 0 (2007) 310 0 0 5 9 41 195 271 735 1470
2025-11-28 20:30 3.20 22 6890 (2016) 0 (2007) 310 0 0 5 9 41 195 271 735 1470
2025-11-28 19:30 3.20 22 6890 (2016) 0 (2007) 310 0 0 5 9 41 195 271 735 1470
2025-11-28 18:30 3.20 22 6890 (2016) 0 (2007) 310 0 0 5 9 41 195 271 735 1470
2025-11-28 17:30 3.21 23 6890 (2016) 0 (2007) 310 0 0 5 9 41 195 271 735 1470
2025-11-28 16:30 3.21 23 6890 (2016) 0 (2007) 310 0 0 5 9 41 195 271 735 1470
2025-11-28 15:30 3.21 23 6890 (2016) 0 (2007) 310 0 0 5 9 41 195 271 735 1470
2025-11-28 14:30 3.21 23 6890 (2016) 0 (2007) 310 0 0 5 9 41 195 271 735 1470
2025-11-28 13:30 3.22 23 6890 (2016) 0 (2007) 310 0 0 5 9 41 195 271 735 1470
2025-11-28 12:30 3.22 23 6890 (2016) 0 (2007) 310 0 0 5 9 41 195 271 735 1470
2025-11-28 11:30 3.22 23 6890 (2016) 0 (2007) 310 0 0 5 9 41 195 271 735 1470
2025-11-28 10:30 3.23 24 6890 (2016) 0 (2007) 310 0 0 5 9 41 195 271 735 1470
2025-11-28 09:30 3.23 24 6890 (2016) 0 (2007) 310 0 0 5 9 41 195 271 735 1470
2025-11-28 08:30 3.23 24 6890 (2016) 0 (2007) 310 0 0 5 9 41 195 271 735 1470
2025-11-28 07:30 3.24 25 6890 (2016) 0 (2007) 310 0 0 5 9 41 195 271 735 1470
2025-11-28 06:30 3.24 25 6890 (2016) 0 (2007) 310 0 0 5 9 41 195 271 735 1470
2025-11-28 05:30 3.24 25 6890 (2016) 0 (2007) 310 0 0 5 9 41 195 271 735 1470
2025-11-28 04:30 3.25 25 6890 (2016) 0 (2007) 310 0 0 5 9 41 195 271 735 1470
2025-11-28 03:30 3.25 25 6890 (2016) 0 (2007) 310 0 0 5 9 41 195 271 735 1470
2025-11-28 02:30 3.26 26 6890 (2016) 0 (2007) 310 0 0 5 9 41 195 271 735 1470
2025-11-28 01:30 3.26 26 6890 (2016) 0 (2007) 310 0 0 5 9 41 195 271 735 1470
2025-11-28 00:30 3.26 26 6890 (2016) 0 (2007) 310 0 0 5 9 41 195 271 735 1470
2025-11-27 23:30 3.27 27 6890 (2016) 0 (2007) 310 0 0 5 9 41 195 271 735 1470
2025-11-27 22:30 3.27 27 3970 (2016) 0 (1954) 268 0 0 6 8 39 199 294 994 1350
2025-11-27 21:30 3.27 27 3970 (2016) 0 (1954) 268 0 0 6 8 39 199 294 994 1350
2025-11-27 20:30 3.28 27 3970 (2016) 0 (1954) 268 0 0 6 8 39 199 294 994 1350
2025-11-27 19:30 3.28 27 3970 (2016) 0 (1954) 268 0 0 6 8 39 199 294 994 1350
2025-11-27 18:30 3.28 27 3970 (2016) 0 (1954) 268 0 0 6 8 39 199 294 994 1350
2025-11-27 17:30 3.28 27 3970 (2016) 0 (1954) 268 0 0 6 8 39 199 294 994 1350
2025-11-27 16:30 3.29 28 3970 (2016) 0 (1954) 268 0 0 6 8 39 199 294 994 1350
2025-11-27 15:30 3.29 28 3970 (2016) 0 (1954) 268 0 0 6 8 39 199 294 994 1350
2025-11-27 14:30 3.29 28 3970 (2016) 0 (1954) 268 0 0 6 8 39 199 294 994 1350
2025-11-27 13:30 3.30 29 3970 (2016) 0 (1954) 268 0 0 6 8 39 199 294 994 1350
2025-11-27 12:30 3.30 29 3970 (2016) 0 (1954) 268 0 0 6 8 39 199 294 994 1350
2025-11-27 11:30 3.30 29 3970 (2016) 0 (1954) 268 0 0 6 8 39 199 294 994 1350
2025-11-27 10:30 3.31 29 3970 (2016) 0 (1954) 268 0 0 6 8 39 199 294 994 1350
2025-11-27 09:30 3.31 29 3970 (2016) 0 (1954) 268 0 0 6 8 39 199 294 994 1350
2025-11-27 08:30 30 3970 (2016) 0 (1954) 268 0 0 6 8 39 199 294 994 1350
2025-11-27 07:30 3.32 3970 (2016) 0 (1954) 268 0 0 6 8 39 199 294 994 1350
2025-11-27 05:30 3.33 31 3970 (2016) 0 (1954) 268 0 0 6 8 39 199 294 994 1350
2025-11-27 04:30 3.33 31 3970 (2016) 0 (1954) 268 0 0 6 8 39 199 294 994 1350
2025-11-27 03:30 3.33 31 3970 (2016) 0 (1954) 268 0 0 6 8 39 199 294 994 1350
2025-11-27 02:30 3.34 32 3970 (2016) 0 (1954) 268 0 0 6 8 39 199 294 994 1350
2025-11-27 01:30 3.34 32 3970 (2016) 0 (1954) 268 0 0 6 8 39 199 294 994 1350
2025-11-27 00:30 3.35 32 3970 (2016) 0 (1954) 268 0 0 6 8 39 199 294 994 1350
2025-11-26 23:30 3.35 32 3970 (2016) 0 (1954) 268 0 0 6 8 39 199 294 994 1350
2025-11-26 22:30 3.35 32 5670 (1988) 0 (2007) 278 0 0 5 8 26 162 271 587 1770
2025-11-26 21:30 3.36 33 5670 (1988) 0 (2007) 278 0 0 5 8 26 162 271 587 1770
2025-11-26 20:30 3.36 33 5670 (1988) 0 (2007) 278 0 0 5 8 26 162 271 587 1770
2025-11-26 19:30 3.37 34 5670 (1988) 0 (2007) 278 0 0 5 8 26 162 271 587 1770
2025-11-26 18:30 3.37 34 5670 (1988) 0 (2007) 278 0 0 5 8 26 162 271 587 1770
2025-11-26 17:30 3.38 35 5670 (1988) 0 (2007) 278 0 0 5 8 26 162 271 587 1770
2025-11-26 16:30 3.38 35 5670 (1988) 0 (2007) 278 0 0 5 8 26 162 271 587 1770
2025-11-26 15:30 3.39 35 5670 (1988) 0 (2007) 278 0 0 5 8 26 162 271 587 1770
2025-11-26 14:30 3.40 36 5670 (1988) 0 (2007) 278 0 0 5 8 26 162 271 587 1770
2025-11-26 13:30 3.40 36 5670 (1988) 0 (2007) 278 0 0 5 8 26 162 271 587 1770
2025-11-26 12:30 3.41 37 5670 (1988) 0 (2007) 278 0 0 5 8 26 162 271 587 1770
2025-11-26 11:30 3.42 38 5670 (1988) 0 (2007) 278 0 0 5 8 26 162 271 587 1770
2025-11-26 10:30 3.42 38 5670 (1988) 0 (2007) 278 0 0 5 8 26 162 271 587 1770
2025-11-26 09:30 3.42 38 5670 (1988) 0 (2007) 278 0 0 5 8 26 162 271 587 1770
2025-11-26 08:30 3.43 38 5670 (1988) 0 (2007) 278 0 0 5 8 26 162 271 587 1770
2025-11-26 07:30 3.43 38 5670 (1988) 0 (2007) 278 0 0 5 8 26 162 271 587 1770
2025-11-26 06:30 3.44 39 5670 (1988) 0 (2007) 278 0 0 5 8 26 162 271 587 1770
2025-11-26 05:30 3.45 40 5670 (1988) 0 (2007) 278 0 0 5 8 26 162 271 587 1770
2025-11-26 04:30 3.45 40 5670 (1988) 0 (2007) 278 0 0 5 8 26 162 271 587 1770
2025-11-26 03:30 3.46 41 5670 (1988) 0 (2007) 278 0 0 5 8 26 162 271 587 1770
2025-11-26 02:30 3.46 41 5670 (1988) 0 (2007) 278 0 0 5 8 26 162 271 587 1770
2025-11-26 01:30 3.47 42 5670 (1988) 0 (2007) 278 0 0 5 8 26 162 271 587 1770
2025-11-26 00:30 3.48 43 5670 (1988) 0 (2007) 278 0 0 5 8 26 162 271 587 1770
2025-11-25 23:30 3.49 43 5670 (1988) 0 (2007) 278 0 0 5 8 26 162 271 587 1770
2025-11-25 22:30 3.49 43 6160 (1988) 0 (1954) 330 0 0 5 7 25 180 251 506 1820
2025-11-25 21:30 3.50 44 6160 (1988) 0 (1954) 330 0 0 5 7 25 180 251 506 1820
2025-11-25 20:30 3.51 45 6160 (1988) 0 (1954) 330 0 0 5 7 25 180 251 506 1820
2025-11-25 19:30 3.52 46 6160 (1988) 0 (1954) 330 0 0 5 7 25 180 251 506 1820
2025-11-25 18:30 3.53 47 6160 (1988) 0 (1954) 330 0 0 5 7 25 180 251 506 1820
2025-11-25 17:30 3.53 47 6160 (1988) 0 (1954) 330 0 0 5 7 25 180 251 506 1820
2025-11-25 16:30 3.54 48 6160 (1988) 0 (1954) 330 0 0 5 7 25 180 251 506 1820
2025-11-25 15:30 3.55 49 6160 (1988) 0 (1954) 330 0 0 5 7 25 180 251 506 1820
2025-11-25 14:30 3.56 50 6160 (1988) 0 (1954) 330 0 0 5 7 25 180 251 506 1820
2025-11-25 13:30 3.57 51 6160 (1988) 0 (1954) 330 0 0 5 7 25 180 251 506 1820
2025-11-25 12:30 3.57 51 6160 (1988) 0 (1954) 330 0 0 5 7 25 180 251 506 1820
2025-11-25 11:30 3.58 52 6160 (1988) 0 (1954) 330 0 0 5 7 25 180 251 506 1820
2025-11-25 10:30 3.58 52 6160 (1988) 0 (1954) 330 0 0 5 7 25 180 251 506 1820
2025-11-25 09:30 3.59 53 6160 (1988) 0 (1954) 330 0 0 5 7 25 180 251 506 1820
2025-11-25 08:30 3.60 54 6160 (1988) 0 (1954) 330 0 0 5 7 25 180 251 506 1820
2025-11-25 07:30 3.60 54 6160 (1988) 0 (1954) 330 0 0 5 7 25 180 251 506 1820
2025-11-25 06:30 3.61 55 6160 (1988) 0 (1954) 330 0 0 5 7 25 180 251 506 1820
2025-11-25 05:30 3.61 55 6160 (1988) 0 (1954) 330 0 0 5 7 25 180 251 506 1820
2025-11-25 04:30 3.62 56 6160 (1988) 0 (1954) 330 0 0 5 7 25 180 251 506 1820
2025-11-25 03:30 3.63 57 6160 (1988) 0 (1954) 330 0 0 5 7 25 180 251 506 1820
2025-11-25 02:30 3.63 57 6160 (1988) 0 (1954) 330 0 0 5 7 25 180 251 506 1820
2025-11-25 01:30 3.64 58 6160 (1988) 0 (1954) 330 0 0 5 7 25 180 251 506 1820
2025-11-25 00:30 3.65 59 6160 (1988) 0 (1954) 330 0 0 5 7 25 180 251 506 1820
2025-11-24 23:30 3.64 58 6160 (1988) 0 (1954) 330 0 0 5 7 25 180 251 506 1820
2025-11-24 22:30 3.65 59 5550 (1993) 0 (2007) 274 0 0 4 8 28 168 278 513 1180
2025-11-24 21:30 3.65 59 5550 (1993) 0 (2007) 274 0 0 4 8 28 168 278 513 1180
2025-11-24 20:30 3.66 60 5550 (1993) 0 (2007) 274 0 0 4 8 28 168 278 513 1180
2025-11-24 19:30 3.66 60 5550 (1993) 0 (2007) 274 0 0 4 8 28 168 278 513 1180
2025-11-24 18:30 3.66 60 5550 (1993) 0 (2007) 274 0 0 4 8 28 168 278 513 1180
2025-11-24 17:30 3.67 61 5550 (1993) 0 (2007) 274 0 0 4 8 28 168 278 513 1180
2025-11-24 16:30 3.66 60 5550 (1993) 0 (2007) 274 0 0 4 8 28 168 278 513 1180
2025-11-24 15:30 3.66 60 5550 (1993) 0 (2007) 274 0 0 4 8 28 168 278 513 1180
2025-11-24 14:30 3.67 61 5550 (1993) 0 (2007) 274 0 0 4 8 28 168 278 513 1180
2025-11-24 13:30 3.68 62 5550 (1993) 0 (2007) 274 0 0 4 8 28 168 278 513 1180
2025-11-24 12:30 3.68 62 5550 (1993) 0 (2007) 274 0 0 4 8 28 168 278 513 1180
2025-11-24 11:30 3.69 63 5550 (1993) 0 (2007) 274 0 0 4 8 28 168 278 513 1180
2025-11-24 10:30 3.70 64 5550 (1993) 0 (2007) 274 0 0 4 8 28 168 278 513 1180
2025-11-24 09:30 3.70 64 5550 (1993) 0 (2007) 274 0 0 4 8 28 168 278 513 1180
2025-11-24 08:30 3.71 65 5550 (1993) 0 (2007) 274 0 0 4 8 28 168 278 513 1180
2025-11-24 07:30 3.72 66 5550 (1993) 0 (2007) 274 0 0 4 8 28 168 278 513 1180
2025-11-24 06:30 3.73 67 5550 (1993) 0 (2007) 274 0 0 4 8 28 168 278 513 1180
2025-11-24 05:30 3.74 68 5550 (1993) 0 (2007) 274 0 0 4 8 28 168 278 513 1180
2025-11-24 04:30 3.75 70 5550 (1993) 0 (2007) 274 0 0 4 8 28 168 278 513 1180
2025-11-24 03:30 3.77 72 5550 (1993) 0 (2007) 274 0 0 4 8 28 168 278 513 1180
2025-11-24 02:30 3.78 73 5550 (1993) 0 (2007) 274 0 0 4 8 28 168 278 513 1180
2025-11-24 01:30 3.79 74 5550 (1993) 0 (2007) 274 0 0 4 8 28 168 278 513 1180
2025-11-24 00:30 3.81 77 5550 (1993) 0 (2007) 274 0 0 4 8 28 168 278 513 1180
2025-11-23 23:30 3.82 78 5550 (1993) 0 (2007) 274 0 0 4 8 28 168 278 513 1180
2025-11-23 22:30 3.83 79 9840 (1993) 0 (1954) 307 0 0 4 6 29 175 272 655 970
2025-11-23 21:30 3.84 81 9840 (1993) 0 (1954) 307 0 0 4 6 29 175 272 655 970
2025-11-23 20:30 3.86 83 9840 (1993) 0 (1954) 307 0 0 4 6 29 175 272 655 970
2025-11-23 19:30 3.87 85 9840 (1993) 0 (1954) 307 0 0 4 6 29 175 272 655 970
2025-11-23 18:30 3.88 86 9840 (1993) 0 (1954) 307 0 0 4 6 29 175 272 655 970
2025-11-23 17:30 3.89 87 9840 (1993) 0 (1954) 307 0 0 4 6 29 175 272 655 970
2025-11-23 16:30 3.90 89 9840 (1993) 0 (1954) 307 0 0 4 6 29 175 272 655 970
2025-11-23 15:30 3.92 91 9840 (1993) 0 (1954) 307 0 0 4 6 29 175 272 655 970
2025-11-23 14:30 3.93 93 9840 (1993) 0 (1954) 307 0 0 4 6 29 175 272 655 970
2025-11-23 13:30 3.95 96 9840 (1993) 0 (1954) 307 0 0 4 6 29 175 272 655 970
2025-11-23 12:30 3.97 98 9840 (1993) 0 (1954) 307 0 0 4 6 29 175 272 655 970
2025-11-23 11:30 3.99 101 9840 (1993) 0 (1954) 307 0 0 4 6 29 175 272 655 970
2025-11-23 10:30 4.01 104 9840 (1993) 0 (1954) 307 0 0 4 6 29 175 272 655 970
2025-11-23 09:30 4.03 107 9840 (1993) 0 (1954) 307 0 0 4 6 29 175 272 655 970
2025-11-23 08:30 4.05 110 9840 (1993) 0 (1954) 307 0 0 4 6 29 175 272 655 970
2025-11-23 07:30 4.07 114 9840 (1993) 0 (1954) 307 0 0 4 6 29 175 272 655 970
2025-11-23 06:30 4.09 117 9840 (1993) 0 (1954) 307 0 0 4 6 29 175 272 655 970
2025-11-23 05:30 4.11 120 9840 (1993) 0 (1954) 307 0 0 4 6 29 175 272 655 970
2025-11-23 04:30 4.12 122 9840 (1993) 0 (1954) 307 0 0 4 6 29 175 272 655 970
2025-11-23 03:30 4.13 123 9840 (1993) 0 (1954) 307 0 0 4 6 29 175 272 655 970
2025-11-23 02:30 4.13 123 9840 (1993) 0 (1954) 307 0 0 4 6 29 175 272 655 970
2025-11-23 01:30 4.12 122 9840 (1993) 0 (1954) 307 0 0 4 6 29 175 272 655 970
2025-11-23 00:30 4.11 120 9840 (1993) 0 (1954) 307 0 0 4 6 29 175 272 655 970
2025-11-22 23:30 4.12 122 9840 (1993) 0 (1954) 307 0 0 4 6 29 175 272 655 970
2025-11-22 22:30 4.17 129 7870 (1980) 0 (2007) 363 0 0 3 5 30 219 285 646 946
2025-11-22 21:30 4.04 109 7870 (1980) 0 (2007) 363 0 0 3 5 30 219 285 646 946
2025-11-22 20:30 3.80 76 7870 (1980) 0 (2007) 363 0 0 3 5 30 219 285 646 946
2025-11-22 19:30 3.76 71 7870 (1980) 0 (2007) 363 0 0 3 5 30 219 285 646 946
2025-11-22 18:30 3.77 72 7870 (1980) 0 (2007) 363 0 0 3 5 30 219 285 646 946
2025-11-22 17:30 3.77 72 7870 (1980) 0 (2007) 363 0 0 3 5 30 219 285 646 946
2025-11-22 16:30 3.78 73 7870 (1980) 0 (2007) 363 0 0 3 5 30 219 285 646 946
2025-11-22 15:30 3.79 74 7870 (1980) 0 (2007) 363 0 0 3 5 30 219 285 646 946
2025-11-22 14:30 3.80 76 7870 (1980) 0 (2007) 363 0 0 3 5 30 219 285 646 946
2025-11-22 13:30 3.81 77 7870 (1980) 0 (2007) 363 0 0 3 5 30 219 285 646 946
2025-11-22 12:30 3.83 79 7870 (1980) 0 (2007) 363 0 0 3 5 30 219 285 646 946
2025-11-22 11:30 3.84 81 7870 (1980) 0 (2007) 363 0 0 3 5 30 219 285 646 946
2025-11-22 10:30 3.85 82 7870 (1980) 0 (2007) 363 0 0 3 5 30 219 285 646 946
2025-11-22 09:30 3.86 83 7870 (1980) 0 (2007) 363 0 0 3 5 30 219 285 646 946
2025-11-22 08:30 3.87 85 7870 (1980) 0 (2007) 363 0 0 3 5 30 219 285 646 946
2025-11-22 07:30 3.88 86 7870 (1980) 0 (2007) 363 0 0 3 5 30 219 285 646 946
2025-11-22 06:30 3.88 86 7870 (1980) 0 (2007) 363 0 0 3 5 30 219 285 646 946
2025-11-22 05:30 3.89 87 7870 (1980) 0 (2007) 363 0 0 3 5 30 219 285 646 946
2025-11-22 04:30 3.90 89 7870 (1980) 0 (2007) 363 0 0 3 5 30 219 285 646 946
2025-11-22 03:30 3.91 90 7870 (1980) 0 (2007) 363 0 0 3 5 30 219 285 646 946
2025-11-22 02:30 3.92 91 7870 (1980) 0 (2007) 363 0 0 3 5 30 219 285 646 946
2025-11-22 01:30 3.93 93 7870 (1980) 0 (2007) 363 0 0 3 5 30 219 285 646 946
2025-11-22 00:30 3.93 93 7870 (1980) 0 (2007) 363 0 0 3 5 30 219 285 646 946
2025-11-21 23:30 3.93 93 7870 (1980) 0 (2007) 363 0 0 3 5 30 219 285 646 946
2025-11-21 22:30 3.92 91 8770 (1980) 0 (1954) 449 0 0 3 5 30 240 311 575 4700
2025-11-21 21:30 3.89 87 8770 (1980) 0 (1954) 449 0 0 3 5 30 240 311 575 4700
2025-11-21 20:30 3.83 79 8770 (1980) 0 (1954) 449 0 0 3 5 30 240 311 575 4700
2025-11-21 19:30 3.76 71 8770 (1980) 0 (1954) 449 0 0 3 5 30 240 311 575 4700
2025-11-21 18:30 3.73 67 8770 (1980) 0 (1954) 449 0 0 3 5 30 240 311 575 4700
2025-11-21 17:30 3.72 66 8770 (1980) 0 (1954) 449 0 0 3 5 30 240 311 575 4700
2025-11-21 16:30 3.72 66 8770 (1980) 0 (1954) 449 0 0 3 5 30 240 311 575 4700
2025-11-21 15:30 3.72 66 8770 (1980) 0 (1954) 449 0 0 3 5 30 240 311 575 4700
2025-11-21 14:30 3.72 66 8770 (1980) 0 (1954) 449 0 0 3 5 30 240 311 575 4700
2025-11-21 13:30 3.71 65 8770 (1980) 0 (1954) 449 0 0 3 5 30 240 311 575 4700
2025-11-21 12:30 3.72 66 8770 (1980) 0 (1954) 449 0 0 3 5 30 240 311 575 4700
2025-11-21 11:30 3.70 64 8770 (1980) 0 (1954) 449 0 0 3 5 30 240 311 575 4700
2025-11-21 10:30 3.69 63 8770 (1980) 0 (1954) 449 0 0 3 5 30 240 311 575 4700
2025-11-21 09:30 3.68 62 8770 (1980) 0 (1954) 449 0 0 3 5 30 240 311 575 4700
2025-11-21 08:30 3.67 61 8770 (1980) 0 (1954) 449 0 0 3 5 30 240 311 575 4700
2025-11-21 07:30 3.67 61 8770 (1980) 0 (1954) 449 0 0 3 5 30 240 311 575 4700
2025-11-21 06:30 3.66 60 8770 (1980) 0 (1954) 449 0 0 3 5 30 240 311 575 4700
2025-11-21 05:30 3.64 58 8770 (1980) 0 (1954) 449 0 0 3 5 30 240 311 575 4700
2025-11-21 04:30 3.62 56 8770 (1980) 0 (1954) 449 0 0 3 5 30 240 311 575 4700
2025-11-21 03:30 3.59 53 8770 (1980) 0 (1954) 449 0 0 3 5 30 240 311 575 4700
2025-11-21 02:30 3.55 49 8770 (1980) 0 (1954) 449 0 0 3 5 30 240 311 575 4700
2025-11-21 01:30 3.51 45 8770 (1980) 0 (1954) 449 0 0 3 5 30 240 311 575 4700
2025-11-21 00:30 3.48 43 8770 (1980) 0 (1954) 449 0 0 3 5 30 240 311 575 4700
2025-11-20 23:30 3.44 39 8770 (1980) 0 (1954) 449 0 0 3 5 30 240 311 575 4700
2025-11-20 22:30 3.43 38 9400 (1986) 0 (2007) 341 0 0 3 5 31 227 307 675 737
2025-11-20 21:30 3.42 38 9400 (1986) 0 (2007) 341 0 0 3 5 31 227 307 675 737
2025-11-20 20:30 3.42 38 9400 (1986) 0 (2007) 341 0 0 3 5 31 227 307 675 737
2025-11-20 19:30 3.42 38 9400 (1986) 0 (2007) 341 0 0 3 5 31 227 307 675 737
2025-11-20 18:30 3.42 38 9400 (1986) 0 (2007) 341 0 0 3 5 31 227 307 675 737
2025-11-20 17:30 3.41 37 9400 (1986) 0 (2007) 341 0 0 3 5 31 227 307 675 737
2025-11-20 16:30 3.41 37 9400 (1986) 0 (2007) 341 0 0 3 5 31 227 307 675 737
2025-11-20 15:30 3.41 37 9400 (1986) 0 (2007) 341 0 0 3 5 31 227 307 675 737
2025-11-20 14:30 3.41 37 9400 (1986) 0 (2007) 341 0 0 3 5 31 227 307 675 737
2025-11-20 13:30 3.41 37 9400 (1986) 0 (2007) 341 0 0 3 5 31 227 307 675 737
2025-11-20 12:30 3.41 37 9400 (1986) 0 (2007) 341 0 0 3 5 31 227 307 675 737
2025-11-20 11:30 3.41 37 9400 (1986) 0 (2007) 341 0 0 3 5 31 227 307 675 737
2025-11-20 10:30 3.41 37 9400 (1986) 0 (2007) 341 0 0 3 5 31 227 307 675 737
2025-11-20 09:30 3.40 36 9400 (1986) 0 (2007) 341 0 0 3 5 31 227 307 675 737
2025-11-20 08:30 3.40 36 9400 (1986) 0 (2007) 341 0 0 3 5 31 227 307 675 737
2025-11-20 07:30 3.40 36 9400 (1986) 0 (2007) 341 0 0 3 5 31 227 307 675 737
2025-11-20 06:30 3.40 36 9400 (1986) 0 (2007) 341 0 0 3 5 31 227 307 675 737
2025-11-20 05:30 3.40 36 9400 (1986) 0 (2007) 341 0 0 3 5 31 227 307 675 737
2025-11-20 04:30 3.39 35 9400 (1986) 0 (2007) 341 0 0 3 5 31 227 307 675 737
2025-11-20 03:30 3.36 33 9400 (1986) 0 (2007) 341 0 0 3 5 31 227 307 675 737
2025-11-20 02:30 3.34 32 9400 (1986) 0 (2007) 341 0 0 3 5 31 227 307 675 737
2025-11-20 01:30 3.33 31 9400 (1986) 0 (2007) 341 0 0 3 5 31 227 307 675 737
2025-11-20 00:30 3.33 31 9400 (1986) 0 (2007) 341 0 0 3 5 31 227 307 675 737
2025-11-19 23:30 3.33 31 9400 (1986) 0 (2007) 341 0 0 3 5 31 227 307 675 737
2025-11-19 22:30 3.33 31 10300 (1986) 0 (1954) 318 0 0 2 5 31 201 290 738 1180
2025-11-19 21:30 3.33 31 10300 (1986) 0 (1954) 318 0 0 2 5 31 201 290 738 1180
2025-11-19 20:30 3.33 31 10300 (1986) 0 (1954) 318 0 0 2 5 31 201 290 738 1180
2025-11-19 19:30 3.33 31 10300 (1986) 0 (1954) 318 0 0 2 5 31 201 290 738 1180
2025-11-19 18:30 3.33 31 10300 (1986) 0 (1954) 318 0 0 2 5 31 201 290 738 1180
2025-11-19 17:30 3.32 30 10300 (1986) 0 (1954) 318 0 0 2 5 31 201 290 738 1180
2025-11-19 16:30 3.33 31 10300 (1986) 0 (1954) 318 0 0 2 5 31 201 290 738 1180
2025-11-19 15:30 3.33 31 10300 (1986) 0 (1954) 318 0 0 2 5 31 201 290 738 1180
2025-11-19 14:30 3.33 31 10300 (1986) 0 (1954) 318 0 0 2 5 31 201 290 738 1180
2025-11-19 13:30 3.32 30 10300 (1986) 0 (1954) 318 0 0 2 5 31 201 290 738 1180
2025-11-19 12:30 3.32 30 10300 (1986) 0 (1954) 318 0 0 2 5 31 201 290 738 1180
2025-11-19 11:30 3.32 30 10300 (1986) 0 (1954) 318 0 0 2 5 31 201 290 738 1180
2025-11-19 10:30 3.32 30 10300 (1986) 0 (1954) 318 0 0 2 5 31 201 290 738 1180
2025-11-19 09:30 3.32 30 10300 (1986) 0 (1954) 318 0 0 2 5 31 201 290 738 1180
2025-11-19 08:30 3.32 30 10300 (1986) 0 (1954) 318 0 0 2 5 31 201 290 738 1180
2025-11-19 07:30 3.32 30 10300 (1986) 0 (1954) 318 0 0 2 5 31 201 290 738 1180
2025-11-19 06:30 3.32 30 10300 (1986) 0 (1954) 318 0 0 2 5 31 201 290 738 1180
2025-11-19 05:30 3.32 30 10300 (1986) 0 (1954) 318 0 0 2 5 31 201 290 738 1180
2025-11-19 04:30 3.32 30 10300 (1986) 0 (1954) 318 0 0 2 5 31 201 290 738 1180
2025-11-19 03:30 3.32 30 10300 (1986) 0 (1954) 318 0 0 2 5 31 201 290 738 1180
2025-11-19 02:30 3.32 30 10300 (1986) 0 (1954) 318 0 0 2 5 31 201 290 738 1180
2025-11-19 01:30 3.32 30 10300 (1986) 0 (1954) 318 0 0 2 5 31 201 290 738 1180
2025-11-19 00:30 3.32 30 10300 (1986) 0 (1954) 318 0 0 2 5 31 201 290 738 1180
2025-11-18 23:30 3.32 30 10300 (1986) 0 (1954) 318 0 0 2 5 31 201 290 738 1180
2025-11-18 22:30 3.32 30 3790 (1997) 0 (2007) 289 0 0 3 5 34 141 264 636 2530
2025-11-18 21:30 3.31 29 3790 (1997) 0 (2007) 289 0 0 3 5 34 141 264 636 2530
2025-11-18 20:30 3.31 29 3790 (1997) 0 (2007) 289 0 0 3 5 34 141 264 636 2530
2025-11-18 19:30 3.31 29 3790 (1997) 0 (2007) 289 0 0 3 5 34 141 264 636 2530
2025-11-18 18:30 3.31 29 3790 (1997) 0 (2007) 289 0 0 3 5 34 141 264 636 2530
2025-11-18 17:30 3.31 29 3790 (1997) 0 (2007) 289 0 0 3 5 34 141 264 636 2530
2025-11-18 16:30 3.31 29 3790 (1997) 0 (2007) 289 0 0 3 5 34 141 264 636 2530
2025-11-18 15:30 3.31 29 3790 (1997) 0 (2007) 289 0 0 3 5 34 141 264 636 2530
2025-11-18 14:30 3.31 29 3790 (1997) 0 (2007) 289 0 0 3 5 34 141 264 636 2530
2025-11-18 13:30 3.31 29 3790 (1997) 0 (2007) 289 0 0 3 5 34 141 264 636 2530
2025-11-18 12:30 3.30 29 3790 (1997) 0 (2007) 289 0 0 3 5 34 141 264 636 2530
2025-11-18 11:30 3.31 29 3790 (1997) 0 (2007) 289 0 0 3 5 34 141 264 636 2530
2025-11-18 10:30 3.30 29 3790 (1997) 0 (2007) 289 0 0 3 5 34 141 264 636 2530
2025-11-18 09:30 3.30 29 3790 (1997) 0 (2007) 289 0 0 3 5 34 141 264 636 2530
2025-11-18 08:30 3.30 29 3790 (1997) 0 (2007) 289 0 0 3 5 34 141 264 636 2530
2025-11-18 07:30 3.30 29 3790 (1997) 0 (2007) 289 0 0 3 5 34 141 264 636 2530
2025-11-18 06:30 3.30 29 3790 (1997) 0 (2007) 289 0 0 3 5 34 141 264 636 2530
2025-11-18 05:30 3.30 29 3790 (1997) 0 (2007) 289 0 0 3 5 34 141 264 636 2530
2025-11-18 04:30 3.30 29 3790 (1997) 0 (2007) 289 0 0 3 5 34 141 264 636 2530
2025-11-18 03:30 3.30 29 3790 (1997) 0 (2007) 289 0 0 3 5 34 141 264 636 2530
2025-11-18 02:30 3.30 29 3790 (1997) 0 (2007) 289 0 0 3 5 34 141 264 636 2530
2025-11-18 01:30 3.30 29 3790 (1997) 0 (2007) 289 0 0 3 5 34 141 264 636 2530
2025-11-18 00:30 3.30 29 3790 (1997) 0 (2007) 289 0 0 3 5 34 141 264 636 2530
2025-11-17 23:30 3.30 29 3790 (1997) 0 (2007) 289 0 0 3 5 34 141 264 636 2530
2025-11-17 22:30 3.30 29 5350 (1969) 0 (1954) 326 0 0 4 5 35 139 265 566 2230
2025-11-17 21:30 3.30 29 5350 (1969) 0 (1954) 326 0 0 4 5 35 139 265 566 2230
2025-11-17 20:30 3.30 29 5350 (1969) 0 (1954) 326 0 0 4 5 35 139 265 566 2230
2025-11-17 19:30 3.29 28 5350 (1969) 0 (1954) 326 0 0 4 5 35 139 265 566 2230
2025-11-17 18:30 3.29 28 5350 (1969) 0 (1954) 326 0 0 4 5 35 139 265 566 2230
2025-11-17 17:30 3.30 29 5350 (1969) 0 (1954) 326 0 0 4 5 35 139 265 566 2230
2025-11-17 16:30 3.29 28 5350 (1969) 0 (1954) 326 0 0 4 5 35 139 265 566 2230
2025-11-17 15:30 3.29 28 5350 (1969) 0 (1954) 326 0 0 4 5 35 139 265 566 2230
2025-11-17 14:30 3.29 28 5350 (1969) 0 (1954) 326 0 0 4 5 35 139 265 566 2230
2025-11-17 13:30 3.30 29 5350 (1969) 0 (1954) 326 0 0 4 5 35 139 265 566 2230
2025-11-17 12:30 3.29 28 5350 (1969) 0 (1954) 326 0 0 4 5 35 139 265 566 2230
2025-11-17 11:30 3.29 28 5350 (1969) 0 (1954) 326 0 0 4 5 35 139 265 566 2230
2025-11-17 10:30 3.27 27 5350 (1969) 0 (1954) 326 0 0 4 5 35 139 265 566 2230
2025-11-17 09:30 3.27 27 5350 (1969) 0 (1954) 326 0 0 4 5 35 139 265 566 2230
2025-11-17 08:30 3.28 27 5350 (1969) 0 (1954) 326 0 0 4 5 35 139 265 566 2230
2025-11-17 07:30 3.28 27 5350 (1969) 0 (1954) 326 0 0 4 5 35 139 265 566 2230
2025-11-17 06:30 3.28 27 5350 (1969) 0 (1954) 326 0 0 4 5 35 139 265 566 2230
2025-11-17 05:30 3.28 27 5350 (1969) 0 (1954) 326 0 0 4 5 35 139 265 566 2230
2025-11-17 04:30 3.28 27 5350 (1969) 0 (1954) 326 0 0 4 5 35 139 265 566 2230
2025-11-17 03:30 3.29 28 5350 (1969) 0 (1954) 326 0 0 4 5 35 139 265 566 2230
2025-11-17 02:30 3.29 28 5350 (1969) 0 (1954) 326 0 0 4 5 35 139 265 566 2230
2025-11-17 01:30 3.29 28 5350 (1969) 0 (1954) 326 0 0 4 5 35 139 265 566 2230
2025-11-17 00:30 3.29 28 5350 (1969) 0 (1954) 326 0 0 4 5 35 139 265 566 2230
2025-11-16 23:30 3.29 28 5350 (1969) 0 (1954) 326 0 0 4 5 35 139 265 566 2230
2025-11-16 22:30 3.29 28 6610 (1969) 0 (2007) 340 0 0 2 5 28 122 198 646 2530
2025-11-16 21:30 3.29 28 6610 (1969) 0 (2007) 340 0 0 2 5 28 122 198 646 2530
2025-11-16 20:30 3.29 28 6610 (1969) 0 (2007) 340 0 0 2 5 28 122 198 646 2530
2025-11-16 19:30 3.29 28 6610 (1969) 0 (2007) 340 0 0 2 5 28 122 198 646 2530
2025-11-16 18:30 3.29 28 6610 (1969) 0 (2007) 340 0 0 2 5 28 122 198 646 2530
2025-11-16 17:30 3.29 28 6610 (1969) 0 (2007) 340 0 0 2 5 28 122 198 646 2530
2025-11-16 16:30 3.29 28 6610 (1969) 0 (2007) 340 0 0 2 5 28 122 198 646 2530
2025-11-16 15:30 3.28 27 6610 (1969) 0 (2007) 340 0 0 2 5 28 122 198 646 2530
2025-11-16 14:30 3.29 28 6610 (1969) 0 (2007) 340 0 0 2 5 28 122 198 646 2530
2025-11-16 13:30 3.28 27 6610 (1969) 0 (2007) 340 0 0 2 5 28 122 198 646 2530
2025-11-16 12:30 3.28 27 6610 (1969) 0 (2007) 340 0 0 2 5 28 122 198 646 2530
2025-11-16 11:30 3.28 27 6610 (1969) 0 (2007) 340 0 0 2 5 28 122 198 646 2530
2025-11-16 10:30 3.28 27 6610 (1969) 0 (2007) 340 0 0 2 5 28 122 198 646 2530
2025-11-16 09:30 3.28 27 6610 (1969) 0 (2007) 340 0 0 2 5 28 122 198 646 2530
2025-11-16 08:30 3.28 27 6610 (1969) 0 (2007) 340 0 0 2 5 28 122 198 646 2530
2025-11-16 07:30 3.28 27 6610 (1969) 0 (2007) 340 0 0 2 5 28 122 198 646 2530
2025-11-16 06:30 3.28 27 6610 (1969) 0 (2007) 340 0 0 2 5 28 122 198 646 2530
2025-11-16 05:30 3.28 27 6610 (1969) 0 (2007) 340 0 0 2 5 28 122 198 646 2530
2025-11-16 04:30 3.28 27 6610 (1969) 0 (2007) 340 0 0 2 5 28 122 198 646 2530
2025-11-16 03:30 3.28 27 6610 (1969) 0 (2007) 340 0 0 2 5 28 122 198 646 2530
2025-11-16 02:30 3.28 27 6610 (1969) 0 (2007) 340 0 0 2 5 28 122 198 646 2530
2025-11-16 01:30 3.28 27 6610 (1969) 0 (2007) 340 0 0 2 5 28 122 198 646 2530
2025-11-16 00:30 3.28 27 6610 (1969) 0 (2007) 340 0 0 2 5 28 122 198 646 2530
2025-11-15 23:30 3.28 27 6610 (1969) 0 (2007) 340 0 0 2 5 28 122 198 646 2530
2025-11-15 22:30 3.28 27 7020 (1986) 0 (1954) 287 0 0 2 3 26 137 169 581 2050
2025-11-15 21:30 3.28 27 7020 (1986) 0 (1954) 287 0 0 2 3 26 137 169 581 2050
2025-11-15 20:30 3.28 27 7020 (1986) 0 (1954) 287 0 0 2 3 26 137 169 581 2050
2025-11-15 19:30 3.28 27 7020 (1986) 0 (1954) 287 0 0 2 3 26 137 169 581 2050
2025-11-15 18:30 3.28 27 7020 (1986) 0 (1954) 287 0 0 2 3 26 137 169 581 2050
2025-11-15 17:30 3.28 27 7020 (1986) 0 (1954) 287 0 0 2 3 26 137 169 581 2050
2025-11-15 16:30 3.27 27 7020 (1986) 0 (1954) 287 0 0 2 3 26 137 169 581 2050
2025-11-15 15:30 3.27 27 7020 (1986) 0 (1954) 287 0 0 2 3 26 137 169 581 2050
2025-11-15 14:30 3.28 27 7020 (1986) 0 (1954) 287 0 0 2 3 26 137 169 581 2050
2025-11-15 13:30 3.27 27 7020 (1986) 0 (1954) 287 0 0 2 3 26 137 169 581 2050
2025-11-15 12:30 3.27 27 7020 (1986) 0 (1954) 287 0 0 2 3 26 137 169 581 2050
2025-11-15 11:30 3.27 27 7020 (1986) 0 (1954) 287 0 0 2 3 26 137 169 581 2050
2025-11-15 10:30 3.27 27 7020 (1986) 0 (1954) 287 0 0 2 3 26 137 169 581 2050
2025-11-15 09:30 3.27 27 7020 (1986) 0 (1954) 287 0 0 2 3 26 137 169 581 2050
2025-11-15 08:30 3.27 27 7020 (1986) 0 (1954) 287 0 0 2 3 26 137 169 581 2050
2025-11-15 07:30 3.26 26 7020 (1986) 0 (1954) 287 0 0 2 3 26 137 169 581 2050
2025-11-15 06:30 3.26 26 7020 (1986) 0 (1954) 287 0 0 2 3 26 137 169 581 2050
2025-11-15 05:30 3.26 26 7020 (1986) 0 (1954) 287 0 0 2 3 26 137 169 581 2050
2025-11-15 04:30 3.26 26 7020 (1986) 0 (1954) 287 0 0 2 3 26 137 169 581 2050
2025-11-15 03:30 3.26 26 7020 (1986) 0 (1954) 287 0 0 2 3 26 137 169 581 2050
2025-11-15 02:30 3.26 26 7020 (1986) 0 (1954) 287 0 0 2 3 26 137 169 581 2050
2025-11-15 01:30 3.26 26 7020 (1986) 0 (1954) 287 0 0 2 3 26 137 169 581 2050
2025-11-15 00:30 3.26 26 7020 (1986) 0 (1954) 287 0 0 2 3 26 137 169 581 2050
2025-11-14 23:30 3.26 26 7020 (1986) 0 (1954) 287 0 0 2 3 26 137 169 581 2050
2025-11-14 22:30 3.26 26 6150 (1973) 0 (2007) 279 0 0 2 3 24 122 165 382 1500
2025-11-14 21:30 3.26 26 6150 (1973) 0 (2007) 279 0 0 2 3 24 122 165 382 1500
2025-11-14 20:30 3.26 26 6150 (1973) 0 (2007) 279 0 0 2 3 24 122 165 382 1500
2025-11-14 19:30 3.25 25 6150 (1973) 0 (2007) 279 0 0 2 3 24 122 165 382 1500
2025-11-14 18:30 3.26 26 6150 (1973) 0 (2007) 279 0 0 2 3 24 122 165 382 1500
2025-11-14 17:30 3.25 25 6150 (1973) 0 (2007) 279 0 0 2 3 24 122 165 382 1500
2025-11-14 16:30 3.26 26 6150 (1973) 0 (2007) 279 0 0 2 3 24 122 165 382 1500
2025-11-14 15:30 3.25 25 6150 (1973) 0 (2007) 279 0 0 2 3 24 122 165 382 1500
2025-11-14 14:30 3.26 26 6150 (1973) 0 (2007) 279 0 0 2 3 24 122 165 382 1500
2025-11-14 13:30 3.25 25 6150 (1973) 0 (2007) 279 0 0 2 3 24 122 165 382 1500
2025-11-14 12:30 3.25 25 6150 (1973) 0 (2007) 279 0 0 2 3 24 122 165 382 1500
2025-11-14 11:30 3.25 25 6150 (1973) 0 (2007) 279 0 0 2 3 24 122 165 382 1500
2025-11-14 10:30 3.25 25 6150 (1973) 0 (2007) 279 0 0 2 3 24 122 165 382 1500
2025-11-14 09:30 3.24 25 6150 (1973) 0 (2007) 279 0 0 2 3 24 122 165 382 1500
2025-11-14 08:30 3.25 25 6150 (1973) 0 (2007) 279 0 0 2 3 24 122 165 382 1500
2025-11-14 07:30 3.25 25 6150 (1973) 0 (2007) 279 0 0 2 3 24 122 165 382 1500
2025-11-14 06:30 3.24 25 6150 (1973) 0 (2007) 279 0 0 2 3 24 122 165 382 1500
2025-11-14 05:30 3.24 25 6150 (1973) 0 (2007) 279 0 0 2 3 24 122 165 382 1500
2025-11-14 04:30 3.24 25 6150 (1973) 0 (2007) 279 0 0 2 3 24 122 165 382 1500
2025-11-14 03:30 3.24 25 6150 (1973) 0 (2007) 279 0 0 2 3 24 122 165 382 1500
2025-11-14 02:30 3.24 25 6150 (1973) 0 (2007) 279 0 0 2 3 24 122 165 382 1500
2025-11-14 01:30 3.24 25 6150 (1973) 0 (2007) 279 0 0 2 3 24 122 165 382 1500
2025-11-14 00:30 3.24 25 6150 (1973) 0 (2007) 279 0 0 2 3 24 122 165 382 1500
2025-11-13 23:30 3.24 25 6150 (1973) 0 (2007) 279 0 0 2 3 24 122 165 382 1500
2025-11-13 22:30 3.24 25 6800 (1952) 0 (1954) 320 0 0 2 3 25 99 172 478 1270
2025-11-13 21:30 3.24 25 6800 (1952) 0 (1954) 320 0 0 2 3 25 99 172 478 1270
2025-11-13 20:30 3.24 25 6800 (1952) 0 (1954) 320 0 0 2 3 25 99 172 478 1270
2025-11-13 19:30 3.24 25 6800 (1952) 0 (1954) 320 0 0 2 3 25 99 172 478 1270
2025-11-13 18:30 3.24 25 6800 (1952) 0 (1954) 320 0 0 2 3 25 99 172 478 1270
2025-11-13 17:30 3.24 25 6800 (1952) 0 (1954) 320 0 0 2 3 25 99 172 478 1270
2025-11-13 16:30 3.24 25 6800 (1952) 0 (1954) 320 0 0 2 3 25 99 172 478 1270
2025-11-13 15:30 3.24 25 6800 (1952) 0 (1954) 320 0 0 2 3 25 99 172 478 1270
2025-11-13 14:30 3.24 25 6800 (1952) 0 (1954) 320 0 0 2 3 25 99 172 478 1270
2025-11-13 13:30 3.24 25 6800 (1952) 0 (1954) 320 0 0 2 3 25 99 172 478 1270
2025-11-13 12:30 3.24 25 6800 (1952) 0 (1954) 320 0 0 2 3 25 99 172 478 1270
2025-11-13 11:30 3.24 25 6800 (1952) 0 (1954) 320 0 0 2 3 25 99 172 478 1270
2025-11-13 10:30 3.24 25 6800 (1952) 0 (1954) 320 0 0 2 3 25 99 172 478 1270
2025-11-13 09:30 3.24 25 6800 (1952) 0 (1954) 320 0 0 2 3 25 99 172 478 1270
2025-11-13 08:30 3.24 25 6800 (1952) 0 (1954) 320 0 0 2 3 25 99 172 478 1270
2025-11-13 07:30 3.25 25 6800 (1952) 0 (1954) 320 0 0 2 3 25 99 172 478 1270
2025-11-13 06:30 3.24 25 6800 (1952) 0 (1954) 320 0 0 2 3 25 99 172 478 1270
2025-11-13 05:30 3.25 25 6800 (1952) 0 (1954) 320 0 0 2 3 25 99 172 478 1270
2025-11-13 04:30 3.25 25 6800 (1952) 0 (1954) 320 0 0 2 3 25 99 172 478 1270
2025-11-13 03:30 3.25 25 6800 (1952) 0 (1954) 320 0 0 2 3 25 99 172 478 1270
2025-11-13 02:30 3.25 25 6800 (1952) 0 (1954) 320 0 0 2 3 25 99 172 478 1270
2025-11-13 01:30 3.25 25 6800 (1952) 0 (1954) 320 0 0 2 3 25 99 172 478 1270
2025-11-13 00:30 3.25 25 6800 (1952) 0 (1954) 320 0 0 2 3 25 99 172 478 1270
2025-11-12 23:30 3.25 25 6800 (1952) 0 (1954) 320 0 0 2 3 25 99 172 478 1270
2025-11-12 22:30 3.25 25 6430 (1952) 0 (2007) 278 0 0 2 3 24 104 179 347 903
2025-11-12 21:30 3.25 25 6430 (1952) 0 (2007) 278 0 0 2 3 24 104 179 347 903
2025-11-12 20:30 3.25 25 6430 (1952) 0 (2007) 278 0 0 2 3 24 104 179 347 903
2025-11-12 19:30 3.25 25 6430 (1952) 0 (2007) 278 0 0 2 3 24 104 179 347 903
2025-11-12 18:30 3.25 25 6430 (1952) 0 (2007) 278 0 0 2 3 24 104 179 347 903
2025-11-12 17:30 3.25 25 6430 (1952) 0 (2007) 278 0 0 2 3 24 104 179 347 903
2025-11-12 16:30 3.25 25 6430 (1952) 0 (2007) 278 0 0 2 3 24 104 179 347 903
2025-11-12 15:30 3.26 26 6430 (1952) 0 (2007) 278 0 0 2 3 24 104 179 347 903
2025-11-12 14:30 3.25 25 6430 (1952) 0 (2007) 278 0 0 2 3 24 104 179 347 903
2025-11-12 13:30 3.26 26 6430 (1952) 0 (2007) 278 0 0 2 3 24 104 179 347 903
2025-11-12 12:30 3.25 25 6430 (1952) 0 (2007) 278 0 0 2 3 24 104 179 347 903
2025-11-12 11:30 3.25 25 6430 (1952) 0 (2007) 278 0 0 2 3 24 104 179 347 903
2025-11-12 10:30 3.25 25 6430 (1952) 0 (2007) 278 0 0 2 3 24 104 179 347 903
2025-11-12 09:30 3.26 26 6430 (1952) 0 (2007) 278 0 0 2 3 24 104 179 347 903
2025-11-12 08:30 3.26 26 6430 (1952) 0 (2007) 278 0 0 2 3 24 104 179 347 903
2025-11-12 07:30 3.26 26 6430 (1952) 0 (2007) 278 0 0 2 3 24 104 179 347 903
2025-11-12 06:30 3.26 26 6430 (1952) 0 (2007) 278 0 0 2 3 24 104 179 347 903
2025-11-12 05:30 3.26 26 6430 (1952) 0 (2007) 278 0 0 2 3 24 104 179 347 903
2025-11-12 04:30 3.25 25 6430 (1952) 0 (2007) 278 0 0 2 3 24 104 179 347 903
2025-11-12 03:30 3.25 25 6430 (1952) 0 (2007) 278 0 0 2 3 24 104 179 347 903
2025-11-12 02:30 3.25 25 6430 (1952) 0 (2007) 278 0 0 2 3 24 104 179 347 903
2025-11-12 01:30 3.26 26 6430 (1952) 0 (2007) 278 0 0 2 3 24 104 179 347 903
2025-11-12 00:30 3.25 25 6430 (1952) 0 (2007) 278 0 0 2 3 24 104 179 347 903
2025-11-11 23:30 3.26 26 6430 (1952) 0 (2007) 278 0 0 2 3 24 104 179 347 903
2025-11-11 22:30 3.26 26 4620 (1952) 0 (1954) 180 0 0 2 3 24 105 189 436 1130
2025-11-11 21:30 3.25 25 4620 (1952) 0 (1954) 180 0 0 2 3 24 105 189 436 1130
2025-11-11 20:30 3.25 25 4620 (1952) 0 (1954) 180 0 0 2 3 24 105 189 436 1130
2025-11-11 19:30 3.25 25 4620 (1952) 0 (1954) 180 0 0 2 3 24 105 189 436 1130
2025-11-11 18:30 3.25 25 4620 (1952) 0 (1954) 180 0 0 2 3 24 105 189 436 1130
2025-11-11 17:30 3.25 25 4620 (1952) 0 (1954) 180 0 0 2 3 24 105 189 436 1130
2025-11-11 16:30 3.25 25 4620 (1952) 0 (1954) 180 0 0 2 3 24 105 189 436 1130
2025-11-11 15:30 3.24 25 4620 (1952) 0 (1954) 180 0 0 2 3 24 105 189 436 1130
2025-11-11 14:30 3.24 25 4620 (1952) 0 (1954) 180 0 0 2 3 24 105 189 436 1130
2025-11-11 13:30 3.24 25 4620 (1952) 0 (1954) 180 0 0 2 3 24 105 189 436 1130
2025-11-11 12:30 3.24 25 4620 (1952) 0 (1954) 180 0 0 2 3 24 105 189 436 1130
2025-11-11 11:30 3.24 25 4620 (1952) 0 (1954) 180 0 0 2 3 24 105 189 436 1130
2025-11-11 10:30 3.24 25 4620 (1952) 0 (1954) 180 0 0 2 3 24 105 189 436 1130
2025-11-11 09:30 3.23 24 4620 (1952) 0 (1954) 180 0 0 2 3 24 105 189 436 1130
2025-11-11 08:30 3.24 25 4620 (1952) 0 (1954) 180 0 0 2 3 24 105 189 436 1130
2025-11-11 07:30 3.23 24 4620 (1952) 0 (1954) 180 0 0 2 3 24 105 189 436 1130
2025-11-11 06:30 3.23 24 4620 (1952) 0 (1954) 180 0 0 2 3 24 105 189 436 1130
2025-11-11 05:30 3.23 24 4620 (1952) 0 (1954) 180 0 0 2 3 24 105 189 436 1130
2025-11-11 04:30 3.23 24 4620 (1952) 0 (1954) 180 0 0 2 3 24 105 189 436 1130
2025-11-11 03:30 3.23 24 4620 (1952) 0 (1954) 180 0 0 2 3 24 105 189 436 1130
2025-11-11 02:30 3.23 24 4620 (1952) 0 (1954) 180 0 0 2 3 24 105 189 436 1130
2025-11-11 01:30 3.22 23 4620 (1952) 0 (1954) 180 0 0 2 3 24 105 189 436 1130
2025-11-11 00:30 3.22 23 4620 (1952) 0 (1954) 180 0 0 2 3 24 105 189 436 1130
2025-11-10 23:30 3.22 23 4620 (1952) 0 (1954) 180 0 0 2 3 24 105 189 436 1130
2025-11-10 22:30 3.22 23 3500 (1952) 0 (2007) 139 0 0 1 2 25 120 174 266 653
2025-11-10 21:30 3.22 23 3500 (1952) 0 (2007) 139 0 0 1 2 25 120 174 266 653
2025-11-10 20:30 3.22 23 3500 (1952) 0 (2007) 139 0 0 1 2 25 120 174 266 653
2025-11-10 19:30 3.22 23 3500 (1952) 0 (2007) 139 0 0 1 2 25 120 174 266 653
2025-11-10 18:30 3.22 23 3500 (1952) 0 (2007) 139 0 0 1 2 25 120 174 266 653
2025-11-10 17:30 3.21 23 3500 (1952) 0 (2007) 139 0 0 1 2 25 120 174 266 653
2025-11-10 16:30 3.21 23 3500 (1952) 0 (2007) 139 0 0 1 2 25 120 174 266 653
2025-11-10 15:30 3.22 23 3500 (1952) 0 (2007) 139 0 0 1 2 25 120 174 266 653
2025-11-10 14:30 3.22 23 3500 (1952) 0 (2007) 139 0 0 1 2 25 120 174 266 653
2025-11-10 13:30 3.21 23 3500 (1952) 0 (2007) 139 0 0 1 2 25 120 174 266 653
2025-11-10 12:30 3.21 23 3500 (1952) 0 (2007) 139 0 0 1 2 25 120 174 266 653
2025-11-10 11:30 3.20 22 3500 (1952) 0 (2007) 139 0 0 1 2 25 120 174 266 653
2025-11-10 10:30 3.20 22 3500 (1952) 0 (2007) 139 0 0 1 2 25 120 174 266 653
2025-11-10 09:30 3.20 22 3500 (1952) 0 (2007) 139 0 0 1 2 25 120 174 266 653
2025-11-10 08:30 3.20 22 3500 (1952) 0 (2007) 139 0 0 1 2 25 120 174 266 653
2025-11-10 07:30 3.20 22 3500 (1952) 0 (2007) 139 0 0 1 2 25 120 174 266 653
2025-11-10 06:30 3.20 22 3500 (1952) 0 (2007) 139 0 0 1 2 25 120 174 266 653
2025-11-10 05:30 3.20 22 3500 (1952) 0 (2007) 139 0 0 1 2 25 120 174 266 653
2025-11-10 04:30 3.20 22 3500 (1952) 0 (2007) 139 0 0 1 2 25 120 174 266 653
2025-11-10 03:30 3.20 22 3500 (1952) 0 (2007) 139 0 0 1 2 25 120 174 266 653
2025-11-10 02:30 3.19 21 3500 (1952) 0 (2007) 139 0 0 1 2 25 120 174 266 653
2025-11-10 01:30 3.19 21 3500 (1952) 0 (2007) 139 0 0 1 2 25 120 174 266 653
2025-11-10 00:30 3.19 21 3500 (1952) 0 (2007) 139 0 0 1 2 25 120 174 266 653
2025-11-09 23:30 3.19 21 3500 (1952) 0 (2007) 139 0 0 1 2 25 120 174 266 653
2025-11-09 22:30 3.19 21 2120 (1926) 0 (1954) 133 0 0 1 2 28 127 178 310 838
2025-11-09 21:30 3.19 21 2120 (1926) 0 (1954) 133 0 0 1 2 28 127 178 310 838
2025-11-09 20:30 3.19 21 2120 (1926) 0 (1954) 133 0 0 1 2 28 127 178 310 838
2025-11-09 19:30 3.19 21 2120 (1926) 0 (1954) 133 0 0 1 2 28 127 178 310 838
2025-11-09 18:30 3.19 21 2120 (1926) 0 (1954) 133 0 0 1 2 28 127 178 310 838
2025-11-09 17:30 3.19 21 2120 (1926) 0 (1954) 133 0 0 1 2 28 127 178 310 838
2025-11-09 16:30 3.19 21 2120 (1926) 0 (1954) 133 0 0 1 2 28 127 178 310 838
2025-11-09 15:30 3.19 21 2120 (1926) 0 (1954) 133 0 0 1 2 28 127 178 310 838
2025-11-09 14:30 3.20 22 2120 (1926) 0 (1954) 133 0 0 1 2 28 127 178 310 838
2025-11-09 13:30 3.18 20 2120 (1926) 0 (1954) 133 0 0 1 2 28 127 178 310 838
2025-11-09 12:30 3.19 21 2120 (1926) 0 (1954) 133 0 0 1 2 28 127 178 310 838
2025-11-09 11:30 3.19 21 2120 (1926) 0 (1954) 133 0 0 1 2 28 127 178 310 838
2025-11-09 10:30 3.19 21 2120 (1926) 0 (1954) 133 0 0 1 2 28 127 178 310 838
2025-11-09 09:30 3.20 22 2120 (1926) 0 (1954) 133 0 0 1 2 28 127 178 310 838
2025-11-09 08:30 3.20 22 2120 (1926) 0 (1954) 133 0 0 1 2 28 127 178 310 838
2025-11-09 07:30 3.19 21 2120 (1926) 0 (1954) 133 0 0 1 2 28 127 178 310 838
2025-11-09 06:30 3.20 22 2120 (1926) 0 (1954) 133 0 0 1 2 28 127 178 310 838
2025-11-09 05:30 3.19 21 2120 (1926) 0 (1954) 133 0 0 1 2 28 127 178 310 838
2025-11-09 04:30 3.19 21 2120 (1926) 0 (1954) 133 0 0 1 2 28 127 178 310 838
2025-11-09 03:30 3.20 22 2120 (1926) 0 (1954) 133 0 0 1 2 28 127 178 310 838
2025-11-09 02:30 3.20 22 2120 (1926) 0 (1954) 133 0 0 1 2 28 127 178 310 838
2025-11-09 01:30 3.20 22 2120 (1926) 0 (1954) 133 0 0 1 2 28 127 178 310 838
2025-11-09 00:30 3.20 22 2120 (1926) 0 (1954) 133 0 0 1 2 28 127 178 310 838
2025-11-08 23:30 3.20 22 2120 (1926) 0 (1954) 133 0 0 1 2 28 127 178 310 838

A total of 4381 rows are displayed for years 1924 through 2026.